<?xml version="1.0" encoding="UTF-8" standalone="no" ?>
<gpx xmlns="http://www.topografix.com/GPX/1/1" xmlns:xsi="http://www.w3.org/2001/XMLSchema-instance" xsi:schemaLocation="http://www.topografix.com/GPX/1/1 http://www.topografix.com/GPX/1/1/gpx.xsd" version="1.1" creator="VisuGPX - https://www.visugpx.com">
  <metadata>
    <name>Cabrières - Valmascle - Vailhan - boucle VTT</name>
    <desc><![CDATA[Trace faite par Jean-Jacques & Kristian.
Quel coup de chance d’avoir trouvé cette trace
Du difficile pour gagner le D+de la première grosse descente en single incroyable d’originalité. 
Et tout le reste était à l’avenant et nous a mis de bonne humeur pour la suite.]]></desc>
  </metadata>
  <trk>
    <name><![CDATA[Cabrières - Valmascle - Vailhan - boucle VTT]]></name>
    <desc><![CDATA[Trace faite par Jean-Jacques & Kristian.]]></desc>
    <extensions>
      <line xmlns="http://www.topografix.com/GPX/gpx_style/0/2">
        <color>0000FF</color>
        <width>4</width>
          <extensions>
            <sens>1</sens>
          </extensions>
      </line>
    </extensions>
    <trkseg>
      <trkpt lat="43.57321" lon="3.36344">
        <ele>100.9</ele>
        <time>2023-05-13T10:56:12.000Z</time>
      </trkpt>
      <trkpt lat="43.57321" lon="3.36344">
        <ele>100.9</ele>
        <time>2023-05-13T10:56:13.000Z</time>
      </trkpt>
      <trkpt lat="43.57322" lon="3.36344">
        <ele>100.9</ele>
        <time>2023-05-13T10:56:14.000Z</time>
      </trkpt>
      <trkpt lat="43.57322" lon="3.36343">
        <ele>100.9</ele>
        <time>2023-05-13T10:56:16.000Z</time>
      </trkpt>
      <trkpt lat="43.57322" lon="3.36343">
        <ele>100.9</ele>
        <time>2023-05-13T10:56:34.000Z</time>
      </trkpt>
      <trkpt lat="43.57322" lon="3.36343">
        <ele>100.9</ele>
        <time>2023-05-13T10:56:36.000Z</time>
      </trkpt>
      <trkpt lat="43.57322" lon="3.36343">
        <ele>100.9</ele>
        <time>2023-05-13T10:56:37.000Z</time>
      </trkpt>
      <trkpt lat="43.57319" lon="3.36343">
        <ele>100.9</ele>
        <time>2023-05-13T10:56:45.000Z</time>
      </trkpt>
      <trkpt lat="43.57319" lon="3.36343">
        <ele>100.9</ele>
        <time>2023-05-13T10:56:46.000Z</time>
      </trkpt>
      <trkpt lat="43.57318" lon="3.36342">
        <ele>100.9</ele>
        <time>2023-05-13T10:56:51.000Z</time>
      </trkpt>
      <trkpt lat="43.57318" lon="3.36342">
        <ele>100.9</ele>
        <time>2023-05-13T10:56:52.000Z</time>
      </trkpt>
      <trkpt lat="43.57318" lon="3.36341">
        <ele>100.9</ele>
        <time>2023-05-13T10:56:56.000Z</time>
      </trkpt>
      <trkpt lat="43.57318" lon="3.36341">
        <ele>100.9</ele>
        <time>2023-05-13T10:56:58.000Z</time>
      </trkpt>
      <trkpt lat="43.57318" lon="3.36341">
        <ele>100.9</ele>
        <time>2023-05-13T10:56:58.000Z</time>
      </trkpt>
      <trkpt lat="43.57318" lon="3.36341">
        <ele>100.9</ele>
        <time>2023-05-13T10:56:59.000Z</time>
      </trkpt>
      <trkpt lat="43.57318" lon="3.36341">
        <ele>100.9</ele>
        <time>2023-05-13T10:57:02.000Z</time>
      </trkpt>
      <trkpt lat="43.57318" lon="3.36341">
        <ele>100.9</ele>
        <time>2023-05-13T10:57:03.000Z</time>
      </trkpt>
      <trkpt lat="43.57319" lon="3.36341">
        <ele>100.9</ele>
        <time>2023-05-13T10:57:05.000Z</time>
      </trkpt>
      <trkpt lat="43.57319" lon="3.36341">
        <ele>100.9</ele>
        <time>2023-05-13T10:57:06.000Z</time>
      </trkpt>
      <trkpt lat="43.57318" lon="3.36341">
        <ele>100.9</ele>
        <time>2023-05-13T10:57:14.000Z</time>
      </trkpt>
      <trkpt lat="43.57318" lon="3.36341">
        <ele>100.9</ele>
        <time>2023-05-13T10:57:15.000Z</time>
      </trkpt>
      <trkpt lat="43.57319" lon="3.36341">
        <ele>100.9</ele>
        <time>2023-05-13T10:57:25.000Z</time>
      </trkpt>
      <trkpt lat="43.57322" lon="3.36349">
        <ele>100.8</ele>
        <time>2023-05-13T10:57:34.000Z</time>
      </trkpt>
      <trkpt lat="43.57322" lon="3.36349">
        <ele>100.8</ele>
        <time>2023-05-13T10:57:36.000Z</time>
      </trkpt>
      <trkpt lat="43.57322" lon="3.36349">
        <ele>100.8</ele>
        <time>2023-05-13T10:57:37.000Z</time>
      </trkpt>
      <trkpt lat="43.57322" lon="3.36349">
        <ele>100.8</ele>
        <time>2023-05-13T10:57:39.000Z</time>
      </trkpt>
      <trkpt lat="43.57322" lon="3.36349">
        <ele>100.8</ele>
        <time>2023-05-13T10:57:40.000Z</time>
      </trkpt>
      <trkpt lat="43.57322" lon="3.3635">
        <ele>100.8</ele>
        <time>2023-05-13T10:58:04.000Z</time>
      </trkpt>
      <trkpt lat="43.57322" lon="3.3635">
        <ele>100.8</ele>
        <time>2023-05-13T10:58:05.000Z</time>
      </trkpt>
      <trkpt lat="43.57321" lon="3.3635">
        <ele>100.8</ele>
        <time>2023-05-13T10:58:06.000Z</time>
      </trkpt>
      <trkpt lat="43.57321" lon="3.3635">
        <ele>100.8</ele>
        <time>2023-05-13T10:58:07.000Z</time>
      </trkpt>
      <trkpt lat="43.57321" lon="3.36351">
        <ele>100.8</ele>
        <time>2023-05-13T10:58:08.000Z</time>
      </trkpt>
      <trkpt lat="43.57321" lon="3.36351">
        <ele>100.8</ele>
        <time>2023-05-13T10:58:09.000Z</time>
      </trkpt>
      <trkpt lat="43.57321" lon="3.36351">
        <ele>100.8</ele>
        <time>2023-05-13T10:58:14.000Z</time>
      </trkpt>
      <trkpt lat="43.57321" lon="3.36351">
        <ele>100.8</ele>
        <time>2023-05-13T10:58:15.000Z</time>
      </trkpt>
      <trkpt lat="43.57321" lon="3.36351">
        <ele>100.8</ele>
        <time>2023-05-13T10:58:16.000Z</time>
      </trkpt>
      <trkpt lat="43.57321" lon="3.36351">
        <ele>100.8</ele>
        <time>2023-05-13T10:58:17.000Z</time>
      </trkpt>
      <trkpt lat="43.57321" lon="3.36351">
        <ele>100.8</ele>
        <time>2023-05-13T10:58:23.000Z</time>
      </trkpt>
      <trkpt lat="43.57321" lon="3.36351">
        <ele>100.8</ele>
        <time>2023-05-13T10:58:24.000Z</time>
      </trkpt>
      <trkpt lat="43.57321" lon="3.36351">
        <ele>100.8</ele>
        <time>2023-05-13T10:58:36.000Z</time>
      </trkpt>
      <trkpt lat="43.57321" lon="3.36351">
        <ele>100.8</ele>
        <time>2023-05-13T10:58:37.000Z</time>
      </trkpt>
      <trkpt lat="43.57321" lon="3.36351">
        <ele>100.7</ele>
        <time>2023-05-13T10:59:16.000Z</time>
      </trkpt>
      <trkpt lat="43.5732" lon="3.36352">
        <ele>100.7</ele>
        <time>2023-05-13T10:59:19.000Z</time>
      </trkpt>
      <trkpt lat="43.5732" lon="3.36352">
        <ele>100.7</ele>
        <time>2023-05-13T10:59:25.000Z</time>
      </trkpt>
      <trkpt lat="43.5732" lon="3.36352">
        <ele>100.7</ele>
        <time>2023-05-13T10:59:27.000Z</time>
      </trkpt>
      <trkpt lat="43.5732" lon="3.36351">
        <ele>100.7</ele>
        <time>2023-05-13T10:59:30.000Z</time>
      </trkpt>
      <trkpt lat="43.5732" lon="3.36351">
        <ele>100.7</ele>
        <time>2023-05-13T10:59:31.000Z</time>
      </trkpt>
      <trkpt lat="43.5732" lon="3.36351">
        <ele>100.7</ele>
        <time>2023-05-13T10:59:32.000Z</time>
      </trkpt>
      <trkpt lat="43.5732" lon="3.36351">
        <ele>100.7</ele>
        <time>2023-05-13T10:59:33.000Z</time>
      </trkpt>
      <trkpt lat="43.5732" lon="3.36351">
        <ele>100.7</ele>
        <time>2023-05-13T10:59:49.000Z</time>
      </trkpt>
      <trkpt lat="43.5732" lon="3.36351">
        <ele>100.7</ele>
        <time>2023-05-13T10:59:50.000Z</time>
      </trkpt>
      <trkpt lat="43.5732" lon="3.36351">
        <ele>100.7</ele>
        <time>2023-05-13T10:59:56.000Z</time>
      </trkpt>
      <trkpt lat="43.5732" lon="3.36351">
        <ele>100.7</ele>
        <time>2023-05-13T10:59:57.000Z</time>
      </trkpt>
      <trkpt lat="43.5732" lon="3.36351">
        <ele>100.7</ele>
        <time>2023-05-13T11:00:01.000Z</time>
      </trkpt>
      <trkpt lat="43.5732" lon="3.36351">
        <ele>100.7</ele>
        <time>2023-05-13T11:00:02.000Z</time>
      </trkpt>
      <trkpt lat="43.57319" lon="3.36351">
        <ele>100.7</ele>
        <time>2023-05-13T11:00:07.000Z</time>
      </trkpt>
      <trkpt lat="43.57319" lon="3.36351">
        <ele>100.7</ele>
        <time>2023-05-13T11:00:08.000Z</time>
      </trkpt>
      <trkpt lat="43.57319" lon="3.36351">
        <ele>100.7</ele>
        <time>2023-05-13T11:00:21.000Z</time>
      </trkpt>
      <trkpt lat="43.57319" lon="3.36351">
        <ele>100.7</ele>
        <time>2023-05-13T11:00:22.000Z</time>
      </trkpt>
      <trkpt lat="43.57319" lon="3.36351">
        <ele>100.7</ele>
        <time>2023-05-13T11:00:37.000Z</time>
      </trkpt>
      <trkpt lat="43.57319" lon="3.36351">
        <ele>100.7</ele>
        <time>2023-05-13T11:00:38.000Z</time>
      </trkpt>
      <trkpt lat="43.5732" lon="3.36351">
        <ele>100.7</ele>
        <time>2023-05-13T11:00:45.000Z</time>
      </trkpt>
      <trkpt lat="43.5732" lon="3.36351">
        <ele>100.7</ele>
        <time>2023-05-13T11:00:46.000Z</time>
      </trkpt>
      <trkpt lat="43.5732" lon="3.36351">
        <ele>100.8</ele>
        <time>2023-05-13T11:00:51.000Z</time>
      </trkpt>
      <trkpt lat="43.5732" lon="3.36351">
        <ele>100.8</ele>
        <time>2023-05-13T11:00:52.000Z</time>
      </trkpt>
      <trkpt lat="43.5732" lon="3.36351">
        <ele>100.8</ele>
        <time>2023-05-13T11:01:00.000Z</time>
      </trkpt>
      <trkpt lat="43.5732" lon="3.36351">
        <ele>100.8</ele>
        <time>2023-05-13T11:01:01.000Z</time>
      </trkpt>
      <trkpt lat="43.5732" lon="3.36351">
        <ele>100.8</ele>
        <time>2023-05-13T11:01:03.000Z</time>
      </trkpt>
      <trkpt lat="43.5732" lon="3.36351">
        <ele>100.8</ele>
        <time>2023-05-13T11:01:04.000Z</time>
      </trkpt>
      <trkpt lat="43.5732" lon="3.36351">
        <ele>100.8</ele>
        <time>2023-05-13T11:01:23.000Z</time>
      </trkpt>
      <trkpt lat="43.5732" lon="3.36351">
        <ele>100.8</ele>
        <time>2023-05-13T11:01:24.000Z</time>
      </trkpt>
      <trkpt lat="43.5732" lon="3.36351">
        <ele>100.8</ele>
        <time>2023-05-13T11:01:39.000Z</time>
      </trkpt>
      <trkpt lat="43.5732" lon="3.36351">
        <ele>100.8</ele>
        <time>2023-05-13T11:01:40.000Z</time>
      </trkpt>
      <trkpt lat="43.57321" lon="3.36351">
        <ele>100.7</ele>
        <time>2023-05-13T11:02:15.000Z</time>
      </trkpt>
      <trkpt lat="43.57321" lon="3.36351">
        <ele>100.7</ele>
        <time>2023-05-13T11:02:16.000Z</time>
      </trkpt>
      <trkpt lat="43.57321" lon="3.36351">
        <ele>100.6</ele>
        <time>2023-05-13T11:02:26.000Z</time>
      </trkpt>
      <trkpt lat="43.57321" lon="3.36351">
        <ele>100.6</ele>
        <time>2023-05-13T11:02:27.000Z</time>
      </trkpt>
      <trkpt lat="43.57321" lon="3.36351">
        <ele>100.5</ele>
        <time>2023-05-13T11:02:36.000Z</time>
      </trkpt>
      <trkpt lat="43.57321" lon="3.36351">
        <ele>100.5</ele>
        <time>2023-05-13T11:02:37.000Z</time>
      </trkpt>
      <trkpt lat="43.57321" lon="3.3635">
        <ele>100.5</ele>
        <time>2023-05-13T11:02:46.000Z</time>
      </trkpt>
      <trkpt lat="43.57321" lon="3.3635">
        <ele>100.5</ele>
        <time>2023-05-13T11:02:48.000Z</time>
      </trkpt>
      <trkpt lat="43.57321" lon="3.3635">
        <ele>100.5</ele>
        <time>2023-05-13T11:02:50.000Z</time>
      </trkpt>
      <trkpt lat="43.57321" lon="3.3635">
        <ele>100.5</ele>
        <time>2023-05-13T11:02:51.000Z</time>
      </trkpt>
      <trkpt lat="43.57322" lon="3.36349">
        <ele>100.4</ele>
        <time>2023-05-13T11:03:14.000Z</time>
      </trkpt>
      <trkpt lat="43.57322" lon="3.36349">
        <ele>100.4</ele>
        <time>2023-05-13T11:03:15.000Z</time>
      </trkpt>
      <trkpt lat="43.57322" lon="3.36349">
        <ele>100.4</ele>
        <time>2023-05-13T11:03:32.000Z</time>
      </trkpt>
      <trkpt lat="43.57322" lon="3.36349">
        <ele>100.4</ele>
        <time>2023-05-13T11:03:33.000Z</time>
      </trkpt>
      <trkpt lat="43.57322" lon="3.36349">
        <ele>100.5</ele>
        <time>2023-05-13T11:04:00.000Z</time>
      </trkpt>
      <trkpt lat="43.57322" lon="3.36349">
        <ele>100.5</ele>
        <time>2023-05-13T11:04:01.000Z</time>
      </trkpt>
      <trkpt lat="43.57322" lon="3.36349">
        <ele>100.6</ele>
        <time>2023-05-13T11:04:55.000Z</time>
      </trkpt>
      <trkpt lat="43.57322" lon="3.36349">
        <ele>100.6</ele>
        <time>2023-05-13T11:04:56.000Z</time>
      </trkpt>
      <trkpt lat="43.57322" lon="3.36349">
        <ele>100.6</ele>
        <time>2023-05-13T11:05:05.000Z</time>
      </trkpt>
      <trkpt lat="43.57322" lon="3.36349">
        <ele>100.6</ele>
        <time>2023-05-13T11:05:06.000Z</time>
      </trkpt>
      <trkpt lat="43.57322" lon="3.36348">
        <ele>100.7</ele>
        <time>2023-05-13T11:05:31.000Z</time>
      </trkpt>
      <trkpt lat="43.57322" lon="3.36348">
        <ele>100.8</ele>
        <time>2023-05-13T11:05:32.000Z</time>
      </trkpt>
      <trkpt lat="43.57323" lon="3.36349">
        <ele>100.9</ele>
        <time>2023-05-13T11:05:55.000Z</time>
      </trkpt>
      <trkpt lat="43.57323" lon="3.36349">
        <ele>100.9</ele>
        <time>2023-05-13T11:05:56.000Z</time>
      </trkpt>
      <trkpt lat="43.57323" lon="3.36348">
        <ele>101.7</ele>
        <time>2023-05-13T11:08:28.000Z</time>
      </trkpt>
      <trkpt lat="43.57323" lon="3.36348">
        <ele>101.7</ele>
        <time>2023-05-13T11:08:29.000Z</time>
      </trkpt>
      <trkpt lat="43.57323" lon="3.36348">
        <ele>101.8</ele>
        <time>2023-05-13T11:09:02.000Z</time>
      </trkpt>
      <trkpt lat="43.57323" lon="3.36348">
        <ele>101.7</ele>
        <time>2023-05-13T11:09:03.000Z</time>
      </trkpt>
      <trkpt lat="43.57323" lon="3.36349">
        <ele>101.7</ele>
        <time>2023-05-13T11:09:13.000Z</time>
      </trkpt>
      <trkpt lat="43.57323" lon="3.36349">
        <ele>101.7</ele>
        <time>2023-05-13T11:09:14.000Z</time>
      </trkpt>
      <trkpt lat="43.57323" lon="3.36349">
        <ele>101.7</ele>
        <time>2023-05-13T11:09:31.000Z</time>
      </trkpt>
      <trkpt lat="43.57323" lon="3.36349">
        <ele>101.7</ele>
        <time>2023-05-13T11:09:32.000Z</time>
      </trkpt>
      <trkpt lat="43.57323" lon="3.36349">
        <ele>101.8</ele>
        <time>2023-05-13T11:09:55.000Z</time>
      </trkpt>
      <trkpt lat="43.57323" lon="3.36349">
        <ele>101.8</ele>
        <time>2023-05-13T11:09:56.000Z</time>
      </trkpt>
      <trkpt lat="43.57324" lon="3.36348">
        <ele>101.9</ele>
        <time>2023-05-13T11:10:11.000Z</time>
      </trkpt>
      <trkpt lat="43.57324" lon="3.36348">
        <ele>101.9</ele>
        <time>2023-05-13T11:10:12.000Z</time>
      </trkpt>
      <trkpt lat="43.57324" lon="3.36348">
        <ele>102.1</ele>
        <time>2023-05-13T11:10:40.000Z</time>
      </trkpt>
      <trkpt lat="43.57324" lon="3.36348">
        <ele>102.1</ele>
        <time>2023-05-13T11:10:41.000Z</time>
      </trkpt>
      <trkpt lat="43.57324" lon="3.36349">
        <ele>102.2</ele>
        <time>2023-05-13T11:11:00.000Z</time>
      </trkpt>
      <trkpt lat="43.57324" lon="3.36349">
        <ele>102.2</ele>
        <time>2023-05-13T11:11:01.000Z</time>
      </trkpt>
      <trkpt lat="43.57323" lon="3.36349">
        <ele>102.4</ele>
        <time>2023-05-13T11:11:40.000Z</time>
      </trkpt>
      <trkpt lat="43.57323" lon="3.36349">
        <ele>102.5</ele>
        <time>2023-05-13T11:11:41.000Z</time>
      </trkpt>
      <trkpt lat="43.57323" lon="3.36349">
        <ele>102.5</ele>
        <time>2023-05-13T11:11:49.000Z</time>
      </trkpt>
      <trkpt lat="43.57323" lon="3.36349">
        <ele>102.5</ele>
        <time>2023-05-13T11:11:51.000Z</time>
      </trkpt>
      <trkpt lat="43.57322" lon="3.36348">
        <ele>102.5</ele>
        <time>2023-05-13T11:11:55.000Z</time>
      </trkpt>
      <trkpt lat="43.57322" lon="3.36336">
        <ele>102.6</ele>
        <time>2023-05-13T11:12:03.000Z</time>
      </trkpt>
      <trkpt lat="43.57331" lon="3.36343">
        <ele>102.8</ele>
        <time>2023-05-13T11:12:14.000Z</time>
      </trkpt>
      <trkpt lat="43.57339" lon="3.36348">
        <ele>102.8</ele>
        <time>2023-05-13T11:12:17.000Z</time>
      </trkpt>
      <trkpt lat="43.57345" lon="3.36359">
        <ele>102.9</ele>
        <time>2023-05-13T11:12:20.000Z</time>
      </trkpt>
      <trkpt lat="43.57352" lon="3.36368">
        <ele>102.9</ele>
        <time>2023-05-13T11:12:23.000Z</time>
      </trkpt>
      <trkpt lat="43.57361" lon="3.36371">
        <ele>103</ele>
        <time>2023-05-13T11:12:26.000Z</time>
      </trkpt>
      <trkpt lat="43.5737" lon="3.36374">
        <ele>103</ele>
        <time>2023-05-13T11:12:29.000Z</time>
      </trkpt>
      <trkpt lat="43.5738" lon="3.36374">
        <ele>103.1</ele>
        <time>2023-05-13T11:12:33.000Z</time>
      </trkpt>
      <trkpt lat="43.57392" lon="3.36371">
        <ele>103.1</ele>
        <time>2023-05-13T11:12:37.000Z</time>
      </trkpt>
      <trkpt lat="43.57401" lon="3.36367">
        <ele>103.2</ele>
        <time>2023-05-13T11:12:40.000Z</time>
      </trkpt>
      <trkpt lat="43.5741" lon="3.36363">
        <ele>103.3</ele>
        <time>2023-05-13T11:12:43.000Z</time>
      </trkpt>
      <trkpt lat="43.5742" lon="3.36359">
        <ele>103.4</ele>
        <time>2023-05-13T11:12:46.000Z</time>
      </trkpt>
      <trkpt lat="43.5743" lon="3.36357">
        <ele>103.4</ele>
        <time>2023-05-13T11:12:49.000Z</time>
      </trkpt>
      <trkpt lat="43.5744" lon="3.36356">
        <ele>103.5</ele>
        <time>2023-05-13T11:12:52.000Z</time>
      </trkpt>
      <trkpt lat="43.5745" lon="3.36357">
        <ele>103.6</ele>
        <time>2023-05-13T11:12:55.000Z</time>
      </trkpt>
      <trkpt lat="43.57461" lon="3.36358">
        <ele>103.7</ele>
        <time>2023-05-13T11:12:58.000Z</time>
      </trkpt>
      <trkpt lat="43.57471" lon="3.36361">
        <ele>103.8</ele>
        <time>2023-05-13T11:13:01.000Z</time>
      </trkpt>
      <trkpt lat="43.57482" lon="3.36363">
        <ele>104</ele>
        <time>2023-05-13T11:13:04.000Z</time>
      </trkpt>
      <trkpt lat="43.57492" lon="3.36365">
        <ele>104.1</ele>
        <time>2023-05-13T11:13:07.000Z</time>
      </trkpt>
      <trkpt lat="43.57502" lon="3.36367">
        <ele>104.3</ele>
        <time>2023-05-13T11:13:10.000Z</time>
      </trkpt>
      <trkpt lat="43.57512" lon="3.36369">
        <ele>104.4</ele>
        <time>2023-05-13T11:13:13.000Z</time>
      </trkpt>
      <trkpt lat="43.57522" lon="3.3637">
        <ele>104.5</ele>
        <time>2023-05-13T11:13:16.000Z</time>
      </trkpt>
      <trkpt lat="43.57533" lon="3.36371">
        <ele>104.7</ele>
        <time>2023-05-13T11:13:19.000Z</time>
      </trkpt>
      <trkpt lat="43.57543" lon="3.36373">
        <ele>104.8</ele>
        <time>2023-05-13T11:13:22.000Z</time>
      </trkpt>
      <trkpt lat="43.57552" lon="3.36374">
        <ele>105</ele>
        <time>2023-05-13T11:13:25.000Z</time>
      </trkpt>
      <trkpt lat="43.57562" lon="3.36376">
        <ele>105.1</ele>
        <time>2023-05-13T11:13:28.000Z</time>
      </trkpt>
      <trkpt lat="43.57571" lon="3.36377">
        <ele>105.3</ele>
        <time>2023-05-13T11:13:31.000Z</time>
      </trkpt>
      <trkpt lat="43.57581" lon="3.36377">
        <ele>105.5</ele>
        <time>2023-05-13T11:13:34.000Z</time>
      </trkpt>
      <trkpt lat="43.57585" lon="3.36366">
        <ele>105.9</ele>
        <time>2023-05-13T11:13:37.000Z</time>
      </trkpt>
      <trkpt lat="43.57586" lon="3.36353">
        <ele>106.2</ele>
        <time>2023-05-13T11:13:40.000Z</time>
      </trkpt>
      <trkpt lat="43.57585" lon="3.36339">
        <ele>106.5</ele>
        <time>2023-05-13T11:13:43.000Z</time>
      </trkpt>
      <trkpt lat="43.57586" lon="3.36326">
        <ele>106.9</ele>
        <time>2023-05-13T11:13:46.000Z</time>
      </trkpt>
      <trkpt lat="43.57587" lon="3.36313">
        <ele>107.2</ele>
        <time>2023-05-13T11:13:49.000Z</time>
      </trkpt>
      <trkpt lat="43.57587" lon="3.36301">
        <ele>107.6</ele>
        <time>2023-05-13T11:13:52.000Z</time>
      </trkpt>
      <trkpt lat="43.57589" lon="3.36285">
        <ele>108.4</ele>
        <time>2023-05-13T11:13:56.000Z</time>
      </trkpt>
      <trkpt lat="43.57595" lon="3.36275">
        <ele>109.1</ele>
        <time>2023-05-13T11:13:59.000Z</time>
      </trkpt>
      <trkpt lat="43.57601" lon="3.36266">
        <ele>110</ele>
        <time>2023-05-13T11:14:02.000Z</time>
      </trkpt>
      <trkpt lat="43.57609" lon="3.36254">
        <ele>111.1</ele>
        <time>2023-05-13T11:14:06.000Z</time>
      </trkpt>
      <trkpt lat="43.57616" lon="3.36245">
        <ele>111.9</ele>
        <time>2023-05-13T11:14:09.000Z</time>
      </trkpt>
      <trkpt lat="43.57623" lon="3.36238">
        <ele>112.5</ele>
        <time>2023-05-13T11:14:12.000Z</time>
      </trkpt>
      <trkpt lat="43.57633" lon="3.36227">
        <ele>113.2</ele>
        <time>2023-05-13T11:14:16.000Z</time>
      </trkpt>
      <trkpt lat="43.57642" lon="3.36217">
        <ele>113.8</ele>
        <time>2023-05-13T11:14:20.000Z</time>
      </trkpt>
      <trkpt lat="43.57651" lon="3.36206">
        <ele>114.5</ele>
        <time>2023-05-13T11:14:24.000Z</time>
      </trkpt>
      <trkpt lat="43.5766" lon="3.36197">
        <ele>115.1</ele>
        <time>2023-05-13T11:14:28.000Z</time>
      </trkpt>
      <trkpt lat="43.57671" lon="3.36189">
        <ele>115.8</ele>
        <time>2023-05-13T11:14:32.000Z</time>
      </trkpt>
      <trkpt lat="43.57677" lon="3.36181">
        <ele>116.3</ele>
        <time>2023-05-13T11:14:35.000Z</time>
      </trkpt>
      <trkpt lat="43.57685" lon="3.36173">
        <ele>116.7</ele>
        <time>2023-05-13T11:14:38.000Z</time>
      </trkpt>
      <trkpt lat="43.57695" lon="3.36165">
        <ele>117.3</ele>
        <time>2023-05-13T11:14:42.000Z</time>
      </trkpt>
      <trkpt lat="43.57703" lon="3.36159">
        <ele>117.8</ele>
        <time>2023-05-13T11:14:45.000Z</time>
      </trkpt>
      <trkpt lat="43.57711" lon="3.36153">
        <ele>118.1</ele>
        <time>2023-05-13T11:14:48.000Z</time>
      </trkpt>
      <trkpt lat="43.57719" lon="3.36142">
        <ele>118.9</ele>
        <time>2023-05-13T11:14:52.000Z</time>
      </trkpt>
      <trkpt lat="43.57727" lon="3.36131">
        <ele>119.8</ele>
        <time>2023-05-13T11:14:56.000Z</time>
      </trkpt>
      <trkpt lat="43.57734" lon="3.3612">
        <ele>120.7</ele>
        <time>2023-05-13T11:15:00.000Z</time>
      </trkpt>
      <trkpt lat="43.5774" lon="3.36108">
        <ele>121.6</ele>
        <time>2023-05-13T11:15:04.000Z</time>
      </trkpt>
      <trkpt lat="43.57747" lon="3.36097">
        <ele>122.8</ele>
        <time>2023-05-13T11:15:08.000Z</time>
      </trkpt>
      <trkpt lat="43.57756" lon="3.36091">
        <ele>124.1</ele>
        <time>2023-05-13T11:15:12.000Z</time>
      </trkpt>
      <trkpt lat="43.57768" lon="3.36094">
        <ele>124.9</ele>
        <time>2023-05-13T11:15:16.000Z</time>
      </trkpt>
      <trkpt lat="43.57781" lon="3.36098">
        <ele>125</ele>
        <time>2023-05-13T11:15:19.000Z</time>
      </trkpt>
      <trkpt lat="43.5779" lon="3.36102">
        <ele>125.1</ele>
        <time>2023-05-13T11:15:21.000Z</time>
      </trkpt>
      <trkpt lat="43.57798" lon="3.36109">
        <ele>125.1</ele>
        <time>2023-05-13T11:15:23.000Z</time>
      </trkpt>
      <trkpt lat="43.57806" lon="3.36122">
        <ele>125.1</ele>
        <time>2023-05-13T11:15:26.000Z</time>
      </trkpt>
      <trkpt lat="43.57813" lon="3.36134">
        <ele>125.2</ele>
        <time>2023-05-13T11:15:29.000Z</time>
      </trkpt>
      <trkpt lat="43.5782" lon="3.36146">
        <ele>125.3</ele>
        <time>2023-05-13T11:15:32.000Z</time>
      </trkpt>
      <trkpt lat="43.57827" lon="3.36155">
        <ele>125.4</ele>
        <time>2023-05-13T11:15:35.000Z</time>
      </trkpt>
      <trkpt lat="43.57834" lon="3.36165">
        <ele>125.6</ele>
        <time>2023-05-13T11:15:38.000Z</time>
      </trkpt>
      <trkpt lat="43.57842" lon="3.36176">
        <ele>125.8</ele>
        <time>2023-05-13T11:15:42.000Z</time>
      </trkpt>
      <trkpt lat="43.5785" lon="3.36186">
        <ele>125.8</ele>
        <time>2023-05-13T11:15:45.000Z</time>
      </trkpt>
      <trkpt lat="43.5786" lon="3.36186">
        <ele>125.8</ele>
        <time>2023-05-13T11:15:48.000Z</time>
      </trkpt>
      <trkpt lat="43.57868" lon="3.36179">
        <ele>126</ele>
        <time>2023-05-13T11:15:51.000Z</time>
      </trkpt>
      <trkpt lat="43.57875" lon="3.36168">
        <ele>126.4</ele>
        <time>2023-05-13T11:15:55.000Z</time>
      </trkpt>
      <trkpt lat="43.57881" lon="3.36158">
        <ele>127.7</ele>
        <time>2023-05-13T11:16:01.000Z</time>
      </trkpt>
      <trkpt lat="43.5789" lon="3.36155">
        <ele>129.9</ele>
        <time>2023-05-13T11:16:10.000Z</time>
      </trkpt>
      <trkpt lat="43.57901" lon="3.36154">
        <ele>131.6</ele>
        <time>2023-05-13T11:16:17.000Z</time>
      </trkpt>
      <trkpt lat="43.5791" lon="3.36152">
        <ele>132.8</ele>
        <time>2023-05-13T11:16:23.000Z</time>
      </trkpt>
      <trkpt lat="43.57919" lon="3.36149">
        <ele>134.5</ele>
        <time>2023-05-13T11:16:29.000Z</time>
      </trkpt>
      <trkpt lat="43.57929" lon="3.36147">
        <ele>136.5</ele>
        <time>2023-05-13T11:16:35.000Z</time>
      </trkpt>
      <trkpt lat="43.57938" lon="3.36139">
        <ele>138.2</ele>
        <time>2023-05-13T11:16:42.000Z</time>
      </trkpt>
      <trkpt lat="43.57944" lon="3.36129">
        <ele>139.3</ele>
        <time>2023-05-13T11:16:49.000Z</time>
      </trkpt>
      <trkpt lat="43.57936" lon="3.36138">
        <ele>139.6</ele>
        <time>2023-05-13T11:16:54.000Z</time>
      </trkpt>
      <trkpt lat="43.57925" lon="3.36146">
        <ele>139.5</ele>
        <time>2023-05-13T11:16:57.000Z</time>
      </trkpt>
      <trkpt lat="43.57911" lon="3.3615">
        <ele>139.2</ele>
        <time>2023-05-13T11:16:59.000Z</time>
      </trkpt>
      <trkpt lat="43.57896" lon="3.36154">
        <ele>138.6</ele>
        <time>2023-05-13T11:17:01.000Z</time>
      </trkpt>
      <trkpt lat="43.57883" lon="3.36158">
        <ele>137.7</ele>
        <time>2023-05-13T11:17:03.000Z</time>
      </trkpt>
      <trkpt lat="43.57872" lon="3.36168">
        <ele>136.1</ele>
        <time>2023-05-13T11:17:05.000Z</time>
      </trkpt>
      <trkpt lat="43.57863" lon="3.3618">
        <ele>134.1</ele>
        <time>2023-05-13T11:17:07.000Z</time>
      </trkpt>
      <trkpt lat="43.57854" lon="3.36186">
        <ele>131.9</ele>
        <time>2023-05-13T11:17:09.000Z</time>
      </trkpt>
      <trkpt lat="43.57843" lon="3.36181">
        <ele>129.3</ele>
        <time>2023-05-13T11:17:12.000Z</time>
      </trkpt>
      <trkpt lat="43.57836" lon="3.3617">
        <ele>128.3</ele>
        <time>2023-05-13T11:17:15.000Z</time>
      </trkpt>
      <trkpt lat="43.57828" lon="3.36158">
        <ele>128.1</ele>
        <time>2023-05-13T11:17:18.000Z</time>
      </trkpt>
      <trkpt lat="43.5782" lon="3.36148">
        <ele>127.9</ele>
        <time>2023-05-13T11:17:20.000Z</time>
      </trkpt>
      <trkpt lat="43.57813" lon="3.36137">
        <ele>127.7</ele>
        <time>2023-05-13T11:17:22.000Z</time>
      </trkpt>
      <trkpt lat="43.57806" lon="3.36124">
        <ele>127.5</ele>
        <time>2023-05-13T11:17:24.000Z</time>
      </trkpt>
      <trkpt lat="43.57798" lon="3.3611">
        <ele>127.3</ele>
        <time>2023-05-13T11:17:26.000Z</time>
      </trkpt>
      <trkpt lat="43.57789" lon="3.36101">
        <ele>127.2</ele>
        <time>2023-05-13T11:17:28.000Z</time>
      </trkpt>
      <trkpt lat="43.57779" lon="3.36096">
        <ele>127</ele>
        <time>2023-05-13T11:17:30.000Z</time>
      </trkpt>
      <trkpt lat="43.5777" lon="3.36093">
        <ele>126.9</ele>
        <time>2023-05-13T11:17:32.000Z</time>
      </trkpt>
      <trkpt lat="43.57761" lon="3.3609">
        <ele>126.9</ele>
        <time>2023-05-13T11:17:34.000Z</time>
      </trkpt>
      <trkpt lat="43.5775" lon="3.36089">
        <ele>127.1</ele>
        <time>2023-05-13T11:17:37.000Z</time>
      </trkpt>
      <trkpt lat="43.57741" lon="3.36097">
        <ele>127</ele>
        <time>2023-05-13T11:17:39.000Z</time>
      </trkpt>
      <trkpt lat="43.57733" lon="3.3611">
        <ele>126.9</ele>
        <time>2023-05-13T11:17:41.000Z</time>
      </trkpt>
      <trkpt lat="43.57723" lon="3.36127">
        <ele>126.6</ele>
        <time>2023-05-13T11:17:43.000Z</time>
      </trkpt>
      <trkpt lat="43.57712" lon="3.36144">
        <ele>126</ele>
        <time>2023-05-13T11:17:45.000Z</time>
      </trkpt>
      <trkpt lat="43.57698" lon="3.36159">
        <ele>125.5</ele>
        <time>2023-05-13T11:17:47.000Z</time>
      </trkpt>
      <trkpt lat="43.57684" lon="3.36171">
        <ele>124.8</ele>
        <time>2023-05-13T11:17:49.000Z</time>
      </trkpt>
      <trkpt lat="43.57673" lon="3.3618">
        <ele>123.8</ele>
        <time>2023-05-13T11:17:51.000Z</time>
      </trkpt>
      <trkpt lat="43.57664" lon="3.3619">
        <ele>122.8</ele>
        <time>2023-05-13T11:17:53.000Z</time>
      </trkpt>
      <trkpt lat="43.57653" lon="3.362">
        <ele>121.8</ele>
        <time>2023-05-13T11:17:55.000Z</time>
      </trkpt>
      <trkpt lat="43.57642" lon="3.36213">
        <ele>121</ele>
        <time>2023-05-13T11:17:57.000Z</time>
      </trkpt>
      <trkpt lat="43.57631" lon="3.36227">
        <ele>120.3</ele>
        <time>2023-05-13T11:17:59.000Z</time>
      </trkpt>
      <trkpt lat="43.5762" lon="3.3624">
        <ele>119.5</ele>
        <time>2023-05-13T11:18:01.000Z</time>
      </trkpt>
      <trkpt lat="43.57608" lon="3.36254">
        <ele>118.8</ele>
        <time>2023-05-13T11:18:03.000Z</time>
      </trkpt>
      <trkpt lat="43.57597" lon="3.3627">
        <ele>117.8</ele>
        <time>2023-05-13T11:18:05.000Z</time>
      </trkpt>
      <trkpt lat="43.57585" lon="3.36287">
        <ele>116.8</ele>
        <time>2023-05-13T11:18:07.000Z</time>
      </trkpt>
      <trkpt lat="43.5758" lon="3.3631">
        <ele>115.8</ele>
        <time>2023-05-13T11:18:09.000Z</time>
      </trkpt>
      <trkpt lat="43.5758" lon="3.36323">
        <ele>115.3</ele>
        <time>2023-05-13T11:18:10.000Z</time>
      </trkpt>
      <trkpt lat="43.57579" lon="3.36346">
        <ele>114.3</ele>
        <time>2023-05-13T11:18:12.000Z</time>
      </trkpt>
      <trkpt lat="43.57578" lon="3.36366">
        <ele>113.2</ele>
        <time>2023-05-13T11:18:14.000Z</time>
      </trkpt>
      <trkpt lat="43.57575" lon="3.3638">
        <ele>111.2</ele>
        <time>2023-05-13T11:18:17.000Z</time>
      </trkpt>
      <trkpt lat="43.57564" lon="3.36379">
        <ele>110</ele>
        <time>2023-05-13T11:18:20.000Z</time>
      </trkpt>
      <trkpt lat="43.57555" lon="3.36376">
        <ele>109.4</ele>
        <time>2023-05-13T11:18:22.000Z</time>
      </trkpt>
      <trkpt lat="43.57545" lon="3.36374">
        <ele>109</ele>
        <time>2023-05-13T11:18:24.000Z</time>
      </trkpt>
      <trkpt lat="43.57535" lon="3.36371">
        <ele>108.8</ele>
        <time>2023-05-13T11:18:26.000Z</time>
      </trkpt>
      <trkpt lat="43.57523" lon="3.36368">
        <ele>108.5</ele>
        <time>2023-05-13T11:18:28.000Z</time>
      </trkpt>
      <trkpt lat="43.57511" lon="3.36366">
        <ele>108.3</ele>
        <time>2023-05-13T11:18:30.000Z</time>
      </trkpt>
      <trkpt lat="43.57499" lon="3.36363">
        <ele>108.1</ele>
        <time>2023-05-13T11:18:32.000Z</time>
      </trkpt>
      <trkpt lat="43.57487" lon="3.3636">
        <ele>107.9</ele>
        <time>2023-05-13T11:18:34.000Z</time>
      </trkpt>
      <trkpt lat="43.57475" lon="3.36358">
        <ele>107.8</ele>
        <time>2023-05-13T11:18:36.000Z</time>
      </trkpt>
      <trkpt lat="43.57463" lon="3.36356">
        <ele>107.7</ele>
        <time>2023-05-13T11:18:38.000Z</time>
      </trkpt>
      <trkpt lat="43.5745" lon="3.36354">
        <ele>107.6</ele>
        <time>2023-05-13T11:18:40.000Z</time>
      </trkpt>
      <trkpt lat="43.57438" lon="3.36352">
        <ele>107.5</ele>
        <time>2023-05-13T11:18:42.000Z</time>
      </trkpt>
      <trkpt lat="43.57425" lon="3.36353">
        <ele>107.3</ele>
        <time>2023-05-13T11:18:44.000Z</time>
      </trkpt>
      <trkpt lat="43.57412" lon="3.36356">
        <ele>107.2</ele>
        <time>2023-05-13T11:18:46.000Z</time>
      </trkpt>
      <trkpt lat="43.57399" lon="3.3636">
        <ele>107.1</ele>
        <time>2023-05-13T11:18:48.000Z</time>
      </trkpt>
      <trkpt lat="43.57386" lon="3.36365">
        <ele>106.9</ele>
        <time>2023-05-13T11:18:50.000Z</time>
      </trkpt>
      <trkpt lat="43.57373" lon="3.3637">
        <ele>106.7</ele>
        <time>2023-05-13T11:18:52.000Z</time>
      </trkpt>
      <trkpt lat="43.5736" lon="3.3637">
        <ele>106.5</ele>
        <time>2023-05-13T11:18:54.000Z</time>
      </trkpt>
      <trkpt lat="43.57348" lon="3.36367">
        <ele>106.4</ele>
        <time>2023-05-13T11:18:56.000Z</time>
      </trkpt>
      <trkpt lat="43.57341" lon="3.36358">
        <ele>106.3</ele>
        <time>2023-05-13T11:18:58.000Z</time>
      </trkpt>
      <trkpt lat="43.57334" lon="3.36344">
        <ele>106.1</ele>
        <time>2023-05-13T11:19:01.000Z</time>
      </trkpt>
      <trkpt lat="43.57324" lon="3.36343">
        <ele>105.9</ele>
        <time>2023-05-13T11:19:05.000Z</time>
      </trkpt>
      <trkpt lat="43.57323" lon="3.36353">
        <ele>105.4</ele>
        <time>2023-05-13T11:19:13.000Z</time>
      </trkpt>
      <trkpt lat="43.57323" lon="3.36353">
        <ele>105</ele>
        <time>2023-05-13T11:20:09.000Z</time>
      </trkpt>
      <trkpt lat="43.57323" lon="3.36353">
        <ele>105</ele>
        <time>2023-05-13T11:20:10.000Z</time>
      </trkpt>
      <trkpt lat="43.57323" lon="3.36353">
        <ele>105.1</ele>
        <time>2023-05-13T11:20:44.000Z</time>
      </trkpt>
      <trkpt lat="43.57323" lon="3.36353">
        <ele>105.1</ele>
        <time>2023-05-13T11:20:45.000Z</time>
      </trkpt>
      <trkpt lat="43.57323" lon="3.36353">
        <ele>105.2</ele>
        <time>2023-05-13T11:20:58.000Z</time>
      </trkpt>
      <trkpt lat="43.57323" lon="3.36353">
        <ele>105.2</ele>
        <time>2023-05-13T11:20:59.000Z</time>
      </trkpt>
      <trkpt lat="43.57324" lon="3.36352">
        <ele>105.2</ele>
        <time>2023-05-13T11:21:01.000Z</time>
      </trkpt>
      <trkpt lat="43.57324" lon="3.36352">
        <ele>105.2</ele>
        <time>2023-05-13T11:21:02.000Z</time>
      </trkpt>
      <trkpt lat="43.57324" lon="3.36353">
        <ele>105.3</ele>
        <time>2023-05-13T11:21:06.000Z</time>
      </trkpt>
      <trkpt lat="43.57324" lon="3.36353">
        <ele>105.3</ele>
        <time>2023-05-13T11:21:07.000Z</time>
      </trkpt>
      <trkpt lat="43.57324" lon="3.36353">
        <ele>105.3</ele>
        <time>2023-05-13T11:21:11.000Z</time>
      </trkpt>
      <trkpt lat="43.57324" lon="3.36353">
        <ele>105.3</ele>
        <time>2023-05-13T11:21:12.000Z</time>
      </trkpt>
      <trkpt lat="43.57324" lon="3.36352">
        <ele>105.3</ele>
        <time>2023-05-13T11:21:13.000Z</time>
      </trkpt>
      <trkpt lat="43.57324" lon="3.36352">
        <ele>105.3</ele>
        <time>2023-05-13T11:21:14.000Z</time>
      </trkpt>
      <trkpt lat="43.57324" lon="3.36352">
        <ele>105.3</ele>
        <time>2023-05-13T11:21:18.000Z</time>
      </trkpt>
      <trkpt lat="43.57324" lon="3.36351">
        <ele>105.3</ele>
        <time>2023-05-13T11:21:20.000Z</time>
      </trkpt>
      <trkpt lat="43.57324" lon="3.36352">
        <ele>105.3</ele>
        <time>2023-05-13T11:21:31.000Z</time>
      </trkpt>
      <trkpt lat="43.57324" lon="3.36352">
        <ele>105.3</ele>
        <time>2023-05-13T11:21:32.000Z</time>
      </trkpt>
      <trkpt lat="43.57324" lon="3.36352">
        <ele>105.3</ele>
        <time>2023-05-13T11:21:36.000Z</time>
      </trkpt>
      <trkpt lat="43.57325" lon="3.36352">
        <ele>105.3</ele>
        <time>2023-05-13T11:21:38.000Z</time>
      </trkpt>
      <trkpt lat="43.57325" lon="3.36352">
        <ele>105.4</ele>
        <time>2023-05-13T11:21:43.000Z</time>
      </trkpt>
      <trkpt lat="43.57325" lon="3.36352">
        <ele>105.4</ele>
        <time>2023-05-13T11:21:44.000Z</time>
      </trkpt>
      <trkpt lat="43.57325" lon="3.36352">
        <ele>105.6</ele>
        <time>2023-05-13T11:22:31.000Z</time>
      </trkpt>
      <trkpt lat="43.57325" lon="3.36352">
        <ele>105.6</ele>
        <time>2023-05-13T11:22:32.000Z</time>
      </trkpt>
      <trkpt lat="43.57325" lon="3.36352">
        <ele>105.7</ele>
        <time>2023-05-13T11:22:55.000Z</time>
      </trkpt>
      <trkpt lat="43.57325" lon="3.36352">
        <ele>105.7</ele>
        <time>2023-05-13T11:22:56.000Z</time>
      </trkpt>
      <trkpt lat="43.57325" lon="3.36352">
        <ele>105.7</ele>
        <time>2023-05-13T11:23:00.000Z</time>
      </trkpt>
      <trkpt lat="43.57325" lon="3.36352">
        <ele>105.7</ele>
        <time>2023-05-13T11:23:02.000Z</time>
      </trkpt>
      <trkpt lat="43.57325" lon="3.36352">
        <ele>105.8</ele>
        <time>2023-05-13T11:24:03.000Z</time>
      </trkpt>
      <trkpt lat="43.57325" lon="3.36352">
        <ele>105.8</ele>
        <time>2023-05-13T11:24:04.000Z</time>
      </trkpt>
      <trkpt lat="43.57325" lon="3.36352">
        <ele>105.8</ele>
        <time>2023-05-13T11:24:24.000Z</time>
      </trkpt>
      <trkpt lat="43.57325" lon="3.36352">
        <ele>105.8</ele>
        <time>2023-05-13T11:24:25.000Z</time>
      </trkpt>
      <trkpt lat="43.57325" lon="3.36352">
        <ele>105.9</ele>
        <time>2023-05-13T11:24:46.000Z</time>
      </trkpt>
      <trkpt lat="43.57325" lon="3.36352">
        <ele>105.9</ele>
        <time>2023-05-13T11:24:47.000Z</time>
      </trkpt>
      <trkpt lat="43.57325" lon="3.36353">
        <ele>106</ele>
        <time>2023-05-13T11:25:24.000Z</time>
      </trkpt>
      <trkpt lat="43.57325" lon="3.36353">
        <ele>106</ele>
        <time>2023-05-13T11:25:25.000Z</time>
      </trkpt>
      <trkpt lat="43.57325" lon="3.36353">
        <ele>106.1</ele>
        <time>2023-05-13T11:25:55.000Z</time>
      </trkpt>
      <trkpt lat="43.57325" lon="3.36353">
        <ele>106.1</ele>
        <time>2023-05-13T11:25:56.000Z</time>
      </trkpt>
      <trkpt lat="43.57325" lon="3.36353">
        <ele>106.3</ele>
        <time>2023-05-13T11:27:05.000Z</time>
      </trkpt>
      <trkpt lat="43.57325" lon="3.36353">
        <ele>106.3</ele>
        <time>2023-05-13T11:27:06.000Z</time>
      </trkpt>
      <trkpt lat="43.57325" lon="3.36353">
        <ele>106.4</ele>
        <time>2023-05-13T11:27:27.000Z</time>
      </trkpt>
      <trkpt lat="43.57325" lon="3.36353">
        <ele>106.4</ele>
        <time>2023-05-13T11:27:28.000Z</time>
      </trkpt>
      <trkpt lat="43.57325" lon="3.36353">
        <ele>106.5</ele>
        <time>2023-05-13T11:27:47.000Z</time>
      </trkpt>
      <trkpt lat="43.57325" lon="3.36353">
        <ele>106.5</ele>
        <time>2023-05-13T11:27:48.000Z</time>
      </trkpt>
      <trkpt lat="43.57325" lon="3.36354">
        <ele>106.6</ele>
        <time>2023-05-13T11:28:06.000Z</time>
      </trkpt>
      <trkpt lat="43.57325" lon="3.36354">
        <ele>106.6</ele>
        <time>2023-05-13T11:28:07.000Z</time>
      </trkpt>
      <trkpt lat="43.57325" lon="3.36354">
        <ele>107</ele>
        <time>2023-05-13T11:29:37.000Z</time>
      </trkpt>
      <trkpt lat="43.57325" lon="3.36354">
        <ele>107</ele>
        <time>2023-05-13T11:29:38.000Z</time>
      </trkpt>
      <trkpt lat="43.57325" lon="3.36354">
        <ele>107.1</ele>
        <time>2023-05-13T11:29:58.000Z</time>
      </trkpt>
      <trkpt lat="43.57325" lon="3.36354">
        <ele>107.1</ele>
        <time>2023-05-13T11:29:59.000Z</time>
      </trkpt>
      <trkpt lat="43.57325" lon="3.36354">
        <ele>107.2</ele>
        <time>2023-05-13T11:30:33.000Z</time>
      </trkpt>
      <trkpt lat="43.57325" lon="3.36354">
        <ele>107.2</ele>
        <time>2023-05-13T11:30:34.000Z</time>
      </trkpt>
      <trkpt lat="43.57325" lon="3.36354">
        <ele>107.7</ele>
        <time>2023-05-13T11:32:19.000Z</time>
      </trkpt>
      <trkpt lat="43.57325" lon="3.36354">
        <ele>107.7</ele>
        <time>2023-05-13T11:32:20.000Z</time>
      </trkpt>
      <trkpt lat="43.57325" lon="3.36354">
        <ele>108</ele>
        <time>2023-05-13T11:34:23.000Z</time>
      </trkpt>
      <trkpt lat="43.57325" lon="3.36354">
        <ele>108</ele>
        <time>2023-05-13T11:34:24.000Z</time>
      </trkpt>
      <trkpt lat="43.57325" lon="3.36354">
        <ele>108.2</ele>
        <time>2023-05-13T11:35:31.000Z</time>
      </trkpt>
      <trkpt lat="43.57325" lon="3.36354">
        <ele>108.2</ele>
        <time>2023-05-13T11:35:32.000Z</time>
      </trkpt>
      <trkpt lat="43.57325" lon="3.36354">
        <ele>108.6</ele>
        <time>2023-05-13T11:37:13.000Z</time>
      </trkpt>
      <trkpt lat="43.57325" lon="3.36354">
        <ele>108.6</ele>
        <time>2023-05-13T11:37:14.000Z</time>
      </trkpt>
      <trkpt lat="43.57325" lon="3.36354">
        <ele>108.9</ele>
        <time>2023-05-13T11:40:22.000Z</time>
      </trkpt>
      <trkpt lat="43.57325" lon="3.36354">
        <ele>108.9</ele>
        <time>2023-05-13T11:40:23.000Z</time>
      </trkpt>
      <trkpt lat="43.57325" lon="3.36354">
        <ele>108.9</ele>
        <time>2023-05-13T11:41:14.000Z</time>
      </trkpt>
      <trkpt lat="43.57325" lon="3.36354">
        <ele>108.9</ele>
        <time>2023-05-13T11:41:15.000Z</time>
      </trkpt>
      <trkpt lat="43.57326" lon="3.36354">
        <ele>109</ele>
        <time>2023-05-13T11:42:00.000Z</time>
      </trkpt>
      <trkpt lat="43.57326" lon="3.36354">
        <ele>109</ele>
        <time>2023-05-13T11:42:01.000Z</time>
      </trkpt>
      <trkpt lat="43.57326" lon="3.36354">
        <ele>109</ele>
        <time>2023-05-13T11:42:18.000Z</time>
      </trkpt>
      <trkpt lat="43.57326" lon="3.36354">
        <ele>109</ele>
        <time>2023-05-13T11:42:19.000Z</time>
      </trkpt>
      <trkpt lat="43.57326" lon="3.36354">
        <ele>109</ele>
        <time>2023-05-13T11:42:24.000Z</time>
      </trkpt>
      <trkpt lat="43.57326" lon="3.36354">
        <ele>109</ele>
        <time>2023-05-13T11:42:25.000Z</time>
      </trkpt>
      <trkpt lat="43.57326" lon="3.36355">
        <ele>109.2</ele>
        <time>2023-05-13T11:44:37.000Z</time>
      </trkpt>
      <trkpt lat="43.57326" lon="3.36355">
        <ele>109.2</ele>
        <time>2023-05-13T11:44:38.000Z</time>
      </trkpt>
      <trkpt lat="43.57326" lon="3.36355">
        <ele>109.1</ele>
        <time>2023-05-13T11:46:14.000Z</time>
      </trkpt>
      <trkpt lat="43.57326" lon="3.36355">
        <ele>109.1</ele>
        <time>2023-05-13T11:46:15.000Z</time>
      </trkpt>
      <trkpt lat="43.57326" lon="3.36355">
        <ele>108.9</ele>
        <time>2023-05-13T11:47:06.000Z</time>
      </trkpt>
      <trkpt lat="43.57326" lon="3.36355">
        <ele>108.9</ele>
        <time>2023-05-13T11:47:08.000Z</time>
      </trkpt>
      <trkpt lat="43.57326" lon="3.36355">
        <ele>108.7</ele>
        <time>2023-05-13T11:47:44.000Z</time>
      </trkpt>
      <trkpt lat="43.57326" lon="3.36355">
        <ele>108.7</ele>
        <time>2023-05-13T11:47:45.000Z</time>
      </trkpt>
      <trkpt lat="43.57327" lon="3.36354">
        <ele>108.9</ele>
        <time>2023-05-13T11:49:22.000Z</time>
      </trkpt>
      <trkpt lat="43.57327" lon="3.36354">
        <ele>108.9</ele>
        <time>2023-05-13T11:49:23.000Z</time>
      </trkpt>
      <trkpt lat="43.57326" lon="3.36354">
        <ele>108.9</ele>
        <time>2023-05-13T11:49:24.000Z</time>
      </trkpt>
      <trkpt lat="43.57326" lon="3.36355">
        <ele>108.9</ele>
        <time>2023-05-13T11:49:28.000Z</time>
      </trkpt>
      <trkpt lat="43.57326" lon="3.36355">
        <ele>108.9</ele>
        <time>2023-05-13T11:49:29.000Z</time>
      </trkpt>
      <trkpt lat="43.57326" lon="3.36355">
        <ele>108.9</ele>
        <time>2023-05-13T11:49:31.000Z</time>
      </trkpt>
      <trkpt lat="43.57326" lon="3.36354">
        <ele>109.2</ele>
        <time>2023-05-13T11:50:17.000Z</time>
      </trkpt>
      <trkpt lat="43.57326" lon="3.36354">
        <ele>109.2</ele>
        <time>2023-05-13T11:50:18.000Z</time>
      </trkpt>
      <trkpt lat="43.57325" lon="3.36354">
        <ele>109.1</ele>
        <time>2023-05-13T11:51:53.000Z</time>
      </trkpt>
      <trkpt lat="43.57325" lon="3.36354">
        <ele>109.1</ele>
        <time>2023-05-13T11:51:54.000Z</time>
      </trkpt>
      <trkpt lat="43.57325" lon="3.36354">
        <ele>109</ele>
        <time>2023-05-13T11:52:39.000Z</time>
      </trkpt>
      <trkpt lat="43.57325" lon="3.36354">
        <ele>109</ele>
        <time>2023-05-13T11:52:40.000Z</time>
      </trkpt>
      <trkpt lat="43.57325" lon="3.36354">
        <ele>108.9</ele>
        <time>2023-05-13T11:53:35.000Z</time>
      </trkpt>
      <trkpt lat="43.57325" lon="3.36354">
        <ele>108.9</ele>
        <time>2023-05-13T11:53:36.000Z</time>
      </trkpt>
      <trkpt lat="43.57325" lon="3.36353">
        <ele>108.9</ele>
        <time>2023-05-13T11:54:03.000Z</time>
      </trkpt>
      <trkpt lat="43.57325" lon="3.36353">
        <ele>108.9</ele>
        <time>2023-05-13T11:54:04.000Z</time>
      </trkpt>
      <trkpt lat="43.57325" lon="3.36353">
        <ele>109</ele>
        <time>2023-05-13T11:54:45.000Z</time>
      </trkpt>
      <trkpt lat="43.57325" lon="3.36353">
        <ele>109</ele>
        <time>2023-05-13T11:54:46.000Z</time>
      </trkpt>
      <trkpt lat="43.57324" lon="3.36353">
        <ele>109.1</ele>
        <time>2023-05-13T11:55:14.000Z</time>
      </trkpt>
      <trkpt lat="43.57323" lon="3.36352">
        <ele>109.1</ele>
        <time>2023-05-13T11:55:20.000Z</time>
      </trkpt>
      <trkpt lat="43.57323" lon="3.36352">
        <ele>109.1</ele>
        <time>2023-05-13T11:55:24.000Z</time>
      </trkpt>
      <trkpt lat="43.57317" lon="3.3634">
        <ele>109.1</ele>
        <time>2023-05-13T11:55:31.000Z</time>
      </trkpt>
      <trkpt lat="43.57326" lon="3.3634">
        <ele>109.1</ele>
        <time>2023-05-13T11:55:35.000Z</time>
      </trkpt>
      <trkpt lat="43.57334" lon="3.36347">
        <ele>109.1</ele>
        <time>2023-05-13T11:55:38.000Z</time>
      </trkpt>
      <trkpt lat="43.57341" lon="3.36357">
        <ele>109.1</ele>
        <time>2023-05-13T11:55:41.000Z</time>
      </trkpt>
      <trkpt lat="43.57348" lon="3.36366">
        <ele>109.2</ele>
        <time>2023-05-13T11:55:44.000Z</time>
      </trkpt>
      <trkpt lat="43.57356" lon="3.36372">
        <ele>109.2</ele>
        <time>2023-05-13T11:55:47.000Z</time>
      </trkpt>
      <trkpt lat="43.57366" lon="3.36374">
        <ele>109.3</ele>
        <time>2023-05-13T11:55:50.000Z</time>
      </trkpt>
      <trkpt lat="43.57376" lon="3.36374">
        <ele>109.4</ele>
        <time>2023-05-13T11:55:53.000Z</time>
      </trkpt>
      <trkpt lat="43.57386" lon="3.36371">
        <ele>109.4</ele>
        <time>2023-05-13T11:55:56.000Z</time>
      </trkpt>
      <trkpt lat="43.57395" lon="3.36367">
        <ele>109.5</ele>
        <time>2023-05-13T11:55:59.000Z</time>
      </trkpt>
      <trkpt lat="43.57404" lon="3.36363">
        <ele>109.6</ele>
        <time>2023-05-13T11:56:03.000Z</time>
      </trkpt>
      <trkpt lat="43.57415" lon="3.3636">
        <ele>109.8</ele>
        <time>2023-05-13T11:56:08.000Z</time>
      </trkpt>
      <trkpt lat="43.57424" lon="3.36356">
        <ele>109.9</ele>
        <time>2023-05-13T11:56:12.000Z</time>
      </trkpt>
      <trkpt lat="43.57434" lon="3.36354">
        <ele>110.1</ele>
        <time>2023-05-13T11:56:16.000Z</time>
      </trkpt>
      <trkpt lat="43.57446" lon="3.36356">
        <ele>110.3</ele>
        <time>2023-05-13T11:56:20.000Z</time>
      </trkpt>
      <trkpt lat="43.57455" lon="3.36357">
        <ele>110.5</ele>
        <time>2023-05-13T11:56:23.000Z</time>
      </trkpt>
      <trkpt lat="43.57466" lon="3.3636">
        <ele>110.7</ele>
        <time>2023-05-13T11:56:27.000Z</time>
      </trkpt>
      <trkpt lat="43.57478" lon="3.36363">
        <ele>110.9</ele>
        <time>2023-05-13T11:56:31.000Z</time>
      </trkpt>
      <trkpt lat="43.57488" lon="3.36365">
        <ele>111</ele>
        <time>2023-05-13T11:56:34.000Z</time>
      </trkpt>
      <trkpt lat="43.57497" lon="3.36367">
        <ele>111.1</ele>
        <time>2023-05-13T11:56:37.000Z</time>
      </trkpt>
      <trkpt lat="43.57507" lon="3.36369">
        <ele>111.3</ele>
        <time>2023-05-13T11:56:40.000Z</time>
      </trkpt>
      <trkpt lat="43.57517" lon="3.3637">
        <ele>111.4</ele>
        <time>2023-05-13T11:56:43.000Z</time>
      </trkpt>
      <trkpt lat="43.57528" lon="3.36371">
        <ele>111.6</ele>
        <time>2023-05-13T11:56:46.000Z</time>
      </trkpt>
      <trkpt lat="43.57538" lon="3.36373">
        <ele>111.8</ele>
        <time>2023-05-13T11:56:49.000Z</time>
      </trkpt>
      <trkpt lat="43.57549" lon="3.36375">
        <ele>112</ele>
        <time>2023-05-13T11:56:52.000Z</time>
      </trkpt>
      <trkpt lat="43.5756" lon="3.36377">
        <ele>112.1</ele>
        <time>2023-05-13T11:56:55.000Z</time>
      </trkpt>
      <trkpt lat="43.5757" lon="3.36379">
        <ele>112.3</ele>
        <time>2023-05-13T11:56:58.000Z</time>
      </trkpt>
      <trkpt lat="43.5758" lon="3.36377">
        <ele>112.5</ele>
        <time>2023-05-13T11:57:01.000Z</time>
      </trkpt>
      <trkpt lat="43.57584" lon="3.36364">
        <ele>112.7</ele>
        <time>2023-05-13T11:57:04.000Z</time>
      </trkpt>
      <trkpt lat="43.57585" lon="3.3635">
        <ele>112.9</ele>
        <time>2023-05-13T11:57:07.000Z</time>
      </trkpt>
      <trkpt lat="43.57585" lon="3.36335">
        <ele>113.2</ele>
        <time>2023-05-13T11:57:10.000Z</time>
      </trkpt>
      <trkpt lat="43.57585" lon="3.36322">
        <ele>113.6</ele>
        <time>2023-05-13T11:57:13.000Z</time>
      </trkpt>
      <trkpt lat="43.57585" lon="3.36306">
        <ele>114.3</ele>
        <time>2023-05-13T11:57:17.000Z</time>
      </trkpt>
      <trkpt lat="43.57586" lon="3.3629">
        <ele>115</ele>
        <time>2023-05-13T11:57:21.000Z</time>
      </trkpt>
      <trkpt lat="43.57592" lon="3.36278">
        <ele>115.7</ele>
        <time>2023-05-13T11:57:25.000Z</time>
      </trkpt>
      <trkpt lat="43.576" lon="3.36267">
        <ele>116.6</ele>
        <time>2023-05-13T11:57:29.000Z</time>
      </trkpt>
      <trkpt lat="43.57607" lon="3.36258">
        <ele>117.5</ele>
        <time>2023-05-13T11:57:33.000Z</time>
      </trkpt>
      <trkpt lat="43.57615" lon="3.36245">
        <ele>118.5</ele>
        <time>2023-05-13T11:57:37.000Z</time>
      </trkpt>
      <trkpt lat="43.57624" lon="3.36235">
        <ele>119.4</ele>
        <time>2023-05-13T11:57:41.000Z</time>
      </trkpt>
      <trkpt lat="43.57634" lon="3.36226">
        <ele>120</ele>
        <time>2023-05-13T11:57:45.000Z</time>
      </trkpt>
      <trkpt lat="43.5764" lon="3.36217">
        <ele>120.5</ele>
        <time>2023-05-13T11:57:48.000Z</time>
      </trkpt>
      <trkpt lat="43.57649" lon="3.36208">
        <ele>121.4</ele>
        <time>2023-05-13T11:57:52.000Z</time>
      </trkpt>
      <trkpt lat="43.57658" lon="3.36199">
        <ele>122</ele>
        <time>2023-05-13T11:57:56.000Z</time>
      </trkpt>
      <trkpt lat="43.57665" lon="3.36192">
        <ele>122.6</ele>
        <time>2023-05-13T11:58:00.000Z</time>
      </trkpt>
      <trkpt lat="43.57674" lon="3.3619">
        <ele>123.5</ele>
        <time>2023-05-13T11:58:06.000Z</time>
      </trkpt>
      <trkpt lat="43.57675" lon="3.36187">
        <ele>123.9</ele>
        <time>2023-05-13T11:58:10.000Z</time>
      </trkpt>
      <trkpt lat="43.57675" lon="3.36186">
        <ele>124.8</ele>
        <time>2023-05-13T11:58:45.000Z</time>
      </trkpt>
      <trkpt lat="43.57683" lon="3.36176">
        <ele>124.9</ele>
        <time>2023-05-13T11:58:53.000Z</time>
      </trkpt>
      <trkpt lat="43.57693" lon="3.36168">
        <ele>125.1</ele>
        <time>2023-05-13T11:58:57.000Z</time>
      </trkpt>
      <trkpt lat="43.57701" lon="3.36161">
        <ele>125.2</ele>
        <time>2023-05-13T11:59:00.000Z</time>
      </trkpt>
      <trkpt lat="43.57711" lon="3.36153">
        <ele>125.4</ele>
        <time>2023-05-13T11:59:04.000Z</time>
      </trkpt>
      <trkpt lat="43.57719" lon="3.36142">
        <ele>125.9</ele>
        <time>2023-05-13T11:59:08.000Z</time>
      </trkpt>
      <trkpt lat="43.57726" lon="3.36131">
        <ele>126.6</ele>
        <time>2023-05-13T11:59:13.000Z</time>
      </trkpt>
      <trkpt lat="43.57734" lon="3.36118">
        <ele>127.3</ele>
        <time>2023-05-13T11:59:17.000Z</time>
      </trkpt>
      <trkpt lat="43.57741" lon="3.36106">
        <ele>128.5</ele>
        <time>2023-05-13T11:59:21.000Z</time>
      </trkpt>
      <trkpt lat="43.57748" lon="3.36096">
        <ele>129.8</ele>
        <time>2023-05-13T11:59:25.000Z</time>
      </trkpt>
      <trkpt lat="43.57756" lon="3.36089">
        <ele>131.5</ele>
        <time>2023-05-13T11:59:30.000Z</time>
      </trkpt>
      <trkpt lat="43.57765" lon="3.36093">
        <ele>133.3</ele>
        <time>2023-05-13T11:59:43.000Z</time>
      </trkpt>
      <trkpt lat="43.57774" lon="3.36097">
        <ele>133.3</ele>
        <time>2023-05-13T11:59:46.000Z</time>
      </trkpt>
      <trkpt lat="43.57786" lon="3.361">
        <ele>133.2</ele>
        <time>2023-05-13T11:59:49.000Z</time>
      </trkpt>
      <trkpt lat="43.57797" lon="3.36108">
        <ele>133.1</ele>
        <time>2023-05-13T11:59:52.000Z</time>
      </trkpt>
      <trkpt lat="43.57804" lon="3.36119">
        <ele>133.1</ele>
        <time>2023-05-13T11:59:55.000Z</time>
      </trkpt>
      <trkpt lat="43.57811" lon="3.36131">
        <ele>133</ele>
        <time>2023-05-13T11:59:58.000Z</time>
      </trkpt>
      <trkpt lat="43.57818" lon="3.36143">
        <ele>133</ele>
        <time>2023-05-13T12:00:01.000Z</time>
      </trkpt>
      <trkpt lat="43.57825" lon="3.36152">
        <ele>133.1</ele>
        <time>2023-05-13T12:00:04.000Z</time>
      </trkpt>
      <trkpt lat="43.57833" lon="3.36164">
        <ele>133.2</ele>
        <time>2023-05-13T12:00:08.000Z</time>
      </trkpt>
      <trkpt lat="43.57841" lon="3.36175">
        <ele>133.4</ele>
        <time>2023-05-13T12:00:12.000Z</time>
      </trkpt>
      <trkpt lat="43.57847" lon="3.36184">
        <ele>133.4</ele>
        <time>2023-05-13T12:00:15.000Z</time>
      </trkpt>
      <trkpt lat="43.57856" lon="3.36186">
        <ele>133.4</ele>
        <time>2023-05-13T12:00:18.000Z</time>
      </trkpt>
      <trkpt lat="43.57866" lon="3.36181">
        <ele>133.6</ele>
        <time>2023-05-13T12:00:22.000Z</time>
      </trkpt>
      <trkpt lat="43.57873" lon="3.3617">
        <ele>133.9</ele>
        <time>2023-05-13T12:00:27.000Z</time>
      </trkpt>
      <trkpt lat="43.57879" lon="3.36159">
        <ele>134.5</ele>
        <time>2023-05-13T12:00:32.000Z</time>
      </trkpt>
      <trkpt lat="43.57887" lon="3.36153">
        <ele>136.4</ele>
        <time>2023-05-13T12:00:39.000Z</time>
      </trkpt>
      <trkpt lat="43.57887" lon="3.36153">
        <ele>137.2</ele>
        <time>2023-05-13T12:00:43.000Z</time>
      </trkpt>
      <trkpt lat="43.57887" lon="3.36153">
        <ele>137.4</ele>
        <time>2023-05-13T12:00:44.000Z</time>
      </trkpt>
      <trkpt lat="43.57887" lon="3.36153">
        <ele>138.1</ele>
        <time>2023-05-13T12:00:51.000Z</time>
      </trkpt>
      <trkpt lat="43.57888" lon="3.36152">
        <ele>138.4</ele>
        <time>2023-05-13T12:00:54.000Z</time>
      </trkpt>
      <trkpt lat="43.57888" lon="3.36152">
        <ele>138.8</ele>
        <time>2023-05-13T12:01:04.000Z</time>
      </trkpt>
      <trkpt lat="43.57888" lon="3.36152">
        <ele>138.8</ele>
        <time>2023-05-13T12:01:05.000Z</time>
      </trkpt>
      <trkpt lat="43.57888" lon="3.36152">
        <ele>139</ele>
        <time>2023-05-13T12:01:16.000Z</time>
      </trkpt>
      <trkpt lat="43.57888" lon="3.36152">
        <ele>139</ele>
        <time>2023-05-13T12:01:17.000Z</time>
      </trkpt>
      <trkpt lat="43.57887" lon="3.36152">
        <ele>139.1</ele>
        <time>2023-05-13T12:01:30.000Z</time>
      </trkpt>
      <trkpt lat="43.57887" lon="3.36152">
        <ele>139.2</ele>
        <time>2023-05-13T12:01:31.000Z</time>
      </trkpt>
      <trkpt lat="43.57887" lon="3.36152">
        <ele>139.2</ele>
        <time>2023-05-13T12:01:41.000Z</time>
      </trkpt>
      <trkpt lat="43.57887" lon="3.36152">
        <ele>139.2</ele>
        <time>2023-05-13T12:01:42.000Z</time>
      </trkpt>
      <trkpt lat="43.57887" lon="3.36152">
        <ele>139.2</ele>
        <time>2023-05-13T12:01:49.000Z</time>
      </trkpt>
      <trkpt lat="43.57887" lon="3.36152">
        <ele>139.2</ele>
        <time>2023-05-13T12:01:50.000Z</time>
      </trkpt>
      <trkpt lat="43.57887" lon="3.36153">
        <ele>139.4</ele>
        <time>2023-05-13T12:02:38.000Z</time>
      </trkpt>
      <trkpt lat="43.57887" lon="3.36153">
        <ele>139.4</ele>
        <time>2023-05-13T12:02:39.000Z</time>
      </trkpt>
      <trkpt lat="43.57887" lon="3.36153">
        <ele>139.5</ele>
        <time>2023-05-13T12:03:04.000Z</time>
      </trkpt>
      <trkpt lat="43.57886" lon="3.36153">
        <ele>139.5</ele>
        <time>2023-05-13T12:03:08.000Z</time>
      </trkpt>
      <trkpt lat="43.57886" lon="3.36153">
        <ele>139.5</ele>
        <time>2023-05-13T12:03:10.000Z</time>
      </trkpt>
      <trkpt lat="43.57886" lon="3.36153">
        <ele>139.5</ele>
        <time>2023-05-13T12:03:11.000Z</time>
      </trkpt>
      <trkpt lat="43.57886" lon="3.36152">
        <ele>139.5</ele>
        <time>2023-05-13T12:03:13.000Z</time>
      </trkpt>
      <trkpt lat="43.57885" lon="3.36152">
        <ele>139.5</ele>
        <time>2023-05-13T12:03:17.000Z</time>
      </trkpt>
      <trkpt lat="43.57885" lon="3.36152">
        <ele>139.5</ele>
        <time>2023-05-13T12:03:20.000Z</time>
      </trkpt>
      <trkpt lat="43.57885" lon="3.36152">
        <ele>139.5</ele>
        <time>2023-05-13T12:03:21.000Z</time>
      </trkpt>
      <trkpt lat="43.57885" lon="3.36152">
        <ele>139.5</ele>
        <time>2023-05-13T12:03:37.000Z</time>
      </trkpt>
      <trkpt lat="43.57885" lon="3.36152">
        <ele>139.5</ele>
        <time>2023-05-13T12:03:38.000Z</time>
      </trkpt>
      <trkpt lat="43.57886" lon="3.36153">
        <ele>139.4</ele>
        <time>2023-05-13T12:04:21.000Z</time>
      </trkpt>
      <trkpt lat="43.57886" lon="3.36153">
        <ele>139.4</ele>
        <time>2023-05-13T12:04:22.000Z</time>
      </trkpt>
      <trkpt lat="43.57886" lon="3.36154">
        <ele>138.6</ele>
        <time>2023-05-13T12:07:58.000Z</time>
      </trkpt>
      <trkpt lat="43.57886" lon="3.36154">
        <ele>138.6</ele>
        <time>2023-05-13T12:08:00.000Z</time>
      </trkpt>
      <trkpt lat="43.57886" lon="3.36154">
        <ele>138.6</ele>
        <time>2023-05-13T12:08:04.000Z</time>
      </trkpt>
      <trkpt lat="43.57886" lon="3.36154">
        <ele>138.6</ele>
        <time>2023-05-13T12:08:05.000Z</time>
      </trkpt>
      <trkpt lat="43.57886" lon="3.36154">
        <ele>138.6</ele>
        <time>2023-05-13T12:08:06.000Z</time>
      </trkpt>
      <trkpt lat="43.57885" lon="3.36154">
        <ele>138.6</ele>
        <time>2023-05-13T12:08:08.000Z</time>
      </trkpt>
      <trkpt lat="43.57885" lon="3.36154">
        <ele>138.6</ele>
        <time>2023-05-13T12:08:18.000Z</time>
      </trkpt>
      <trkpt lat="43.57885" lon="3.36155">
        <ele>138.6</ele>
        <time>2023-05-13T12:08:19.000Z</time>
      </trkpt>
      <trkpt lat="43.57886" lon="3.36155">
        <ele>138.5</ele>
        <time>2023-05-13T12:08:24.000Z</time>
      </trkpt>
      <trkpt lat="43.57886" lon="3.36155">
        <ele>138.5</ele>
        <time>2023-05-13T12:08:26.000Z</time>
      </trkpt>
      <trkpt lat="43.57886" lon="3.36155">
        <ele>138.6</ele>
        <time>2023-05-13T12:08:28.000Z</time>
      </trkpt>
      <trkpt lat="43.57885" lon="3.36155">
        <ele>138.6</ele>
        <time>2023-05-13T12:08:30.000Z</time>
      </trkpt>
      <trkpt lat="43.57885" lon="3.36155">
        <ele>138.5</ele>
        <time>2023-05-13T12:08:56.000Z</time>
      </trkpt>
      <trkpt lat="43.57885" lon="3.36155">
        <ele>138.5</ele>
        <time>2023-05-13T12:08:57.000Z</time>
      </trkpt>
      <trkpt lat="43.57885" lon="3.36154">
        <ele>138.5</ele>
        <time>2023-05-13T12:09:06.000Z</time>
      </trkpt>
      <trkpt lat="43.57885" lon="3.36154">
        <ele>138.5</ele>
        <time>2023-05-13T12:09:07.000Z</time>
      </trkpt>
      <trkpt lat="43.57885" lon="3.36154">
        <ele>138.5</ele>
        <time>2023-05-13T12:09:23.000Z</time>
      </trkpt>
      <trkpt lat="43.57885" lon="3.36154">
        <ele>138.5</ele>
        <time>2023-05-13T12:09:24.000Z</time>
      </trkpt>
      <trkpt lat="43.57885" lon="3.36154">
        <ele>138.5</ele>
        <time>2023-05-13T12:09:27.000Z</time>
      </trkpt>
      <trkpt lat="43.57886" lon="3.36157">
        <ele>138.5</ele>
        <time>2023-05-13T12:09:32.000Z</time>
      </trkpt>
      <trkpt lat="43.57886" lon="3.36157">
        <ele>138.5</ele>
        <time>2023-05-13T12:09:33.000Z</time>
      </trkpt>
      <trkpt lat="43.57886" lon="3.36157">
        <ele>138.5</ele>
        <time>2023-05-13T12:09:34.000Z</time>
      </trkpt>
      <trkpt lat="43.57886" lon="3.36158">
        <ele>138.5</ele>
        <time>2023-05-13T12:09:35.000Z</time>
      </trkpt>
      <trkpt lat="43.57886" lon="3.36158">
        <ele>138.5</ele>
        <time>2023-05-13T12:09:36.000Z</time>
      </trkpt>
      <trkpt lat="43.57886" lon="3.36157">
        <ele>138.4</ele>
        <time>2023-05-13T12:09:48.000Z</time>
      </trkpt>
      <trkpt lat="43.57886" lon="3.36157">
        <ele>138.4</ele>
        <time>2023-05-13T12:09:49.000Z</time>
      </trkpt>
      <trkpt lat="43.57886" lon="3.36157">
        <ele>138.2</ele>
        <time>2023-05-13T12:10:20.000Z</time>
      </trkpt>
      <trkpt lat="43.57886" lon="3.36156">
        <ele>138.2</ele>
        <time>2023-05-13T12:10:23.000Z</time>
      </trkpt>
      <trkpt lat="43.57886" lon="3.36157">
        <ele>138.2</ele>
        <time>2023-05-13T12:10:24.000Z</time>
      </trkpt>
      <trkpt lat="43.57887" lon="3.36156">
        <ele>138.2</ele>
        <time>2023-05-13T12:10:28.000Z</time>
      </trkpt>
      <trkpt lat="43.57887" lon="3.36156">
        <ele>138.2</ele>
        <time>2023-05-13T12:10:29.000Z</time>
      </trkpt>
      <trkpt lat="43.5789" lon="3.36155">
        <ele>138.2</ele>
        <time>2023-05-13T12:10:36.000Z</time>
      </trkpt>
      <trkpt lat="43.5789" lon="3.36155">
        <ele>138.2</ele>
        <time>2023-05-13T12:10:41.000Z</time>
      </trkpt>
      <trkpt lat="43.57899" lon="3.36153">
        <ele>138.3</ele>
        <time>2023-05-13T12:10:47.000Z</time>
      </trkpt>
      <trkpt lat="43.5789" lon="3.36156">
        <ele>138.4</ele>
        <time>2023-05-13T12:10:53.000Z</time>
      </trkpt>
      <trkpt lat="43.57889" lon="3.36157">
        <ele>138.4</ele>
        <time>2023-05-13T12:10:56.000Z</time>
      </trkpt>
      <trkpt lat="43.57889" lon="3.36157">
        <ele>138.4</ele>
        <time>2023-05-13T12:11:06.000Z</time>
      </trkpt>
      <trkpt lat="43.57888" lon="3.36156">
        <ele>138.4</ele>
        <time>2023-05-13T12:11:11.000Z</time>
      </trkpt>
      <trkpt lat="43.57888" lon="3.36155">
        <ele>138.4</ele>
        <time>2023-05-13T12:11:15.000Z</time>
      </trkpt>
      <trkpt lat="43.57886" lon="3.36153">
        <ele>138.3</ele>
        <time>2023-05-13T12:11:21.000Z</time>
      </trkpt>
      <trkpt lat="43.57887" lon="3.36153">
        <ele>137.9</ele>
        <time>2023-05-13T12:12:07.000Z</time>
      </trkpt>
      <trkpt lat="43.57887" lon="3.36153">
        <ele>137.9</ele>
        <time>2023-05-13T12:12:08.000Z</time>
      </trkpt>
      <trkpt lat="43.57887" lon="3.36154">
        <ele>137.7</ele>
        <time>2023-05-13T12:13:00.000Z</time>
      </trkpt>
      <trkpt lat="43.57889" lon="3.36157">
        <ele>137.7</ele>
        <time>2023-05-13T12:13:05.000Z</time>
      </trkpt>
      <trkpt lat="43.5789" lon="3.36156">
        <ele>137.7</ele>
        <time>2023-05-13T12:13:12.000Z</time>
      </trkpt>
      <trkpt lat="43.57899" lon="3.36154">
        <ele>137.7</ele>
        <time>2023-05-13T12:13:17.000Z</time>
      </trkpt>
      <trkpt lat="43.57908" lon="3.36151">
        <ele>137.9</ele>
        <time>2023-05-13T12:13:21.000Z</time>
      </trkpt>
      <trkpt lat="43.57918" lon="3.36148">
        <ele>138.4</ele>
        <time>2023-05-13T12:13:25.000Z</time>
      </trkpt>
      <trkpt lat="43.57927" lon="3.36146">
        <ele>139.4</ele>
        <time>2023-05-13T12:13:29.000Z</time>
      </trkpt>
      <trkpt lat="43.57936" lon="3.3614">
        <ele>142.3</ele>
        <time>2023-05-13T12:13:35.000Z</time>
      </trkpt>
      <trkpt lat="43.5794" lon="3.36129">
        <ele>144.4</ele>
        <time>2023-05-13T12:13:42.000Z</time>
      </trkpt>
      <trkpt lat="43.57932" lon="3.3612">
        <ele>146.1</ele>
        <time>2023-05-13T12:13:48.000Z</time>
      </trkpt>
      <trkpt lat="43.57924" lon="3.36113">
        <ele>148.4</ele>
        <time>2023-05-13T12:13:53.000Z</time>
      </trkpt>
      <trkpt lat="43.57918" lon="3.36103">
        <ele>150.3</ele>
        <time>2023-05-13T12:13:58.000Z</time>
      </trkpt>
      <trkpt lat="43.57912" lon="3.36093">
        <ele>152.5</ele>
        <time>2023-05-13T12:14:06.000Z</time>
      </trkpt>
      <trkpt lat="43.57912" lon="3.36093">
        <ele>152.7</ele>
        <time>2023-05-13T12:14:07.000Z</time>
      </trkpt>
      <trkpt lat="43.57912" lon="3.36093">
        <ele>152.8</ele>
        <time>2023-05-13T12:14:08.000Z</time>
      </trkpt>
      <trkpt lat="43.57912" lon="3.36093">
        <ele>153</ele>
        <time>2023-05-13T12:14:09.000Z</time>
      </trkpt>
      <trkpt lat="43.57912" lon="3.36092">
        <ele>153.6</ele>
        <time>2023-05-13T12:14:12.000Z</time>
      </trkpt>
      <trkpt lat="43.57911" lon="3.36088">
        <ele>153.9</ele>
        <time>2023-05-13T12:14:17.000Z</time>
      </trkpt>
      <trkpt lat="43.57911" lon="3.36087">
        <ele>153.9</ele>
        <time>2023-05-13T12:14:18.000Z</time>
      </trkpt>
      <trkpt lat="43.57919" lon="3.36102">
        <ele>153.7</ele>
        <time>2023-05-13T12:14:23.000Z</time>
      </trkpt>
      <trkpt lat="43.57927" lon="3.36113">
        <ele>153.3</ele>
        <time>2023-05-13T12:14:25.000Z</time>
      </trkpt>
      <trkpt lat="43.57935" lon="3.3612">
        <ele>152.8</ele>
        <time>2023-05-13T12:14:27.000Z</time>
      </trkpt>
      <trkpt lat="43.57945" lon="3.36124">
        <ele>151.4</ele>
        <time>2023-05-13T12:14:30.000Z</time>
      </trkpt>
      <trkpt lat="43.57955" lon="3.36113">
        <ele>150.2</ele>
        <time>2023-05-13T12:14:33.000Z</time>
      </trkpt>
      <trkpt lat="43.57961" lon="3.361">
        <ele>148.7</ele>
        <time>2023-05-13T12:14:36.000Z</time>
      </trkpt>
      <trkpt lat="43.57966" lon="3.36088">
        <ele>148.1</ele>
        <time>2023-05-13T12:14:39.000Z</time>
      </trkpt>
      <trkpt lat="43.57972" lon="3.36074">
        <ele>147.5</ele>
        <time>2023-05-13T12:14:42.000Z</time>
      </trkpt>
      <trkpt lat="43.5798" lon="3.3606">
        <ele>147.2</ele>
        <time>2023-05-13T12:14:45.000Z</time>
      </trkpt>
      <trkpt lat="43.57987" lon="3.36046">
        <ele>147.2</ele>
        <time>2023-05-13T12:14:48.000Z</time>
      </trkpt>
      <trkpt lat="43.57995" lon="3.36033">
        <ele>147.3</ele>
        <time>2023-05-13T12:14:51.000Z</time>
      </trkpt>
      <trkpt lat="43.58002" lon="3.3602">
        <ele>147.5</ele>
        <time>2023-05-13T12:14:54.000Z</time>
      </trkpt>
      <trkpt lat="43.58008" lon="3.36009">
        <ele>147.7</ele>
        <time>2023-05-13T12:14:57.000Z</time>
      </trkpt>
      <trkpt lat="43.58014" lon="3.35998">
        <ele>148</ele>
        <time>2023-05-13T12:15:00.000Z</time>
      </trkpt>
      <trkpt lat="43.5802" lon="3.35986">
        <ele>148.2</ele>
        <time>2023-05-13T12:15:03.000Z</time>
      </trkpt>
      <trkpt lat="43.58027" lon="3.35974">
        <ele>148.4</ele>
        <time>2023-05-13T12:15:06.000Z</time>
      </trkpt>
      <trkpt lat="43.58033" lon="3.35964">
        <ele>148.8</ele>
        <time>2023-05-13T12:15:09.000Z</time>
      </trkpt>
      <trkpt lat="43.58039" lon="3.35953">
        <ele>149.3</ele>
        <time>2023-05-13T12:15:12.000Z</time>
      </trkpt>
      <trkpt lat="43.58045" lon="3.35942">
        <ele>149.7</ele>
        <time>2023-05-13T12:15:16.000Z</time>
      </trkpt>
      <trkpt lat="43.58052" lon="3.3593">
        <ele>150.3</ele>
        <time>2023-05-13T12:15:20.000Z</time>
      </trkpt>
      <trkpt lat="43.58057" lon="3.35917">
        <ele>151.1</ele>
        <time>2023-05-13T12:15:24.000Z</time>
      </trkpt>
      <trkpt lat="43.58062" lon="3.35904">
        <ele>152.3</ele>
        <time>2023-05-13T12:15:27.000Z</time>
      </trkpt>
      <trkpt lat="43.58067" lon="3.35892">
        <ele>153.6</ele>
        <time>2023-05-13T12:15:30.000Z</time>
      </trkpt>
      <trkpt lat="43.58072" lon="3.3588">
        <ele>155</ele>
        <time>2023-05-13T12:15:33.000Z</time>
      </trkpt>
      <trkpt lat="43.58077" lon="3.3587">
        <ele>156</ele>
        <time>2023-05-13T12:15:36.000Z</time>
      </trkpt>
      <trkpt lat="43.58083" lon="3.35855">
        <ele>157.3</ele>
        <time>2023-05-13T12:15:40.000Z</time>
      </trkpt>
      <trkpt lat="43.58088" lon="3.35845">
        <ele>158</ele>
        <time>2023-05-13T12:15:43.000Z</time>
      </trkpt>
      <trkpt lat="43.58093" lon="3.35834">
        <ele>159.3</ele>
        <time>2023-05-13T12:15:47.000Z</time>
      </trkpt>
      <trkpt lat="43.58095" lon="3.35829">
        <ele>160.2</ele>
        <time>2023-05-13T12:15:51.000Z</time>
      </trkpt>
      <trkpt lat="43.58095" lon="3.35828">
        <ele>160.4</ele>
        <time>2023-05-13T12:15:55.000Z</time>
      </trkpt>
      <trkpt lat="43.58095" lon="3.35828">
        <ele>160.5</ele>
        <time>2023-05-13T12:15:56.000Z</time>
      </trkpt>
      <trkpt lat="43.58094" lon="3.35828">
        <ele>160.5</ele>
        <time>2023-05-13T12:15:58.000Z</time>
      </trkpt>
      <trkpt lat="43.58093" lon="3.35827">
        <ele>160.8</ele>
        <time>2023-05-13T12:16:03.000Z</time>
      </trkpt>
      <trkpt lat="43.58093" lon="3.35826">
        <ele>160.8</ele>
        <time>2023-05-13T12:16:05.000Z</time>
      </trkpt>
      <trkpt lat="43.58093" lon="3.35825">
        <ele>160.8</ele>
        <time>2023-05-13T12:16:07.000Z</time>
      </trkpt>
      <trkpt lat="43.58093" lon="3.35826">
        <ele>161.1</ele>
        <time>2023-05-13T12:16:54.000Z</time>
      </trkpt>
      <trkpt lat="43.58093" lon="3.35826">
        <ele>161.1</ele>
        <time>2023-05-13T12:16:55.000Z</time>
      </trkpt>
      <trkpt lat="43.58094" lon="3.35826">
        <ele>161</ele>
        <time>2023-05-13T12:16:56.000Z</time>
      </trkpt>
      <trkpt lat="43.581" lon="3.35814">
        <ele>161.1</ele>
        <time>2023-05-13T12:17:01.000Z</time>
      </trkpt>
      <trkpt lat="43.58104" lon="3.35803">
        <ele>161.3</ele>
        <time>2023-05-13T12:17:04.000Z</time>
      </trkpt>
      <trkpt lat="43.58109" lon="3.35792">
        <ele>161.7</ele>
        <time>2023-05-13T12:17:07.000Z</time>
      </trkpt>
      <trkpt lat="43.58113" lon="3.3578">
        <ele>162.4</ele>
        <time>2023-05-13T12:17:10.000Z</time>
      </trkpt>
      <trkpt lat="43.58117" lon="3.35767">
        <ele>163.3</ele>
        <time>2023-05-13T12:17:13.000Z</time>
      </trkpt>
      <trkpt lat="43.5812" lon="3.35754">
        <ele>164.3</ele>
        <time>2023-05-13T12:17:16.000Z</time>
      </trkpt>
      <trkpt lat="43.58123" lon="3.35741">
        <ele>165.1</ele>
        <time>2023-05-13T12:17:19.000Z</time>
      </trkpt>
      <trkpt lat="43.58127" lon="3.35726">
        <ele>166.4</ele>
        <time>2023-05-13T12:17:23.000Z</time>
      </trkpt>
      <trkpt lat="43.58131" lon="3.35713">
        <ele>167.5</ele>
        <time>2023-05-13T12:17:28.000Z</time>
      </trkpt>
      <trkpt lat="43.58135" lon="3.35702">
        <ele>167.9</ele>
        <time>2023-05-13T12:17:33.000Z</time>
      </trkpt>
      <trkpt lat="43.58141" lon="3.35689">
        <ele>168.2</ele>
        <time>2023-05-13T12:17:38.000Z</time>
      </trkpt>
      <trkpt lat="43.58148" lon="3.35676">
        <ele>168.6</ele>
        <time>2023-05-13T12:17:42.000Z</time>
      </trkpt>
      <trkpt lat="43.58154" lon="3.35665">
        <ele>168.7</ele>
        <time>2023-05-13T12:17:46.000Z</time>
      </trkpt>
      <trkpt lat="43.58159" lon="3.35654">
        <ele>168.8</ele>
        <time>2023-05-13T12:17:50.000Z</time>
      </trkpt>
      <trkpt lat="43.58163" lon="3.35641">
        <ele>168.7</ele>
        <time>2023-05-13T12:17:55.000Z</time>
      </trkpt>
      <trkpt lat="43.58167" lon="3.3563">
        <ele>168.6</ele>
        <time>2023-05-13T12:17:59.000Z</time>
      </trkpt>
      <trkpt lat="43.58171" lon="3.35617">
        <ele>168.6</ele>
        <time>2023-05-13T12:18:04.000Z</time>
      </trkpt>
      <trkpt lat="43.58175" lon="3.35606">
        <ele>168.5</ele>
        <time>2023-05-13T12:18:09.000Z</time>
      </trkpt>
      <trkpt lat="43.5818" lon="3.35593">
        <ele>168.4</ele>
        <time>2023-05-13T12:18:14.000Z</time>
      </trkpt>
      <trkpt lat="43.5818" lon="3.3558">
        <ele>168.4</ele>
        <time>2023-05-13T12:18:18.000Z</time>
      </trkpt>
      <trkpt lat="43.5818" lon="3.35567">
        <ele>168.3</ele>
        <time>2023-05-13T12:18:22.000Z</time>
      </trkpt>
      <trkpt lat="43.58181" lon="3.35554">
        <ele>168.2</ele>
        <time>2023-05-13T12:18:25.000Z</time>
      </trkpt>
      <trkpt lat="43.58183" lon="3.35541">
        <ele>168</ele>
        <time>2023-05-13T12:18:28.000Z</time>
      </trkpt>
      <trkpt lat="43.58185" lon="3.35525">
        <ele>167.8</ele>
        <time>2023-05-13T12:18:31.000Z</time>
      </trkpt>
      <trkpt lat="43.58187" lon="3.35509">
        <ele>167.7</ele>
        <time>2023-05-13T12:18:34.000Z</time>
      </trkpt>
      <trkpt lat="43.58189" lon="3.35494">
        <ele>167.5</ele>
        <time>2023-05-13T12:18:37.000Z</time>
      </trkpt>
      <trkpt lat="43.58193" lon="3.3548">
        <ele>167.2</ele>
        <time>2023-05-13T12:18:41.000Z</time>
      </trkpt>
      <trkpt lat="43.58199" lon="3.35468">
        <ele>166.9</ele>
        <time>2023-05-13T12:18:46.000Z</time>
      </trkpt>
      <trkpt lat="43.58202" lon="3.35453">
        <ele>166.9</ele>
        <time>2023-05-13T12:18:51.000Z</time>
      </trkpt>
      <trkpt lat="43.58203" lon="3.35441">
        <ele>167.2</ele>
        <time>2023-05-13T12:18:58.000Z</time>
      </trkpt>
      <trkpt lat="43.58201" lon="3.35427">
        <ele>167.7</ele>
        <time>2023-05-13T12:19:04.000Z</time>
      </trkpt>
      <trkpt lat="43.58198" lon="3.35415">
        <ele>168.1</ele>
        <time>2023-05-13T12:19:08.000Z</time>
      </trkpt>
      <trkpt lat="43.58192" lon="3.35404">
        <ele>168.7</ele>
        <time>2023-05-13T12:19:12.000Z</time>
      </trkpt>
      <trkpt lat="43.58186" lon="3.3539">
        <ele>169.4</ele>
        <time>2023-05-13T12:19:16.000Z</time>
      </trkpt>
      <trkpt lat="43.58182" lon="3.35375">
        <ele>170.5</ele>
        <time>2023-05-13T12:19:20.000Z</time>
      </trkpt>
      <trkpt lat="43.5818" lon="3.3536">
        <ele>171.9</ele>
        <time>2023-05-13T12:19:24.000Z</time>
      </trkpt>
      <trkpt lat="43.58179" lon="3.35345">
        <ele>173.3</ele>
        <time>2023-05-13T12:19:28.000Z</time>
      </trkpt>
      <trkpt lat="43.58177" lon="3.3533">
        <ele>174.6</ele>
        <time>2023-05-13T12:19:32.000Z</time>
      </trkpt>
      <trkpt lat="43.58175" lon="3.35316">
        <ele>175.9</ele>
        <time>2023-05-13T12:19:36.000Z</time>
      </trkpt>
      <trkpt lat="43.58173" lon="3.353">
        <ele>177</ele>
        <time>2023-05-13T12:19:40.000Z</time>
      </trkpt>
      <trkpt lat="43.58171" lon="3.35287">
        <ele>177.8</ele>
        <time>2023-05-13T12:19:43.000Z</time>
      </trkpt>
      <trkpt lat="43.5817" lon="3.35274">
        <ele>178.6</ele>
        <time>2023-05-13T12:19:46.000Z</time>
      </trkpt>
      <trkpt lat="43.58168" lon="3.35262">
        <ele>179.6</ele>
        <time>2023-05-13T12:19:49.000Z</time>
      </trkpt>
      <trkpt lat="43.58165" lon="3.35249">
        <ele>180.5</ele>
        <time>2023-05-13T12:19:52.000Z</time>
      </trkpt>
      <trkpt lat="43.58163" lon="3.35235">
        <ele>181.3</ele>
        <time>2023-05-13T12:19:55.000Z</time>
      </trkpt>
      <trkpt lat="43.5816" lon="3.35222">
        <ele>182</ele>
        <time>2023-05-13T12:19:58.000Z</time>
      </trkpt>
      <trkpt lat="43.58158" lon="3.35208">
        <ele>182.8</ele>
        <time>2023-05-13T12:20:01.000Z</time>
      </trkpt>
      <trkpt lat="43.58156" lon="3.35195">
        <ele>183.7</ele>
        <time>2023-05-13T12:20:04.000Z</time>
      </trkpt>
      <trkpt lat="43.58154" lon="3.35182">
        <ele>184.4</ele>
        <time>2023-05-13T12:20:07.000Z</time>
      </trkpt>
      <trkpt lat="43.58152" lon="3.35169">
        <ele>185.1</ele>
        <time>2023-05-13T12:20:10.000Z</time>
      </trkpt>
      <trkpt lat="43.5815" lon="3.35156">
        <ele>185.8</ele>
        <time>2023-05-13T12:20:13.000Z</time>
      </trkpt>
      <trkpt lat="43.58149" lon="3.35143">
        <ele>186.5</ele>
        <time>2023-05-13T12:20:16.000Z</time>
      </trkpt>
      <trkpt lat="43.58148" lon="3.35129">
        <ele>187.1</ele>
        <time>2023-05-13T12:20:19.000Z</time>
      </trkpt>
      <trkpt lat="43.58147" lon="3.35116">
        <ele>187.7</ele>
        <time>2023-05-13T12:20:22.000Z</time>
      </trkpt>
      <trkpt lat="43.58145" lon="3.35099">
        <ele>188.8</ele>
        <time>2023-05-13T12:20:26.000Z</time>
      </trkpt>
      <trkpt lat="43.58143" lon="3.35084">
        <ele>189.9</ele>
        <time>2023-05-13T12:20:30.000Z</time>
      </trkpt>
      <trkpt lat="43.5814" lon="3.35069">
        <ele>190.9</ele>
        <time>2023-05-13T12:20:34.000Z</time>
      </trkpt>
      <trkpt lat="43.58138" lon="3.35054">
        <ele>192.1</ele>
        <time>2023-05-13T12:20:38.000Z</time>
      </trkpt>
      <trkpt lat="43.58137" lon="3.35039">
        <ele>193.3</ele>
        <time>2023-05-13T12:20:42.000Z</time>
      </trkpt>
      <trkpt lat="43.58137" lon="3.35025">
        <ele>194.4</ele>
        <time>2023-05-13T12:20:46.000Z</time>
      </trkpt>
      <trkpt lat="43.58136" lon="3.35011">
        <ele>195.5</ele>
        <time>2023-05-13T12:20:50.000Z</time>
      </trkpt>
      <trkpt lat="43.58135" lon="3.34996">
        <ele>196.5</ele>
        <time>2023-05-13T12:20:54.000Z</time>
      </trkpt>
      <trkpt lat="43.58134" lon="3.34981">
        <ele>197.8</ele>
        <time>2023-05-13T12:20:58.000Z</time>
      </trkpt>
      <trkpt lat="43.58135" lon="3.34966">
        <ele>198.8</ele>
        <time>2023-05-13T12:21:02.000Z</time>
      </trkpt>
      <trkpt lat="43.58136" lon="3.3495">
        <ele>199.9</ele>
        <time>2023-05-13T12:21:06.000Z</time>
      </trkpt>
      <trkpt lat="43.58136" lon="3.34935">
        <ele>201.2</ele>
        <time>2023-05-13T12:21:10.000Z</time>
      </trkpt>
      <trkpt lat="43.58135" lon="3.3492">
        <ele>202.5</ele>
        <time>2023-05-13T12:21:14.000Z</time>
      </trkpt>
      <trkpt lat="43.58133" lon="3.34906">
        <ele>203.9</ele>
        <time>2023-05-13T12:21:18.000Z</time>
      </trkpt>
      <trkpt lat="43.58131" lon="3.34891">
        <ele>205.1</ele>
        <time>2023-05-13T12:21:22.000Z</time>
      </trkpt>
      <trkpt lat="43.58129" lon="3.34876">
        <ele>206.2</ele>
        <time>2023-05-13T12:21:26.000Z</time>
      </trkpt>
      <trkpt lat="43.58128" lon="3.3486">
        <ele>207.2</ele>
        <time>2023-05-13T12:21:30.000Z</time>
      </trkpt>
      <trkpt lat="43.58126" lon="3.34844">
        <ele>208.2</ele>
        <time>2023-05-13T12:21:34.000Z</time>
      </trkpt>
      <trkpt lat="43.58122" lon="3.34829">
        <ele>209.3</ele>
        <time>2023-05-13T12:21:38.000Z</time>
      </trkpt>
      <trkpt lat="43.58117" lon="3.34814">
        <ele>210.4</ele>
        <time>2023-05-13T12:21:42.000Z</time>
      </trkpt>
      <trkpt lat="43.58112" lon="3.34803">
        <ele>211.4</ele>
        <time>2023-05-13T12:21:45.000Z</time>
      </trkpt>
      <trkpt lat="43.58107" lon="3.34793">
        <ele>212.7</ele>
        <time>2023-05-13T12:21:48.000Z</time>
      </trkpt>
      <trkpt lat="43.581" lon="3.34781">
        <ele>214.1</ele>
        <time>2023-05-13T12:21:52.000Z</time>
      </trkpt>
      <trkpt lat="43.58095" lon="3.3477">
        <ele>215.9</ele>
        <time>2023-05-13T12:21:58.000Z</time>
      </trkpt>
      <trkpt lat="43.58085" lon="3.34761">
        <ele>216.6</ele>
        <time>2023-05-13T12:22:01.000Z</time>
      </trkpt>
      <trkpt lat="43.58075" lon="3.34764">
        <ele>217.1</ele>
        <time>2023-05-13T12:22:04.000Z</time>
      </trkpt>
      <trkpt lat="43.58073" lon="3.34777">
        <ele>217.5</ele>
        <time>2023-05-13T12:22:07.000Z</time>
      </trkpt>
      <trkpt lat="43.58077" lon="3.34791">
        <ele>217.9</ele>
        <time>2023-05-13T12:22:10.000Z</time>
      </trkpt>
      <trkpt lat="43.58081" lon="3.34807">
        <ele>218.2</ele>
        <time>2023-05-13T12:22:13.000Z</time>
      </trkpt>
      <trkpt lat="43.58083" lon="3.34823">
        <ele>218.5</ele>
        <time>2023-05-13T12:22:16.000Z</time>
      </trkpt>
      <trkpt lat="43.58084" lon="3.34839">
        <ele>218.7</ele>
        <time>2023-05-13T12:22:19.000Z</time>
      </trkpt>
      <trkpt lat="43.58085" lon="3.34855">
        <ele>218.9</ele>
        <time>2023-05-13T12:22:22.000Z</time>
      </trkpt>
      <trkpt lat="43.58085" lon="3.3487">
        <ele>219.1</ele>
        <time>2023-05-13T12:22:25.000Z</time>
      </trkpt>
      <trkpt lat="43.58084" lon="3.34885">
        <ele>219.2</ele>
        <time>2023-05-13T12:22:28.000Z</time>
      </trkpt>
      <trkpt lat="43.58083" lon="3.349">
        <ele>219.6</ele>
        <time>2023-05-13T12:22:31.000Z</time>
      </trkpt>
      <trkpt lat="43.58081" lon="3.34914">
        <ele>220</ele>
        <time>2023-05-13T12:22:34.000Z</time>
      </trkpt>
      <trkpt lat="43.58077" lon="3.34926">
        <ele>220.6</ele>
        <time>2023-05-13T12:22:37.000Z</time>
      </trkpt>
      <trkpt lat="43.58073" lon="3.34938">
        <ele>221.4</ele>
        <time>2023-05-13T12:22:40.000Z</time>
      </trkpt>
      <trkpt lat="43.58069" lon="3.3495">
        <ele>222.1</ele>
        <time>2023-05-13T12:22:43.000Z</time>
      </trkpt>
      <trkpt lat="43.58065" lon="3.34962">
        <ele>223</ele>
        <time>2023-05-13T12:22:46.000Z</time>
      </trkpt>
      <trkpt lat="43.58062" lon="3.34974">
        <ele>223.9</ele>
        <time>2023-05-13T12:22:49.000Z</time>
      </trkpt>
      <trkpt lat="43.58058" lon="3.34986">
        <ele>224.6</ele>
        <time>2023-05-13T12:22:52.000Z</time>
      </trkpt>
      <trkpt lat="43.58054" lon="3.34997">
        <ele>225.5</ele>
        <time>2023-05-13T12:22:55.000Z</time>
      </trkpt>
      <trkpt lat="43.58049" lon="3.35012">
        <ele>226.7</ele>
        <time>2023-05-13T12:22:59.000Z</time>
      </trkpt>
      <trkpt lat="43.58043" lon="3.35027">
        <ele>227.5</ele>
        <time>2023-05-13T12:23:03.000Z</time>
      </trkpt>
      <trkpt lat="43.58039" lon="3.35038">
        <ele>227.9</ele>
        <time>2023-05-13T12:23:06.000Z</time>
      </trkpt>
      <trkpt lat="43.58034" lon="3.35049">
        <ele>228.4</ele>
        <time>2023-05-13T12:23:09.000Z</time>
      </trkpt>
      <trkpt lat="43.58029" lon="3.3506">
        <ele>228.9</ele>
        <time>2023-05-13T12:23:12.000Z</time>
      </trkpt>
      <trkpt lat="43.5802" lon="3.35067">
        <ele>229.7</ele>
        <time>2023-05-13T12:23:18.000Z</time>
      </trkpt>
      <trkpt lat="43.58012" lon="3.35062">
        <ele>230.3</ele>
        <time>2023-05-13T12:23:23.000Z</time>
      </trkpt>
      <trkpt lat="43.58011" lon="3.35048">
        <ele>231</ele>
        <time>2023-05-13T12:23:27.000Z</time>
      </trkpt>
      <trkpt lat="43.58013" lon="3.35032">
        <ele>232</ele>
        <time>2023-05-13T12:23:31.000Z</time>
      </trkpt>
      <trkpt lat="43.58012" lon="3.35016">
        <ele>233.2</ele>
        <time>2023-05-13T12:23:35.000Z</time>
      </trkpt>
      <trkpt lat="43.58012" lon="3.35004">
        <ele>234.3</ele>
        <time>2023-05-13T12:23:38.000Z</time>
      </trkpt>
      <trkpt lat="43.58011" lon="3.34987">
        <ele>235.5</ele>
        <time>2023-05-13T12:23:42.000Z</time>
      </trkpt>
      <trkpt lat="43.58009" lon="3.34971">
        <ele>236.6</ele>
        <time>2023-05-13T12:23:46.000Z</time>
      </trkpt>
      <trkpt lat="43.58006" lon="3.34959">
        <ele>237.3</ele>
        <time>2023-05-13T12:23:49.000Z</time>
      </trkpt>
      <trkpt lat="43.58002" lon="3.34948">
        <ele>238.1</ele>
        <time>2023-05-13T12:23:52.000Z</time>
      </trkpt>
      <trkpt lat="43.57998" lon="3.34936">
        <ele>238.7</ele>
        <time>2023-05-13T12:23:55.000Z</time>
      </trkpt>
      <trkpt lat="43.57995" lon="3.34924">
        <ele>239.3</ele>
        <time>2023-05-13T12:23:58.000Z</time>
      </trkpt>
      <trkpt lat="43.57993" lon="3.34911">
        <ele>239.9</ele>
        <time>2023-05-13T12:24:01.000Z</time>
      </trkpt>
      <trkpt lat="43.57993" lon="3.34897">
        <ele>240.4</ele>
        <time>2023-05-13T12:24:04.000Z</time>
      </trkpt>
      <trkpt lat="43.57993" lon="3.34885">
        <ele>240.9</ele>
        <time>2023-05-13T12:24:07.000Z</time>
      </trkpt>
      <trkpt lat="43.57995" lon="3.34872">
        <ele>241.3</ele>
        <time>2023-05-13T12:24:10.000Z</time>
      </trkpt>
      <trkpt lat="43.57998" lon="3.34859">
        <ele>241.7</ele>
        <time>2023-05-13T12:24:13.000Z</time>
      </trkpt>
      <trkpt lat="43.58001" lon="3.34846">
        <ele>242</ele>
        <time>2023-05-13T12:24:16.000Z</time>
      </trkpt>
      <trkpt lat="43.58002" lon="3.34832">
        <ele>242.4</ele>
        <time>2023-05-13T12:24:19.000Z</time>
      </trkpt>
      <trkpt lat="43.58002" lon="3.34817">
        <ele>242.8</ele>
        <time>2023-05-13T12:24:22.000Z</time>
      </trkpt>
      <trkpt lat="43.58001" lon="3.34802">
        <ele>243.1</ele>
        <time>2023-05-13T12:24:25.000Z</time>
      </trkpt>
      <trkpt lat="43.57999" lon="3.34786">
        <ele>243.4</ele>
        <time>2023-05-13T12:24:28.000Z</time>
      </trkpt>
      <trkpt lat="43.57998" lon="3.34771">
        <ele>243.8</ele>
        <time>2023-05-13T12:24:31.000Z</time>
      </trkpt>
      <trkpt lat="43.57999" lon="3.34757">
        <ele>244.5</ele>
        <time>2023-05-13T12:24:34.000Z</time>
      </trkpt>
      <trkpt lat="43.58001" lon="3.34743">
        <ele>245.3</ele>
        <time>2023-05-13T12:24:37.000Z</time>
      </trkpt>
      <trkpt lat="43.58003" lon="3.3473">
        <ele>245.9</ele>
        <time>2023-05-13T12:24:40.000Z</time>
      </trkpt>
      <trkpt lat="43.58004" lon="3.34716">
        <ele>246.7</ele>
        <time>2023-05-13T12:24:43.000Z</time>
      </trkpt>
      <trkpt lat="43.58003" lon="3.34702">
        <ele>247.4</ele>
        <time>2023-05-13T12:24:46.000Z</time>
      </trkpt>
      <trkpt lat="43.58002" lon="3.34689">
        <ele>248.2</ele>
        <time>2023-05-13T12:24:49.000Z</time>
      </trkpt>
      <trkpt lat="43.58" lon="3.34675">
        <ele>249.3</ele>
        <time>2023-05-13T12:24:52.000Z</time>
      </trkpt>
      <trkpt lat="43.57998" lon="3.34663">
        <ele>250.4</ele>
        <time>2023-05-13T12:24:55.000Z</time>
      </trkpt>
      <trkpt lat="43.57996" lon="3.3465">
        <ele>251.3</ele>
        <time>2023-05-13T12:24:58.000Z</time>
      </trkpt>
      <trkpt lat="43.57995" lon="3.34638">
        <ele>252</ele>
        <time>2023-05-13T12:25:01.000Z</time>
      </trkpt>
      <trkpt lat="43.57992" lon="3.34622">
        <ele>253.1</ele>
        <time>2023-05-13T12:25:05.000Z</time>
      </trkpt>
      <trkpt lat="43.57991" lon="3.34609">
        <ele>253.8</ele>
        <time>2023-05-13T12:25:08.000Z</time>
      </trkpt>
      <trkpt lat="43.57989" lon="3.34597">
        <ele>254.6</ele>
        <time>2023-05-13T12:25:11.000Z</time>
      </trkpt>
      <trkpt lat="43.57987" lon="3.34581">
        <ele>255.8</ele>
        <time>2023-05-13T12:25:15.000Z</time>
      </trkpt>
      <trkpt lat="43.57985" lon="3.34566">
        <ele>257</ele>
        <time>2023-05-13T12:25:19.000Z</time>
      </trkpt>
      <trkpt lat="43.57984" lon="3.3455">
        <ele>258.5</ele>
        <time>2023-05-13T12:25:23.000Z</time>
      </trkpt>
      <trkpt lat="43.57982" lon="3.34538">
        <ele>259.5</ele>
        <time>2023-05-13T12:25:26.000Z</time>
      </trkpt>
      <trkpt lat="43.57977" lon="3.34523">
        <ele>261</ele>
        <time>2023-05-13T12:25:30.000Z</time>
      </trkpt>
      <trkpt lat="43.57972" lon="3.34508">
        <ele>262.2</ele>
        <time>2023-05-13T12:25:34.000Z</time>
      </trkpt>
      <trkpt lat="43.57968" lon="3.34493">
        <ele>263.5</ele>
        <time>2023-05-13T12:25:38.000Z</time>
      </trkpt>
      <trkpt lat="43.57967" lon="3.34477">
        <ele>264.8</ele>
        <time>2023-05-13T12:25:42.000Z</time>
      </trkpt>
      <trkpt lat="43.57967" lon="3.34462">
        <ele>266</ele>
        <time>2023-05-13T12:25:46.000Z</time>
      </trkpt>
      <trkpt lat="43.57966" lon="3.34449">
        <ele>267.1</ele>
        <time>2023-05-13T12:25:50.000Z</time>
      </trkpt>
      <trkpt lat="43.57965" lon="3.34434">
        <ele>268.1</ele>
        <time>2023-05-13T12:25:54.000Z</time>
      </trkpt>
      <trkpt lat="43.57965" lon="3.34419">
        <ele>269</ele>
        <time>2023-05-13T12:25:58.000Z</time>
      </trkpt>
      <trkpt lat="43.57967" lon="3.34403">
        <ele>270</ele>
        <time>2023-05-13T12:26:02.000Z</time>
      </trkpt>
      <trkpt lat="43.57968" lon="3.34388">
        <ele>271.2</ele>
        <time>2023-05-13T12:26:06.000Z</time>
      </trkpt>
      <trkpt lat="43.5797" lon="3.34373">
        <ele>272.4</ele>
        <time>2023-05-13T12:26:10.000Z</time>
      </trkpt>
      <trkpt lat="43.57973" lon="3.34358">
        <ele>273.6</ele>
        <time>2023-05-13T12:26:14.000Z</time>
      </trkpt>
      <trkpt lat="43.57976" lon="3.34344">
        <ele>274.5</ele>
        <time>2023-05-13T12:26:18.000Z</time>
      </trkpt>
      <trkpt lat="43.5798" lon="3.3433">
        <ele>275.2</ele>
        <time>2023-05-13T12:26:22.000Z</time>
      </trkpt>
      <trkpt lat="43.57985" lon="3.34316">
        <ele>275.9</ele>
        <time>2023-05-13T12:26:26.000Z</time>
      </trkpt>
      <trkpt lat="43.57989" lon="3.34303">
        <ele>277.1</ele>
        <time>2023-05-13T12:26:30.000Z</time>
      </trkpt>
      <trkpt lat="43.57994" lon="3.34291">
        <ele>278.4</ele>
        <time>2023-05-13T12:26:34.000Z</time>
      </trkpt>
      <trkpt lat="43.58002" lon="3.3428">
        <ele>279.8</ele>
        <time>2023-05-13T12:26:38.000Z</time>
      </trkpt>
      <trkpt lat="43.58011" lon="3.34271">
        <ele>281</ele>
        <time>2023-05-13T12:26:42.000Z</time>
      </trkpt>
      <trkpt lat="43.5802" lon="3.34262">
        <ele>282.1</ele>
        <time>2023-05-13T12:26:46.000Z</time>
      </trkpt>
      <trkpt lat="43.58029" lon="3.34254">
        <ele>283.5</ele>
        <time>2023-05-13T12:26:50.000Z</time>
      </trkpt>
      <trkpt lat="43.58038" lon="3.34247">
        <ele>284.8</ele>
        <time>2023-05-13T12:26:54.000Z</time>
      </trkpt>
      <trkpt lat="43.58049" lon="3.34242">
        <ele>285.7</ele>
        <time>2023-05-13T12:26:58.000Z</time>
      </trkpt>
      <trkpt lat="43.5806" lon="3.34239">
        <ele>286.8</ele>
        <time>2023-05-13T12:27:02.000Z</time>
      </trkpt>
      <trkpt lat="43.5807" lon="3.34236">
        <ele>287.9</ele>
        <time>2023-05-13T12:27:06.000Z</time>
      </trkpt>
      <trkpt lat="43.58082" lon="3.34232">
        <ele>288.9</ele>
        <time>2023-05-13T12:27:10.000Z</time>
      </trkpt>
      <trkpt lat="43.58093" lon="3.34232">
        <ele>289.6</ele>
        <time>2023-05-13T12:27:14.000Z</time>
      </trkpt>
      <trkpt lat="43.58105" lon="3.34234">
        <ele>290.6</ele>
        <time>2023-05-13T12:27:18.000Z</time>
      </trkpt>
      <trkpt lat="43.58113" lon="3.34243">
        <ele>291.5</ele>
        <time>2023-05-13T12:27:22.000Z</time>
      </trkpt>
      <trkpt lat="43.58116" lon="3.34258">
        <ele>292.7</ele>
        <time>2023-05-13T12:27:26.000Z</time>
      </trkpt>
      <trkpt lat="43.58117" lon="3.34274">
        <ele>294.2</ele>
        <time>2023-05-13T12:27:30.000Z</time>
      </trkpt>
      <trkpt lat="43.58119" lon="3.34286">
        <ele>295.3</ele>
        <time>2023-05-13T12:27:33.000Z</time>
      </trkpt>
      <trkpt lat="43.58121" lon="3.34303">
        <ele>296.7</ele>
        <time>2023-05-13T12:27:37.000Z</time>
      </trkpt>
      <trkpt lat="43.58123" lon="3.34315">
        <ele>297.4</ele>
        <time>2023-05-13T12:27:40.000Z</time>
      </trkpt>
      <trkpt lat="43.58126" lon="3.34327">
        <ele>298.2</ele>
        <time>2023-05-13T12:27:43.000Z</time>
      </trkpt>
      <trkpt lat="43.58131" lon="3.34342">
        <ele>299</ele>
        <time>2023-05-13T12:27:47.000Z</time>
      </trkpt>
      <trkpt lat="43.58136" lon="3.34357">
        <ele>299.7</ele>
        <time>2023-05-13T12:27:51.000Z</time>
      </trkpt>
      <trkpt lat="43.58142" lon="3.34371">
        <ele>300.7</ele>
        <time>2023-05-13T12:27:55.000Z</time>
      </trkpt>
      <trkpt lat="43.58147" lon="3.34381">
        <ele>301.6</ele>
        <time>2023-05-13T12:27:58.000Z</time>
      </trkpt>
      <trkpt lat="43.58153" lon="3.3439">
        <ele>302.4</ele>
        <time>2023-05-13T12:28:01.000Z</time>
      </trkpt>
      <trkpt lat="43.58161" lon="3.34402">
        <ele>303.8</ele>
        <time>2023-05-13T12:28:05.000Z</time>
      </trkpt>
      <trkpt lat="43.58169" lon="3.34414">
        <ele>305.1</ele>
        <time>2023-05-13T12:28:09.000Z</time>
      </trkpt>
      <trkpt lat="43.58177" lon="3.34424">
        <ele>306.3</ele>
        <time>2023-05-13T12:28:13.000Z</time>
      </trkpt>
      <trkpt lat="43.58186" lon="3.34435">
        <ele>307.5</ele>
        <time>2023-05-13T12:28:17.000Z</time>
      </trkpt>
      <trkpt lat="43.58194" lon="3.34446">
        <ele>308.7</ele>
        <time>2023-05-13T12:28:21.000Z</time>
      </trkpt>
      <trkpt lat="43.58203" lon="3.34456">
        <ele>309.8</ele>
        <time>2023-05-13T12:28:25.000Z</time>
      </trkpt>
      <trkpt lat="43.58212" lon="3.34464">
        <ele>311</ele>
        <time>2023-05-13T12:28:29.000Z</time>
      </trkpt>
      <trkpt lat="43.58223" lon="3.34468">
        <ele>312.6</ele>
        <time>2023-05-13T12:28:33.000Z</time>
      </trkpt>
      <trkpt lat="43.58234" lon="3.3447">
        <ele>313.8</ele>
        <time>2023-05-13T12:28:37.000Z</time>
      </trkpt>
      <trkpt lat="43.58245" lon="3.3447">
        <ele>315.1</ele>
        <time>2023-05-13T12:28:41.000Z</time>
      </trkpt>
      <trkpt lat="43.58256" lon="3.34469">
        <ele>316.6</ele>
        <time>2023-05-13T12:28:45.000Z</time>
      </trkpt>
      <trkpt lat="43.58268" lon="3.34465">
        <ele>317.9</ele>
        <time>2023-05-13T12:28:49.000Z</time>
      </trkpt>
      <trkpt lat="43.58278" lon="3.3446">
        <ele>319.1</ele>
        <time>2023-05-13T12:28:53.000Z</time>
      </trkpt>
      <trkpt lat="43.58289" lon="3.34453">
        <ele>320.2</ele>
        <time>2023-05-13T12:28:57.000Z</time>
      </trkpt>
      <trkpt lat="43.58289" lon="3.34438">
        <ele>321.6</ele>
        <time>2023-05-13T12:29:01.000Z</time>
      </trkpt>
      <trkpt lat="43.58281" lon="3.34434">
        <ele>322.5</ele>
        <time>2023-05-13T12:29:04.000Z</time>
      </trkpt>
      <trkpt lat="43.58271" lon="3.34433">
        <ele>323.2</ele>
        <time>2023-05-13T12:29:07.000Z</time>
      </trkpt>
      <trkpt lat="43.58263" lon="3.34428">
        <ele>324</ele>
        <time>2023-05-13T12:29:10.000Z</time>
      </trkpt>
      <trkpt lat="43.58255" lon="3.34417">
        <ele>324.8</ele>
        <time>2023-05-13T12:29:14.000Z</time>
      </trkpt>
      <trkpt lat="43.58249" lon="3.34403">
        <ele>325.7</ele>
        <time>2023-05-13T12:29:18.000Z</time>
      </trkpt>
      <trkpt lat="43.58245" lon="3.34392">
        <ele>326.3</ele>
        <time>2023-05-13T12:29:21.000Z</time>
      </trkpt>
      <trkpt lat="43.5824" lon="3.34381">
        <ele>326.9</ele>
        <time>2023-05-13T12:29:24.000Z</time>
      </trkpt>
      <trkpt lat="43.58235" lon="3.34367">
        <ele>327.6</ele>
        <time>2023-05-13T12:29:28.000Z</time>
      </trkpt>
      <trkpt lat="43.58231" lon="3.34356">
        <ele>328.4</ele>
        <time>2023-05-13T12:29:31.000Z</time>
      </trkpt>
      <trkpt lat="43.58226" lon="3.34341">
        <ele>329.3</ele>
        <time>2023-05-13T12:29:35.000Z</time>
      </trkpt>
      <trkpt lat="43.58223" lon="3.34329">
        <ele>329.9</ele>
        <time>2023-05-13T12:29:38.000Z</time>
      </trkpt>
      <trkpt lat="43.58222" lon="3.34316">
        <ele>330.4</ele>
        <time>2023-05-13T12:29:41.000Z</time>
      </trkpt>
      <trkpt lat="43.58221" lon="3.34304">
        <ele>330.9</ele>
        <time>2023-05-13T12:29:44.000Z</time>
      </trkpt>
      <trkpt lat="43.58221" lon="3.34291">
        <ele>331.4</ele>
        <time>2023-05-13T12:29:47.000Z</time>
      </trkpt>
      <trkpt lat="43.58221" lon="3.34278">
        <ele>331.9</ele>
        <time>2023-05-13T12:29:50.000Z</time>
      </trkpt>
      <trkpt lat="43.58222" lon="3.34265">
        <ele>332.6</ele>
        <time>2023-05-13T12:29:53.000Z</time>
      </trkpt>
      <trkpt lat="43.58223" lon="3.34252">
        <ele>333.3</ele>
        <time>2023-05-13T12:29:56.000Z</time>
      </trkpt>
      <trkpt lat="43.58223" lon="3.34239">
        <ele>333.7</ele>
        <time>2023-05-13T12:29:59.000Z</time>
      </trkpt>
      <trkpt lat="43.58225" lon="3.34227">
        <ele>334.2</ele>
        <time>2023-05-13T12:30:02.000Z</time>
      </trkpt>
      <trkpt lat="43.58228" lon="3.34211">
        <ele>335.2</ele>
        <time>2023-05-13T12:30:06.000Z</time>
      </trkpt>
      <trkpt lat="43.58232" lon="3.34199">
        <ele>335.7</ele>
        <time>2023-05-13T12:30:09.000Z</time>
      </trkpt>
      <trkpt lat="43.58237" lon="3.34186">
        <ele>336.8</ele>
        <time>2023-05-13T12:30:13.000Z</time>
      </trkpt>
      <trkpt lat="43.58243" lon="3.34172">
        <ele>337.9</ele>
        <time>2023-05-13T12:30:17.000Z</time>
      </trkpt>
      <trkpt lat="43.58249" lon="3.34158">
        <ele>339.1</ele>
        <time>2023-05-13T12:30:21.000Z</time>
      </trkpt>
      <trkpt lat="43.58256" lon="3.34145">
        <ele>340.6</ele>
        <time>2023-05-13T12:30:25.000Z</time>
      </trkpt>
      <trkpt lat="43.58263" lon="3.34132">
        <ele>341.6</ele>
        <time>2023-05-13T12:30:29.000Z</time>
      </trkpt>
      <trkpt lat="43.58269" lon="3.34119">
        <ele>342.5</ele>
        <time>2023-05-13T12:30:33.000Z</time>
      </trkpt>
      <trkpt lat="43.58276" lon="3.34106">
        <ele>343.3</ele>
        <time>2023-05-13T12:30:37.000Z</time>
      </trkpt>
      <trkpt lat="43.58283" lon="3.34093">
        <ele>344.1</ele>
        <time>2023-05-13T12:30:41.000Z</time>
      </trkpt>
      <trkpt lat="43.58288" lon="3.34079">
        <ele>345</ele>
        <time>2023-05-13T12:30:45.000Z</time>
      </trkpt>
      <trkpt lat="43.58289" lon="3.34066">
        <ele>345.8</ele>
        <time>2023-05-13T12:30:48.000Z</time>
      </trkpt>
      <trkpt lat="43.58285" lon="3.34055">
        <ele>346.4</ele>
        <time>2023-05-13T12:30:51.000Z</time>
      </trkpt>
      <trkpt lat="43.58278" lon="3.34046">
        <ele>346.9</ele>
        <time>2023-05-13T12:30:54.000Z</time>
      </trkpt>
      <trkpt lat="43.58269" lon="3.34042">
        <ele>347.5</ele>
        <time>2023-05-13T12:30:57.000Z</time>
      </trkpt>
      <trkpt lat="43.58259" lon="3.34037">
        <ele>348</ele>
        <time>2023-05-13T12:31:00.000Z</time>
      </trkpt>
      <trkpt lat="43.58251" lon="3.3403">
        <ele>348.7</ele>
        <time>2023-05-13T12:31:03.000Z</time>
      </trkpt>
      <trkpt lat="43.58244" lon="3.3402">
        <ele>349.3</ele>
        <time>2023-05-13T12:31:06.000Z</time>
      </trkpt>
      <trkpt lat="43.58238" lon="3.3401">
        <ele>349.8</ele>
        <time>2023-05-13T12:31:09.000Z</time>
      </trkpt>
      <trkpt lat="43.58231" lon="3.34">
        <ele>350.4</ele>
        <time>2023-05-13T12:31:12.000Z</time>
      </trkpt>
      <trkpt lat="43.58225" lon="3.3399">
        <ele>351.1</ele>
        <time>2023-05-13T12:31:15.000Z</time>
      </trkpt>
      <trkpt lat="43.58218" lon="3.3398">
        <ele>351.5</ele>
        <time>2023-05-13T12:31:18.000Z</time>
      </trkpt>
      <trkpt lat="43.58212" lon="3.3397">
        <ele>352.2</ele>
        <time>2023-05-13T12:31:21.000Z</time>
      </trkpt>
      <trkpt lat="43.58208" lon="3.33958">
        <ele>352.8</ele>
        <time>2023-05-13T12:31:24.000Z</time>
      </trkpt>
      <trkpt lat="43.58207" lon="3.33945">
        <ele>353.4</ele>
        <time>2023-05-13T12:31:27.000Z</time>
      </trkpt>
      <trkpt lat="43.58207" lon="3.33931">
        <ele>354.1</ele>
        <time>2023-05-13T12:31:30.000Z</time>
      </trkpt>
      <trkpt lat="43.58208" lon="3.33918">
        <ele>354.6</ele>
        <time>2023-05-13T12:31:33.000Z</time>
      </trkpt>
      <trkpt lat="43.58211" lon="3.33906">
        <ele>355</ele>
        <time>2023-05-13T12:31:36.000Z</time>
      </trkpt>
      <trkpt lat="43.58213" lon="3.33892">
        <ele>355.4</ele>
        <time>2023-05-13T12:31:39.000Z</time>
      </trkpt>
      <trkpt lat="43.58217" lon="3.33879">
        <ele>355.7</ele>
        <time>2023-05-13T12:31:42.000Z</time>
      </trkpt>
      <trkpt lat="43.5822" lon="3.33866">
        <ele>356.1</ele>
        <time>2023-05-13T12:31:45.000Z</time>
      </trkpt>
      <trkpt lat="43.58225" lon="3.33853">
        <ele>356.6</ele>
        <time>2023-05-13T12:31:48.000Z</time>
      </trkpt>
      <trkpt lat="43.5823" lon="3.33842">
        <ele>357</ele>
        <time>2023-05-13T12:31:51.000Z</time>
      </trkpt>
      <trkpt lat="43.58234" lon="3.33829">
        <ele>357.5</ele>
        <time>2023-05-13T12:31:54.000Z</time>
      </trkpt>
      <trkpt lat="43.58238" lon="3.33816">
        <ele>358</ele>
        <time>2023-05-13T12:31:57.000Z</time>
      </trkpt>
      <trkpt lat="43.58241" lon="3.33803">
        <ele>358.6</ele>
        <time>2023-05-13T12:32:00.000Z</time>
      </trkpt>
      <trkpt lat="43.58243" lon="3.33789">
        <ele>359.1</ele>
        <time>2023-05-13T12:32:03.000Z</time>
      </trkpt>
      <trkpt lat="43.58245" lon="3.33775">
        <ele>359.5</ele>
        <time>2023-05-13T12:32:06.000Z</time>
      </trkpt>
      <trkpt lat="43.58246" lon="3.33762">
        <ele>360.2</ele>
        <time>2023-05-13T12:32:09.000Z</time>
      </trkpt>
      <trkpt lat="43.58246" lon="3.33748">
        <ele>360.8</ele>
        <time>2023-05-13T12:32:12.000Z</time>
      </trkpt>
      <trkpt lat="43.58246" lon="3.33734">
        <ele>361.6</ele>
        <time>2023-05-13T12:32:15.000Z</time>
      </trkpt>
      <trkpt lat="43.58245" lon="3.33721">
        <ele>362.3</ele>
        <time>2023-05-13T12:32:18.000Z</time>
      </trkpt>
      <trkpt lat="43.58243" lon="3.33709">
        <ele>363</ele>
        <time>2023-05-13T12:32:21.000Z</time>
      </trkpt>
      <trkpt lat="43.58241" lon="3.33696">
        <ele>363.4</ele>
        <time>2023-05-13T12:32:24.000Z</time>
      </trkpt>
      <trkpt lat="43.58241" lon="3.3368">
        <ele>363.9</ele>
        <time>2023-05-13T12:32:28.000Z</time>
      </trkpt>
      <trkpt lat="43.58243" lon="3.33667">
        <ele>364.2</ele>
        <time>2023-05-13T12:32:31.000Z</time>
      </trkpt>
      <trkpt lat="43.58247" lon="3.33655">
        <ele>364.6</ele>
        <time>2023-05-13T12:32:34.000Z</time>
      </trkpt>
      <trkpt lat="43.5825" lon="3.33641">
        <ele>365</ele>
        <time>2023-05-13T12:32:37.000Z</time>
      </trkpt>
      <trkpt lat="43.58253" lon="3.33628">
        <ele>365.7</ele>
        <time>2023-05-13T12:32:40.000Z</time>
      </trkpt>
      <trkpt lat="43.58256" lon="3.33615">
        <ele>366.1</ele>
        <time>2023-05-13T12:32:43.000Z</time>
      </trkpt>
      <trkpt lat="43.58261" lon="3.33602">
        <ele>366.7</ele>
        <time>2023-05-13T12:32:47.000Z</time>
      </trkpt>
      <trkpt lat="43.58268" lon="3.33589">
        <ele>367.4</ele>
        <time>2023-05-13T12:32:51.000Z</time>
      </trkpt>
      <trkpt lat="43.58274" lon="3.33578">
        <ele>367.8</ele>
        <time>2023-05-13T12:32:55.000Z</time>
      </trkpt>
      <trkpt lat="43.5828" lon="3.33565">
        <ele>368.1</ele>
        <time>2023-05-13T12:32:59.000Z</time>
      </trkpt>
      <trkpt lat="43.58284" lon="3.33553">
        <ele>368.2</ele>
        <time>2023-05-13T12:33:02.000Z</time>
      </trkpt>
      <trkpt lat="43.58287" lon="3.3354">
        <ele>368.3</ele>
        <time>2023-05-13T12:33:05.000Z</time>
      </trkpt>
      <trkpt lat="43.58289" lon="3.33527">
        <ele>368.5</ele>
        <time>2023-05-13T12:33:08.000Z</time>
      </trkpt>
      <trkpt lat="43.58291" lon="3.33513">
        <ele>368.7</ele>
        <time>2023-05-13T12:33:12.000Z</time>
      </trkpt>
      <trkpt lat="43.58293" lon="3.33499">
        <ele>368.8</ele>
        <time>2023-05-13T12:33:16.000Z</time>
      </trkpt>
      <trkpt lat="43.58294" lon="3.33486">
        <ele>368.8</ele>
        <time>2023-05-13T12:33:20.000Z</time>
      </trkpt>
      <trkpt lat="43.58295" lon="3.33474">
        <ele>368.6</ele>
        <time>2023-05-13T12:33:24.000Z</time>
      </trkpt>
      <trkpt lat="43.58296" lon="3.33459">
        <ele>368.4</ele>
        <time>2023-05-13T12:33:29.000Z</time>
      </trkpt>
      <trkpt lat="43.58297" lon="3.33446">
        <ele>368.2</ele>
        <time>2023-05-13T12:33:32.000Z</time>
      </trkpt>
      <trkpt lat="43.58299" lon="3.33433">
        <ele>368</ele>
        <time>2023-05-13T12:33:35.000Z</time>
      </trkpt>
      <trkpt lat="43.58302" lon="3.33419">
        <ele>367.8</ele>
        <time>2023-05-13T12:33:38.000Z</time>
      </trkpt>
      <trkpt lat="43.58304" lon="3.33406">
        <ele>367.7</ele>
        <time>2023-05-13T12:33:41.000Z</time>
      </trkpt>
      <trkpt lat="43.58306" lon="3.33392">
        <ele>367.5</ele>
        <time>2023-05-13T12:33:44.000Z</time>
      </trkpt>
      <trkpt lat="43.58309" lon="3.33378">
        <ele>367.3</ele>
        <time>2023-05-13T12:33:47.000Z</time>
      </trkpt>
      <trkpt lat="43.5831" lon="3.33364">
        <ele>367.1</ele>
        <time>2023-05-13T12:33:50.000Z</time>
      </trkpt>
      <trkpt lat="43.58311" lon="3.33347">
        <ele>366.9</ele>
        <time>2023-05-13T12:33:53.000Z</time>
      </trkpt>
      <trkpt lat="43.58311" lon="3.33334">
        <ele>366.7</ele>
        <time>2023-05-13T12:33:55.000Z</time>
      </trkpt>
      <trkpt lat="43.58311" lon="3.3332">
        <ele>366.3</ele>
        <time>2023-05-13T12:33:57.000Z</time>
      </trkpt>
      <trkpt lat="43.58311" lon="3.33305">
        <ele>365.8</ele>
        <time>2023-05-13T12:33:59.000Z</time>
      </trkpt>
      <trkpt lat="43.58311" lon="3.33289">
        <ele>365.3</ele>
        <time>2023-05-13T12:34:01.000Z</time>
      </trkpt>
      <trkpt lat="43.58311" lon="3.33273">
        <ele>364.8</ele>
        <time>2023-05-13T12:34:03.000Z</time>
      </trkpt>
      <trkpt lat="43.5831" lon="3.33256">
        <ele>364.3</ele>
        <time>2023-05-13T12:34:05.000Z</time>
      </trkpt>
      <trkpt lat="43.5831" lon="3.3324">
        <ele>363.9</ele>
        <time>2023-05-13T12:34:07.000Z</time>
      </trkpt>
      <trkpt lat="43.58311" lon="3.33225">
        <ele>363.2</ele>
        <time>2023-05-13T12:34:09.000Z</time>
      </trkpt>
      <trkpt lat="43.58313" lon="3.33211">
        <ele>362.8</ele>
        <time>2023-05-13T12:34:11.000Z</time>
      </trkpt>
      <trkpt lat="43.58317" lon="3.33198">
        <ele>362.4</ele>
        <time>2023-05-13T12:34:13.000Z</time>
      </trkpt>
      <trkpt lat="43.58321" lon="3.33185">
        <ele>361.9</ele>
        <time>2023-05-13T12:34:15.000Z</time>
      </trkpt>
      <trkpt lat="43.58325" lon="3.33173">
        <ele>361.5</ele>
        <time>2023-05-13T12:34:17.000Z</time>
      </trkpt>
      <trkpt lat="43.58328" lon="3.33161">
        <ele>361.3</ele>
        <time>2023-05-13T12:34:19.000Z</time>
      </trkpt>
      <trkpt lat="43.5833" lon="3.33148">
        <ele>360.9</ele>
        <time>2023-05-13T12:34:21.000Z</time>
      </trkpt>
      <trkpt lat="43.58329" lon="3.33135">
        <ele>360.6</ele>
        <time>2023-05-13T12:34:23.000Z</time>
      </trkpt>
      <trkpt lat="43.58327" lon="3.33122">
        <ele>360.2</ele>
        <time>2023-05-13T12:34:25.000Z</time>
      </trkpt>
      <trkpt lat="43.58325" lon="3.33109">
        <ele>359.9</ele>
        <time>2023-05-13T12:34:27.000Z</time>
      </trkpt>
      <trkpt lat="43.58325" lon="3.33095">
        <ele>359.6</ele>
        <time>2023-05-13T12:34:29.000Z</time>
      </trkpt>
      <trkpt lat="43.58324" lon="3.3308">
        <ele>359</ele>
        <time>2023-05-13T12:34:31.000Z</time>
      </trkpt>
      <trkpt lat="43.58326" lon="3.33066">
        <ele>358.6</ele>
        <time>2023-05-13T12:34:33.000Z</time>
      </trkpt>
      <trkpt lat="43.58329" lon="3.33052">
        <ele>358.2</ele>
        <time>2023-05-13T12:34:35.000Z</time>
      </trkpt>
      <trkpt lat="43.58333" lon="3.33036">
        <ele>357.6</ele>
        <time>2023-05-13T12:34:37.000Z</time>
      </trkpt>
      <trkpt lat="43.58339" lon="3.3302">
        <ele>357.1</ele>
        <time>2023-05-13T12:34:39.000Z</time>
      </trkpt>
      <trkpt lat="43.58344" lon="3.33004">
        <ele>356.7</ele>
        <time>2023-05-13T12:34:41.000Z</time>
      </trkpt>
      <trkpt lat="43.58348" lon="3.32986">
        <ele>356.2</ele>
        <time>2023-05-13T12:34:43.000Z</time>
      </trkpt>
      <trkpt lat="43.58351" lon="3.32969">
        <ele>355.6</ele>
        <time>2023-05-13T12:34:45.000Z</time>
      </trkpt>
      <trkpt lat="43.58353" lon="3.32953">
        <ele>355.1</ele>
        <time>2023-05-13T12:34:47.000Z</time>
      </trkpt>
      <trkpt lat="43.58354" lon="3.32937">
        <ele>354.7</ele>
        <time>2023-05-13T12:34:49.000Z</time>
      </trkpt>
      <trkpt lat="43.58354" lon="3.32923">
        <ele>354.3</ele>
        <time>2023-05-13T12:34:51.000Z</time>
      </trkpt>
      <trkpt lat="43.58353" lon="3.32909">
        <ele>354.1</ele>
        <time>2023-05-13T12:34:53.000Z</time>
      </trkpt>
      <trkpt lat="43.58352" lon="3.32897">
        <ele>353.9</ele>
        <time>2023-05-13T12:34:55.000Z</time>
      </trkpt>
      <trkpt lat="43.58351" lon="3.32879">
        <ele>353.4</ele>
        <time>2023-05-13T12:34:58.000Z</time>
      </trkpt>
      <trkpt lat="43.5835" lon="3.32863">
        <ele>353.3</ele>
        <time>2023-05-13T12:35:01.000Z</time>
      </trkpt>
      <trkpt lat="43.58346" lon="3.32848">
        <ele>353.2</ele>
        <time>2023-05-13T12:35:04.000Z</time>
      </trkpt>
      <trkpt lat="43.58339" lon="3.32836">
        <ele>353.4</ele>
        <time>2023-05-13T12:35:07.000Z</time>
      </trkpt>
      <trkpt lat="43.5833" lon="3.32829">
        <ele>353.7</ele>
        <time>2023-05-13T12:35:10.000Z</time>
      </trkpt>
      <trkpt lat="43.5832" lon="3.32822">
        <ele>353.9</ele>
        <time>2023-05-13T12:35:13.000Z</time>
      </trkpt>
      <trkpt lat="43.58309" lon="3.32815">
        <ele>354.2</ele>
        <time>2023-05-13T12:35:16.000Z</time>
      </trkpt>
      <trkpt lat="43.58298" lon="3.32808">
        <ele>354.4</ele>
        <time>2023-05-13T12:35:19.000Z</time>
      </trkpt>
      <trkpt lat="43.58287" lon="3.328">
        <ele>354.6</ele>
        <time>2023-05-13T12:35:22.000Z</time>
      </trkpt>
      <trkpt lat="43.58276" lon="3.32794">
        <ele>354.7</ele>
        <time>2023-05-13T12:35:25.000Z</time>
      </trkpt>
      <trkpt lat="43.58265" lon="3.32787">
        <ele>354.7</ele>
        <time>2023-05-13T12:35:28.000Z</time>
      </trkpt>
      <trkpt lat="43.58254" lon="3.3278">
        <ele>354.8</ele>
        <time>2023-05-13T12:35:31.000Z</time>
      </trkpt>
      <trkpt lat="43.58244" lon="3.3277">
        <ele>354.9</ele>
        <time>2023-05-13T12:35:34.000Z</time>
      </trkpt>
      <trkpt lat="43.58237" lon="3.32757">
        <ele>355.1</ele>
        <time>2023-05-13T12:35:37.000Z</time>
      </trkpt>
      <trkpt lat="43.58233" lon="3.32743">
        <ele>355.2</ele>
        <time>2023-05-13T12:35:40.000Z</time>
      </trkpt>
      <trkpt lat="43.58231" lon="3.32728">
        <ele>355.4</ele>
        <time>2023-05-13T12:35:43.000Z</time>
      </trkpt>
      <trkpt lat="43.5823" lon="3.32713">
        <ele>355.6</ele>
        <time>2023-05-13T12:35:46.000Z</time>
      </trkpt>
      <trkpt lat="43.5823" lon="3.32698">
        <ele>355.8</ele>
        <time>2023-05-13T12:35:49.000Z</time>
      </trkpt>
      <trkpt lat="43.5823" lon="3.32684">
        <ele>356.1</ele>
        <time>2023-05-13T12:35:52.000Z</time>
      </trkpt>
      <trkpt lat="43.58231" lon="3.3267">
        <ele>356.4</ele>
        <time>2023-05-13T12:35:55.000Z</time>
      </trkpt>
      <trkpt lat="43.58232" lon="3.32655">
        <ele>356.7</ele>
        <time>2023-05-13T12:35:58.000Z</time>
      </trkpt>
      <trkpt lat="43.58234" lon="3.32641">
        <ele>356.9</ele>
        <time>2023-05-13T12:36:01.000Z</time>
      </trkpt>
      <trkpt lat="43.58235" lon="3.32629">
        <ele>357.3</ele>
        <time>2023-05-13T12:36:04.000Z</time>
      </trkpt>
      <trkpt lat="43.58236" lon="3.32616">
        <ele>357.8</ele>
        <time>2023-05-13T12:36:07.000Z</time>
      </trkpt>
      <trkpt lat="43.58238" lon="3.32603">
        <ele>358.6</ele>
        <time>2023-05-13T12:36:10.000Z</time>
      </trkpt>
      <trkpt lat="43.58241" lon="3.32591">
        <ele>359.3</ele>
        <time>2023-05-13T12:36:13.000Z</time>
      </trkpt>
      <trkpt lat="43.58244" lon="3.32578">
        <ele>360</ele>
        <time>2023-05-13T12:36:16.000Z</time>
      </trkpt>
      <trkpt lat="43.58247" lon="3.32565">
        <ele>360.8</ele>
        <time>2023-05-13T12:36:19.000Z</time>
      </trkpt>
      <trkpt lat="43.5825" lon="3.32553">
        <ele>361.4</ele>
        <time>2023-05-13T12:36:22.000Z</time>
      </trkpt>
      <trkpt lat="43.58249" lon="3.32539">
        <ele>362.2</ele>
        <time>2023-05-13T12:36:25.000Z</time>
      </trkpt>
      <trkpt lat="43.58246" lon="3.32525">
        <ele>362.9</ele>
        <time>2023-05-13T12:36:28.000Z</time>
      </trkpt>
      <trkpt lat="43.58243" lon="3.32513">
        <ele>363.7</ele>
        <time>2023-05-13T12:36:31.000Z</time>
      </trkpt>
      <trkpt lat="43.5824" lon="3.32499">
        <ele>364.1</ele>
        <time>2023-05-13T12:36:34.000Z</time>
      </trkpt>
      <trkpt lat="43.58239" lon="3.32486">
        <ele>364.5</ele>
        <time>2023-05-13T12:36:37.000Z</time>
      </trkpt>
      <trkpt lat="43.58241" lon="3.32474">
        <ele>365</ele>
        <time>2023-05-13T12:36:40.000Z</time>
      </trkpt>
      <trkpt lat="43.58246" lon="3.32463">
        <ele>365.5</ele>
        <time>2023-05-13T12:36:43.000Z</time>
      </trkpt>
      <trkpt lat="43.58253" lon="3.32451">
        <ele>366.3</ele>
        <time>2023-05-13T12:36:47.000Z</time>
      </trkpt>
      <trkpt lat="43.58262" lon="3.32441">
        <ele>367.2</ele>
        <time>2023-05-13T12:36:51.000Z</time>
      </trkpt>
      <trkpt lat="43.5827" lon="3.32433">
        <ele>367.7</ele>
        <time>2023-05-13T12:36:54.000Z</time>
      </trkpt>
      <trkpt lat="43.58277" lon="3.32425">
        <ele>368.2</ele>
        <time>2023-05-13T12:36:57.000Z</time>
      </trkpt>
      <trkpt lat="43.58285" lon="3.32417">
        <ele>368.6</ele>
        <time>2023-05-13T12:37:00.000Z</time>
      </trkpt>
      <trkpt lat="43.58293" lon="3.3241">
        <ele>369.1</ele>
        <time>2023-05-13T12:37:03.000Z</time>
      </trkpt>
      <trkpt lat="43.58301" lon="3.32403">
        <ele>369.6</ele>
        <time>2023-05-13T12:37:06.000Z</time>
      </trkpt>
      <trkpt lat="43.58309" lon="3.32399">
        <ele>370</ele>
        <time>2023-05-13T12:37:09.000Z</time>
      </trkpt>
      <trkpt lat="43.58319" lon="3.32396">
        <ele>370.5</ele>
        <time>2023-05-13T12:37:12.000Z</time>
      </trkpt>
      <trkpt lat="43.58329" lon="3.32396">
        <ele>371.1</ele>
        <time>2023-05-13T12:37:15.000Z</time>
      </trkpt>
      <trkpt lat="43.58338" lon="3.32397">
        <ele>371.7</ele>
        <time>2023-05-13T12:37:18.000Z</time>
      </trkpt>
      <trkpt lat="43.58348" lon="3.32398">
        <ele>372.2</ele>
        <time>2023-05-13T12:37:21.000Z</time>
      </trkpt>
      <trkpt lat="43.58357" lon="3.32398">
        <ele>372.8</ele>
        <time>2023-05-13T12:37:24.000Z</time>
      </trkpt>
      <trkpt lat="43.58367" lon="3.32399">
        <ele>373.5</ele>
        <time>2023-05-13T12:37:27.000Z</time>
      </trkpt>
      <trkpt lat="43.58376" lon="3.324">
        <ele>374.3</ele>
        <time>2023-05-13T12:37:30.000Z</time>
      </trkpt>
      <trkpt lat="43.58385" lon="3.32399">
        <ele>375.1</ele>
        <time>2023-05-13T12:37:33.000Z</time>
      </trkpt>
      <trkpt lat="43.58394" lon="3.32395">
        <ele>376</ele>
        <time>2023-05-13T12:37:36.000Z</time>
      </trkpt>
      <trkpt lat="43.58403" lon="3.3239">
        <ele>376.7</ele>
        <time>2023-05-13T12:37:39.000Z</time>
      </trkpt>
      <trkpt lat="43.58411" lon="3.32382">
        <ele>377.6</ele>
        <time>2023-05-13T12:37:42.000Z</time>
      </trkpt>
      <trkpt lat="43.58419" lon="3.32374">
        <ele>378.3</ele>
        <time>2023-05-13T12:37:45.000Z</time>
      </trkpt>
      <trkpt lat="43.58427" lon="3.32367">
        <ele>378.9</ele>
        <time>2023-05-13T12:37:48.000Z</time>
      </trkpt>
      <trkpt lat="43.58435" lon="3.3236">
        <ele>379.5</ele>
        <time>2023-05-13T12:37:51.000Z</time>
      </trkpt>
      <trkpt lat="43.58443" lon="3.32352">
        <ele>380.1</ele>
        <time>2023-05-13T12:37:54.000Z</time>
      </trkpt>
      <trkpt lat="43.5845" lon="3.32345">
        <ele>380.6</ele>
        <time>2023-05-13T12:37:57.000Z</time>
      </trkpt>
      <trkpt lat="43.58458" lon="3.32338">
        <ele>381.1</ele>
        <time>2023-05-13T12:38:00.000Z</time>
      </trkpt>
      <trkpt lat="43.58466" lon="3.32331">
        <ele>381.8</ele>
        <time>2023-05-13T12:38:03.000Z</time>
      </trkpt>
      <trkpt lat="43.58474" lon="3.32323">
        <ele>382.4</ele>
        <time>2023-05-13T12:38:06.000Z</time>
      </trkpt>
      <trkpt lat="43.58482" lon="3.32314">
        <ele>383.1</ele>
        <time>2023-05-13T12:38:09.000Z</time>
      </trkpt>
      <trkpt lat="43.58489" lon="3.32303">
        <ele>383.9</ele>
        <time>2023-05-13T12:38:12.000Z</time>
      </trkpt>
      <trkpt lat="43.58495" lon="3.32292">
        <ele>384.4</ele>
        <time>2023-05-13T12:38:15.000Z</time>
      </trkpt>
      <trkpt lat="43.58503" lon="3.32281">
        <ele>385</ele>
        <time>2023-05-13T12:38:18.000Z</time>
      </trkpt>
      <trkpt lat="43.5851" lon="3.3227">
        <ele>385.6</ele>
        <time>2023-05-13T12:38:21.000Z</time>
      </trkpt>
      <trkpt lat="43.58516" lon="3.32258">
        <ele>385.9</ele>
        <time>2023-05-13T12:38:24.000Z</time>
      </trkpt>
      <trkpt lat="43.58521" lon="3.32245">
        <ele>386.4</ele>
        <time>2023-05-13T12:38:27.000Z</time>
      </trkpt>
      <trkpt lat="43.58525" lon="3.32231">
        <ele>386.8</ele>
        <time>2023-05-13T12:38:30.000Z</time>
      </trkpt>
      <trkpt lat="43.58527" lon="3.32217">
        <ele>387.3</ele>
        <time>2023-05-13T12:38:33.000Z</time>
      </trkpt>
      <trkpt lat="43.58525" lon="3.32203">
        <ele>387.7</ele>
        <time>2023-05-13T12:38:36.000Z</time>
      </trkpt>
      <trkpt lat="43.58519" lon="3.32189">
        <ele>388</ele>
        <time>2023-05-13T12:38:39.000Z</time>
      </trkpt>
      <trkpt lat="43.58512" lon="3.32178">
        <ele>388.2</ele>
        <time>2023-05-13T12:38:42.000Z</time>
      </trkpt>
      <trkpt lat="43.58504" lon="3.32168">
        <ele>388.4</ele>
        <time>2023-05-13T12:38:45.000Z</time>
      </trkpt>
      <trkpt lat="43.58497" lon="3.32155">
        <ele>388.6</ele>
        <time>2023-05-13T12:38:48.000Z</time>
      </trkpt>
      <trkpt lat="43.58493" lon="3.32141">
        <ele>388.7</ele>
        <time>2023-05-13T12:38:51.000Z</time>
      </trkpt>
      <trkpt lat="43.58492" lon="3.32125">
        <ele>388.7</ele>
        <time>2023-05-13T12:38:54.000Z</time>
      </trkpt>
      <trkpt lat="43.5849" lon="3.32109">
        <ele>388.7</ele>
        <time>2023-05-13T12:38:57.000Z</time>
      </trkpt>
      <trkpt lat="43.58482" lon="3.32096">
        <ele>388.9</ele>
        <time>2023-05-13T12:39:00.000Z</time>
      </trkpt>
      <trkpt lat="43.58472" lon="3.32087">
        <ele>389.1</ele>
        <time>2023-05-13T12:39:03.000Z</time>
      </trkpt>
      <trkpt lat="43.58463" lon="3.32083">
        <ele>389.4</ele>
        <time>2023-05-13T12:39:06.000Z</time>
      </trkpt>
      <trkpt lat="43.58451" lon="3.32083">
        <ele>389.9</ele>
        <time>2023-05-13T12:39:10.000Z</time>
      </trkpt>
      <trkpt lat="43.58452" lon="3.3207">
        <ele>391.3</ele>
        <time>2023-05-13T12:39:20.000Z</time>
      </trkpt>
      <trkpt lat="43.58461" lon="3.32061">
        <ele>391.9</ele>
        <time>2023-05-13T12:39:24.000Z</time>
      </trkpt>
      <trkpt lat="43.58469" lon="3.32053">
        <ele>392.5</ele>
        <time>2023-05-13T12:39:27.000Z</time>
      </trkpt>
      <trkpt lat="43.58476" lon="3.32045">
        <ele>393.1</ele>
        <time>2023-05-13T12:39:30.000Z</time>
      </trkpt>
      <trkpt lat="43.58484" lon="3.32038">
        <ele>393.6</ele>
        <time>2023-05-13T12:39:33.000Z</time>
      </trkpt>
      <trkpt lat="43.5849" lon="3.32029">
        <ele>394</ele>
        <time>2023-05-13T12:39:36.000Z</time>
      </trkpt>
      <trkpt lat="43.58496" lon="3.32018">
        <ele>394.4</ele>
        <time>2023-05-13T12:39:39.000Z</time>
      </trkpt>
      <trkpt lat="43.585" lon="3.32006">
        <ele>394.9</ele>
        <time>2023-05-13T12:39:42.000Z</time>
      </trkpt>
      <trkpt lat="43.58502" lon="3.31991">
        <ele>395.8</ele>
        <time>2023-05-13T12:39:46.000Z</time>
      </trkpt>
      <trkpt lat="43.58497" lon="3.31977">
        <ele>396.7</ele>
        <time>2023-05-13T12:39:50.000Z</time>
      </trkpt>
      <trkpt lat="43.5849" lon="3.31964">
        <ele>397.5</ele>
        <time>2023-05-13T12:39:54.000Z</time>
      </trkpt>
      <trkpt lat="43.58488" lon="3.31951">
        <ele>397.9</ele>
        <time>2023-05-13T12:39:57.000Z</time>
      </trkpt>
      <trkpt lat="43.5849" lon="3.31935">
        <ele>397.8</ele>
        <time>2023-05-13T12:40:00.000Z</time>
      </trkpt>
      <trkpt lat="43.58493" lon="3.31922">
        <ele>397.6</ele>
        <time>2023-05-13T12:40:02.000Z</time>
      </trkpt>
      <trkpt lat="43.58498" lon="3.31906">
        <ele>397.7</ele>
        <time>2023-05-13T12:40:05.000Z</time>
      </trkpt>
      <trkpt lat="43.58502" lon="3.31891">
        <ele>397.8</ele>
        <time>2023-05-13T12:40:08.000Z</time>
      </trkpt>
      <trkpt lat="43.58505" lon="3.31877">
        <ele>397.8</ele>
        <time>2023-05-13T12:40:11.000Z</time>
      </trkpt>
      <trkpt lat="43.58502" lon="3.31859">
        <ele>397.8</ele>
        <time>2023-05-13T12:40:14.000Z</time>
      </trkpt>
      <trkpt lat="43.58498" lon="3.31842">
        <ele>397.7</ele>
        <time>2023-05-13T12:40:16.000Z</time>
      </trkpt>
      <trkpt lat="43.58496" lon="3.31826">
        <ele>397.5</ele>
        <time>2023-05-13T12:40:18.000Z</time>
      </trkpt>
      <trkpt lat="43.58497" lon="3.31814">
        <ele>397.1</ele>
        <time>2023-05-13T12:40:20.000Z</time>
      </trkpt>
      <trkpt lat="43.58499" lon="3.31798">
        <ele>396.5</ele>
        <time>2023-05-13T12:40:22.000Z</time>
      </trkpt>
      <trkpt lat="43.58499" lon="3.31779">
        <ele>395.6</ele>
        <time>2023-05-13T12:40:24.000Z</time>
      </trkpt>
      <trkpt lat="43.58503" lon="3.31763">
        <ele>394.6</ele>
        <time>2023-05-13T12:40:26.000Z</time>
      </trkpt>
      <trkpt lat="43.58506" lon="3.31747">
        <ele>393.7</ele>
        <time>2023-05-13T12:40:28.000Z</time>
      </trkpt>
      <trkpt lat="43.58501" lon="3.31732">
        <ele>392.6</ele>
        <time>2023-05-13T12:40:31.000Z</time>
      </trkpt>
      <trkpt lat="43.58496" lon="3.31718">
        <ele>392</ele>
        <time>2023-05-13T12:40:34.000Z</time>
      </trkpt>
      <trkpt lat="43.58487" lon="3.31705">
        <ele>391.5</ele>
        <time>2023-05-13T12:40:37.000Z</time>
      </trkpt>
      <trkpt lat="43.58478" lon="3.31704">
        <ele>391.2</ele>
        <time>2023-05-13T12:40:39.000Z</time>
      </trkpt>
      <trkpt lat="43.58469" lon="3.31705">
        <ele>390.7</ele>
        <time>2023-05-13T12:40:41.000Z</time>
      </trkpt>
      <trkpt lat="43.58459" lon="3.31702">
        <ele>389.4</ele>
        <time>2023-05-13T12:40:46.000Z</time>
      </trkpt>
      <trkpt lat="43.58448" lon="3.317">
        <ele>387.9</ele>
        <time>2023-05-13T12:40:51.000Z</time>
      </trkpt>
      <trkpt lat="43.58443" lon="3.31694">
        <ele>385.9</ele>
        <time>2023-05-13T12:40:57.000Z</time>
      </trkpt>
      <trkpt lat="43.58442" lon="3.31694">
        <ele>385.5</ele>
        <time>2023-05-13T12:40:59.000Z</time>
      </trkpt>
      <trkpt lat="43.58431" lon="3.31687">
        <ele>384.4</ele>
        <time>2023-05-13T12:41:04.000Z</time>
      </trkpt>
      <trkpt lat="43.58429" lon="3.31675">
        <ele>383.9</ele>
        <time>2023-05-13T12:41:07.000Z</time>
      </trkpt>
      <trkpt lat="43.58424" lon="3.3166">
        <ele>383.3</ele>
        <time>2023-05-13T12:41:11.000Z</time>
      </trkpt>
      <trkpt lat="43.58415" lon="3.31654">
        <ele>382.3</ele>
        <time>2023-05-13T12:41:13.000Z</time>
      </trkpt>
      <trkpt lat="43.58406" lon="3.31651">
        <ele>381</ele>
        <time>2023-05-13T12:41:15.000Z</time>
      </trkpt>
      <trkpt lat="43.584" lon="3.31641">
        <ele>379.8</ele>
        <time>2023-05-13T12:41:17.000Z</time>
      </trkpt>
      <trkpt lat="43.58405" lon="3.31625">
        <ele>377.5</ele>
        <time>2023-05-13T12:41:20.000Z</time>
      </trkpt>
      <trkpt lat="43.58414" lon="3.31616">
        <ele>376</ele>
        <time>2023-05-13T12:41:23.000Z</time>
      </trkpt>
      <trkpt lat="43.58419" lon="3.31603">
        <ele>374.9</ele>
        <time>2023-05-13T12:41:27.000Z</time>
      </trkpt>
      <trkpt lat="43.58419" lon="3.3159">
        <ele>374.1</ele>
        <time>2023-05-13T12:41:29.000Z</time>
      </trkpt>
      <trkpt lat="43.58424" lon="3.31575">
        <ele>373</ele>
        <time>2023-05-13T12:41:31.000Z</time>
      </trkpt>
      <trkpt lat="43.58432" lon="3.31561">
        <ele>372</ele>
        <time>2023-05-13T12:41:33.000Z</time>
      </trkpt>
      <trkpt lat="43.58441" lon="3.31547">
        <ele>371</ele>
        <time>2023-05-13T12:41:35.000Z</time>
      </trkpt>
      <trkpt lat="43.58449" lon="3.3153">
        <ele>369.9</ele>
        <time>2023-05-13T12:41:37.000Z</time>
      </trkpt>
      <trkpt lat="43.58458" lon="3.31511">
        <ele>368.3</ele>
        <time>2023-05-13T12:41:39.000Z</time>
      </trkpt>
      <trkpt lat="43.58462" lon="3.31499">
        <ele>367.4</ele>
        <time>2023-05-13T12:41:40.000Z</time>
      </trkpt>
      <trkpt lat="43.58467" lon="3.31486">
        <ele>366.6</ele>
        <time>2023-05-13T12:41:41.000Z</time>
      </trkpt>
      <trkpt lat="43.58471" lon="3.31472">
        <ele>365.6</ele>
        <time>2023-05-13T12:41:42.000Z</time>
      </trkpt>
      <trkpt lat="43.58476" lon="3.31459">
        <ele>364.5</ele>
        <time>2023-05-13T12:41:43.000Z</time>
      </trkpt>
      <trkpt lat="43.5848" lon="3.31445">
        <ele>363.3</ele>
        <time>2023-05-13T12:41:44.000Z</time>
      </trkpt>
      <trkpt lat="43.58484" lon="3.31434">
        <ele>362</ele>
        <time>2023-05-13T12:41:45.000Z</time>
      </trkpt>
      <trkpt lat="43.58487" lon="3.31412">
        <ele>359.1</ele>
        <time>2023-05-13T12:41:47.000Z</time>
      </trkpt>
      <trkpt lat="43.58489" lon="3.31388">
        <ele>356.6</ele>
        <time>2023-05-13T12:41:49.000Z</time>
      </trkpt>
      <trkpt lat="43.58494" lon="3.31368">
        <ele>355.5</ele>
        <time>2023-05-13T12:41:51.000Z</time>
      </trkpt>
      <trkpt lat="43.58499" lon="3.31354">
        <ele>355</ele>
        <time>2023-05-13T12:41:53.000Z</time>
      </trkpt>
      <trkpt lat="43.58503" lon="3.31336">
        <ele>354.9</ele>
        <time>2023-05-13T12:41:56.000Z</time>
      </trkpt>
      <trkpt lat="43.58506" lon="3.31325">
        <ele>355.2</ele>
        <time>2023-05-13T12:41:58.000Z</time>
      </trkpt>
      <trkpt lat="43.58515" lon="3.31314">
        <ele>355.9</ele>
        <time>2023-05-13T12:42:01.000Z</time>
      </trkpt>
      <trkpt lat="43.58519" lon="3.31302">
        <ele>357</ele>
        <time>2023-05-13T12:42:04.000Z</time>
      </trkpt>
      <trkpt lat="43.58524" lon="3.31289">
        <ele>358.1</ele>
        <time>2023-05-13T12:42:07.000Z</time>
      </trkpt>
      <trkpt lat="43.58529" lon="3.31277">
        <ele>359.6</ele>
        <time>2023-05-13T12:42:10.000Z</time>
      </trkpt>
      <trkpt lat="43.58533" lon="3.31266">
        <ele>361.2</ele>
        <time>2023-05-13T12:42:13.000Z</time>
      </trkpt>
      <trkpt lat="43.58537" lon="3.31255">
        <ele>362.6</ele>
        <time>2023-05-13T12:42:16.000Z</time>
      </trkpt>
      <trkpt lat="43.5854" lon="3.31243">
        <ele>363.8</ele>
        <time>2023-05-13T12:42:19.000Z</time>
      </trkpt>
      <trkpt lat="43.5854" lon="3.31229">
        <ele>364.3</ele>
        <time>2023-05-13T12:42:22.000Z</time>
      </trkpt>
      <trkpt lat="43.58543" lon="3.31215">
        <ele>364.7</ele>
        <time>2023-05-13T12:42:25.000Z</time>
      </trkpt>
      <trkpt lat="43.58548" lon="3.31202">
        <ele>365.4</ele>
        <time>2023-05-13T12:42:28.000Z</time>
      </trkpt>
      <trkpt lat="43.58552" lon="3.31189">
        <ele>366.1</ele>
        <time>2023-05-13T12:42:31.000Z</time>
      </trkpt>
      <trkpt lat="43.58554" lon="3.31172">
        <ele>366.7</ele>
        <time>2023-05-13T12:42:34.000Z</time>
      </trkpt>
      <trkpt lat="43.58555" lon="3.31156">
        <ele>367.2</ele>
        <time>2023-05-13T12:42:37.000Z</time>
      </trkpt>
      <trkpt lat="43.58555" lon="3.31139">
        <ele>367.6</ele>
        <time>2023-05-13T12:42:40.000Z</time>
      </trkpt>
      <trkpt lat="43.5855" lon="3.31123">
        <ele>368</ele>
        <time>2023-05-13T12:42:43.000Z</time>
      </trkpt>
      <trkpt lat="43.58542" lon="3.3111">
        <ele>368.2</ele>
        <time>2023-05-13T12:42:46.000Z</time>
      </trkpt>
      <trkpt lat="43.58532" lon="3.311">
        <ele>368.4</ele>
        <time>2023-05-13T12:42:49.000Z</time>
      </trkpt>
      <trkpt lat="43.58521" lon="3.31091">
        <ele>368.5</ele>
        <time>2023-05-13T12:42:52.000Z</time>
      </trkpt>
      <trkpt lat="43.58513" lon="3.3108">
        <ele>368.8</ele>
        <time>2023-05-13T12:42:55.000Z</time>
      </trkpt>
      <trkpt lat="43.58508" lon="3.31066">
        <ele>369.2</ele>
        <time>2023-05-13T12:42:58.000Z</time>
      </trkpt>
      <trkpt lat="43.58507" lon="3.31052">
        <ele>369.9</ele>
        <time>2023-05-13T12:43:01.000Z</time>
      </trkpt>
      <trkpt lat="43.58506" lon="3.31039">
        <ele>370.7</ele>
        <time>2023-05-13T12:43:04.000Z</time>
      </trkpt>
      <trkpt lat="43.58505" lon="3.31023">
        <ele>372.1</ele>
        <time>2023-05-13T12:43:08.000Z</time>
      </trkpt>
      <trkpt lat="43.58505" lon="3.31009">
        <ele>372.7</ele>
        <time>2023-05-13T12:43:11.000Z</time>
      </trkpt>
      <trkpt lat="43.58506" lon="3.30994">
        <ele>373.3</ele>
        <time>2023-05-13T12:43:14.000Z</time>
      </trkpt>
      <trkpt lat="43.58506" lon="3.30981">
        <ele>373.9</ele>
        <time>2023-05-13T12:43:17.000Z</time>
      </trkpt>
      <trkpt lat="43.58506" lon="3.30967">
        <ele>374.5</ele>
        <time>2023-05-13T12:43:20.000Z</time>
      </trkpt>
      <trkpt lat="43.58505" lon="3.30954">
        <ele>375</ele>
        <time>2023-05-13T12:43:23.000Z</time>
      </trkpt>
      <trkpt lat="43.58504" lon="3.30937">
        <ele>375.6</ele>
        <time>2023-05-13T12:43:27.000Z</time>
      </trkpt>
      <trkpt lat="43.58501" lon="3.30925">
        <ele>376.3</ele>
        <time>2023-05-13T12:43:30.000Z</time>
      </trkpt>
      <trkpt lat="43.58498" lon="3.30913">
        <ele>377</ele>
        <time>2023-05-13T12:43:33.000Z</time>
      </trkpt>
      <trkpt lat="43.58495" lon="3.309">
        <ele>377.8</ele>
        <time>2023-05-13T12:43:36.000Z</time>
      </trkpt>
      <trkpt lat="43.58497" lon="3.30887">
        <ele>378.8</ele>
        <time>2023-05-13T12:43:39.000Z</time>
      </trkpt>
      <trkpt lat="43.58506" lon="3.30877">
        <ele>380.5</ele>
        <time>2023-05-13T12:43:43.000Z</time>
      </trkpt>
      <trkpt lat="43.58515" lon="3.30873">
        <ele>381.5</ele>
        <time>2023-05-13T12:43:46.000Z</time>
      </trkpt>
      <trkpt lat="43.58525" lon="3.30867">
        <ele>382.3</ele>
        <time>2023-05-13T12:43:49.000Z</time>
      </trkpt>
      <trkpt lat="43.58533" lon="3.30859">
        <ele>382.7</ele>
        <time>2023-05-13T12:43:52.000Z</time>
      </trkpt>
      <trkpt lat="43.58542" lon="3.30848">
        <ele>383</ele>
        <time>2023-05-13T12:43:56.000Z</time>
      </trkpt>
      <trkpt lat="43.5855" lon="3.30836">
        <ele>383</ele>
        <time>2023-05-13T12:43:59.000Z</time>
      </trkpt>
      <trkpt lat="43.58556" lon="3.30825">
        <ele>382.8</ele>
        <time>2023-05-13T12:44:01.000Z</time>
      </trkpt>
      <trkpt lat="43.58563" lon="3.30811">
        <ele>382.5</ele>
        <time>2023-05-13T12:44:03.000Z</time>
      </trkpt>
      <trkpt lat="43.5857" lon="3.30799">
        <ele>382.3</ele>
        <time>2023-05-13T12:44:05.000Z</time>
      </trkpt>
      <trkpt lat="43.5858" lon="3.30798">
        <ele>381.8</ele>
        <time>2023-05-13T12:44:08.000Z</time>
      </trkpt>
      <trkpt lat="43.58583" lon="3.30813">
        <ele>381.2</ele>
        <time>2023-05-13T12:44:12.000Z</time>
      </trkpt>
      <trkpt lat="43.58585" lon="3.30829">
        <ele>380.6</ele>
        <time>2023-05-13T12:44:16.000Z</time>
      </trkpt>
      <trkpt lat="43.58586" lon="3.30843">
        <ele>380.4</ele>
        <time>2023-05-13T12:44:19.000Z</time>
      </trkpt>
      <trkpt lat="43.58588" lon="3.30856">
        <ele>380.2</ele>
        <time>2023-05-13T12:44:22.000Z</time>
      </trkpt>
      <trkpt lat="43.5859" lon="3.3087">
        <ele>380.1</ele>
        <time>2023-05-13T12:44:25.000Z</time>
      </trkpt>
      <trkpt lat="43.58594" lon="3.30885">
        <ele>380</ele>
        <time>2023-05-13T12:44:28.000Z</time>
      </trkpt>
      <trkpt lat="43.586" lon="3.30899">
        <ele>379.8</ele>
        <time>2023-05-13T12:44:31.000Z</time>
      </trkpt>
      <trkpt lat="43.58608" lon="3.3091">
        <ele>379.8</ele>
        <time>2023-05-13T12:44:34.000Z</time>
      </trkpt>
      <trkpt lat="43.58615" lon="3.3092">
        <ele>379.7</ele>
        <time>2023-05-13T12:44:37.000Z</time>
      </trkpt>
      <trkpt lat="43.58622" lon="3.30929">
        <ele>379.7</ele>
        <time>2023-05-13T12:44:40.000Z</time>
      </trkpt>
      <trkpt lat="43.58632" lon="3.30939">
        <ele>379.7</ele>
        <time>2023-05-13T12:44:43.000Z</time>
      </trkpt>
      <trkpt lat="43.58641" lon="3.30948">
        <ele>379.7</ele>
        <time>2023-05-13T12:44:46.000Z</time>
      </trkpt>
      <trkpt lat="43.58649" lon="3.30957">
        <ele>379.7</ele>
        <time>2023-05-13T12:44:49.000Z</time>
      </trkpt>
      <trkpt lat="43.5866" lon="3.30964">
        <ele>379.8</ele>
        <time>2023-05-13T12:44:52.000Z</time>
      </trkpt>
      <trkpt lat="43.5867" lon="3.30967">
        <ele>379.8</ele>
        <time>2023-05-13T12:44:55.000Z</time>
      </trkpt>
      <trkpt lat="43.58681" lon="3.30967">
        <ele>380</ele>
        <time>2023-05-13T12:44:58.000Z</time>
      </trkpt>
      <trkpt lat="43.58691" lon="3.30964">
        <ele>380.2</ele>
        <time>2023-05-13T12:45:01.000Z</time>
      </trkpt>
      <trkpt lat="43.58702" lon="3.3096">
        <ele>380.5</ele>
        <time>2023-05-13T12:45:05.000Z</time>
      </trkpt>
      <trkpt lat="43.58712" lon="3.30955">
        <ele>380.9</ele>
        <time>2023-05-13T12:45:08.000Z</time>
      </trkpt>
      <trkpt lat="43.5872" lon="3.30946">
        <ele>381.4</ele>
        <time>2023-05-13T12:45:11.000Z</time>
      </trkpt>
      <trkpt lat="43.5873" lon="3.30937">
        <ele>381.9</ele>
        <time>2023-05-13T12:45:14.000Z</time>
      </trkpt>
      <trkpt lat="43.58738" lon="3.30928">
        <ele>382.6</ele>
        <time>2023-05-13T12:45:17.000Z</time>
      </trkpt>
      <trkpt lat="43.58748" lon="3.3092">
        <ele>383.3</ele>
        <time>2023-05-13T12:45:20.000Z</time>
      </trkpt>
      <trkpt lat="43.58758" lon="3.30912">
        <ele>383.8</ele>
        <time>2023-05-13T12:45:23.000Z</time>
      </trkpt>
      <trkpt lat="43.58766" lon="3.30903">
        <ele>384.5</ele>
        <time>2023-05-13T12:45:26.000Z</time>
      </trkpt>
      <trkpt lat="43.58773" lon="3.30891">
        <ele>385.1</ele>
        <time>2023-05-13T12:45:29.000Z</time>
      </trkpt>
      <trkpt lat="43.58779" lon="3.30878">
        <ele>385.8</ele>
        <time>2023-05-13T12:45:32.000Z</time>
      </trkpt>
      <trkpt lat="43.58782" lon="3.30866">
        <ele>386.5</ele>
        <time>2023-05-13T12:45:35.000Z</time>
      </trkpt>
      <trkpt lat="43.58783" lon="3.30852">
        <ele>387.3</ele>
        <time>2023-05-13T12:45:38.000Z</time>
      </trkpt>
      <trkpt lat="43.58787" lon="3.3084">
        <ele>387.9</ele>
        <time>2023-05-13T12:45:41.000Z</time>
      </trkpt>
      <trkpt lat="43.58793" lon="3.30829">
        <ele>388.5</ele>
        <time>2023-05-13T12:45:44.000Z</time>
      </trkpt>
      <trkpt lat="43.58799" lon="3.30818">
        <ele>389</ele>
        <time>2023-05-13T12:45:47.000Z</time>
      </trkpt>
      <trkpt lat="43.58805" lon="3.30805">
        <ele>389.4</ele>
        <time>2023-05-13T12:45:50.000Z</time>
      </trkpt>
      <trkpt lat="43.5881" lon="3.30791">
        <ele>389.8</ele>
        <time>2023-05-13T12:45:53.000Z</time>
      </trkpt>
      <trkpt lat="43.58815" lon="3.30777">
        <ele>390.3</ele>
        <time>2023-05-13T12:45:56.000Z</time>
      </trkpt>
      <trkpt lat="43.58823" lon="3.30765">
        <ele>391</ele>
        <time>2023-05-13T12:45:59.000Z</time>
      </trkpt>
      <trkpt lat="43.58829" lon="3.30753">
        <ele>391.7</ele>
        <time>2023-05-13T12:46:02.000Z</time>
      </trkpt>
      <trkpt lat="43.58834" lon="3.30741">
        <ele>392.4</ele>
        <time>2023-05-13T12:46:05.000Z</time>
      </trkpt>
      <trkpt lat="43.58839" lon="3.30728">
        <ele>393.1</ele>
        <time>2023-05-13T12:46:08.000Z</time>
      </trkpt>
      <trkpt lat="43.58842" lon="3.30713">
        <ele>393.9</ele>
        <time>2023-05-13T12:46:11.000Z</time>
      </trkpt>
      <trkpt lat="43.58846" lon="3.307">
        <ele>394.6</ele>
        <time>2023-05-13T12:46:14.000Z</time>
      </trkpt>
      <trkpt lat="43.58847" lon="3.30686">
        <ele>395.6</ele>
        <time>2023-05-13T12:46:17.000Z</time>
      </trkpt>
      <trkpt lat="43.58848" lon="3.30671">
        <ele>396.5</ele>
        <time>2023-05-13T12:46:20.000Z</time>
      </trkpt>
      <trkpt lat="43.5885" lon="3.30657">
        <ele>397.2</ele>
        <time>2023-05-13T12:46:23.000Z</time>
      </trkpt>
      <trkpt lat="43.58851" lon="3.30642">
        <ele>398.1</ele>
        <time>2023-05-13T12:46:26.000Z</time>
      </trkpt>
      <trkpt lat="43.58853" lon="3.30628">
        <ele>398.6</ele>
        <time>2023-05-13T12:46:29.000Z</time>
      </trkpt>
      <trkpt lat="43.58854" lon="3.30613">
        <ele>399</ele>
        <time>2023-05-13T12:46:32.000Z</time>
      </trkpt>
      <trkpt lat="43.58855" lon="3.30598">
        <ele>399.4</ele>
        <time>2023-05-13T12:46:35.000Z</time>
      </trkpt>
      <trkpt lat="43.58856" lon="3.30584">
        <ele>399.8</ele>
        <time>2023-05-13T12:46:38.000Z</time>
      </trkpt>
      <trkpt lat="43.58857" lon="3.30569">
        <ele>400.2</ele>
        <time>2023-05-13T12:46:41.000Z</time>
      </trkpt>
      <trkpt lat="43.58858" lon="3.30555">
        <ele>400.6</ele>
        <time>2023-05-13T12:46:44.000Z</time>
      </trkpt>
      <trkpt lat="43.58859" lon="3.3054">
        <ele>401.1</ele>
        <time>2023-05-13T12:46:47.000Z</time>
      </trkpt>
      <trkpt lat="43.58861" lon="3.30525">
        <ele>401.5</ele>
        <time>2023-05-13T12:46:50.000Z</time>
      </trkpt>
      <trkpt lat="43.58862" lon="3.3051">
        <ele>402</ele>
        <time>2023-05-13T12:46:53.000Z</time>
      </trkpt>
      <trkpt lat="43.58863" lon="3.30496">
        <ele>402.4</ele>
        <time>2023-05-13T12:46:56.000Z</time>
      </trkpt>
      <trkpt lat="43.58863" lon="3.30482">
        <ele>402.8</ele>
        <time>2023-05-13T12:46:59.000Z</time>
      </trkpt>
      <trkpt lat="43.58864" lon="3.30468">
        <ele>403.3</ele>
        <time>2023-05-13T12:47:02.000Z</time>
      </trkpt>
      <trkpt lat="43.58864" lon="3.30454">
        <ele>403.9</ele>
        <time>2023-05-13T12:47:05.000Z</time>
      </trkpt>
      <trkpt lat="43.58863" lon="3.3044">
        <ele>404.5</ele>
        <time>2023-05-13T12:47:08.000Z</time>
      </trkpt>
      <trkpt lat="43.5886" lon="3.30426">
        <ele>405.1</ele>
        <time>2023-05-13T12:47:11.000Z</time>
      </trkpt>
      <trkpt lat="43.58853" lon="3.30414">
        <ele>405.8</ele>
        <time>2023-05-13T12:47:14.000Z</time>
      </trkpt>
      <trkpt lat="43.58847" lon="3.30406">
        <ele>406.4</ele>
        <time>2023-05-13T12:47:17.000Z</time>
      </trkpt>
      <trkpt lat="43.58838" lon="3.30395">
        <ele>407.1</ele>
        <time>2023-05-13T12:47:20.000Z</time>
      </trkpt>
      <trkpt lat="43.5883" lon="3.30387">
        <ele>407.7</ele>
        <time>2023-05-13T12:47:23.000Z</time>
      </trkpt>
      <trkpt lat="43.58822" lon="3.30378">
        <ele>408.5</ele>
        <time>2023-05-13T12:47:26.000Z</time>
      </trkpt>
      <trkpt lat="43.58813" lon="3.30371">
        <ele>409</ele>
        <time>2023-05-13T12:47:29.000Z</time>
      </trkpt>
      <trkpt lat="43.58803" lon="3.30364">
        <ele>409.3</ele>
        <time>2023-05-13T12:47:32.000Z</time>
      </trkpt>
      <trkpt lat="43.58795" lon="3.30357">
        <ele>409.8</ele>
        <time>2023-05-13T12:47:35.000Z</time>
      </trkpt>
      <trkpt lat="43.58787" lon="3.30347">
        <ele>410.3</ele>
        <time>2023-05-13T12:47:38.000Z</time>
      </trkpt>
      <trkpt lat="43.58781" lon="3.30336">
        <ele>410.9</ele>
        <time>2023-05-13T12:47:41.000Z</time>
      </trkpt>
      <trkpt lat="43.58777" lon="3.30321">
        <ele>411.6</ele>
        <time>2023-05-13T12:47:44.000Z</time>
      </trkpt>
      <trkpt lat="43.58776" lon="3.30307">
        <ele>412.3</ele>
        <time>2023-05-13T12:47:47.000Z</time>
      </trkpt>
      <trkpt lat="43.58774" lon="3.30293">
        <ele>413.1</ele>
        <time>2023-05-13T12:47:50.000Z</time>
      </trkpt>
      <trkpt lat="43.58771" lon="3.30279">
        <ele>413.9</ele>
        <time>2023-05-13T12:47:53.000Z</time>
      </trkpt>
      <trkpt lat="43.58766" lon="3.30265">
        <ele>414.5</ele>
        <time>2023-05-13T12:47:56.000Z</time>
      </trkpt>
      <trkpt lat="43.5876" lon="3.30252">
        <ele>415.1</ele>
        <time>2023-05-13T12:47:59.000Z</time>
      </trkpt>
      <trkpt lat="43.58755" lon="3.3024">
        <ele>415.5</ele>
        <time>2023-05-13T12:48:02.000Z</time>
      </trkpt>
      <trkpt lat="43.58749" lon="3.30228">
        <ele>415.9</ele>
        <time>2023-05-13T12:48:05.000Z</time>
      </trkpt>
      <trkpt lat="43.58743" lon="3.30217">
        <ele>416.4</ele>
        <time>2023-05-13T12:48:08.000Z</time>
      </trkpt>
      <trkpt lat="43.58737" lon="3.30206">
        <ele>417</ele>
        <time>2023-05-13T12:48:11.000Z</time>
      </trkpt>
      <trkpt lat="43.5873" lon="3.30196">
        <ele>417.5</ele>
        <time>2023-05-13T12:48:14.000Z</time>
      </trkpt>
      <trkpt lat="43.58724" lon="3.30186">
        <ele>418.1</ele>
        <time>2023-05-13T12:48:17.000Z</time>
      </trkpt>
      <trkpt lat="43.58719" lon="3.30174">
        <ele>418.6</ele>
        <time>2023-05-13T12:48:20.000Z</time>
      </trkpt>
      <trkpt lat="43.58711" lon="3.30164">
        <ele>419.3</ele>
        <time>2023-05-13T12:48:23.000Z</time>
      </trkpt>
      <trkpt lat="43.587" lon="3.30158">
        <ele>420</ele>
        <time>2023-05-13T12:48:26.000Z</time>
      </trkpt>
      <trkpt lat="43.5869" lon="3.30156">
        <ele>420.7</ele>
        <time>2023-05-13T12:48:29.000Z</time>
      </trkpt>
      <trkpt lat="43.5868" lon="3.30155">
        <ele>421.2</ele>
        <time>2023-05-13T12:48:32.000Z</time>
      </trkpt>
      <trkpt lat="43.5867" lon="3.30153">
        <ele>421.7</ele>
        <time>2023-05-13T12:48:35.000Z</time>
      </trkpt>
      <trkpt lat="43.5866" lon="3.30152">
        <ele>422.1</ele>
        <time>2023-05-13T12:48:38.000Z</time>
      </trkpt>
      <trkpt lat="43.58651" lon="3.30148">
        <ele>422.6</ele>
        <time>2023-05-13T12:48:41.000Z</time>
      </trkpt>
      <trkpt lat="43.58644" lon="3.30139">
        <ele>423.4</ele>
        <time>2023-05-13T12:48:44.000Z</time>
      </trkpt>
      <trkpt lat="43.58641" lon="3.30126">
        <ele>424.2</ele>
        <time>2023-05-13T12:48:47.000Z</time>
      </trkpt>
      <trkpt lat="43.58643" lon="3.30112">
        <ele>424.8</ele>
        <time>2023-05-13T12:48:50.000Z</time>
      </trkpt>
      <trkpt lat="43.58647" lon="3.30098">
        <ele>425.5</ele>
        <time>2023-05-13T12:48:53.000Z</time>
      </trkpt>
      <trkpt lat="43.58651" lon="3.30085">
        <ele>425.9</ele>
        <time>2023-05-13T12:48:56.000Z</time>
      </trkpt>
      <trkpt lat="43.58655" lon="3.30072">
        <ele>426.5</ele>
        <time>2023-05-13T12:48:59.000Z</time>
      </trkpt>
      <trkpt lat="43.58662" lon="3.30062">
        <ele>426.9</ele>
        <time>2023-05-13T12:49:02.000Z</time>
      </trkpt>
      <trkpt lat="43.5867" lon="3.30055">
        <ele>427.5</ele>
        <time>2023-05-13T12:49:05.000Z</time>
      </trkpt>
      <trkpt lat="43.5868" lon="3.30049">
        <ele>428</ele>
        <time>2023-05-13T12:49:08.000Z</time>
      </trkpt>
      <trkpt lat="43.58689" lon="3.30044">
        <ele>428.7</ele>
        <time>2023-05-13T12:49:11.000Z</time>
      </trkpt>
      <trkpt lat="43.58698" lon="3.30042">
        <ele>429.4</ele>
        <time>2023-05-13T12:49:14.000Z</time>
      </trkpt>
      <trkpt lat="43.58708" lon="3.3004">
        <ele>430.2</ele>
        <time>2023-05-13T12:49:17.000Z</time>
      </trkpt>
      <trkpt lat="43.58717" lon="3.30036">
        <ele>430.8</ele>
        <time>2023-05-13T12:49:20.000Z</time>
      </trkpt>
      <trkpt lat="43.58728" lon="3.30034">
        <ele>431.6</ele>
        <time>2023-05-13T12:49:23.000Z</time>
      </trkpt>
      <trkpt lat="43.58739" lon="3.30032">
        <ele>432.2</ele>
        <time>2023-05-13T12:49:26.000Z</time>
      </trkpt>
      <trkpt lat="43.58749" lon="3.30026">
        <ele>432.7</ele>
        <time>2023-05-13T12:49:29.000Z</time>
      </trkpt>
      <trkpt lat="43.58758" lon="3.30016">
        <ele>433.1</ele>
        <time>2023-05-13T12:49:32.000Z</time>
      </trkpt>
      <trkpt lat="43.58766" lon="3.30004">
        <ele>433.6</ele>
        <time>2023-05-13T12:49:35.000Z</time>
      </trkpt>
      <trkpt lat="43.58773" lon="3.29992">
        <ele>433.9</ele>
        <time>2023-05-13T12:49:38.000Z</time>
      </trkpt>
      <trkpt lat="43.58779" lon="3.29981">
        <ele>434.2</ele>
        <time>2023-05-13T12:49:41.000Z</time>
      </trkpt>
      <trkpt lat="43.58785" lon="3.2997">
        <ele>434.7</ele>
        <time>2023-05-13T12:49:44.000Z</time>
      </trkpt>
      <trkpt lat="43.58788" lon="3.29956">
        <ele>435.1</ele>
        <time>2023-05-13T12:49:47.000Z</time>
      </trkpt>
      <trkpt lat="43.58789" lon="3.29942">
        <ele>435.5</ele>
        <time>2023-05-13T12:49:50.000Z</time>
      </trkpt>
      <trkpt lat="43.5879" lon="3.29928">
        <ele>436</ele>
        <time>2023-05-13T12:49:53.000Z</time>
      </trkpt>
      <trkpt lat="43.58789" lon="3.29915">
        <ele>436.5</ele>
        <time>2023-05-13T12:49:56.000Z</time>
      </trkpt>
      <trkpt lat="43.58786" lon="3.29902">
        <ele>437.2</ele>
        <time>2023-05-13T12:50:00.000Z</time>
      </trkpt>
      <trkpt lat="43.58781" lon="3.2989">
        <ele>438</ele>
        <time>2023-05-13T12:50:05.000Z</time>
      </trkpt>
      <trkpt lat="43.58772" lon="3.29885">
        <ele>438.6</ele>
        <time>2023-05-13T12:50:12.000Z</time>
      </trkpt>
      <trkpt lat="43.58767" lon="3.29882">
        <ele>439</ele>
        <time>2023-05-13T12:50:18.000Z</time>
      </trkpt>
      <trkpt lat="43.58767" lon="3.29882">
        <ele>439.3</ele>
        <time>2023-05-13T12:50:28.000Z</time>
      </trkpt>
      <trkpt lat="43.58766" lon="3.29883">
        <ele>439.4</ele>
        <time>2023-05-13T12:50:31.000Z</time>
      </trkpt>
      <trkpt lat="43.58767" lon="3.29883">
        <ele>439.5</ele>
        <time>2023-05-13T12:50:34.000Z</time>
      </trkpt>
      <trkpt lat="43.58775" lon="3.29889">
        <ele>439.7</ele>
        <time>2023-05-13T12:50:40.000Z</time>
      </trkpt>
      <trkpt lat="43.58783" lon="3.29897">
        <ele>439.7</ele>
        <time>2023-05-13T12:50:44.000Z</time>
      </trkpt>
      <trkpt lat="43.58787" lon="3.29908">
        <ele>439.6</ele>
        <time>2023-05-13T12:50:47.000Z</time>
      </trkpt>
      <trkpt lat="43.58792" lon="3.29919">
        <ele>439.5</ele>
        <time>2023-05-13T12:50:50.000Z</time>
      </trkpt>
      <trkpt lat="43.58798" lon="3.29931">
        <ele>439.2</ele>
        <time>2023-05-13T12:50:53.000Z</time>
      </trkpt>
      <trkpt lat="43.58804" lon="3.29942">
        <ele>438.5</ele>
        <time>2023-05-13T12:50:56.000Z</time>
      </trkpt>
      <trkpt lat="43.58812" lon="3.2995">
        <ele>437.2</ele>
        <time>2023-05-13T12:50:59.000Z</time>
      </trkpt>
      <trkpt lat="43.58821" lon="3.2995">
        <ele>434.2</ele>
        <time>2023-05-13T12:51:02.000Z</time>
      </trkpt>
      <trkpt lat="43.58831" lon="3.29952">
        <ele>430.6</ele>
        <time>2023-05-13T12:51:05.000Z</time>
      </trkpt>
      <trkpt lat="43.58841" lon="3.2995">
        <ele>427.4</ele>
        <time>2023-05-13T12:51:08.000Z</time>
      </trkpt>
      <trkpt lat="43.58852" lon="3.29956">
        <ele>424.9</ele>
        <time>2023-05-13T12:51:12.000Z</time>
      </trkpt>
      <trkpt lat="43.58863" lon="3.29958">
        <ele>423.7</ele>
        <time>2023-05-13T12:51:15.000Z</time>
      </trkpt>
      <trkpt lat="43.58873" lon="3.2996">
        <ele>421.9</ele>
        <time>2023-05-13T12:51:19.000Z</time>
      </trkpt>
      <trkpt lat="43.58882" lon="3.29962">
        <ele>420.2</ele>
        <time>2023-05-13T12:51:24.000Z</time>
      </trkpt>
      <trkpt lat="43.58893" lon="3.29963">
        <ele>418.8</ele>
        <time>2023-05-13T12:51:29.000Z</time>
      </trkpt>
      <trkpt lat="43.58904" lon="3.29965">
        <ele>417.4</ele>
        <time>2023-05-13T12:51:33.000Z</time>
      </trkpt>
      <trkpt lat="43.58913" lon="3.2997">
        <ele>415.6</ele>
        <time>2023-05-13T12:51:38.000Z</time>
      </trkpt>
      <trkpt lat="43.58924" lon="3.29973">
        <ele>413.8</ele>
        <time>2023-05-13T12:51:42.000Z</time>
      </trkpt>
      <trkpt lat="43.58925" lon="3.29968">
        <ele>412.4</ele>
        <time>2023-05-13T12:51:48.000Z</time>
      </trkpt>
      <trkpt lat="43.58925" lon="3.29968">
        <ele>412.1</ele>
        <time>2023-05-13T12:51:52.000Z</time>
      </trkpt>
      <trkpt lat="43.58926" lon="3.29965">
        <ele>412</ele>
        <time>2023-05-13T12:51:55.000Z</time>
      </trkpt>
      <trkpt lat="43.58926" lon="3.29965">
        <ele>412</ele>
        <time>2023-05-13T12:51:57.000Z</time>
      </trkpt>
      <trkpt lat="43.58926" lon="3.29965">
        <ele>411.9</ele>
        <time>2023-05-13T12:52:01.000Z</time>
      </trkpt>
      <trkpt lat="43.58926" lon="3.29965">
        <ele>411.8</ele>
        <time>2023-05-13T12:52:02.000Z</time>
      </trkpt>
      <trkpt lat="43.58926" lon="3.2995">
        <ele>411.9</ele>
        <time>2023-05-13T12:52:10.000Z</time>
      </trkpt>
      <trkpt lat="43.58927" lon="3.29936">
        <ele>412.3</ele>
        <time>2023-05-13T12:52:15.000Z</time>
      </trkpt>
      <trkpt lat="43.58928" lon="3.29923">
        <ele>413</ele>
        <time>2023-05-13T12:52:21.000Z</time>
      </trkpt>
      <trkpt lat="43.58928" lon="3.29922">
        <ele>413.2</ele>
        <time>2023-05-13T12:52:23.000Z</time>
      </trkpt>
      <trkpt lat="43.58928" lon="3.29922">
        <ele>413.5</ele>
        <time>2023-05-13T12:52:26.000Z</time>
      </trkpt>
      <trkpt lat="43.58924" lon="3.2991">
        <ele>414.3</ele>
        <time>2023-05-13T12:52:36.000Z</time>
      </trkpt>
      <trkpt lat="43.58922" lon="3.29896">
        <ele>414.7</ele>
        <time>2023-05-13T12:52:42.000Z</time>
      </trkpt>
      <trkpt lat="43.58923" lon="3.29882">
        <ele>414.8</ele>
        <time>2023-05-13T12:52:47.000Z</time>
      </trkpt>
      <trkpt lat="43.58919" lon="3.29869">
        <ele>414.8</ele>
        <time>2023-05-13T12:52:53.000Z</time>
      </trkpt>
      <trkpt lat="43.58914" lon="3.29858">
        <ele>414.7</ele>
        <time>2023-05-13T12:52:58.000Z</time>
      </trkpt>
      <trkpt lat="43.58907" lon="3.29847">
        <ele>414.4</ele>
        <time>2023-05-13T12:53:03.000Z</time>
      </trkpt>
      <trkpt lat="43.58905" lon="3.29834">
        <ele>413.7</ele>
        <time>2023-05-13T12:53:08.000Z</time>
      </trkpt>
      <trkpt lat="43.58898" lon="3.29823">
        <ele>412.3</ele>
        <time>2023-05-13T12:53:14.000Z</time>
      </trkpt>
      <trkpt lat="43.5889" lon="3.29812">
        <ele>411</ele>
        <time>2023-05-13T12:53:18.000Z</time>
      </trkpt>
      <trkpt lat="43.58882" lon="3.29804">
        <ele>409.9</ele>
        <time>2023-05-13T12:53:21.000Z</time>
      </trkpt>
      <trkpt lat="43.58874" lon="3.29796">
        <ele>407.7</ele>
        <time>2023-05-13T12:53:26.000Z</time>
      </trkpt>
      <trkpt lat="43.58867" lon="3.29786">
        <ele>406</ele>
        <time>2023-05-13T12:53:31.000Z</time>
      </trkpt>
      <trkpt lat="43.58862" lon="3.29774">
        <ele>404.7</ele>
        <time>2023-05-13T12:53:35.000Z</time>
      </trkpt>
      <trkpt lat="43.58856" lon="3.29763">
        <ele>402.7</ele>
        <time>2023-05-13T12:53:41.000Z</time>
      </trkpt>
      <trkpt lat="43.5885" lon="3.29753">
        <ele>401.9</ele>
        <time>2023-05-13T12:53:44.000Z</time>
      </trkpt>
      <trkpt lat="43.58845" lon="3.2974">
        <ele>400.8</ele>
        <time>2023-05-13T12:53:47.000Z</time>
      </trkpt>
      <trkpt lat="43.58842" lon="3.29727">
        <ele>398.6</ele>
        <time>2023-05-13T12:53:51.000Z</time>
      </trkpt>
      <trkpt lat="43.58837" lon="3.29711">
        <ele>395.7</ele>
        <time>2023-05-13T12:53:55.000Z</time>
      </trkpt>
      <trkpt lat="43.58833" lon="3.29697">
        <ele>391.5</ele>
        <time>2023-05-13T12:54:00.000Z</time>
      </trkpt>
      <trkpt lat="43.58826" lon="3.29686">
        <ele>388.2</ele>
        <time>2023-05-13T12:54:04.000Z</time>
      </trkpt>
      <trkpt lat="43.58818" lon="3.2968">
        <ele>385.1</ele>
        <time>2023-05-13T12:54:09.000Z</time>
      </trkpt>
      <trkpt lat="43.58808" lon="3.2968">
        <ele>383.3</ele>
        <time>2023-05-13T12:54:13.000Z</time>
      </trkpt>
      <trkpt lat="43.58808" lon="3.29678">
        <ele>382.5</ele>
        <time>2023-05-13T12:54:16.000Z</time>
      </trkpt>
      <trkpt lat="43.58808" lon="3.29678">
        <ele>381.9</ele>
        <time>2023-05-13T12:54:20.000Z</time>
      </trkpt>
      <trkpt lat="43.58808" lon="3.29678">
        <ele>381.8</ele>
        <time>2023-05-13T12:54:21.000Z</time>
      </trkpt>
      <trkpt lat="43.58808" lon="3.29679">
        <ele>381.1</ele>
        <time>2023-05-13T12:54:27.000Z</time>
      </trkpt>
      <trkpt lat="43.58805" lon="3.29681">
        <ele>380.9</ele>
        <time>2023-05-13T12:54:31.000Z</time>
      </trkpt>
      <trkpt lat="43.58805" lon="3.29681">
        <ele>380.7</ele>
        <time>2023-05-13T12:54:37.000Z</time>
      </trkpt>
      <trkpt lat="43.58813" lon="3.29682">
        <ele>380.6</ele>
        <time>2023-05-13T12:54:49.000Z</time>
      </trkpt>
      <trkpt lat="43.58813" lon="3.29682">
        <ele>380.6</ele>
        <time>2023-05-13T12:54:50.000Z</time>
      </trkpt>
      <trkpt lat="43.58813" lon="3.29682">
        <ele>380.6</ele>
        <time>2023-05-13T12:54:51.000Z</time>
      </trkpt>
      <trkpt lat="43.58812" lon="3.29682">
        <ele>380.7</ele>
        <time>2023-05-13T12:55:05.000Z</time>
      </trkpt>
      <trkpt lat="43.58804" lon="3.29688">
        <ele>380.8</ele>
        <time>2023-05-13T12:55:10.000Z</time>
      </trkpt>
      <trkpt lat="43.58793" lon="3.29692">
        <ele>380.8</ele>
        <time>2023-05-13T12:55:14.000Z</time>
      </trkpt>
      <trkpt lat="43.58782" lon="3.29693">
        <ele>380.9</ele>
        <time>2023-05-13T12:55:19.000Z</time>
      </trkpt>
      <trkpt lat="43.58772" lon="3.29689">
        <ele>380.8</ele>
        <time>2023-05-13T12:55:23.000Z</time>
      </trkpt>
      <trkpt lat="43.58762" lon="3.29686">
        <ele>380.6</ele>
        <time>2023-05-13T12:55:26.000Z</time>
      </trkpt>
      <trkpt lat="43.58752" lon="3.29684">
        <ele>380.3</ele>
        <time>2023-05-13T12:55:29.000Z</time>
      </trkpt>
      <trkpt lat="43.58742" lon="3.29677">
        <ele>379.5</ele>
        <time>2023-05-13T12:55:34.000Z</time>
      </trkpt>
      <trkpt lat="43.58738" lon="3.29665">
        <ele>378.7</ele>
        <time>2023-05-13T12:55:39.000Z</time>
      </trkpt>
      <trkpt lat="43.58737" lon="3.29652">
        <ele>378.3</ele>
        <time>2023-05-13T12:55:44.000Z</time>
      </trkpt>
      <trkpt lat="43.58734" lon="3.2964">
        <ele>378.3</ele>
        <time>2023-05-13T12:55:49.000Z</time>
      </trkpt>
      <trkpt lat="43.5873" lon="3.29628">
        <ele>378.4</ele>
        <time>2023-05-13T12:55:54.000Z</time>
      </trkpt>
      <trkpt lat="43.58724" lon="3.29616">
        <ele>378.8</ele>
        <time>2023-05-13T12:56:00.000Z</time>
      </trkpt>
      <trkpt lat="43.58715" lon="3.29606">
        <ele>379.3</ele>
        <time>2023-05-13T12:56:05.000Z</time>
      </trkpt>
      <trkpt lat="43.58708" lon="3.29598">
        <ele>380</ele>
        <time>2023-05-13T12:56:09.000Z</time>
      </trkpt>
      <trkpt lat="43.58701" lon="3.29589">
        <ele>380.8</ele>
        <time>2023-05-13T12:56:13.000Z</time>
      </trkpt>
      <trkpt lat="43.58691" lon="3.29583">
        <ele>382.1</ele>
        <time>2023-05-13T12:56:18.000Z</time>
      </trkpt>
      <trkpt lat="43.58682" lon="3.29577">
        <ele>383.1</ele>
        <time>2023-05-13T12:56:22.000Z</time>
      </trkpt>
      <trkpt lat="43.58671" lon="3.29574">
        <ele>384.2</ele>
        <time>2023-05-13T12:56:26.000Z</time>
      </trkpt>
      <trkpt lat="43.58661" lon="3.29571">
        <ele>385.5</ele>
        <time>2023-05-13T12:56:30.000Z</time>
      </trkpt>
      <trkpt lat="43.58652" lon="3.29569">
        <ele>386.8</ele>
        <time>2023-05-13T12:56:34.000Z</time>
      </trkpt>
      <trkpt lat="43.58642" lon="3.29563">
        <ele>388</ele>
        <time>2023-05-13T12:56:39.000Z</time>
      </trkpt>
      <trkpt lat="43.58643" lon="3.29549">
        <ele>388.7</ele>
        <time>2023-05-13T12:56:43.000Z</time>
      </trkpt>
      <trkpt lat="43.58646" lon="3.29534">
        <ele>388.8</ele>
        <time>2023-05-13T12:56:46.000Z</time>
      </trkpt>
      <trkpt lat="43.58647" lon="3.29518">
        <ele>388.8</ele>
        <time>2023-05-13T12:56:49.000Z</time>
      </trkpt>
      <trkpt lat="43.58649" lon="3.29503">
        <ele>389</ele>
        <time>2023-05-13T12:56:53.000Z</time>
      </trkpt>
      <trkpt lat="43.58653" lon="3.2949">
        <ele>389.1</ele>
        <time>2023-05-13T12:56:57.000Z</time>
      </trkpt>
      <trkpt lat="43.58654" lon="3.29474">
        <ele>389.4</ele>
        <time>2023-05-13T12:57:01.000Z</time>
      </trkpt>
      <trkpt lat="43.58658" lon="3.29461">
        <ele>390</ele>
        <time>2023-05-13T12:57:05.000Z</time>
      </trkpt>
      <trkpt lat="43.58662" lon="3.29448">
        <ele>390.7</ele>
        <time>2023-05-13T12:57:09.000Z</time>
      </trkpt>
      <trkpt lat="43.58668" lon="3.29436">
        <ele>391.6</ele>
        <time>2023-05-13T12:57:13.000Z</time>
      </trkpt>
      <trkpt lat="43.58672" lon="3.29422">
        <ele>392.4</ele>
        <time>2023-05-13T12:57:17.000Z</time>
      </trkpt>
      <trkpt lat="43.58676" lon="3.2941">
        <ele>392.7</ele>
        <time>2023-05-13T12:57:20.000Z</time>
      </trkpt>
      <trkpt lat="43.58681" lon="3.29399">
        <ele>393.1</ele>
        <time>2023-05-13T12:57:23.000Z</time>
      </trkpt>
      <trkpt lat="43.58687" lon="3.29389">
        <ele>393.3</ele>
        <time>2023-05-13T12:57:26.000Z</time>
      </trkpt>
      <trkpt lat="43.58699" lon="3.29383">
        <ele>393.3</ele>
        <time>2023-05-13T12:57:29.000Z</time>
      </trkpt>
      <trkpt lat="43.5871" lon="3.29379">
        <ele>393.2</ele>
        <time>2023-05-13T12:57:32.000Z</time>
      </trkpt>
      <trkpt lat="43.5872" lon="3.29371">
        <ele>393.1</ele>
        <time>2023-05-13T12:57:35.000Z</time>
      </trkpt>
      <trkpt lat="43.58728" lon="3.29363">
        <ele>392.7</ele>
        <time>2023-05-13T12:57:39.000Z</time>
      </trkpt>
      <trkpt lat="43.58731" lon="3.2936">
        <ele>392.2</ele>
        <time>2023-05-13T12:57:43.000Z</time>
      </trkpt>
      <trkpt lat="43.58731" lon="3.29359">
        <ele>391.8</ele>
        <time>2023-05-13T12:57:47.000Z</time>
      </trkpt>
      <trkpt lat="43.58731" lon="3.29359">
        <ele>391.7</ele>
        <time>2023-05-13T12:57:49.000Z</time>
      </trkpt>
      <trkpt lat="43.58731" lon="3.29359">
        <ele>391.6</ele>
        <time>2023-05-13T12:57:50.000Z</time>
      </trkpt>
      <trkpt lat="43.58731" lon="3.29359">
        <ele>391.5</ele>
        <time>2023-05-13T12:57:51.000Z</time>
      </trkpt>
      <trkpt lat="43.58731" lon="3.29359">
        <ele>391.2</ele>
        <time>2023-05-13T12:57:55.000Z</time>
      </trkpt>
      <trkpt lat="43.58731" lon="3.29359">
        <ele>391.1</ele>
        <time>2023-05-13T12:57:57.000Z</time>
      </trkpt>
      <trkpt lat="43.58731" lon="3.29359">
        <ele>390.9</ele>
        <time>2023-05-13T12:58:04.000Z</time>
      </trkpt>
      <trkpt lat="43.58731" lon="3.29359">
        <ele>390.8</ele>
        <time>2023-05-13T12:58:05.000Z</time>
      </trkpt>
      <trkpt lat="43.5873" lon="3.29359">
        <ele>390.8</ele>
        <time>2023-05-13T12:58:08.000Z</time>
      </trkpt>
      <trkpt lat="43.5873" lon="3.29359">
        <ele>390.7</ele>
        <time>2023-05-13T12:58:09.000Z</time>
      </trkpt>
      <trkpt lat="43.5873" lon="3.29359">
        <ele>390.7</ele>
        <time>2023-05-13T12:58:11.000Z</time>
      </trkpt>
      <trkpt lat="43.5873" lon="3.29359">
        <ele>390.7</ele>
        <time>2023-05-13T12:58:12.000Z</time>
      </trkpt>
      <trkpt lat="43.5873" lon="3.29359">
        <ele>390.5</ele>
        <time>2023-05-13T12:58:30.000Z</time>
      </trkpt>
      <trkpt lat="43.58729" lon="3.29361">
        <ele>390.4</ele>
        <time>2023-05-13T12:58:36.000Z</time>
      </trkpt>
      <trkpt lat="43.5873" lon="3.29361">
        <ele>390.4</ele>
        <time>2023-05-13T12:58:38.000Z</time>
      </trkpt>
      <trkpt lat="43.5873" lon="3.29361">
        <ele>390.4</ele>
        <time>2023-05-13T12:58:39.000Z</time>
      </trkpt>
      <trkpt lat="43.58729" lon="3.29361">
        <ele>390.4</ele>
        <time>2023-05-13T12:58:42.000Z</time>
      </trkpt>
      <trkpt lat="43.58729" lon="3.29361">
        <ele>390.4</ele>
        <time>2023-05-13T12:58:43.000Z</time>
      </trkpt>
      <trkpt lat="43.58729" lon="3.29361">
        <ele>390.4</ele>
        <time>2023-05-13T12:58:53.000Z</time>
      </trkpt>
      <trkpt lat="43.58729" lon="3.29362">
        <ele>390.4</ele>
        <time>2023-05-13T12:58:55.000Z</time>
      </trkpt>
      <trkpt lat="43.5873" lon="3.29362">
        <ele>390.4</ele>
        <time>2023-05-13T12:58:56.000Z</time>
      </trkpt>
      <trkpt lat="43.5873" lon="3.29362">
        <ele>390.5</ele>
        <time>2023-05-13T12:58:59.000Z</time>
      </trkpt>
      <trkpt lat="43.5873" lon="3.29363">
        <ele>390.7</ele>
        <time>2023-05-13T12:59:26.000Z</time>
      </trkpt>
      <trkpt lat="43.5873" lon="3.29363">
        <ele>390.7</ele>
        <time>2023-05-13T12:59:27.000Z</time>
      </trkpt>
      <trkpt lat="43.58731" lon="3.29363">
        <ele>390.7</ele>
        <time>2023-05-13T12:59:29.000Z</time>
      </trkpt>
      <trkpt lat="43.58731" lon="3.29363">
        <ele>390.7</ele>
        <time>2023-05-13T12:59:30.000Z</time>
      </trkpt>
      <trkpt lat="43.58731" lon="3.29363">
        <ele>391</ele>
        <time>2023-05-13T13:00:22.000Z</time>
      </trkpt>
      <trkpt lat="43.58731" lon="3.29363">
        <ele>391</ele>
        <time>2023-05-13T13:00:23.000Z</time>
      </trkpt>
      <trkpt lat="43.58731" lon="3.29363">
        <ele>391.1</ele>
        <time>2023-05-13T13:00:48.000Z</time>
      </trkpt>
      <trkpt lat="43.58731" lon="3.29363">
        <ele>391.1</ele>
        <time>2023-05-13T13:00:49.000Z</time>
      </trkpt>
      <trkpt lat="43.58731" lon="3.29362">
        <ele>391.1</ele>
        <time>2023-05-13T13:01:13.000Z</time>
      </trkpt>
      <trkpt lat="43.58731" lon="3.29362">
        <ele>391.1</ele>
        <time>2023-05-13T13:01:14.000Z</time>
      </trkpt>
      <trkpt lat="43.58731" lon="3.29362">
        <ele>391.1</ele>
        <time>2023-05-13T13:01:15.000Z</time>
      </trkpt>
      <trkpt lat="43.58731" lon="3.29362">
        <ele>391.1</ele>
        <time>2023-05-13T13:01:17.000Z</time>
      </trkpt>
      <trkpt lat="43.58732" lon="3.29362">
        <ele>391.1</ele>
        <time>2023-05-13T13:01:28.000Z</time>
      </trkpt>
      <trkpt lat="43.58732" lon="3.29362">
        <ele>391.1</ele>
        <time>2023-05-13T13:01:29.000Z</time>
      </trkpt>
      <trkpt lat="43.58732" lon="3.29362">
        <ele>391.2</ele>
        <time>2023-05-13T13:01:54.000Z</time>
      </trkpt>
      <trkpt lat="43.58732" lon="3.29362">
        <ele>391.2</ele>
        <time>2023-05-13T13:01:55.000Z</time>
      </trkpt>
      <trkpt lat="43.58732" lon="3.29362">
        <ele>391.3</ele>
        <time>2023-05-13T13:03:02.000Z</time>
      </trkpt>
      <trkpt lat="43.58732" lon="3.29362">
        <ele>391.3</ele>
        <time>2023-05-13T13:03:03.000Z</time>
      </trkpt>
      <trkpt lat="43.58732" lon="3.29362">
        <ele>391.3</ele>
        <time>2023-05-13T13:03:20.000Z</time>
      </trkpt>
      <trkpt lat="43.58732" lon="3.29362">
        <ele>391.3</ele>
        <time>2023-05-13T13:03:23.000Z</time>
      </trkpt>
      <trkpt lat="43.58732" lon="3.29362">
        <ele>391.3</ele>
        <time>2023-05-13T13:03:24.000Z</time>
      </trkpt>
      <trkpt lat="43.58732" lon="3.29363">
        <ele>391.3</ele>
        <time>2023-05-13T13:03:27.000Z</time>
      </trkpt>
      <trkpt lat="43.58732" lon="3.29363">
        <ele>391.3</ele>
        <time>2023-05-13T13:03:28.000Z</time>
      </trkpt>
      <trkpt lat="43.58721" lon="3.29363">
        <ele>391.3</ele>
        <time>2023-05-13T13:03:35.000Z</time>
      </trkpt>
      <trkpt lat="43.58718" lon="3.29377">
        <ele>391.3</ele>
        <time>2023-05-13T13:03:55.000Z</time>
      </trkpt>
      <trkpt lat="43.5872" lon="3.29362">
        <ele>391.4</ele>
        <time>2023-05-13T13:04:02.000Z</time>
      </trkpt>
      <trkpt lat="43.58731" lon="3.29356">
        <ele>391.4</ele>
        <time>2023-05-13T13:04:09.000Z</time>
      </trkpt>
      <trkpt lat="43.58725" lon="3.29354">
        <ele>391.4</ele>
        <time>2023-05-13T13:04:22.000Z</time>
      </trkpt>
      <trkpt lat="43.58725" lon="3.29354">
        <ele>391.4</ele>
        <time>2023-05-13T13:04:23.000Z</time>
      </trkpt>
      <trkpt lat="43.58725" lon="3.29354">
        <ele>391.4</ele>
        <time>2023-05-13T13:04:24.000Z</time>
      </trkpt>
      <trkpt lat="43.58725" lon="3.29355">
        <ele>391.5</ele>
        <time>2023-05-13T13:04:30.000Z</time>
      </trkpt>
      <trkpt lat="43.58725" lon="3.29355">
        <ele>391.5</ele>
        <time>2023-05-13T13:04:31.000Z</time>
      </trkpt>
      <trkpt lat="43.58726" lon="3.29355">
        <ele>391.5</ele>
        <time>2023-05-13T13:04:32.000Z</time>
      </trkpt>
      <trkpt lat="43.58726" lon="3.29355">
        <ele>391.5</ele>
        <time>2023-05-13T13:04:33.000Z</time>
      </trkpt>
      <trkpt lat="43.58726" lon="3.29355">
        <ele>391.5</ele>
        <time>2023-05-13T13:04:35.000Z</time>
      </trkpt>
      <trkpt lat="43.58726" lon="3.29355">
        <ele>391.5</ele>
        <time>2023-05-13T13:04:36.000Z</time>
      </trkpt>
      <trkpt lat="43.58726" lon="3.29355">
        <ele>391.5</ele>
        <time>2023-05-13T13:04:39.000Z</time>
      </trkpt>
      <trkpt lat="43.58726" lon="3.29355">
        <ele>391.5</ele>
        <time>2023-05-13T13:04:40.000Z</time>
      </trkpt>
      <trkpt lat="43.58726" lon="3.29355">
        <ele>391.5</ele>
        <time>2023-05-13T13:04:41.000Z</time>
      </trkpt>
      <trkpt lat="43.58726" lon="3.29355">
        <ele>391.5</ele>
        <time>2023-05-13T13:04:42.000Z</time>
      </trkpt>
      <trkpt lat="43.58726" lon="3.29355">
        <ele>391.5</ele>
        <time>2023-05-13T13:04:44.000Z</time>
      </trkpt>
      <trkpt lat="43.58726" lon="3.29355">
        <ele>391.5</ele>
        <time>2023-05-13T13:04:45.000Z</time>
      </trkpt>
      <trkpt lat="43.58726" lon="3.29355">
        <ele>391.5</ele>
        <time>2023-05-13T13:04:46.000Z</time>
      </trkpt>
      <trkpt lat="43.58726" lon="3.29355">
        <ele>391.5</ele>
        <time>2023-05-13T13:04:47.000Z</time>
      </trkpt>
      <trkpt lat="43.58727" lon="3.29355">
        <ele>391.5</ele>
        <time>2023-05-13T13:04:48.000Z</time>
      </trkpt>
      <trkpt lat="43.58727" lon="3.29355">
        <ele>391.5</ele>
        <time>2023-05-13T13:04:49.000Z</time>
      </trkpt>
      <trkpt lat="43.58727" lon="3.29355">
        <ele>391.6</ele>
        <time>2023-05-13T13:04:51.000Z</time>
      </trkpt>
      <trkpt lat="43.58727" lon="3.29355">
        <ele>391.6</ele>
        <time>2023-05-13T13:04:52.000Z</time>
      </trkpt>
      <trkpt lat="43.58727" lon="3.29355">
        <ele>391.6</ele>
        <time>2023-05-13T13:04:53.000Z</time>
      </trkpt>
      <trkpt lat="43.58727" lon="3.29355">
        <ele>391.6</ele>
        <time>2023-05-13T13:04:54.000Z</time>
      </trkpt>
      <trkpt lat="43.58728" lon="3.29357">
        <ele>391.6</ele>
        <time>2023-05-13T13:04:55.000Z</time>
      </trkpt>
      <trkpt lat="43.5873" lon="3.2936">
        <ele>391.7</ele>
        <time>2023-05-13T13:04:58.000Z</time>
      </trkpt>
      <trkpt lat="43.5873" lon="3.29361">
        <ele>391.7</ele>
        <time>2023-05-13T13:05:12.000Z</time>
      </trkpt>
      <trkpt lat="43.5873" lon="3.29362">
        <ele>391.7</ele>
        <time>2023-05-13T13:05:14.000Z</time>
      </trkpt>
      <trkpt lat="43.5873" lon="3.29362">
        <ele>391.7</ele>
        <time>2023-05-13T13:05:20.000Z</time>
      </trkpt>
      <trkpt lat="43.5873" lon="3.29362">
        <ele>391.7</ele>
        <time>2023-05-13T13:05:21.000Z</time>
      </trkpt>
      <trkpt lat="43.5873" lon="3.29362">
        <ele>391.7</ele>
        <time>2023-05-13T13:05:37.000Z</time>
      </trkpt>
      <trkpt lat="43.5873" lon="3.29362">
        <ele>391.7</ele>
        <time>2023-05-13T13:05:38.000Z</time>
      </trkpt>
      <trkpt lat="43.5873" lon="3.29362">
        <ele>391.7</ele>
        <time>2023-05-13T13:05:39.000Z</time>
      </trkpt>
      <trkpt lat="43.5873" lon="3.29362">
        <ele>391.7</ele>
        <time>2023-05-13T13:05:40.000Z</time>
      </trkpt>
      <trkpt lat="43.5873" lon="3.29362">
        <ele>391.7</ele>
        <time>2023-05-13T13:05:49.000Z</time>
      </trkpt>
      <trkpt lat="43.5873" lon="3.29362">
        <ele>391.7</ele>
        <time>2023-05-13T13:05:50.000Z</time>
      </trkpt>
      <trkpt lat="43.58731" lon="3.29362">
        <ele>391.8</ele>
        <time>2023-05-13T13:05:59.000Z</time>
      </trkpt>
      <trkpt lat="43.58731" lon="3.29362">
        <ele>391.8</ele>
        <time>2023-05-13T13:06:00.000Z</time>
      </trkpt>
      <trkpt lat="43.58731" lon="3.29362">
        <ele>391.8</ele>
        <time>2023-05-13T13:06:16.000Z</time>
      </trkpt>
      <trkpt lat="43.58731" lon="3.29362">
        <ele>391.8</ele>
        <time>2023-05-13T13:06:17.000Z</time>
      </trkpt>
      <trkpt lat="43.58731" lon="3.29362">
        <ele>391.9</ele>
        <time>2023-05-13T13:07:36.000Z</time>
      </trkpt>
      <trkpt lat="43.58731" lon="3.29362">
        <ele>391.9</ele>
        <time>2023-05-13T13:07:37.000Z</time>
      </trkpt>
      <trkpt lat="43.58731" lon="3.29362">
        <ele>391.9</ele>
        <time>2023-05-13T13:08:26.000Z</time>
      </trkpt>
      <trkpt lat="43.58731" lon="3.29362">
        <ele>391.9</ele>
        <time>2023-05-13T13:08:27.000Z</time>
      </trkpt>
      <trkpt lat="43.58731" lon="3.29363">
        <ele>392</ele>
        <time>2023-05-13T13:09:59.000Z</time>
      </trkpt>
      <trkpt lat="43.58731" lon="3.29362">
        <ele>392</ele>
        <time>2023-05-13T13:10:00.000Z</time>
      </trkpt>
      <trkpt lat="43.58731" lon="3.29363">
        <ele>391.9</ele>
        <time>2023-05-13T13:10:39.000Z</time>
      </trkpt>
      <trkpt lat="43.58731" lon="3.29363">
        <ele>391.9</ele>
        <time>2023-05-13T13:10:40.000Z</time>
      </trkpt>
      <trkpt lat="43.58731" lon="3.29364">
        <ele>391.9</ele>
        <time>2023-05-13T13:10:43.000Z</time>
      </trkpt>
      <trkpt lat="43.58735" lon="3.29367">
        <ele>391.8</ele>
        <time>2023-05-13T13:10:52.000Z</time>
      </trkpt>
      <trkpt lat="43.58735" lon="3.29367">
        <ele>391.8</ele>
        <time>2023-05-13T13:10:54.000Z</time>
      </trkpt>
      <trkpt lat="43.58734" lon="3.29364">
        <ele>391.7</ele>
        <time>2023-05-13T13:10:58.000Z</time>
      </trkpt>
      <trkpt lat="43.58733" lon="3.29364">
        <ele>391.3</ele>
        <time>2023-05-13T13:11:38.000Z</time>
      </trkpt>
      <trkpt lat="43.58733" lon="3.29363">
        <ele>391.3</ele>
        <time>2023-05-13T13:11:40.000Z</time>
      </trkpt>
      <trkpt lat="43.58733" lon="3.29364">
        <ele>391.1</ele>
        <time>2023-05-13T13:11:51.000Z</time>
      </trkpt>
      <trkpt lat="43.58732" lon="3.29361">
        <ele>391.2</ele>
        <time>2023-05-13T13:11:59.000Z</time>
      </trkpt>
      <trkpt lat="43.58733" lon="3.29361">
        <ele>390.9</ele>
        <time>2023-05-13T13:12:48.000Z</time>
      </trkpt>
      <trkpt lat="43.58741" lon="3.2936">
        <ele>390.9</ele>
        <time>2023-05-13T13:13:01.000Z</time>
      </trkpt>
      <trkpt lat="43.58741" lon="3.2936">
        <ele>391.3</ele>
        <time>2023-05-13T13:13:52.000Z</time>
      </trkpt>
      <trkpt lat="43.58741" lon="3.2936">
        <ele>391.3</ele>
        <time>2023-05-13T13:13:53.000Z</time>
      </trkpt>
      <trkpt lat="43.58741" lon="3.2936">
        <ele>391.3</ele>
        <time>2023-05-13T13:14:22.000Z</time>
      </trkpt>
      <trkpt lat="43.58741" lon="3.2936">
        <ele>391.3</ele>
        <time>2023-05-13T13:14:23.000Z</time>
      </trkpt>
      <trkpt lat="43.58741" lon="3.2936">
        <ele>391.4</ele>
        <time>2023-05-13T13:14:52.000Z</time>
      </trkpt>
      <trkpt lat="43.58741" lon="3.2936">
        <ele>391.4</ele>
        <time>2023-05-13T13:14:53.000Z</time>
      </trkpt>
      <trkpt lat="43.58741" lon="3.2936">
        <ele>391.5</ele>
        <time>2023-05-13T13:15:27.000Z</time>
      </trkpt>
      <trkpt lat="43.58741" lon="3.2936">
        <ele>391.5</ele>
        <time>2023-05-13T13:15:28.000Z</time>
      </trkpt>
      <trkpt lat="43.58742" lon="3.2936">
        <ele>391.5</ele>
        <time>2023-05-13T13:15:33.000Z</time>
      </trkpt>
      <trkpt lat="43.58751" lon="3.29358">
        <ele>391.5</ele>
        <time>2023-05-13T13:15:41.000Z</time>
      </trkpt>
      <trkpt lat="43.58762" lon="3.29354">
        <ele>391.5</ele>
        <time>2023-05-13T13:15:45.000Z</time>
      </trkpt>
      <trkpt lat="43.58773" lon="3.29351">
        <ele>391.5</ele>
        <time>2023-05-13T13:15:49.000Z</time>
      </trkpt>
      <trkpt lat="43.58783" lon="3.29347">
        <ele>391.6</ele>
        <time>2023-05-13T13:15:53.000Z</time>
      </trkpt>
      <trkpt lat="43.58794" lon="3.29341">
        <ele>391.8</ele>
        <time>2023-05-13T13:15:57.000Z</time>
      </trkpt>
      <trkpt lat="43.58804" lon="3.29338">
        <ele>392</ele>
        <time>2023-05-13T13:16:01.000Z</time>
      </trkpt>
      <trkpt lat="43.58815" lon="3.29338">
        <ele>392.4</ele>
        <time>2023-05-13T13:16:05.000Z</time>
      </trkpt>
      <trkpt lat="43.58825" lon="3.29339">
        <ele>392.8</ele>
        <time>2023-05-13T13:16:08.000Z</time>
      </trkpt>
      <trkpt lat="43.58836" lon="3.29341">
        <ele>393</ele>
        <time>2023-05-13T13:16:11.000Z</time>
      </trkpt>
      <trkpt lat="43.58845" lon="3.29342">
        <ele>393.4</ele>
        <time>2023-05-13T13:16:15.000Z</time>
      </trkpt>
      <trkpt lat="43.58854" lon="3.29338">
        <ele>393.9</ele>
        <time>2023-05-13T13:16:19.000Z</time>
      </trkpt>
      <trkpt lat="43.58865" lon="3.29334">
        <ele>394.2</ele>
        <time>2023-05-13T13:16:23.000Z</time>
      </trkpt>
      <trkpt lat="43.58874" lon="3.29331">
        <ele>394.3</ele>
        <time>2023-05-13T13:16:26.000Z</time>
      </trkpt>
      <trkpt lat="43.58883" lon="3.29328">
        <ele>394.5</ele>
        <time>2023-05-13T13:16:29.000Z</time>
      </trkpt>
      <trkpt lat="43.58892" lon="3.29326">
        <ele>394.9</ele>
        <time>2023-05-13T13:16:34.000Z</time>
      </trkpt>
      <trkpt lat="43.58902" lon="3.29328">
        <ele>395.5</ele>
        <time>2023-05-13T13:16:38.000Z</time>
      </trkpt>
      <trkpt lat="43.5891" lon="3.29332">
        <ele>396.2</ele>
        <time>2023-05-13T13:16:42.000Z</time>
      </trkpt>
      <trkpt lat="43.5892" lon="3.29335">
        <ele>397.7</ele>
        <time>2023-05-13T13:16:47.000Z</time>
      </trkpt>
      <trkpt lat="43.58929" lon="3.29328">
        <ele>398.8</ele>
        <time>2023-05-13T13:16:51.000Z</time>
      </trkpt>
      <trkpt lat="43.58936" lon="3.2932">
        <ele>399.3</ele>
        <time>2023-05-13T13:16:54.000Z</time>
      </trkpt>
      <trkpt lat="43.58943" lon="3.29312">
        <ele>399.5</ele>
        <time>2023-05-13T13:16:57.000Z</time>
      </trkpt>
      <trkpt lat="43.5895" lon="3.29303">
        <ele>399.8</ele>
        <time>2023-05-13T13:17:00.000Z</time>
      </trkpt>
      <trkpt lat="43.58958" lon="3.29294">
        <ele>399.9</ele>
        <time>2023-05-13T13:17:03.000Z</time>
      </trkpt>
      <trkpt lat="43.58967" lon="3.29283">
        <ele>399.9</ele>
        <time>2023-05-13T13:17:06.000Z</time>
      </trkpt>
      <trkpt lat="43.58977" lon="3.29274">
        <ele>399.6</ele>
        <time>2023-05-13T13:17:09.000Z</time>
      </trkpt>
      <trkpt lat="43.58988" lon="3.29267">
        <ele>399.4</ele>
        <time>2023-05-13T13:17:12.000Z</time>
      </trkpt>
      <trkpt lat="43.58999" lon="3.29258">
        <ele>398.7</ele>
        <time>2023-05-13T13:17:15.000Z</time>
      </trkpt>
      <trkpt lat="43.59008" lon="3.2925">
        <ele>398.2</ele>
        <time>2023-05-13T13:17:17.000Z</time>
      </trkpt>
      <trkpt lat="43.59018" lon="3.29242">
        <ele>397.7</ele>
        <time>2023-05-13T13:17:19.000Z</time>
      </trkpt>
      <trkpt lat="43.59027" lon="3.29233">
        <ele>396.6</ele>
        <time>2023-05-13T13:17:21.000Z</time>
      </trkpt>
      <trkpt lat="43.59036" lon="3.29223">
        <ele>395.4</ele>
        <time>2023-05-13T13:17:24.000Z</time>
      </trkpt>
      <trkpt lat="43.59047" lon="3.29213">
        <ele>394.4</ele>
        <time>2023-05-13T13:17:27.000Z</time>
      </trkpt>
      <trkpt lat="43.59059" lon="3.29211">
        <ele>393</ele>
        <time>2023-05-13T13:17:30.000Z</time>
      </trkpt>
      <trkpt lat="43.59072" lon="3.29208">
        <ele>392.3</ele>
        <time>2023-05-13T13:17:33.000Z</time>
      </trkpt>
      <trkpt lat="43.5908" lon="3.29204">
        <ele>391.8</ele>
        <time>2023-05-13T13:17:35.000Z</time>
      </trkpt>
      <trkpt lat="43.59091" lon="3.292">
        <ele>391.3</ele>
        <time>2023-05-13T13:17:38.000Z</time>
      </trkpt>
      <trkpt lat="43.591" lon="3.29196">
        <ele>391.3</ele>
        <time>2023-05-13T13:17:41.000Z</time>
      </trkpt>
      <trkpt lat="43.59109" lon="3.29193">
        <ele>391.6</ele>
        <time>2023-05-13T13:17:44.000Z</time>
      </trkpt>
      <trkpt lat="43.59118" lon="3.29189">
        <ele>392.2</ele>
        <time>2023-05-13T13:17:48.000Z</time>
      </trkpt>
      <trkpt lat="43.59118" lon="3.29187">
        <ele>392.8</ele>
        <time>2023-05-13T13:17:51.000Z</time>
      </trkpt>
      <trkpt lat="43.59118" lon="3.29187">
        <ele>392.9</ele>
        <time>2023-05-13T13:17:52.000Z</time>
      </trkpt>
      <trkpt lat="43.59118" lon="3.29187">
        <ele>393</ele>
        <time>2023-05-13T13:17:53.000Z</time>
      </trkpt>
      <trkpt lat="43.59118" lon="3.29187">
        <ele>393.8</ele>
        <time>2023-05-13T13:18:05.000Z</time>
      </trkpt>
      <trkpt lat="43.59114" lon="3.29174">
        <ele>394</ele>
        <time>2023-05-13T13:18:11.000Z</time>
      </trkpt>
      <trkpt lat="43.59108" lon="3.29163">
        <ele>394</ele>
        <time>2023-05-13T13:18:15.000Z</time>
      </trkpt>
      <trkpt lat="43.591" lon="3.29155">
        <ele>393.6</ele>
        <time>2023-05-13T13:18:20.000Z</time>
      </trkpt>
      <trkpt lat="43.59092" lon="3.29146">
        <ele>392.9</ele>
        <time>2023-05-13T13:18:24.000Z</time>
      </trkpt>
      <trkpt lat="43.59086" lon="3.29133">
        <ele>391.7</ele>
        <time>2023-05-13T13:18:29.000Z</time>
      </trkpt>
      <trkpt lat="43.59079" lon="3.2912">
        <ele>390.3</ele>
        <time>2023-05-13T13:18:33.000Z</time>
      </trkpt>
      <trkpt lat="43.59071" lon="3.29109">
        <ele>388.6</ele>
        <time>2023-05-13T13:18:37.000Z</time>
      </trkpt>
      <trkpt lat="43.59064" lon="3.291">
        <ele>385.6</ele>
        <time>2023-05-13T13:18:43.000Z</time>
      </trkpt>
      <trkpt lat="43.59057" lon="3.29089">
        <ele>383.7</ele>
        <time>2023-05-13T13:18:47.000Z</time>
      </trkpt>
      <trkpt lat="43.59052" lon="3.29076">
        <ele>381.2</ele>
        <time>2023-05-13T13:18:51.000Z</time>
      </trkpt>
      <trkpt lat="43.5905" lon="3.29073">
        <ele>378.7</ele>
        <time>2023-05-13T13:18:55.000Z</time>
      </trkpt>
      <trkpt lat="43.5905" lon="3.29072">
        <ele>376.7</ele>
        <time>2023-05-13T13:19:11.000Z</time>
      </trkpt>
      <trkpt lat="43.5905" lon="3.29059">
        <ele>375.7</ele>
        <time>2023-05-13T13:19:18.000Z</time>
      </trkpt>
      <trkpt lat="43.5905" lon="3.29045">
        <ele>374.3</ele>
        <time>2023-05-13T13:19:23.000Z</time>
      </trkpt>
      <trkpt lat="43.59049" lon="3.29032">
        <ele>372</ele>
        <time>2023-05-13T13:19:28.000Z</time>
      </trkpt>
      <trkpt lat="43.59048" lon="3.2902">
        <ele>368.7</ele>
        <time>2023-05-13T13:19:34.000Z</time>
      </trkpt>
      <trkpt lat="43.59047" lon="3.29011">
        <ele>366.2</ele>
        <time>2023-05-13T13:19:40.000Z</time>
      </trkpt>
      <trkpt lat="43.59048" lon="3.2901">
        <ele>365.9</ele>
        <time>2023-05-13T13:19:41.000Z</time>
      </trkpt>
      <trkpt lat="43.59059" lon="3.29003">
        <ele>364.7</ele>
        <time>2023-05-13T13:19:45.000Z</time>
      </trkpt>
      <trkpt lat="43.59068" lon="3.28992">
        <ele>362.7</ele>
        <time>2023-05-13T13:19:49.000Z</time>
      </trkpt>
      <trkpt lat="43.59072" lon="3.28978">
        <ele>360.1</ele>
        <time>2023-05-13T13:19:52.000Z</time>
      </trkpt>
      <trkpt lat="43.59075" lon="3.28966">
        <ele>357.2</ele>
        <time>2023-05-13T13:19:55.000Z</time>
      </trkpt>
      <trkpt lat="43.59082" lon="3.28956">
        <ele>354.9</ele>
        <time>2023-05-13T13:19:58.000Z</time>
      </trkpt>
      <trkpt lat="43.59088" lon="3.28945">
        <ele>352.1</ele>
        <time>2023-05-13T13:20:01.000Z</time>
      </trkpt>
      <trkpt lat="43.59096" lon="3.28935">
        <ele>348.8</ele>
        <time>2023-05-13T13:20:04.000Z</time>
      </trkpt>
      <trkpt lat="43.59105" lon="3.28931">
        <ele>344.3</ele>
        <time>2023-05-13T13:20:09.000Z</time>
      </trkpt>
      <trkpt lat="43.59113" lon="3.28923">
        <ele>340.9</ele>
        <time>2023-05-13T13:20:15.000Z</time>
      </trkpt>
      <trkpt lat="43.59118" lon="3.28909">
        <ele>338.7</ele>
        <time>2023-05-13T13:20:20.000Z</time>
      </trkpt>
      <trkpt lat="43.59116" lon="3.28896">
        <ele>338</ele>
        <time>2023-05-13T13:20:25.000Z</time>
      </trkpt>
      <trkpt lat="43.59112" lon="3.28884">
        <ele>337.6</ele>
        <time>2023-05-13T13:20:29.000Z</time>
      </trkpt>
      <trkpt lat="43.59105" lon="3.28872">
        <ele>336.7</ele>
        <time>2023-05-13T13:20:33.000Z</time>
      </trkpt>
      <trkpt lat="43.59097" lon="3.28862">
        <ele>335.6</ele>
        <time>2023-05-13T13:20:38.000Z</time>
      </trkpt>
      <trkpt lat="43.59088" lon="3.28857">
        <ele>334.8</ele>
        <time>2023-05-13T13:20:42.000Z</time>
      </trkpt>
      <trkpt lat="43.59079" lon="3.28851">
        <ele>334</ele>
        <time>2023-05-13T13:20:47.000Z</time>
      </trkpt>
      <trkpt lat="43.59069" lon="3.2885">
        <ele>333.3</ele>
        <time>2023-05-13T13:20:51.000Z</time>
      </trkpt>
      <trkpt lat="43.59059" lon="3.28854">
        <ele>332.9</ele>
        <time>2023-05-13T13:20:54.000Z</time>
      </trkpt>
      <trkpt lat="43.59049" lon="3.28858">
        <ele>332.6</ele>
        <time>2023-05-13T13:20:57.000Z</time>
      </trkpt>
      <trkpt lat="43.59039" lon="3.28862">
        <ele>332.3</ele>
        <time>2023-05-13T13:21:00.000Z</time>
      </trkpt>
      <trkpt lat="43.59031" lon="3.28866">
        <ele>332.1</ele>
        <time>2023-05-13T13:21:03.000Z</time>
      </trkpt>
      <trkpt lat="43.59023" lon="3.28876">
        <ele>332.3</ele>
        <time>2023-05-13T13:21:07.000Z</time>
      </trkpt>
      <trkpt lat="43.59016" lon="3.28889">
        <ele>332.8</ele>
        <time>2023-05-13T13:21:11.000Z</time>
      </trkpt>
      <trkpt lat="43.59008" lon="3.28898">
        <ele>333.4</ele>
        <time>2023-05-13T13:21:15.000Z</time>
      </trkpt>
      <trkpt lat="43.59" lon="3.28906">
        <ele>334.1</ele>
        <time>2023-05-13T13:21:19.000Z</time>
      </trkpt>
      <trkpt lat="43.58991" lon="3.28914">
        <ele>334.6</ele>
        <time>2023-05-13T13:21:24.000Z</time>
      </trkpt>
      <trkpt lat="43.58983" lon="3.2892">
        <ele>334.7</ele>
        <time>2023-05-13T13:21:27.000Z</time>
      </trkpt>
      <trkpt lat="43.58972" lon="3.28925">
        <ele>334.5</ele>
        <time>2023-05-13T13:21:30.000Z</time>
      </trkpt>
      <trkpt lat="43.58961" lon="3.28927">
        <ele>333.9</ele>
        <time>2023-05-13T13:21:33.000Z</time>
      </trkpt>
      <trkpt lat="43.58952" lon="3.28929">
        <ele>332.4</ele>
        <time>2023-05-13T13:21:39.000Z</time>
      </trkpt>
      <trkpt lat="43.58943" lon="3.28929">
        <ele>331.2</ele>
        <time>2023-05-13T13:21:43.000Z</time>
      </trkpt>
      <trkpt lat="43.58933" lon="3.28926">
        <ele>328.8</ele>
        <time>2023-05-13T13:21:48.000Z</time>
      </trkpt>
      <trkpt lat="43.5893" lon="3.28923">
        <ele>326.9</ele>
        <time>2023-05-13T13:21:53.000Z</time>
      </trkpt>
      <trkpt lat="43.58931" lon="3.28923">
        <ele>325.2</ele>
        <time>2023-05-13T13:22:22.000Z</time>
      </trkpt>
      <trkpt lat="43.58931" lon="3.28923">
        <ele>325.2</ele>
        <time>2023-05-13T13:22:23.000Z</time>
      </trkpt>
      <trkpt lat="43.5893" lon="3.28922">
        <ele>325.2</ele>
        <time>2023-05-13T13:23:05.000Z</time>
      </trkpt>
      <trkpt lat="43.58929" lon="3.28907">
        <ele>325.1</ele>
        <time>2023-05-13T13:23:10.000Z</time>
      </trkpt>
      <trkpt lat="43.58934" lon="3.28894">
        <ele>325</ele>
        <time>2023-05-13T13:23:14.000Z</time>
      </trkpt>
      <trkpt lat="43.5894" lon="3.28881">
        <ele>324.8</ele>
        <time>2023-05-13T13:23:18.000Z</time>
      </trkpt>
      <trkpt lat="43.58947" lon="3.28868">
        <ele>324.8</ele>
        <time>2023-05-13T13:23:22.000Z</time>
      </trkpt>
      <trkpt lat="43.58953" lon="3.28855">
        <ele>324.9</ele>
        <time>2023-05-13T13:23:26.000Z</time>
      </trkpt>
      <trkpt lat="43.58957" lon="3.28843">
        <ele>325</ele>
        <time>2023-05-13T13:23:29.000Z</time>
      </trkpt>
      <trkpt lat="43.58962" lon="3.28833">
        <ele>325.3</ele>
        <time>2023-05-13T13:23:32.000Z</time>
      </trkpt>
      <trkpt lat="43.58969" lon="3.2882">
        <ele>325.8</ele>
        <time>2023-05-13T13:23:36.000Z</time>
      </trkpt>
      <trkpt lat="43.58977" lon="3.28808">
        <ele>326.7</ele>
        <time>2023-05-13T13:23:40.000Z</time>
      </trkpt>
      <trkpt lat="43.58984" lon="3.28796">
        <ele>327.9</ele>
        <time>2023-05-13T13:23:44.000Z</time>
      </trkpt>
      <trkpt lat="43.5899" lon="3.28784">
        <ele>329.1</ele>
        <time>2023-05-13T13:23:48.000Z</time>
      </trkpt>
      <trkpt lat="43.58996" lon="3.28772">
        <ele>330.3</ele>
        <time>2023-05-13T13:23:52.000Z</time>
      </trkpt>
      <trkpt lat="43.59003" lon="3.2876">
        <ele>331.6</ele>
        <time>2023-05-13T13:23:56.000Z</time>
      </trkpt>
      <trkpt lat="43.59009" lon="3.28748">
        <ele>332.6</ele>
        <time>2023-05-13T13:24:00.000Z</time>
      </trkpt>
      <trkpt lat="43.59011" lon="3.28736">
        <ele>333.7</ele>
        <time>2023-05-13T13:24:04.000Z</time>
      </trkpt>
      <trkpt lat="43.59004" lon="3.28726">
        <ele>334.7</ele>
        <time>2023-05-13T13:24:08.000Z</time>
      </trkpt>
      <trkpt lat="43.58994" lon="3.28722">
        <ele>335.4</ele>
        <time>2023-05-13T13:24:12.000Z</time>
      </trkpt>
      <trkpt lat="43.58984" lon="3.28718">
        <ele>336.2</ele>
        <time>2023-05-13T13:24:16.000Z</time>
      </trkpt>
      <trkpt lat="43.58975" lon="3.28712">
        <ele>337</ele>
        <time>2023-05-13T13:24:20.000Z</time>
      </trkpt>
      <trkpt lat="43.58966" lon="3.28705">
        <ele>337.9</ele>
        <time>2023-05-13T13:24:24.000Z</time>
      </trkpt>
      <trkpt lat="43.58957" lon="3.28699">
        <ele>338.8</ele>
        <time>2023-05-13T13:24:28.000Z</time>
      </trkpt>
      <trkpt lat="43.58947" lon="3.28695">
        <ele>339.7</ele>
        <time>2023-05-13T13:24:32.000Z</time>
      </trkpt>
      <trkpt lat="43.58937" lon="3.28694">
        <ele>340.7</ele>
        <time>2023-05-13T13:24:36.000Z</time>
      </trkpt>
      <trkpt lat="43.58927" lon="3.28693">
        <ele>341.8</ele>
        <time>2023-05-13T13:24:40.000Z</time>
      </trkpt>
      <trkpt lat="43.58916" lon="3.28693">
        <ele>342.8</ele>
        <time>2023-05-13T13:24:44.000Z</time>
      </trkpt>
      <trkpt lat="43.58906" lon="3.28692">
        <ele>343.7</ele>
        <time>2023-05-13T13:24:48.000Z</time>
      </trkpt>
      <trkpt lat="43.58896" lon="3.28691">
        <ele>344.6</ele>
        <time>2023-05-13T13:24:52.000Z</time>
      </trkpt>
      <trkpt lat="43.58886" lon="3.2869">
        <ele>345.5</ele>
        <time>2023-05-13T13:24:56.000Z</time>
      </trkpt>
      <trkpt lat="43.58876" lon="3.28689">
        <ele>346.3</ele>
        <time>2023-05-13T13:25:00.000Z</time>
      </trkpt>
      <trkpt lat="43.58866" lon="3.2869">
        <ele>347.1</ele>
        <time>2023-05-13T13:25:04.000Z</time>
      </trkpt>
      <trkpt lat="43.58856" lon="3.28693">
        <ele>347.9</ele>
        <time>2023-05-13T13:25:08.000Z</time>
      </trkpt>
      <trkpt lat="43.58846" lon="3.28698">
        <ele>348.6</ele>
        <time>2023-05-13T13:25:12.000Z</time>
      </trkpt>
      <trkpt lat="43.58835" lon="3.28701">
        <ele>349.6</ele>
        <time>2023-05-13T13:25:16.000Z</time>
      </trkpt>
      <trkpt lat="43.58827" lon="3.28693">
        <ele>350.8</ele>
        <time>2023-05-13T13:25:20.000Z</time>
      </trkpt>
      <trkpt lat="43.58821" lon="3.2868">
        <ele>352.3</ele>
        <time>2023-05-13T13:25:24.000Z</time>
      </trkpt>
      <trkpt lat="43.58814" lon="3.28669">
        <ele>353.8</ele>
        <time>2023-05-13T13:25:28.000Z</time>
      </trkpt>
      <trkpt lat="43.58804" lon="3.28661">
        <ele>354.9</ele>
        <time>2023-05-13T13:25:32.000Z</time>
      </trkpt>
      <trkpt lat="43.58794" lon="3.28655">
        <ele>356</ele>
        <time>2023-05-13T13:25:36.000Z</time>
      </trkpt>
      <trkpt lat="43.58783" lon="3.2865">
        <ele>357</ele>
        <time>2023-05-13T13:25:40.000Z</time>
      </trkpt>
      <trkpt lat="43.58772" lon="3.28648">
        <ele>358.2</ele>
        <time>2023-05-13T13:25:44.000Z</time>
      </trkpt>
      <trkpt lat="43.5876" lon="3.28649">
        <ele>359.2</ele>
        <time>2023-05-13T13:25:48.000Z</time>
      </trkpt>
      <trkpt lat="43.58749" lon="3.28649">
        <ele>360.3</ele>
        <time>2023-05-13T13:25:52.000Z</time>
      </trkpt>
      <trkpt lat="43.5874" lon="3.28639">
        <ele>361.4</ele>
        <time>2023-05-13T13:25:56.000Z</time>
      </trkpt>
      <trkpt lat="43.58732" lon="3.28628">
        <ele>362.4</ele>
        <time>2023-05-13T13:26:00.000Z</time>
      </trkpt>
      <trkpt lat="43.58726" lon="3.28616">
        <ele>363.4</ele>
        <time>2023-05-13T13:26:04.000Z</time>
      </trkpt>
      <trkpt lat="43.58727" lon="3.28603">
        <ele>364.2</ele>
        <time>2023-05-13T13:26:07.000Z</time>
      </trkpt>
      <trkpt lat="43.58729" lon="3.28588">
        <ele>365.3</ele>
        <time>2023-05-13T13:26:11.000Z</time>
      </trkpt>
      <trkpt lat="43.5873" lon="3.28573">
        <ele>366.6</ele>
        <time>2023-05-13T13:26:15.000Z</time>
      </trkpt>
      <trkpt lat="43.58736" lon="3.28564">
        <ele>367.7</ele>
        <time>2023-05-13T13:26:19.000Z</time>
      </trkpt>
      <trkpt lat="43.58746" lon="3.2856">
        <ele>368.6</ele>
        <time>2023-05-13T13:26:24.000Z</time>
      </trkpt>
      <trkpt lat="43.58757" lon="3.28555">
        <ele>369.4</ele>
        <time>2023-05-13T13:26:29.000Z</time>
      </trkpt>
      <trkpt lat="43.58767" lon="3.28548">
        <ele>370</ele>
        <time>2023-05-13T13:26:33.000Z</time>
      </trkpt>
      <trkpt lat="43.58776" lon="3.28539">
        <ele>370.5</ele>
        <time>2023-05-13T13:26:37.000Z</time>
      </trkpt>
      <trkpt lat="43.58784" lon="3.28529">
        <ele>371.1</ele>
        <time>2023-05-13T13:26:41.000Z</time>
      </trkpt>
      <trkpt lat="43.58792" lon="3.28518">
        <ele>371.8</ele>
        <time>2023-05-13T13:26:45.000Z</time>
      </trkpt>
      <trkpt lat="43.58799" lon="3.28507">
        <ele>372.8</ele>
        <time>2023-05-13T13:26:49.000Z</time>
      </trkpt>
      <trkpt lat="43.58805" lon="3.28493">
        <ele>373.9</ele>
        <time>2023-05-13T13:26:53.000Z</time>
      </trkpt>
      <trkpt lat="43.58809" lon="3.28479">
        <ele>375.1</ele>
        <time>2023-05-13T13:26:57.000Z</time>
      </trkpt>
      <trkpt lat="43.58812" lon="3.28465">
        <ele>376.1</ele>
        <time>2023-05-13T13:27:01.000Z</time>
      </trkpt>
      <trkpt lat="43.58815" lon="3.2845">
        <ele>377.1</ele>
        <time>2023-05-13T13:27:05.000Z</time>
      </trkpt>
      <trkpt lat="43.58819" lon="3.28437">
        <ele>378.4</ele>
        <time>2023-05-13T13:27:10.000Z</time>
      </trkpt>
      <trkpt lat="43.58824" lon="3.28426">
        <ele>379.2</ele>
        <time>2023-05-13T13:27:14.000Z</time>
      </trkpt>
      <trkpt lat="43.5883" lon="3.28417">
        <ele>379.8</ele>
        <time>2023-05-13T13:27:18.000Z</time>
      </trkpt>
      <trkpt lat="43.58838" lon="3.28406">
        <ele>380.1</ele>
        <time>2023-05-13T13:27:23.000Z</time>
      </trkpt>
      <trkpt lat="43.58839" lon="3.28393">
        <ele>380.2</ele>
        <time>2023-05-13T13:27:27.000Z</time>
      </trkpt>
      <trkpt lat="43.58842" lon="3.2838">
        <ele>380.5</ele>
        <time>2023-05-13T13:27:31.000Z</time>
      </trkpt>
      <trkpt lat="43.58846" lon="3.28368">
        <ele>380.7</ele>
        <time>2023-05-13T13:27:35.000Z</time>
      </trkpt>
      <trkpt lat="43.58854" lon="3.2836">
        <ele>381.1</ele>
        <time>2023-05-13T13:27:39.000Z</time>
      </trkpt>
      <trkpt lat="43.58865" lon="3.28352">
        <ele>381.7</ele>
        <time>2023-05-13T13:27:46.000Z</time>
      </trkpt>
      <trkpt lat="43.58873" lon="3.28346">
        <ele>382</ele>
        <time>2023-05-13T13:27:49.000Z</time>
      </trkpt>
      <trkpt lat="43.58882" lon="3.28337">
        <ele>382.5</ele>
        <time>2023-05-13T13:27:53.000Z</time>
      </trkpt>
      <trkpt lat="43.58884" lon="3.28323">
        <ele>383.2</ele>
        <time>2023-05-13T13:27:57.000Z</time>
      </trkpt>
      <trkpt lat="43.58888" lon="3.2831">
        <ele>383.8</ele>
        <time>2023-05-13T13:28:01.000Z</time>
      </trkpt>
      <trkpt lat="43.58895" lon="3.28297">
        <ele>384.3</ele>
        <time>2023-05-13T13:28:05.000Z</time>
      </trkpt>
      <trkpt lat="43.58898" lon="3.28284">
        <ele>384.6</ele>
        <time>2023-05-13T13:28:08.000Z</time>
      </trkpt>
      <trkpt lat="43.58899" lon="3.28268">
        <ele>384.8</ele>
        <time>2023-05-13T13:28:11.000Z</time>
      </trkpt>
      <trkpt lat="43.589" lon="3.28251">
        <ele>384.8</ele>
        <time>2023-05-13T13:28:14.000Z</time>
      </trkpt>
      <trkpt lat="43.58902" lon="3.28235">
        <ele>384.8</ele>
        <time>2023-05-13T13:28:17.000Z</time>
      </trkpt>
      <trkpt lat="43.58907" lon="3.28219">
        <ele>384.9</ele>
        <time>2023-05-13T13:28:20.000Z</time>
      </trkpt>
      <trkpt lat="43.58913" lon="3.28203">
        <ele>385</ele>
        <time>2023-05-13T13:28:23.000Z</time>
      </trkpt>
      <trkpt lat="43.58915" lon="3.28187">
        <ele>384.9</ele>
        <time>2023-05-13T13:28:26.000Z</time>
      </trkpt>
      <trkpt lat="43.58919" lon="3.28175">
        <ele>384.9</ele>
        <time>2023-05-13T13:28:29.000Z</time>
      </trkpt>
      <trkpt lat="43.58927" lon="3.28165">
        <ele>384.8</ele>
        <time>2023-05-13T13:28:32.000Z</time>
      </trkpt>
      <trkpt lat="43.58933" lon="3.28155">
        <ele>384.7</ele>
        <time>2023-05-13T13:28:35.000Z</time>
      </trkpt>
      <trkpt lat="43.58941" lon="3.28144">
        <ele>384.6</ele>
        <time>2023-05-13T13:28:38.000Z</time>
      </trkpt>
      <trkpt lat="43.58951" lon="3.28132">
        <ele>384.3</ele>
        <time>2023-05-13T13:28:41.000Z</time>
      </trkpt>
      <trkpt lat="43.58956" lon="3.28116">
        <ele>383.9</ele>
        <time>2023-05-13T13:28:44.000Z</time>
      </trkpt>
      <trkpt lat="43.58957" lon="3.28098">
        <ele>383.5</ele>
        <time>2023-05-13T13:28:47.000Z</time>
      </trkpt>
      <trkpt lat="43.58957" lon="3.28086">
        <ele>383.3</ele>
        <time>2023-05-13T13:28:49.000Z</time>
      </trkpt>
      <trkpt lat="43.58958" lon="3.28073">
        <ele>383.1</ele>
        <time>2023-05-13T13:28:51.000Z</time>
      </trkpt>
      <trkpt lat="43.5896" lon="3.2806">
        <ele>382.8</ele>
        <time>2023-05-13T13:28:53.000Z</time>
      </trkpt>
      <trkpt lat="43.58965" lon="3.28048">
        <ele>382.3</ele>
        <time>2023-05-13T13:28:55.000Z</time>
      </trkpt>
      <trkpt lat="43.58973" lon="3.28039">
        <ele>382</ele>
        <time>2023-05-13T13:28:57.000Z</time>
      </trkpt>
      <trkpt lat="43.58981" lon="3.2803">
        <ele>381.5</ele>
        <time>2023-05-13T13:28:59.000Z</time>
      </trkpt>
      <trkpt lat="43.58983" lon="3.28017">
        <ele>380.9</ele>
        <time>2023-05-13T13:29:01.000Z</time>
      </trkpt>
      <trkpt lat="43.58982" lon="3.28004">
        <ele>380.4</ele>
        <time>2023-05-13T13:29:03.000Z</time>
      </trkpt>
      <trkpt lat="43.58981" lon="3.27991">
        <ele>380</ele>
        <time>2023-05-13T13:29:05.000Z</time>
      </trkpt>
      <trkpt lat="43.58986" lon="3.27979">
        <ele>379.6</ele>
        <time>2023-05-13T13:29:08.000Z</time>
      </trkpt>
      <trkpt lat="43.58995" lon="3.27979">
        <ele>379.1</ele>
        <time>2023-05-13T13:29:12.000Z</time>
      </trkpt>
      <trkpt lat="43.59005" lon="3.27975">
        <ele>378.9</ele>
        <time>2023-05-13T13:29:16.000Z</time>
      </trkpt>
      <trkpt lat="43.59016" lon="3.27965">
        <ele>378.6</ele>
        <time>2023-05-13T13:29:19.000Z</time>
      </trkpt>
      <trkpt lat="43.59025" lon="3.27959">
        <ele>378.4</ele>
        <time>2023-05-13T13:29:21.000Z</time>
      </trkpt>
      <trkpt lat="43.59033" lon="3.27952">
        <ele>378.2</ele>
        <time>2023-05-13T13:29:23.000Z</time>
      </trkpt>
      <trkpt lat="43.59041" lon="3.27944">
        <ele>377.9</ele>
        <time>2023-05-13T13:29:25.000Z</time>
      </trkpt>
      <trkpt lat="43.59049" lon="3.27936">
        <ele>377.7</ele>
        <time>2023-05-13T13:29:27.000Z</time>
      </trkpt>
      <trkpt lat="43.59058" lon="3.2793">
        <ele>377.4</ele>
        <time>2023-05-13T13:29:29.000Z</time>
      </trkpt>
      <trkpt lat="43.59069" lon="3.27922">
        <ele>376.9</ele>
        <time>2023-05-13T13:29:32.000Z</time>
      </trkpt>
      <trkpt lat="43.59078" lon="3.27917">
        <ele>376.5</ele>
        <time>2023-05-13T13:29:34.000Z</time>
      </trkpt>
      <trkpt lat="43.59087" lon="3.27909">
        <ele>375.9</ele>
        <time>2023-05-13T13:29:36.000Z</time>
      </trkpt>
      <trkpt lat="43.59097" lon="3.27902">
        <ele>375.2</ele>
        <time>2023-05-13T13:29:38.000Z</time>
      </trkpt>
      <trkpt lat="43.59107" lon="3.27897">
        <ele>374.3</ele>
        <time>2023-05-13T13:29:40.000Z</time>
      </trkpt>
      <trkpt lat="43.59116" lon="3.27893">
        <ele>372.1</ele>
        <time>2023-05-13T13:29:43.000Z</time>
      </trkpt>
      <trkpt lat="43.59124" lon="3.27884">
        <ele>368.8</ele>
        <time>2023-05-13T13:29:47.000Z</time>
      </trkpt>
      <trkpt lat="43.5913" lon="3.27875">
        <ele>366.1</ele>
        <time>2023-05-13T13:29:51.000Z</time>
      </trkpt>
      <trkpt lat="43.59138" lon="3.27867">
        <ele>363.1</ele>
        <time>2023-05-13T13:29:56.000Z</time>
      </trkpt>
      <trkpt lat="43.59147" lon="3.27861">
        <ele>360.8</ele>
        <time>2023-05-13T13:30:00.000Z</time>
      </trkpt>
      <trkpt lat="43.59156" lon="3.27857">
        <ele>357.9</ele>
        <time>2023-05-13T13:30:05.000Z</time>
      </trkpt>
      <trkpt lat="43.59165" lon="3.27852">
        <ele>355</ele>
        <time>2023-05-13T13:30:10.000Z</time>
      </trkpt>
      <trkpt lat="43.59174" lon="3.27846">
        <ele>350.9</ele>
        <time>2023-05-13T13:30:16.000Z</time>
      </trkpt>
      <trkpt lat="43.59183" lon="3.27846">
        <ele>348.6</ele>
        <time>2023-05-13T13:30:20.000Z</time>
      </trkpt>
      <trkpt lat="43.59192" lon="3.27841">
        <ele>346.1</ele>
        <time>2023-05-13T13:30:24.000Z</time>
      </trkpt>
      <trkpt lat="43.59202" lon="3.27838">
        <ele>344.6</ele>
        <time>2023-05-13T13:30:28.000Z</time>
      </trkpt>
      <trkpt lat="43.5921" lon="3.27832">
        <ele>342.8</ele>
        <time>2023-05-13T13:30:32.000Z</time>
      </trkpt>
      <trkpt lat="43.59221" lon="3.27829">
        <ele>340.7</ele>
        <time>2023-05-13T13:30:37.000Z</time>
      </trkpt>
      <trkpt lat="43.5923" lon="3.27831">
        <ele>338.6</ele>
        <time>2023-05-13T13:30:41.000Z</time>
      </trkpt>
      <trkpt lat="43.59239" lon="3.27828">
        <ele>337</ele>
        <time>2023-05-13T13:30:45.000Z</time>
      </trkpt>
      <trkpt lat="43.59249" lon="3.27826">
        <ele>335.7</ele>
        <time>2023-05-13T13:30:51.000Z</time>
      </trkpt>
      <trkpt lat="43.59259" lon="3.2783">
        <ele>334.9</ele>
        <time>2023-05-13T13:30:57.000Z</time>
      </trkpt>
      <trkpt lat="43.59271" lon="3.27836">
        <ele>334.6</ele>
        <time>2023-05-13T13:31:01.000Z</time>
      </trkpt>
      <trkpt lat="43.59279" lon="3.27844">
        <ele>334.1</ele>
        <time>2023-05-13T13:31:04.000Z</time>
      </trkpt>
      <trkpt lat="43.59287" lon="3.27852">
        <ele>332.8</ele>
        <time>2023-05-13T13:31:07.000Z</time>
      </trkpt>
      <trkpt lat="43.59297" lon="3.27856">
        <ele>330.4</ele>
        <time>2023-05-13T13:31:11.000Z</time>
      </trkpt>
      <trkpt lat="43.59306" lon="3.27854">
        <ele>327.9</ele>
        <time>2023-05-13T13:31:15.000Z</time>
      </trkpt>
      <trkpt lat="43.59316" lon="3.27852">
        <ele>325</ele>
        <time>2023-05-13T13:31:19.000Z</time>
      </trkpt>
      <trkpt lat="43.59325" lon="3.27859">
        <ele>321.3</ele>
        <time>2023-05-13T13:31:25.000Z</time>
      </trkpt>
      <trkpt lat="43.59335" lon="3.27862">
        <ele>317.9</ele>
        <time>2023-05-13T13:31:30.000Z</time>
      </trkpt>
      <trkpt lat="43.59344" lon="3.27861">
        <ele>314.8</ele>
        <time>2023-05-13T13:31:34.000Z</time>
      </trkpt>
      <trkpt lat="43.5935" lon="3.27873">
        <ele>312.4</ele>
        <time>2023-05-13T13:31:38.000Z</time>
      </trkpt>
      <trkpt lat="43.59356" lon="3.27879">
        <ele>309.9</ele>
        <time>2023-05-13T13:31:43.000Z</time>
      </trkpt>
      <trkpt lat="43.59356" lon="3.2788">
        <ele>308.1</ele>
        <time>2023-05-13T13:31:55.000Z</time>
      </trkpt>
      <trkpt lat="43.59364" lon="3.27886">
        <ele>307.3</ele>
        <time>2023-05-13T13:32:01.000Z</time>
      </trkpt>
      <trkpt lat="43.59373" lon="3.27895">
        <ele>305.3</ele>
        <time>2023-05-13T13:32:05.000Z</time>
      </trkpt>
      <trkpt lat="43.59383" lon="3.279">
        <ele>300.9</ele>
        <time>2023-05-13T13:32:10.000Z</time>
      </trkpt>
      <trkpt lat="43.59392" lon="3.27903">
        <ele>295.5</ele>
        <time>2023-05-13T13:32:20.000Z</time>
      </trkpt>
      <trkpt lat="43.59402" lon="3.27906">
        <ele>293.4</ele>
        <time>2023-05-13T13:32:25.000Z</time>
      </trkpt>
      <trkpt lat="43.5941" lon="3.27916">
        <ele>291.1</ele>
        <time>2023-05-13T13:32:30.000Z</time>
      </trkpt>
      <trkpt lat="43.59419" lon="3.27916">
        <ele>289.1</ele>
        <time>2023-05-13T13:32:34.000Z</time>
      </trkpt>
      <trkpt lat="43.59428" lon="3.27924">
        <ele>286.2</ele>
        <time>2023-05-13T13:32:38.000Z</time>
      </trkpt>
      <trkpt lat="43.59435" lon="3.27935">
        <ele>282.5</ele>
        <time>2023-05-13T13:32:44.000Z</time>
      </trkpt>
      <trkpt lat="43.59444" lon="3.27939">
        <ele>279.2</ele>
        <time>2023-05-13T13:32:50.000Z</time>
      </trkpt>
      <trkpt lat="43.59453" lon="3.27938">
        <ele>276.9</ele>
        <time>2023-05-13T13:32:55.000Z</time>
      </trkpt>
      <trkpt lat="43.59463" lon="3.27933">
        <ele>275.2</ele>
        <time>2023-05-13T13:32:59.000Z</time>
      </trkpt>
      <trkpt lat="43.59467" lon="3.27944">
        <ele>274.4</ele>
        <time>2023-05-13T13:33:05.000Z</time>
      </trkpt>
      <trkpt lat="43.59462" lon="3.27957">
        <ele>274.5</ele>
        <time>2023-05-13T13:33:10.000Z</time>
      </trkpt>
      <trkpt lat="43.5946" lon="3.27969">
        <ele>274.9</ele>
        <time>2023-05-13T13:33:14.000Z</time>
      </trkpt>
      <trkpt lat="43.59455" lon="3.27981">
        <ele>275.5</ele>
        <time>2023-05-13T13:33:18.000Z</time>
      </trkpt>
      <trkpt lat="43.59449" lon="3.27993">
        <ele>276.4</ele>
        <time>2023-05-13T13:33:23.000Z</time>
      </trkpt>
      <trkpt lat="43.59442" lon="3.28005">
        <ele>277.2</ele>
        <time>2023-05-13T13:33:28.000Z</time>
      </trkpt>
      <trkpt lat="43.59434" lon="3.28016">
        <ele>278</ele>
        <time>2023-05-13T13:33:32.000Z</time>
      </trkpt>
      <trkpt lat="43.5943" lon="3.28027">
        <ele>279</ele>
        <time>2023-05-13T13:33:36.000Z</time>
      </trkpt>
      <trkpt lat="43.59425" lon="3.2804">
        <ele>280</ele>
        <time>2023-05-13T13:33:40.000Z</time>
      </trkpt>
      <trkpt lat="43.59419" lon="3.28052">
        <ele>281.1</ele>
        <time>2023-05-13T13:33:44.000Z</time>
      </trkpt>
      <trkpt lat="43.5941" lon="3.2806">
        <ele>282.1</ele>
        <time>2023-05-13T13:33:48.000Z</time>
      </trkpt>
      <trkpt lat="43.59399" lon="3.28063">
        <ele>283.2</ele>
        <time>2023-05-13T13:33:52.000Z</time>
      </trkpt>
      <trkpt lat="43.59388" lon="3.28066">
        <ele>284.4</ele>
        <time>2023-05-13T13:33:56.000Z</time>
      </trkpt>
      <trkpt lat="43.59378" lon="3.28073">
        <ele>285.5</ele>
        <time>2023-05-13T13:34:00.000Z</time>
      </trkpt>
      <trkpt lat="43.59369" lon="3.28083">
        <ele>286.6</ele>
        <time>2023-05-13T13:34:04.000Z</time>
      </trkpt>
      <trkpt lat="43.59361" lon="3.28093">
        <ele>287.8</ele>
        <time>2023-05-13T13:34:08.000Z</time>
      </trkpt>
      <trkpt lat="43.59353" lon="3.28103">
        <ele>288.7</ele>
        <time>2023-05-13T13:34:12.000Z</time>
      </trkpt>
      <trkpt lat="43.59344" lon="3.28114">
        <ele>289.5</ele>
        <time>2023-05-13T13:34:16.000Z</time>
      </trkpt>
      <trkpt lat="43.59337" lon="3.28127">
        <ele>290.3</ele>
        <time>2023-05-13T13:34:20.000Z</time>
      </trkpt>
      <trkpt lat="43.59333" lon="3.2814">
        <ele>291.2</ele>
        <time>2023-05-13T13:34:24.000Z</time>
      </trkpt>
      <trkpt lat="43.59329" lon="3.28152">
        <ele>292.3</ele>
        <time>2023-05-13T13:34:28.000Z</time>
      </trkpt>
      <trkpt lat="43.59321" lon="3.28163">
        <ele>293.4</ele>
        <time>2023-05-13T13:34:32.000Z</time>
      </trkpt>
      <trkpt lat="43.5931" lon="3.28166">
        <ele>294.7</ele>
        <time>2023-05-13T13:34:36.000Z</time>
      </trkpt>
      <trkpt lat="43.59311" lon="3.28179">
        <ele>296.6</ele>
        <time>2023-05-13T13:34:40.000Z</time>
      </trkpt>
      <trkpt lat="43.59319" lon="3.28188">
        <ele>298.6</ele>
        <time>2023-05-13T13:34:44.000Z</time>
      </trkpt>
      <trkpt lat="43.5933" lon="3.28188">
        <ele>300.1</ele>
        <time>2023-05-13T13:34:48.000Z</time>
      </trkpt>
      <trkpt lat="43.5934" lon="3.2818">
        <ele>301.1</ele>
        <time>2023-05-13T13:34:52.000Z</time>
      </trkpt>
      <trkpt lat="43.59347" lon="3.28171">
        <ele>301.8</ele>
        <time>2023-05-13T13:34:55.000Z</time>
      </trkpt>
      <trkpt lat="43.59355" lon="3.28161">
        <ele>302.8</ele>
        <time>2023-05-13T13:34:59.000Z</time>
      </trkpt>
      <trkpt lat="43.59365" lon="3.28152">
        <ele>303.9</ele>
        <time>2023-05-13T13:35:03.000Z</time>
      </trkpt>
      <trkpt lat="43.59375" lon="3.28146">
        <ele>304.9</ele>
        <time>2023-05-13T13:35:07.000Z</time>
      </trkpt>
      <trkpt lat="43.59385" lon="3.28148">
        <ele>305.9</ele>
        <time>2023-05-13T13:35:11.000Z</time>
      </trkpt>
      <trkpt lat="43.59381" lon="3.2816">
        <ele>307.1</ele>
        <time>2023-05-13T13:35:15.000Z</time>
      </trkpt>
      <trkpt lat="43.59373" lon="3.2817">
        <ele>308.2</ele>
        <time>2023-05-13T13:35:19.000Z</time>
      </trkpt>
      <trkpt lat="43.59368" lon="3.28181">
        <ele>309.3</ele>
        <time>2023-05-13T13:35:24.000Z</time>
      </trkpt>
      <trkpt lat="43.59377" lon="3.28184">
        <ele>311</ele>
        <time>2023-05-13T13:35:31.000Z</time>
      </trkpt>
      <trkpt lat="43.59386" lon="3.28177">
        <ele>311.9</ele>
        <time>2023-05-13T13:35:35.000Z</time>
      </trkpt>
      <trkpt lat="43.59396" lon="3.28174">
        <ele>313</ele>
        <time>2023-05-13T13:35:39.000Z</time>
      </trkpt>
      <trkpt lat="43.59406" lon="3.2818">
        <ele>313.9</ele>
        <time>2023-05-13T13:35:43.000Z</time>
      </trkpt>
      <trkpt lat="43.59413" lon="3.28188">
        <ele>314.5</ele>
        <time>2023-05-13T13:35:46.000Z</time>
      </trkpt>
      <trkpt lat="43.59421" lon="3.28195">
        <ele>315</ele>
        <time>2023-05-13T13:35:49.000Z</time>
      </trkpt>
      <trkpt lat="43.5943" lon="3.28199">
        <ele>315.5</ele>
        <time>2023-05-13T13:35:52.000Z</time>
      </trkpt>
      <trkpt lat="43.59439" lon="3.28197">
        <ele>316.1</ele>
        <time>2023-05-13T13:35:55.000Z</time>
      </trkpt>
      <trkpt lat="43.59448" lon="3.28192">
        <ele>316.6</ele>
        <time>2023-05-13T13:35:58.000Z</time>
      </trkpt>
      <trkpt lat="43.59457" lon="3.28188">
        <ele>317.1</ele>
        <time>2023-05-13T13:36:01.000Z</time>
      </trkpt>
      <trkpt lat="43.59467" lon="3.28185">
        <ele>317.6</ele>
        <time>2023-05-13T13:36:04.000Z</time>
      </trkpt>
      <trkpt lat="43.59476" lon="3.28187">
        <ele>318</ele>
        <time>2023-05-13T13:36:07.000Z</time>
      </trkpt>
      <trkpt lat="43.59485" lon="3.28198">
        <ele>318.8</ele>
        <time>2023-05-13T13:36:11.000Z</time>
      </trkpt>
      <trkpt lat="43.5949" lon="3.28212">
        <ele>319.6</ele>
        <time>2023-05-13T13:36:15.000Z</time>
      </trkpt>
      <trkpt lat="43.59493" lon="3.28224">
        <ele>320.2</ele>
        <time>2023-05-13T13:36:18.000Z</time>
      </trkpt>
      <trkpt lat="43.59497" lon="3.28237">
        <ele>320.6</ele>
        <time>2023-05-13T13:36:21.000Z</time>
      </trkpt>
      <trkpt lat="43.595" lon="3.2825">
        <ele>320.8</ele>
        <time>2023-05-13T13:36:24.000Z</time>
      </trkpt>
      <trkpt lat="43.59501" lon="3.28262">
        <ele>320.9</ele>
        <time>2023-05-13T13:36:27.000Z</time>
      </trkpt>
      <trkpt lat="43.59493" lon="3.28273">
        <ele>321.1</ele>
        <time>2023-05-13T13:36:31.000Z</time>
      </trkpt>
      <trkpt lat="43.59486" lon="3.28285">
        <ele>321.3</ele>
        <time>2023-05-13T13:36:35.000Z</time>
      </trkpt>
      <trkpt lat="43.59484" lon="3.28297">
        <ele>321.5</ele>
        <time>2023-05-13T13:36:38.000Z</time>
      </trkpt>
      <trkpt lat="43.59483" lon="3.2831">
        <ele>321.9</ele>
        <time>2023-05-13T13:36:41.000Z</time>
      </trkpt>
      <trkpt lat="43.59484" lon="3.28323">
        <ele>322.2</ele>
        <time>2023-05-13T13:36:44.000Z</time>
      </trkpt>
      <trkpt lat="43.59485" lon="3.28335">
        <ele>322.6</ele>
        <time>2023-05-13T13:36:47.000Z</time>
      </trkpt>
      <trkpt lat="43.59486" lon="3.28348">
        <ele>322.9</ele>
        <time>2023-05-13T13:36:50.000Z</time>
      </trkpt>
      <trkpt lat="43.59489" lon="3.28363">
        <ele>323.4</ele>
        <time>2023-05-13T13:36:54.000Z</time>
      </trkpt>
      <trkpt lat="43.59489" lon="3.2838">
        <ele>323.8</ele>
        <time>2023-05-13T13:36:58.000Z</time>
      </trkpt>
      <trkpt lat="43.59488" lon="3.28393">
        <ele>324</ele>
        <time>2023-05-13T13:37:01.000Z</time>
      </trkpt>
      <trkpt lat="43.59486" lon="3.28406">
        <ele>324.3</ele>
        <time>2023-05-13T13:37:04.000Z</time>
      </trkpt>
      <trkpt lat="43.59482" lon="3.28419">
        <ele>324.6</ele>
        <time>2023-05-13T13:37:07.000Z</time>
      </trkpt>
      <trkpt lat="43.59477" lon="3.28431">
        <ele>325</ele>
        <time>2023-05-13T13:37:10.000Z</time>
      </trkpt>
      <trkpt lat="43.59471" lon="3.28443">
        <ele>325.3</ele>
        <time>2023-05-13T13:37:13.000Z</time>
      </trkpt>
      <trkpt lat="43.59464" lon="3.28454">
        <ele>325.7</ele>
        <time>2023-05-13T13:37:16.000Z</time>
      </trkpt>
      <trkpt lat="43.59457" lon="3.28466">
        <ele>326</ele>
        <time>2023-05-13T13:37:19.000Z</time>
      </trkpt>
      <trkpt lat="43.59449" lon="3.28476">
        <ele>326.4</ele>
        <time>2023-05-13T13:37:22.000Z</time>
      </trkpt>
      <trkpt lat="43.5944" lon="3.28485">
        <ele>326.9</ele>
        <time>2023-05-13T13:37:25.000Z</time>
      </trkpt>
      <trkpt lat="43.59431" lon="3.28491">
        <ele>327.4</ele>
        <time>2023-05-13T13:37:28.000Z</time>
      </trkpt>
      <trkpt lat="43.59421" lon="3.28494">
        <ele>327.9</ele>
        <time>2023-05-13T13:37:31.000Z</time>
      </trkpt>
      <trkpt lat="43.5941" lon="3.28494">
        <ele>328.5</ele>
        <time>2023-05-13T13:37:34.000Z</time>
      </trkpt>
      <trkpt lat="43.594" lon="3.28495">
        <ele>329.1</ele>
        <time>2023-05-13T13:37:37.000Z</time>
      </trkpt>
      <trkpt lat="43.59389" lon="3.28497">
        <ele>330</ele>
        <time>2023-05-13T13:37:40.000Z</time>
      </trkpt>
      <trkpt lat="43.59378" lon="3.28498">
        <ele>330.8</ele>
        <time>2023-05-13T13:37:43.000Z</time>
      </trkpt>
      <trkpt lat="43.59368" lon="3.28498">
        <ele>331.7</ele>
        <time>2023-05-13T13:37:46.000Z</time>
      </trkpt>
      <trkpt lat="43.59358" lon="3.285">
        <ele>332.7</ele>
        <time>2023-05-13T13:37:49.000Z</time>
      </trkpt>
      <trkpt lat="43.59348" lon="3.28501">
        <ele>333.6</ele>
        <time>2023-05-13T13:37:52.000Z</time>
      </trkpt>
      <trkpt lat="43.59338" lon="3.28504">
        <ele>334.3</ele>
        <time>2023-05-13T13:37:55.000Z</time>
      </trkpt>
      <trkpt lat="43.59327" lon="3.2851">
        <ele>334.7</ele>
        <time>2023-05-13T13:37:58.000Z</time>
      </trkpt>
      <trkpt lat="43.59317" lon="3.28516">
        <ele>334.8</ele>
        <time>2023-05-13T13:38:01.000Z</time>
      </trkpt>
      <trkpt lat="43.59307" lon="3.28519">
        <ele>334.8</ele>
        <time>2023-05-13T13:38:03.000Z</time>
      </trkpt>
      <trkpt lat="43.59296" lon="3.28523">
        <ele>334.7</ele>
        <time>2023-05-13T13:38:05.000Z</time>
      </trkpt>
      <trkpt lat="43.59287" lon="3.28535">
        <ele>334.6</ele>
        <time>2023-05-13T13:38:07.000Z</time>
      </trkpt>
      <trkpt lat="43.59279" lon="3.28551">
        <ele>334.4</ele>
        <time>2023-05-13T13:38:09.000Z</time>
      </trkpt>
      <trkpt lat="43.5927" lon="3.2857">
        <ele>333.9</ele>
        <time>2023-05-13T13:38:11.000Z</time>
      </trkpt>
      <trkpt lat="43.5926" lon="3.2859">
        <ele>333.4</ele>
        <time>2023-05-13T13:38:13.000Z</time>
      </trkpt>
      <trkpt lat="43.59256" lon="3.28601">
        <ele>333.1</ele>
        <time>2023-05-13T13:38:14.000Z</time>
      </trkpt>
      <trkpt lat="43.5925" lon="3.28612">
        <ele>332.5</ele>
        <time>2023-05-13T13:38:15.000Z</time>
      </trkpt>
      <trkpt lat="43.59245" lon="3.28622">
        <ele>332</ele>
        <time>2023-05-13T13:38:16.000Z</time>
      </trkpt>
      <trkpt lat="43.59239" lon="3.28633">
        <ele>331.5</ele>
        <time>2023-05-13T13:38:17.000Z</time>
      </trkpt>
      <trkpt lat="43.59233" lon="3.28643">
        <ele>330.9</ele>
        <time>2023-05-13T13:38:18.000Z</time>
      </trkpt>
      <trkpt lat="43.59226" lon="3.28655">
        <ele>330.4</ele>
        <time>2023-05-13T13:38:19.000Z</time>
      </trkpt>
      <trkpt lat="43.59219" lon="3.28665">
        <ele>329.7</ele>
        <time>2023-05-13T13:38:20.000Z</time>
      </trkpt>
      <trkpt lat="43.59212" lon="3.28675">
        <ele>329.1</ele>
        <time>2023-05-13T13:38:21.000Z</time>
      </trkpt>
      <trkpt lat="43.59204" lon="3.28685">
        <ele>328.4</ele>
        <time>2023-05-13T13:38:22.000Z</time>
      </trkpt>
      <trkpt lat="43.59196" lon="3.28695">
        <ele>327.7</ele>
        <time>2023-05-13T13:38:23.000Z</time>
      </trkpt>
      <trkpt lat="43.59189" lon="3.28704">
        <ele>326.9</ele>
        <time>2023-05-13T13:38:24.000Z</time>
      </trkpt>
      <trkpt lat="43.59182" lon="3.28714">
        <ele>326.3</ele>
        <time>2023-05-13T13:38:25.000Z</time>
      </trkpt>
      <trkpt lat="43.59175" lon="3.28723">
        <ele>325.8</ele>
        <time>2023-05-13T13:38:26.000Z</time>
      </trkpt>
      <trkpt lat="43.59167" lon="3.28732">
        <ele>325.3</ele>
        <time>2023-05-13T13:38:27.000Z</time>
      </trkpt>
      <trkpt lat="43.5916" lon="3.28742">
        <ele>324.7</ele>
        <time>2023-05-13T13:38:28.000Z</time>
      </trkpt>
      <trkpt lat="43.59152" lon="3.28752">
        <ele>324.1</ele>
        <time>2023-05-13T13:38:29.000Z</time>
      </trkpt>
      <trkpt lat="43.59144" lon="3.28762">
        <ele>323.4</ele>
        <time>2023-05-13T13:38:30.000Z</time>
      </trkpt>
      <trkpt lat="43.59136" lon="3.28772">
        <ele>322.8</ele>
        <time>2023-05-13T13:38:31.000Z</time>
      </trkpt>
      <trkpt lat="43.5913" lon="3.28784">
        <ele>322.3</ele>
        <time>2023-05-13T13:38:32.000Z</time>
      </trkpt>
      <trkpt lat="43.59124" lon="3.28795">
        <ele>321.6</ele>
        <time>2023-05-13T13:38:33.000Z</time>
      </trkpt>
      <trkpt lat="43.59119" lon="3.28806">
        <ele>321</ele>
        <time>2023-05-13T13:38:34.000Z</time>
      </trkpt>
      <trkpt lat="43.59109" lon="3.28819">
        <ele>320.2</ele>
        <time>2023-05-13T13:38:36.000Z</time>
      </trkpt>
      <trkpt lat="43.59098" lon="3.28815">
        <ele>319.7</ele>
        <time>2023-05-13T13:38:38.000Z</time>
      </trkpt>
      <trkpt lat="43.59088" lon="3.28812">
        <ele>319.6</ele>
        <time>2023-05-13T13:38:40.000Z</time>
      </trkpt>
      <trkpt lat="43.59078" lon="3.28813">
        <ele>319.5</ele>
        <time>2023-05-13T13:38:42.000Z</time>
      </trkpt>
      <trkpt lat="43.59068" lon="3.28815">
        <ele>319.4</ele>
        <time>2023-05-13T13:38:44.000Z</time>
      </trkpt>
      <trkpt lat="43.59058" lon="3.28816">
        <ele>319.5</ele>
        <time>2023-05-13T13:38:46.000Z</time>
      </trkpt>
      <trkpt lat="43.59048" lon="3.28821">
        <ele>319.5</ele>
        <time>2023-05-13T13:38:48.000Z</time>
      </trkpt>
      <trkpt lat="43.59039" lon="3.28825">
        <ele>319.6</ele>
        <time>2023-05-13T13:38:50.000Z</time>
      </trkpt>
      <trkpt lat="43.59031" lon="3.2883">
        <ele>319.8</ele>
        <time>2023-05-13T13:38:52.000Z</time>
      </trkpt>
      <trkpt lat="43.59023" lon="3.28836">
        <ele>320</ele>
        <time>2023-05-13T13:38:54.000Z</time>
      </trkpt>
      <trkpt lat="43.59015" lon="3.28843">
        <ele>320.2</ele>
        <time>2023-05-13T13:38:56.000Z</time>
      </trkpt>
      <trkpt lat="43.59004" lon="3.28854">
        <ele>320.6</ele>
        <time>2023-05-13T13:38:59.000Z</time>
      </trkpt>
      <trkpt lat="43.58997" lon="3.28861">
        <ele>321</ele>
        <time>2023-05-13T13:39:01.000Z</time>
      </trkpt>
      <trkpt lat="43.58986" lon="3.28872">
        <ele>321.5</ele>
        <time>2023-05-13T13:39:04.000Z</time>
      </trkpt>
      <trkpt lat="43.58975" lon="3.28882">
        <ele>322.1</ele>
        <time>2023-05-13T13:39:07.000Z</time>
      </trkpt>
      <trkpt lat="43.58964" lon="3.28893">
        <ele>322.7</ele>
        <time>2023-05-13T13:39:10.000Z</time>
      </trkpt>
      <trkpt lat="43.58957" lon="3.28901">
        <ele>323.2</ele>
        <time>2023-05-13T13:39:12.000Z</time>
      </trkpt>
      <trkpt lat="43.5895" lon="3.2891">
        <ele>323.5</ele>
        <time>2023-05-13T13:39:14.000Z</time>
      </trkpt>
      <trkpt lat="43.58943" lon="3.28918">
        <ele>323.9</ele>
        <time>2023-05-13T13:39:16.000Z</time>
      </trkpt>
      <trkpt lat="43.58933" lon="3.28921">
        <ele>324.3</ele>
        <time>2023-05-13T13:39:19.000Z</time>
      </trkpt>
      <trkpt lat="43.5893" lon="3.28909">
        <ele>324.6</ele>
        <time>2023-05-13T13:39:22.000Z</time>
      </trkpt>
      <trkpt lat="43.58935" lon="3.28897">
        <ele>324.8</ele>
        <time>2023-05-13T13:39:25.000Z</time>
      </trkpt>
      <trkpt lat="43.58942" lon="3.28884">
        <ele>325</ele>
        <time>2023-05-13T13:39:28.000Z</time>
      </trkpt>
      <trkpt lat="43.58948" lon="3.28871">
        <ele>325.2</ele>
        <time>2023-05-13T13:39:31.000Z</time>
      </trkpt>
      <trkpt lat="43.58954" lon="3.28859">
        <ele>325.6</ele>
        <time>2023-05-13T13:39:34.000Z</time>
      </trkpt>
      <trkpt lat="43.58958" lon="3.28845">
        <ele>326</ele>
        <time>2023-05-13T13:39:37.000Z</time>
      </trkpt>
      <trkpt lat="43.58964" lon="3.28833">
        <ele>326.6</ele>
        <time>2023-05-13T13:39:40.000Z</time>
      </trkpt>
      <trkpt lat="43.58971" lon="3.28821">
        <ele>327.5</ele>
        <time>2023-05-13T13:39:43.000Z</time>
      </trkpt>
      <trkpt lat="43.58978" lon="3.28809">
        <ele>328.6</ele>
        <time>2023-05-13T13:39:46.000Z</time>
      </trkpt>
      <trkpt lat="43.58985" lon="3.28797">
        <ele>329.6</ele>
        <time>2023-05-13T13:39:49.000Z</time>
      </trkpt>
      <trkpt lat="43.58992" lon="3.28784">
        <ele>331</ele>
        <time>2023-05-13T13:39:52.000Z</time>
      </trkpt>
      <trkpt lat="43.58998" lon="3.28771">
        <ele>332.1</ele>
        <time>2023-05-13T13:39:55.000Z</time>
      </trkpt>
      <trkpt lat="43.59004" lon="3.28758">
        <ele>333.2</ele>
        <time>2023-05-13T13:39:58.000Z</time>
      </trkpt>
      <trkpt lat="43.59011" lon="3.28746">
        <ele>334.3</ele>
        <time>2023-05-13T13:40:01.000Z</time>
      </trkpt>
      <trkpt lat="43.5901" lon="3.28731">
        <ele>335.4</ele>
        <time>2023-05-13T13:40:04.000Z</time>
      </trkpt>
      <trkpt lat="43.59" lon="3.28722">
        <ele>336.4</ele>
        <time>2023-05-13T13:40:07.000Z</time>
      </trkpt>
      <trkpt lat="43.58989" lon="3.28718">
        <ele>337.4</ele>
        <time>2023-05-13T13:40:10.000Z</time>
      </trkpt>
      <trkpt lat="43.58978" lon="3.28713">
        <ele>338.3</ele>
        <time>2023-05-13T13:40:13.000Z</time>
      </trkpt>
      <trkpt lat="43.58968" lon="3.28705">
        <ele>339.2</ele>
        <time>2023-05-13T13:40:16.000Z</time>
      </trkpt>
      <trkpt lat="43.58957" lon="3.28698">
        <ele>340.1</ele>
        <time>2023-05-13T13:40:19.000Z</time>
      </trkpt>
      <trkpt lat="43.58946" lon="3.28693">
        <ele>341</ele>
        <time>2023-05-13T13:40:22.000Z</time>
      </trkpt>
      <trkpt lat="43.58934" lon="3.28692">
        <ele>342</ele>
        <time>2023-05-13T13:40:25.000Z</time>
      </trkpt>
      <trkpt lat="43.58923" lon="3.28692">
        <ele>343</ele>
        <time>2023-05-13T13:40:28.000Z</time>
      </trkpt>
      <trkpt lat="43.58912" lon="3.28691">
        <ele>344</ele>
        <time>2023-05-13T13:40:31.000Z</time>
      </trkpt>
      <trkpt lat="43.58901" lon="3.28689">
        <ele>345.1</ele>
        <time>2023-05-13T13:40:34.000Z</time>
      </trkpt>
      <trkpt lat="43.58889" lon="3.28689">
        <ele>346.1</ele>
        <time>2023-05-13T13:40:37.000Z</time>
      </trkpt>
      <trkpt lat="43.58878" lon="3.28688">
        <ele>347.1</ele>
        <time>2023-05-13T13:40:40.000Z</time>
      </trkpt>
      <trkpt lat="43.58868" lon="3.28689">
        <ele>348.2</ele>
        <time>2023-05-13T13:40:43.000Z</time>
      </trkpt>
      <trkpt lat="43.58857" lon="3.28692">
        <ele>349.2</ele>
        <time>2023-05-13T13:40:46.000Z</time>
      </trkpt>
      <trkpt lat="43.58847" lon="3.28695">
        <ele>350</ele>
        <time>2023-05-13T13:40:49.000Z</time>
      </trkpt>
      <trkpt lat="43.58837" lon="3.28698">
        <ele>350.9</ele>
        <time>2023-05-13T13:40:52.000Z</time>
      </trkpt>
      <trkpt lat="43.58829" lon="3.2869">
        <ele>352</ele>
        <time>2023-05-13T13:40:55.000Z</time>
      </trkpt>
      <trkpt lat="43.58823" lon="3.28677">
        <ele>353.1</ele>
        <time>2023-05-13T13:40:58.000Z</time>
      </trkpt>
      <trkpt lat="43.58816" lon="3.28667">
        <ele>354.1</ele>
        <time>2023-05-13T13:41:01.000Z</time>
      </trkpt>
      <trkpt lat="43.58808" lon="3.2866">
        <ele>355.1</ele>
        <time>2023-05-13T13:41:04.000Z</time>
      </trkpt>
      <trkpt lat="43.58799" lon="3.28655">
        <ele>356</ele>
        <time>2023-05-13T13:41:07.000Z</time>
      </trkpt>
      <trkpt lat="43.58789" lon="3.2865">
        <ele>356.8</ele>
        <time>2023-05-13T13:41:10.000Z</time>
      </trkpt>
      <trkpt lat="43.5878" lon="3.28646">
        <ele>357.7</ele>
        <time>2023-05-13T13:41:13.000Z</time>
      </trkpt>
      <trkpt lat="43.58771" lon="3.28645">
        <ele>358.6</ele>
        <time>2023-05-13T13:41:16.000Z</time>
      </trkpt>
      <trkpt lat="43.58762" lon="3.28646">
        <ele>359.5</ele>
        <time>2023-05-13T13:41:19.000Z</time>
      </trkpt>
      <trkpt lat="43.5875" lon="3.28645">
        <ele>360.8</ele>
        <time>2023-05-13T13:41:23.000Z</time>
      </trkpt>
      <trkpt lat="43.58742" lon="3.28637">
        <ele>361.7</ele>
        <time>2023-05-13T13:41:26.000Z</time>
      </trkpt>
      <trkpt lat="43.58736" lon="3.28628">
        <ele>362.6</ele>
        <time>2023-05-13T13:41:29.000Z</time>
      </trkpt>
      <trkpt lat="43.5873" lon="3.28617">
        <ele>363.9</ele>
        <time>2023-05-13T13:41:33.000Z</time>
      </trkpt>
      <trkpt lat="43.58729" lon="3.28604">
        <ele>365</ele>
        <time>2023-05-13T13:41:37.000Z</time>
      </trkpt>
      <trkpt lat="43.58731" lon="3.28591">
        <ele>366</ele>
        <time>2023-05-13T13:41:41.000Z</time>
      </trkpt>
      <trkpt lat="43.58735" lon="3.28578">
        <ele>367.2</ele>
        <time>2023-05-13T13:41:45.000Z</time>
      </trkpt>
      <trkpt lat="43.58742" lon="3.28566">
        <ele>368.3</ele>
        <time>2023-05-13T13:41:50.000Z</time>
      </trkpt>
      <trkpt lat="43.58752" lon="3.28563">
        <ele>369.1</ele>
        <time>2023-05-13T13:41:54.000Z</time>
      </trkpt>
      <trkpt lat="43.58761" lon="3.28558">
        <ele>369.7</ele>
        <time>2023-05-13T13:41:57.000Z</time>
      </trkpt>
      <trkpt lat="43.5877" lon="3.28547">
        <ele>370.4</ele>
        <time>2023-05-13T13:42:01.000Z</time>
      </trkpt>
      <trkpt lat="43.58777" lon="3.28539">
        <ele>370.9</ele>
        <time>2023-05-13T13:42:04.000Z</time>
      </trkpt>
      <trkpt lat="43.58783" lon="3.2853">
        <ele>371.5</ele>
        <time>2023-05-13T13:42:07.000Z</time>
      </trkpt>
      <trkpt lat="43.5879" lon="3.2852">
        <ele>372.2</ele>
        <time>2023-05-13T13:42:10.000Z</time>
      </trkpt>
      <trkpt lat="43.58797" lon="3.28511">
        <ele>373</ele>
        <time>2023-05-13T13:42:13.000Z</time>
      </trkpt>
      <trkpt lat="43.58802" lon="3.285">
        <ele>373.8</ele>
        <time>2023-05-13T13:42:16.000Z</time>
      </trkpt>
      <trkpt lat="43.58808" lon="3.28486">
        <ele>375</ele>
        <time>2023-05-13T13:42:20.000Z</time>
      </trkpt>
      <trkpt lat="43.58812" lon="3.28471">
        <ele>376.2</ele>
        <time>2023-05-13T13:42:24.000Z</time>
      </trkpt>
      <trkpt lat="43.58815" lon="3.28458">
        <ele>377.2</ele>
        <time>2023-05-13T13:42:27.000Z</time>
      </trkpt>
      <trkpt lat="43.58814" lon="3.28442">
        <ele>378.4</ele>
        <time>2023-05-13T13:42:31.000Z</time>
      </trkpt>
      <trkpt lat="43.58808" lon="3.28433">
        <ele>379.3</ele>
        <time>2023-05-13T13:42:34.000Z</time>
      </trkpt>
      <trkpt lat="43.58798" lon="3.2844">
        <ele>380.4</ele>
        <time>2023-05-13T13:42:38.000Z</time>
      </trkpt>
      <trkpt lat="43.58791" lon="3.28447">
        <ele>381.1</ele>
        <time>2023-05-13T13:42:41.000Z</time>
      </trkpt>
      <trkpt lat="43.58783" lon="3.28454">
        <ele>381.7</ele>
        <time>2023-05-13T13:42:44.000Z</time>
      </trkpt>
      <trkpt lat="43.58775" lon="3.28461">
        <ele>382.5</ele>
        <time>2023-05-13T13:42:47.000Z</time>
      </trkpt>
      <trkpt lat="43.58768" lon="3.28469">
        <ele>383.3</ele>
        <time>2023-05-13T13:42:50.000Z</time>
      </trkpt>
      <trkpt lat="43.5876" lon="3.28475">
        <ele>384</ele>
        <time>2023-05-13T13:42:53.000Z</time>
      </trkpt>
      <trkpt lat="43.58751" lon="3.28482">
        <ele>384.7</ele>
        <time>2023-05-13T13:42:56.000Z</time>
      </trkpt>
      <trkpt lat="43.58743" lon="3.28488">
        <ele>385.2</ele>
        <time>2023-05-13T13:42:59.000Z</time>
      </trkpt>
      <trkpt lat="43.58734" lon="3.28495">
        <ele>385.7</ele>
        <time>2023-05-13T13:43:02.000Z</time>
      </trkpt>
      <trkpt lat="43.58725" lon="3.28501">
        <ele>386.2</ele>
        <time>2023-05-13T13:43:05.000Z</time>
      </trkpt>
      <trkpt lat="43.58716" lon="3.28509">
        <ele>386.7</ele>
        <time>2023-05-13T13:43:08.000Z</time>
      </trkpt>
      <trkpt lat="43.58707" lon="3.28516">
        <ele>387.2</ele>
        <time>2023-05-13T13:43:11.000Z</time>
      </trkpt>
      <trkpt lat="43.58698" lon="3.28523">
        <ele>387.7</ele>
        <time>2023-05-13T13:43:14.000Z</time>
      </trkpt>
      <trkpt lat="43.5869" lon="3.2853">
        <ele>388.4</ele>
        <time>2023-05-13T13:43:17.000Z</time>
      </trkpt>
      <trkpt lat="43.58681" lon="3.28537">
        <ele>389.1</ele>
        <time>2023-05-13T13:43:20.000Z</time>
      </trkpt>
      <trkpt lat="43.58672" lon="3.28542">
        <ele>389.6</ele>
        <time>2023-05-13T13:43:23.000Z</time>
      </trkpt>
      <trkpt lat="43.58661" lon="3.28545">
        <ele>390.3</ele>
        <time>2023-05-13T13:43:26.000Z</time>
      </trkpt>
      <trkpt lat="43.58652" lon="3.2855">
        <ele>390.9</ele>
        <time>2023-05-13T13:43:29.000Z</time>
      </trkpt>
      <trkpt lat="43.58642" lon="3.28554">
        <ele>391.6</ele>
        <time>2023-05-13T13:43:32.000Z</time>
      </trkpt>
      <trkpt lat="43.58633" lon="3.28558">
        <ele>392.3</ele>
        <time>2023-05-13T13:43:35.000Z</time>
      </trkpt>
      <trkpt lat="43.58621" lon="3.28561">
        <ele>393.2</ele>
        <time>2023-05-13T13:43:39.000Z</time>
      </trkpt>
      <trkpt lat="43.58612" lon="3.28563">
        <ele>393.8</ele>
        <time>2023-05-13T13:43:42.000Z</time>
      </trkpt>
      <trkpt lat="43.58602" lon="3.28566">
        <ele>394.5</ele>
        <time>2023-05-13T13:43:45.000Z</time>
      </trkpt>
      <trkpt lat="43.58591" lon="3.28573">
        <ele>395.1</ele>
        <time>2023-05-13T13:43:48.000Z</time>
      </trkpt>
      <trkpt lat="43.58582" lon="3.2858">
        <ele>395.7</ele>
        <time>2023-05-13T13:43:51.000Z</time>
      </trkpt>
      <trkpt lat="43.58575" lon="3.28591">
        <ele>396.3</ele>
        <time>2023-05-13T13:43:54.000Z</time>
      </trkpt>
      <trkpt lat="43.58569" lon="3.28604">
        <ele>396.9</ele>
        <time>2023-05-13T13:43:57.000Z</time>
      </trkpt>
      <trkpt lat="43.58565" lon="3.28618">
        <ele>397.6</ele>
        <time>2023-05-13T13:44:00.000Z</time>
      </trkpt>
      <trkpt lat="43.58561" lon="3.28632">
        <ele>398.3</ele>
        <time>2023-05-13T13:44:03.000Z</time>
      </trkpt>
      <trkpt lat="43.58558" lon="3.28648">
        <ele>399.1</ele>
        <time>2023-05-13T13:44:06.000Z</time>
      </trkpt>
      <trkpt lat="43.58554" lon="3.28662">
        <ele>399.8</ele>
        <time>2023-05-13T13:44:09.000Z</time>
      </trkpt>
      <trkpt lat="43.5855" lon="3.28676">
        <ele>400.6</ele>
        <time>2023-05-13T13:44:12.000Z</time>
      </trkpt>
      <trkpt lat="43.58546" lon="3.28691">
        <ele>401.3</ele>
        <time>2023-05-13T13:44:15.000Z</time>
      </trkpt>
      <trkpt lat="43.58542" lon="3.28705">
        <ele>402</ele>
        <time>2023-05-13T13:44:18.000Z</time>
      </trkpt>
      <trkpt lat="43.58539" lon="3.28718">
        <ele>402.7</ele>
        <time>2023-05-13T13:44:21.000Z</time>
      </trkpt>
      <trkpt lat="43.58537" lon="3.28732">
        <ele>403.5</ele>
        <time>2023-05-13T13:44:24.000Z</time>
      </trkpt>
      <trkpt lat="43.58535" lon="3.28747">
        <ele>404.3</ele>
        <time>2023-05-13T13:44:27.000Z</time>
      </trkpt>
      <trkpt lat="43.58534" lon="3.28761">
        <ele>405</ele>
        <time>2023-05-13T13:44:30.000Z</time>
      </trkpt>
      <trkpt lat="43.58534" lon="3.28776">
        <ele>405.7</ele>
        <time>2023-05-13T13:44:33.000Z</time>
      </trkpt>
      <trkpt lat="43.58536" lon="3.28792">
        <ele>406.3</ele>
        <time>2023-05-13T13:44:36.000Z</time>
      </trkpt>
      <trkpt lat="43.58538" lon="3.28807">
        <ele>406.8</ele>
        <time>2023-05-13T13:44:39.000Z</time>
      </trkpt>
      <trkpt lat="43.5854" lon="3.28822">
        <ele>407.3</ele>
        <time>2023-05-13T13:44:42.000Z</time>
      </trkpt>
      <trkpt lat="43.58542" lon="3.28837">
        <ele>407.8</ele>
        <time>2023-05-13T13:44:45.000Z</time>
      </trkpt>
      <trkpt lat="43.58544" lon="3.28852">
        <ele>408.3</ele>
        <time>2023-05-13T13:44:48.000Z</time>
      </trkpt>
      <trkpt lat="43.58546" lon="3.28866">
        <ele>408.8</ele>
        <time>2023-05-13T13:44:51.000Z</time>
      </trkpt>
      <trkpt lat="43.58547" lon="3.28879">
        <ele>409.3</ele>
        <time>2023-05-13T13:44:54.000Z</time>
      </trkpt>
      <trkpt lat="43.58548" lon="3.28894">
        <ele>409.6</ele>
        <time>2023-05-13T13:44:57.000Z</time>
      </trkpt>
      <trkpt lat="43.58546" lon="3.28909">
        <ele>409.9</ele>
        <time>2023-05-13T13:45:00.000Z</time>
      </trkpt>
      <trkpt lat="43.58543" lon="3.28923">
        <ele>410.2</ele>
        <time>2023-05-13T13:45:03.000Z</time>
      </trkpt>
      <trkpt lat="43.58539" lon="3.28937">
        <ele>410.5</ele>
        <time>2023-05-13T13:45:06.000Z</time>
      </trkpt>
      <trkpt lat="43.58535" lon="3.28951">
        <ele>410.8</ele>
        <time>2023-05-13T13:45:09.000Z</time>
      </trkpt>
      <trkpt lat="43.58531" lon="3.28963">
        <ele>411.1</ele>
        <time>2023-05-13T13:45:12.000Z</time>
      </trkpt>
      <trkpt lat="43.58529" lon="3.28976">
        <ele>411.4</ele>
        <time>2023-05-13T13:45:15.000Z</time>
      </trkpt>
      <trkpt lat="43.58528" lon="3.28989">
        <ele>411.8</ele>
        <time>2023-05-13T13:45:18.000Z</time>
      </trkpt>
      <trkpt lat="43.58527" lon="3.29002">
        <ele>412.3</ele>
        <time>2023-05-13T13:45:21.000Z</time>
      </trkpt>
      <trkpt lat="43.58525" lon="3.29015">
        <ele>412.8</ele>
        <time>2023-05-13T13:45:24.000Z</time>
      </trkpt>
      <trkpt lat="43.58523" lon="3.29029">
        <ele>413.7</ele>
        <time>2023-05-13T13:45:28.000Z</time>
      </trkpt>
      <trkpt lat="43.58523" lon="3.29042">
        <ele>414.8</ele>
        <time>2023-05-13T13:45:32.000Z</time>
      </trkpt>
      <trkpt lat="43.58529" lon="3.29055">
        <ele>416</ele>
        <time>2023-05-13T13:45:36.000Z</time>
      </trkpt>
      <trkpt lat="43.58535" lon="3.29067">
        <ele>417.4</ele>
        <time>2023-05-13T13:45:40.000Z</time>
      </trkpt>
      <trkpt lat="43.5854" lon="3.29078">
        <ele>418.7</ele>
        <time>2023-05-13T13:45:44.000Z</time>
      </trkpt>
      <trkpt lat="43.58544" lon="3.29091">
        <ele>420.2</ele>
        <time>2023-05-13T13:45:48.000Z</time>
      </trkpt>
      <trkpt lat="43.58548" lon="3.29103">
        <ele>421.8</ele>
        <time>2023-05-13T13:45:52.000Z</time>
      </trkpt>
      <trkpt lat="43.5855" lon="3.29116">
        <ele>422.9</ele>
        <time>2023-05-13T13:45:56.000Z</time>
      </trkpt>
      <trkpt lat="43.58552" lon="3.2913">
        <ele>424.1</ele>
        <time>2023-05-13T13:46:00.000Z</time>
      </trkpt>
      <trkpt lat="43.58556" lon="3.29143">
        <ele>425.5</ele>
        <time>2023-05-13T13:46:04.000Z</time>
      </trkpt>
      <trkpt lat="43.58562" lon="3.29156">
        <ele>426.9</ele>
        <time>2023-05-13T13:46:08.000Z</time>
      </trkpt>
      <trkpt lat="43.58568" lon="3.29168">
        <ele>428.2</ele>
        <time>2023-05-13T13:46:12.000Z</time>
      </trkpt>
      <trkpt lat="43.58571" lon="3.29181">
        <ele>429.4</ele>
        <time>2023-05-13T13:46:16.000Z</time>
      </trkpt>
      <trkpt lat="43.58571" lon="3.29195">
        <ele>430.8</ele>
        <time>2023-05-13T13:46:20.000Z</time>
      </trkpt>
      <trkpt lat="43.5857" lon="3.29208">
        <ele>431.7</ele>
        <time>2023-05-13T13:46:24.000Z</time>
      </trkpt>
      <trkpt lat="43.58566" lon="3.29221">
        <ele>432.7</ele>
        <time>2023-05-13T13:46:28.000Z</time>
      </trkpt>
      <trkpt lat="43.58563" lon="3.29235">
        <ele>434</ele>
        <time>2023-05-13T13:46:32.000Z</time>
      </trkpt>
      <trkpt lat="43.58558" lon="3.29247">
        <ele>435.2</ele>
        <time>2023-05-13T13:46:36.000Z</time>
      </trkpt>
      <trkpt lat="43.58553" lon="3.29259">
        <ele>436.5</ele>
        <time>2023-05-13T13:46:40.000Z</time>
      </trkpt>
      <trkpt lat="43.58548" lon="3.29271">
        <ele>437.7</ele>
        <time>2023-05-13T13:46:44.000Z</time>
      </trkpt>
      <trkpt lat="43.58541" lon="3.29281">
        <ele>439</ele>
        <time>2023-05-13T13:46:48.000Z</time>
      </trkpt>
      <trkpt lat="43.58535" lon="3.29292">
        <ele>440.4</ele>
        <time>2023-05-13T13:46:52.000Z</time>
      </trkpt>
      <trkpt lat="43.58529" lon="3.29303">
        <ele>441.7</ele>
        <time>2023-05-13T13:46:56.000Z</time>
      </trkpt>
      <trkpt lat="43.58523" lon="3.29314">
        <ele>442.9</ele>
        <time>2023-05-13T13:47:00.000Z</time>
      </trkpt>
      <trkpt lat="43.58516" lon="3.29326">
        <ele>443.9</ele>
        <time>2023-05-13T13:47:04.000Z</time>
      </trkpt>
      <trkpt lat="43.58508" lon="3.29335">
        <ele>445</ele>
        <time>2023-05-13T13:47:08.000Z</time>
      </trkpt>
      <trkpt lat="43.58499" lon="3.29342">
        <ele>446</ele>
        <time>2023-05-13T13:47:12.000Z</time>
      </trkpt>
      <trkpt lat="43.5849" lon="3.29348">
        <ele>447.4</ele>
        <time>2023-05-13T13:47:16.000Z</time>
      </trkpt>
      <trkpt lat="43.5848" lon="3.29352">
        <ele>448.6</ele>
        <time>2023-05-13T13:47:20.000Z</time>
      </trkpt>
      <trkpt lat="43.58471" lon="3.29361">
        <ele>449.9</ele>
        <time>2023-05-13T13:47:25.000Z</time>
      </trkpt>
      <trkpt lat="43.58465" lon="3.29375">
        <ele>450.9</ele>
        <time>2023-05-13T13:47:29.000Z</time>
      </trkpt>
      <trkpt lat="43.58464" lon="3.29391">
        <ele>451.8</ele>
        <time>2023-05-13T13:47:33.000Z</time>
      </trkpt>
      <trkpt lat="43.58461" lon="3.29407">
        <ele>452.4</ele>
        <time>2023-05-13T13:47:37.000Z</time>
      </trkpt>
      <trkpt lat="43.58457" lon="3.29421">
        <ele>453</ele>
        <time>2023-05-13T13:47:41.000Z</time>
      </trkpt>
      <trkpt lat="43.58454" lon="3.29437">
        <ele>453.7</ele>
        <time>2023-05-13T13:47:45.000Z</time>
      </trkpt>
      <trkpt lat="43.58449" lon="3.29451">
        <ele>454.5</ele>
        <time>2023-05-13T13:47:49.000Z</time>
      </trkpt>
      <trkpt lat="43.58446" lon="3.29466">
        <ele>455.3</ele>
        <time>2023-05-13T13:47:53.000Z</time>
      </trkpt>
      <trkpt lat="43.58443" lon="3.2948">
        <ele>456.1</ele>
        <time>2023-05-13T13:47:57.000Z</time>
      </trkpt>
      <trkpt lat="43.5844" lon="3.29494">
        <ele>457.1</ele>
        <time>2023-05-13T13:48:01.000Z</time>
      </trkpt>
      <trkpt lat="43.58438" lon="3.2951">
        <ele>458.3</ele>
        <time>2023-05-13T13:48:05.000Z</time>
      </trkpt>
      <trkpt lat="43.58438" lon="3.29526">
        <ele>459.3</ele>
        <time>2023-05-13T13:48:09.000Z</time>
      </trkpt>
      <trkpt lat="43.58439" lon="3.29542">
        <ele>459.9</ele>
        <time>2023-05-13T13:48:13.000Z</time>
      </trkpt>
      <trkpt lat="43.58438" lon="3.29555">
        <ele>460.6</ele>
        <time>2023-05-13T13:48:16.000Z</time>
      </trkpt>
      <trkpt lat="43.58439" lon="3.29567">
        <ele>461.1</ele>
        <time>2023-05-13T13:48:19.000Z</time>
      </trkpt>
      <trkpt lat="43.58439" lon="3.29584">
        <ele>461.6</ele>
        <time>2023-05-13T13:48:23.000Z</time>
      </trkpt>
      <trkpt lat="43.5844" lon="3.296">
        <ele>461.9</ele>
        <time>2023-05-13T13:48:27.000Z</time>
      </trkpt>
      <trkpt lat="43.58441" lon="3.29613">
        <ele>462.1</ele>
        <time>2023-05-13T13:48:30.000Z</time>
      </trkpt>
      <trkpt lat="43.58442" lon="3.29626">
        <ele>462.3</ele>
        <time>2023-05-13T13:48:33.000Z</time>
      </trkpt>
      <trkpt lat="43.58442" lon="3.2964">
        <ele>462.7</ele>
        <time>2023-05-13T13:48:36.000Z</time>
      </trkpt>
      <trkpt lat="43.58441" lon="3.29653">
        <ele>463.1</ele>
        <time>2023-05-13T13:48:39.000Z</time>
      </trkpt>
      <trkpt lat="43.58441" lon="3.29667">
        <ele>463.7</ele>
        <time>2023-05-13T13:48:42.000Z</time>
      </trkpt>
      <trkpt lat="43.58443" lon="3.29681">
        <ele>464.1</ele>
        <time>2023-05-13T13:48:45.000Z</time>
      </trkpt>
      <trkpt lat="43.58447" lon="3.29695">
        <ele>464.6</ele>
        <time>2023-05-13T13:48:48.000Z</time>
      </trkpt>
      <trkpt lat="43.5845" lon="3.29708">
        <ele>464.8</ele>
        <time>2023-05-13T13:48:51.000Z</time>
      </trkpt>
      <trkpt lat="43.58452" lon="3.29722">
        <ele>465</ele>
        <time>2023-05-13T13:48:54.000Z</time>
      </trkpt>
      <trkpt lat="43.58452" lon="3.29736">
        <ele>465.4</ele>
        <time>2023-05-13T13:48:57.000Z</time>
      </trkpt>
      <trkpt lat="43.58451" lon="3.29751">
        <ele>465.7</ele>
        <time>2023-05-13T13:49:00.000Z</time>
      </trkpt>
      <trkpt lat="43.58451" lon="3.29767">
        <ele>466.1</ele>
        <time>2023-05-13T13:49:04.000Z</time>
      </trkpt>
      <trkpt lat="43.58451" lon="3.2978">
        <ele>466.7</ele>
        <time>2023-05-13T13:49:07.000Z</time>
      </trkpt>
      <trkpt lat="43.58451" lon="3.29793">
        <ele>467.3</ele>
        <time>2023-05-13T13:49:10.000Z</time>
      </trkpt>
      <trkpt lat="43.58449" lon="3.29806">
        <ele>467.8</ele>
        <time>2023-05-13T13:49:13.000Z</time>
      </trkpt>
      <trkpt lat="43.58445" lon="3.29821">
        <ele>468.5</ele>
        <time>2023-05-13T13:49:17.000Z</time>
      </trkpt>
      <trkpt lat="43.58442" lon="3.29836">
        <ele>469.3</ele>
        <time>2023-05-13T13:49:21.000Z</time>
      </trkpt>
      <trkpt lat="43.58439" lon="3.29848">
        <ele>469.8</ele>
        <time>2023-05-13T13:49:25.000Z</time>
      </trkpt>
      <trkpt lat="43.58434" lon="3.2986">
        <ele>470.3</ele>
        <time>2023-05-13T13:49:29.000Z</time>
      </trkpt>
      <trkpt lat="43.58429" lon="3.29872">
        <ele>471</ele>
        <time>2023-05-13T13:49:34.000Z</time>
      </trkpt>
      <trkpt lat="43.58425" lon="3.29886">
        <ele>471.7</ele>
        <time>2023-05-13T13:49:39.000Z</time>
      </trkpt>
      <trkpt lat="43.58421" lon="3.29899">
        <ele>472.7</ele>
        <time>2023-05-13T13:49:44.000Z</time>
      </trkpt>
      <trkpt lat="43.5842" lon="3.29912">
        <ele>474</ele>
        <time>2023-05-13T13:49:49.000Z</time>
      </trkpt>
      <trkpt lat="43.58418" lon="3.29925">
        <ele>475.5</ele>
        <time>2023-05-13T13:49:56.000Z</time>
      </trkpt>
      <trkpt lat="43.58414" lon="3.29938">
        <ele>476.2</ele>
        <time>2023-05-13T13:50:03.000Z</time>
      </trkpt>
      <trkpt lat="43.5841" lon="3.29949">
        <ele>476.6</ele>
        <time>2023-05-13T13:50:08.000Z</time>
      </trkpt>
      <trkpt lat="43.58406" lon="3.29962">
        <ele>477.1</ele>
        <time>2023-05-13T13:50:13.000Z</time>
      </trkpt>
      <trkpt lat="43.58403" lon="3.29975">
        <ele>477.5</ele>
        <time>2023-05-13T13:50:18.000Z</time>
      </trkpt>
      <trkpt lat="43.584" lon="3.29987">
        <ele>477.8</ele>
        <time>2023-05-13T13:50:22.000Z</time>
      </trkpt>
      <trkpt lat="43.58398" lon="3.3">
        <ele>478.1</ele>
        <time>2023-05-13T13:50:26.000Z</time>
      </trkpt>
      <trkpt lat="43.58389" lon="3.30004">
        <ele>477.8</ele>
        <time>2023-05-13T13:50:32.000Z</time>
      </trkpt>
      <trkpt lat="43.58379" lon="3.30002">
        <ele>476.9</ele>
        <time>2023-05-13T13:50:37.000Z</time>
      </trkpt>
      <trkpt lat="43.58369" lon="3.30007">
        <ele>475.5</ele>
        <time>2023-05-13T13:50:41.000Z</time>
      </trkpt>
      <trkpt lat="43.5836" lon="3.30011">
        <ele>472.7</ele>
        <time>2023-05-13T13:50:45.000Z</time>
      </trkpt>
      <trkpt lat="43.5835" lon="3.30011">
        <ele>469.4</ele>
        <time>2023-05-13T13:50:49.000Z</time>
      </trkpt>
      <trkpt lat="43.5834" lon="3.30014">
        <ele>464.8</ele>
        <time>2023-05-13T13:50:54.000Z</time>
      </trkpt>
      <trkpt lat="43.5833" lon="3.30016">
        <ele>460.4</ele>
        <time>2023-05-13T13:51:00.000Z</time>
      </trkpt>
      <trkpt lat="43.58319" lon="3.3002">
        <ele>457.1</ele>
        <time>2023-05-13T13:51:05.000Z</time>
      </trkpt>
      <trkpt lat="43.58308" lon="3.30023">
        <ele>453.4</ele>
        <time>2023-05-13T13:51:10.000Z</time>
      </trkpt>
      <trkpt lat="43.58299" lon="3.30021">
        <ele>450.5</ele>
        <time>2023-05-13T13:51:14.000Z</time>
      </trkpt>
      <trkpt lat="43.58288" lon="3.30021">
        <ele>447.7</ele>
        <time>2023-05-13T13:51:17.000Z</time>
      </trkpt>
      <trkpt lat="43.58281" lon="3.30035">
        <ele>444.1</ele>
        <time>2023-05-13T13:51:21.000Z</time>
      </trkpt>
      <trkpt lat="43.58279" lon="3.30053">
        <ele>442.8</ele>
        <time>2023-05-13T13:51:24.000Z</time>
      </trkpt>
      <trkpt lat="43.58278" lon="3.30071">
        <ele>441.8</ele>
        <time>2023-05-13T13:51:27.000Z</time>
      </trkpt>
      <trkpt lat="43.58277" lon="3.30084">
        <ele>441.5</ele>
        <time>2023-05-13T13:51:29.000Z</time>
      </trkpt>
      <trkpt lat="43.58276" lon="3.30102">
        <ele>441</ele>
        <time>2023-05-13T13:51:32.000Z</time>
      </trkpt>
      <trkpt lat="43.58277" lon="3.30118">
        <ele>440.5</ele>
        <time>2023-05-13T13:51:35.000Z</time>
      </trkpt>
      <trkpt lat="43.58279" lon="3.30135">
        <ele>440</ele>
        <time>2023-05-13T13:51:39.000Z</time>
      </trkpt>
      <trkpt lat="43.5828" lon="3.3015">
        <ele>440</ele>
        <time>2023-05-13T13:51:42.000Z</time>
      </trkpt>
      <trkpt lat="43.5828" lon="3.30168">
        <ele>439.8</ele>
        <time>2023-05-13T13:51:45.000Z</time>
      </trkpt>
      <trkpt lat="43.5828" lon="3.30181">
        <ele>439.6</ele>
        <time>2023-05-13T13:51:47.000Z</time>
      </trkpt>
      <trkpt lat="43.5828" lon="3.30198">
        <ele>439.2</ele>
        <time>2023-05-13T13:51:50.000Z</time>
      </trkpt>
      <trkpt lat="43.58274" lon="3.30212">
        <ele>438.1</ele>
        <time>2023-05-13T13:51:53.000Z</time>
      </trkpt>
      <trkpt lat="43.58267" lon="3.30224">
        <ele>436.6</ele>
        <time>2023-05-13T13:51:55.000Z</time>
      </trkpt>
      <trkpt lat="43.58258" lon="3.30239">
        <ele>434.2</ele>
        <time>2023-05-13T13:51:57.000Z</time>
      </trkpt>
      <trkpt lat="43.5825" lon="3.30256">
        <ele>430.9</ele>
        <time>2023-05-13T13:51:59.000Z</time>
      </trkpt>
      <trkpt lat="43.58241" lon="3.30274">
        <ele>427.5</ele>
        <time>2023-05-13T13:52:01.000Z</time>
      </trkpt>
      <trkpt lat="43.58233" lon="3.30294">
        <ele>425</ele>
        <time>2023-05-13T13:52:03.000Z</time>
      </trkpt>
      <trkpt lat="43.5823" lon="3.30311">
        <ele>424.1</ele>
        <time>2023-05-13T13:52:05.000Z</time>
      </trkpt>
      <trkpt lat="43.58229" lon="3.30326">
        <ele>423.7</ele>
        <time>2023-05-13T13:52:08.000Z</time>
      </trkpt>
      <trkpt lat="43.5823" lon="3.30339">
        <ele>423.8</ele>
        <time>2023-05-13T13:52:11.000Z</time>
      </trkpt>
      <trkpt lat="43.5823" lon="3.30354">
        <ele>423.9</ele>
        <time>2023-05-13T13:52:14.000Z</time>
      </trkpt>
      <trkpt lat="43.5823" lon="3.3037">
        <ele>423.9</ele>
        <time>2023-05-13T13:52:17.000Z</time>
      </trkpt>
      <trkpt lat="43.58231" lon="3.30384">
        <ele>423.8</ele>
        <time>2023-05-13T13:52:19.000Z</time>
      </trkpt>
      <trkpt lat="43.58233" lon="3.30403">
        <ele>423.5</ele>
        <time>2023-05-13T13:52:21.000Z</time>
      </trkpt>
      <trkpt lat="43.58235" lon="3.30425">
        <ele>423</ele>
        <time>2023-05-13T13:52:23.000Z</time>
      </trkpt>
      <trkpt lat="43.58239" lon="3.30449">
        <ele>422.2</ele>
        <time>2023-05-13T13:52:25.000Z</time>
      </trkpt>
      <trkpt lat="43.58242" lon="3.30471">
        <ele>421.3</ele>
        <time>2023-05-13T13:52:27.000Z</time>
      </trkpt>
      <trkpt lat="43.58243" lon="3.30493">
        <ele>420.2</ele>
        <time>2023-05-13T13:52:29.000Z</time>
      </trkpt>
      <trkpt lat="43.58242" lon="3.30513">
        <ele>419.1</ele>
        <time>2023-05-13T13:52:31.000Z</time>
      </trkpt>
      <trkpt lat="43.58242" lon="3.3053">
        <ele>418.3</ele>
        <time>2023-05-13T13:52:33.000Z</time>
      </trkpt>
      <trkpt lat="43.58242" lon="3.30545">
        <ele>417.9</ele>
        <time>2023-05-13T13:52:35.000Z</time>
      </trkpt>
      <trkpt lat="43.58241" lon="3.30563">
        <ele>417.4</ele>
        <time>2023-05-13T13:52:38.000Z</time>
      </trkpt>
      <trkpt lat="43.5824" lon="3.30575">
        <ele>417.3</ele>
        <time>2023-05-13T13:52:40.000Z</time>
      </trkpt>
      <trkpt lat="43.58237" lon="3.30588">
        <ele>417.4</ele>
        <time>2023-05-13T13:52:42.000Z</time>
      </trkpt>
      <trkpt lat="43.58235" lon="3.306">
        <ele>417.6</ele>
        <time>2023-05-13T13:52:44.000Z</time>
      </trkpt>
      <trkpt lat="43.58232" lon="3.30618">
        <ele>417.8</ele>
        <time>2023-05-13T13:52:47.000Z</time>
      </trkpt>
      <trkpt lat="43.5823" lon="3.30633">
        <ele>418</ele>
        <time>2023-05-13T13:52:50.000Z</time>
      </trkpt>
      <trkpt lat="43.58227" lon="3.30648">
        <ele>418.3</ele>
        <time>2023-05-13T13:52:53.000Z</time>
      </trkpt>
      <trkpt lat="43.58225" lon="3.30662">
        <ele>418.7</ele>
        <time>2023-05-13T13:52:56.000Z</time>
      </trkpt>
      <trkpt lat="43.58225" lon="3.30678">
        <ele>419.8</ele>
        <time>2023-05-13T13:53:00.000Z</time>
      </trkpt>
      <trkpt lat="43.58228" lon="3.30689">
        <ele>421.1</ele>
        <time>2023-05-13T13:53:03.000Z</time>
      </trkpt>
      <trkpt lat="43.58229" lon="3.30705">
        <ele>422.8</ele>
        <time>2023-05-13T13:53:08.000Z</time>
      </trkpt>
      <trkpt lat="43.58226" lon="3.30719">
        <ele>423.3</ele>
        <time>2023-05-13T13:53:11.000Z</time>
      </trkpt>
      <trkpt lat="43.58221" lon="3.30732">
        <ele>423.2</ele>
        <time>2023-05-13T13:53:13.000Z</time>
      </trkpt>
      <trkpt lat="43.58216" lon="3.30743">
        <ele>422.5</ele>
        <time>2023-05-13T13:53:15.000Z</time>
      </trkpt>
      <trkpt lat="43.58207" lon="3.30751">
        <ele>421.7</ele>
        <time>2023-05-13T13:53:17.000Z</time>
      </trkpt>
      <trkpt lat="43.58196" lon="3.30755">
        <ele>420.5</ele>
        <time>2023-05-13T13:53:19.000Z</time>
      </trkpt>
      <trkpt lat="43.58184" lon="3.30757">
        <ele>418.3</ele>
        <time>2023-05-13T13:53:21.000Z</time>
      </trkpt>
      <trkpt lat="43.58174" lon="3.3076">
        <ele>415.9</ele>
        <time>2023-05-13T13:53:23.000Z</time>
      </trkpt>
      <trkpt lat="43.58162" lon="3.30765">
        <ele>413.2</ele>
        <time>2023-05-13T13:53:25.000Z</time>
      </trkpt>
      <trkpt lat="43.5815" lon="3.30769">
        <ele>410.8</ele>
        <time>2023-05-13T13:53:27.000Z</time>
      </trkpt>
      <trkpt lat="43.58136" lon="3.30774">
        <ele>408.3</ele>
        <time>2023-05-13T13:53:29.000Z</time>
      </trkpt>
      <trkpt lat="43.58122" lon="3.30781">
        <ele>405.6</ele>
        <time>2023-05-13T13:53:31.000Z</time>
      </trkpt>
      <trkpt lat="43.58113" lon="3.30787">
        <ele>401</ele>
        <time>2023-05-13T13:53:35.000Z</time>
      </trkpt>
      <trkpt lat="43.58113" lon="3.30787">
        <ele>399.7</ele>
        <time>2023-05-13T13:53:38.000Z</time>
      </trkpt>
      <trkpt lat="43.58113" lon="3.30787">
        <ele>399.3</ele>
        <time>2023-05-13T13:53:40.000Z</time>
      </trkpt>
      <trkpt lat="43.58113" lon="3.30787">
        <ele>399.2</ele>
        <time>2023-05-13T13:53:41.000Z</time>
      </trkpt>
      <trkpt lat="43.58113" lon="3.30788">
        <ele>398.8</ele>
        <time>2023-05-13T13:53:44.000Z</time>
      </trkpt>
      <trkpt lat="43.58114" lon="3.30786">
        <ele>398.6</ele>
        <time>2023-05-13T13:53:47.000Z</time>
      </trkpt>
      <trkpt lat="43.58114" lon="3.30786">
        <ele>398.6</ele>
        <time>2023-05-13T13:53:48.000Z</time>
      </trkpt>
      <trkpt lat="43.58115" lon="3.30772">
        <ele>398.3</ele>
        <time>2023-05-13T13:53:54.000Z</time>
      </trkpt>
      <trkpt lat="43.58114" lon="3.30758">
        <ele>397.9</ele>
        <time>2023-05-13T13:53:59.000Z</time>
      </trkpt>
      <trkpt lat="43.58103" lon="3.30758">
        <ele>397.4</ele>
        <time>2023-05-13T13:54:02.000Z</time>
      </trkpt>
      <trkpt lat="43.58093" lon="3.30762">
        <ele>396.9</ele>
        <time>2023-05-13T13:54:04.000Z</time>
      </trkpt>
      <trkpt lat="43.58082" lon="3.30766">
        <ele>395.5</ele>
        <time>2023-05-13T13:54:07.000Z</time>
      </trkpt>
      <trkpt lat="43.58071" lon="3.30771">
        <ele>393.8</ele>
        <time>2023-05-13T13:54:10.000Z</time>
      </trkpt>
      <trkpt lat="43.58059" lon="3.30777">
        <ele>392.3</ele>
        <time>2023-05-13T13:54:13.000Z</time>
      </trkpt>
      <trkpt lat="43.58047" lon="3.30784">
        <ele>390.8</ele>
        <time>2023-05-13T13:54:16.000Z</time>
      </trkpt>
      <trkpt lat="43.58038" lon="3.30793">
        <ele>389.9</ele>
        <time>2023-05-13T13:54:18.000Z</time>
      </trkpt>
      <trkpt lat="43.5803" lon="3.30809">
        <ele>388.6</ele>
        <time>2023-05-13T13:54:20.000Z</time>
      </trkpt>
      <trkpt lat="43.58016" lon="3.3082">
        <ele>386.7</ele>
        <time>2023-05-13T13:54:22.000Z</time>
      </trkpt>
      <trkpt lat="43.58003" lon="3.3083">
        <ele>384.5</ele>
        <time>2023-05-13T13:54:24.000Z</time>
      </trkpt>
      <trkpt lat="43.5799" lon="3.30843">
        <ele>383.4</ele>
        <time>2023-05-13T13:54:26.000Z</time>
      </trkpt>
      <trkpt lat="43.5798" lon="3.30857">
        <ele>382.2</ele>
        <time>2023-05-13T13:54:28.000Z</time>
      </trkpt>
      <trkpt lat="43.57975" lon="3.30875">
        <ele>380.2</ele>
        <time>2023-05-13T13:54:30.000Z</time>
      </trkpt>
      <trkpt lat="43.5797" lon="3.30896">
        <ele>378.4</ele>
        <time>2023-05-13T13:54:32.000Z</time>
      </trkpt>
      <trkpt lat="43.57963" lon="3.30912">
        <ele>376.9</ele>
        <time>2023-05-13T13:54:34.000Z</time>
      </trkpt>
      <trkpt lat="43.57954" lon="3.30925">
        <ele>375.9</ele>
        <time>2023-05-13T13:54:36.000Z</time>
      </trkpt>
      <trkpt lat="43.57945" lon="3.3094">
        <ele>375.3</ele>
        <time>2023-05-13T13:54:38.000Z</time>
      </trkpt>
      <trkpt lat="43.57938" lon="3.30954">
        <ele>374.7</ele>
        <time>2023-05-13T13:54:40.000Z</time>
      </trkpt>
      <trkpt lat="43.5793" lon="3.30962">
        <ele>374.3</ele>
        <time>2023-05-13T13:54:42.000Z</time>
      </trkpt>
      <trkpt lat="43.57921" lon="3.30968">
        <ele>374</ele>
        <time>2023-05-13T13:54:46.000Z</time>
      </trkpt>
      <trkpt lat="43.57921" lon="3.30968">
        <ele>373.9</ele>
        <time>2023-05-13T13:54:49.000Z</time>
      </trkpt>
      <trkpt lat="43.57921" lon="3.30968">
        <ele>373.8</ele>
        <time>2023-05-13T13:54:51.000Z</time>
      </trkpt>
      <trkpt lat="43.57911" lon="3.30974">
        <ele>373.7</ele>
        <time>2023-05-13T13:54:57.000Z</time>
      </trkpt>
      <trkpt lat="43.57902" lon="3.30982">
        <ele>373.6</ele>
        <time>2023-05-13T13:55:02.000Z</time>
      </trkpt>
      <trkpt lat="43.57892" lon="3.30982">
        <ele>373.4</ele>
        <time>2023-05-13T13:55:06.000Z</time>
      </trkpt>
      <trkpt lat="43.57884" lon="3.30985">
        <ele>373.3</ele>
        <time>2023-05-13T13:55:09.000Z</time>
      </trkpt>
      <trkpt lat="43.57874" lon="3.30987">
        <ele>373.2</ele>
        <time>2023-05-13T13:55:13.000Z</time>
      </trkpt>
      <trkpt lat="43.57864" lon="3.30988">
        <ele>373</ele>
        <time>2023-05-13T13:55:16.000Z</time>
      </trkpt>
      <trkpt lat="43.57854" lon="3.30989">
        <ele>372.7</ele>
        <time>2023-05-13T13:55:18.000Z</time>
      </trkpt>
      <trkpt lat="43.57843" lon="3.30989">
        <ele>372.2</ele>
        <time>2023-05-13T13:55:20.000Z</time>
      </trkpt>
      <trkpt lat="43.57833" lon="3.30988">
        <ele>371.4</ele>
        <time>2023-05-13T13:55:22.000Z</time>
      </trkpt>
      <trkpt lat="43.5782" lon="3.30984">
        <ele>369.3</ele>
        <time>2023-05-13T13:55:25.000Z</time>
      </trkpt>
      <trkpt lat="43.5781" lon="3.30982">
        <ele>367.2</ele>
        <time>2023-05-13T13:55:27.000Z</time>
      </trkpt>
      <trkpt lat="43.57798" lon="3.30982">
        <ele>362.8</ele>
        <time>2023-05-13T13:55:30.000Z</time>
      </trkpt>
      <trkpt lat="43.57788" lon="3.30981">
        <ele>360</ele>
        <time>2023-05-13T13:55:32.000Z</time>
      </trkpt>
      <trkpt lat="43.57778" lon="3.30978">
        <ele>357.4</ele>
        <time>2023-05-13T13:55:34.000Z</time>
      </trkpt>
      <trkpt lat="43.57769" lon="3.30978">
        <ele>355</ele>
        <time>2023-05-13T13:55:36.000Z</time>
      </trkpt>
      <trkpt lat="43.57756" lon="3.30975">
        <ele>352.7</ele>
        <time>2023-05-13T13:55:39.000Z</time>
      </trkpt>
      <trkpt lat="43.57745" lon="3.30966">
        <ele>350.4</ele>
        <time>2023-05-13T13:55:42.000Z</time>
      </trkpt>
      <trkpt lat="43.57736" lon="3.30962">
        <ele>348.8</ele>
        <time>2023-05-13T13:55:45.000Z</time>
      </trkpt>
      <trkpt lat="43.57723" lon="3.30957">
        <ele>347.5</ele>
        <time>2023-05-13T13:55:48.000Z</time>
      </trkpt>
      <trkpt lat="43.57712" lon="3.30951">
        <ele>346.3</ele>
        <time>2023-05-13T13:55:51.000Z</time>
      </trkpt>
      <trkpt lat="43.57703" lon="3.30949">
        <ele>345.8</ele>
        <time>2023-05-13T13:55:54.000Z</time>
      </trkpt>
      <trkpt lat="43.57692" lon="3.30953">
        <ele>345.1</ele>
        <time>2023-05-13T13:55:57.000Z</time>
      </trkpt>
      <trkpt lat="43.57682" lon="3.3095">
        <ele>344.3</ele>
        <time>2023-05-13T13:56:00.000Z</time>
      </trkpt>
      <trkpt lat="43.57673" lon="3.30944">
        <ele>343.7</ele>
        <time>2023-05-13T13:56:03.000Z</time>
      </trkpt>
      <trkpt lat="43.57663" lon="3.30943">
        <ele>343.1</ele>
        <time>2023-05-13T13:56:06.000Z</time>
      </trkpt>
      <trkpt lat="43.57653" lon="3.30941">
        <ele>342.6</ele>
        <time>2023-05-13T13:56:09.000Z</time>
      </trkpt>
      <trkpt lat="43.57642" lon="3.30938">
        <ele>342</ele>
        <time>2023-05-13T13:56:12.000Z</time>
      </trkpt>
      <trkpt lat="43.57632" lon="3.30933">
        <ele>341.3</ele>
        <time>2023-05-13T13:56:15.000Z</time>
      </trkpt>
      <trkpt lat="43.57622" lon="3.30931">
        <ele>340.7</ele>
        <time>2023-05-13T13:56:18.000Z</time>
      </trkpt>
      <trkpt lat="43.57614" lon="3.30923">
        <ele>340</ele>
        <time>2023-05-13T13:56:21.000Z</time>
      </trkpt>
      <trkpt lat="43.57603" lon="3.30916">
        <ele>339.5</ele>
        <time>2023-05-13T13:56:24.000Z</time>
      </trkpt>
      <trkpt lat="43.57594" lon="3.3091">
        <ele>338.5</ele>
        <time>2023-05-13T13:56:27.000Z</time>
      </trkpt>
      <trkpt lat="43.57584" lon="3.30905">
        <ele>337.2</ele>
        <time>2023-05-13T13:56:30.000Z</time>
      </trkpt>
      <trkpt lat="43.57576" lon="3.30897">
        <ele>335.7</ele>
        <time>2023-05-13T13:56:33.000Z</time>
      </trkpt>
      <trkpt lat="43.57566" lon="3.30887">
        <ele>333.9</ele>
        <time>2023-05-13T13:56:36.000Z</time>
      </trkpt>
      <trkpt lat="43.57558" lon="3.3088">
        <ele>333</ele>
        <time>2023-05-13T13:56:38.000Z</time>
      </trkpt>
      <trkpt lat="43.57548" lon="3.30871">
        <ele>332.2</ele>
        <time>2023-05-13T13:56:41.000Z</time>
      </trkpt>
      <trkpt lat="43.57539" lon="3.30867">
        <ele>331.8</ele>
        <time>2023-05-13T13:56:44.000Z</time>
      </trkpt>
      <trkpt lat="43.5753" lon="3.30865">
        <ele>331.8</ele>
        <time>2023-05-13T13:56:47.000Z</time>
      </trkpt>
      <trkpt lat="43.57518" lon="3.30865">
        <ele>331.9</ele>
        <time>2023-05-13T13:56:51.000Z</time>
      </trkpt>
      <trkpt lat="43.57509" lon="3.30865">
        <ele>332.1</ele>
        <time>2023-05-13T13:56:54.000Z</time>
      </trkpt>
      <trkpt lat="43.57498" lon="3.30861">
        <ele>332.7</ele>
        <time>2023-05-13T13:56:58.000Z</time>
      </trkpt>
      <trkpt lat="43.57489" lon="3.30854">
        <ele>333.3</ele>
        <time>2023-05-13T13:57:02.000Z</time>
      </trkpt>
      <trkpt lat="43.57482" lon="3.30846">
        <ele>333.8</ele>
        <time>2023-05-13T13:57:05.000Z</time>
      </trkpt>
      <trkpt lat="43.57473" lon="3.30836">
        <ele>334.1</ele>
        <time>2023-05-13T13:57:08.000Z</time>
      </trkpt>
      <trkpt lat="43.57463" lon="3.30826">
        <ele>334.1</ele>
        <time>2023-05-13T13:57:11.000Z</time>
      </trkpt>
      <trkpt lat="43.57455" lon="3.30819">
        <ele>334.1</ele>
        <time>2023-05-13T13:57:13.000Z</time>
      </trkpt>
      <trkpt lat="43.57444" lon="3.30811">
        <ele>334</ele>
        <time>2023-05-13T13:57:16.000Z</time>
      </trkpt>
      <trkpt lat="43.57443" lon="3.30808">
        <ele>333.9</ele>
        <time>2023-05-13T13:57:19.000Z</time>
      </trkpt>
      <trkpt lat="43.57442" lon="3.30808">
        <ele>333.6</ele>
        <time>2023-05-13T13:57:28.000Z</time>
      </trkpt>
      <trkpt lat="43.57442" lon="3.30808">
        <ele>333.6</ele>
        <time>2023-05-13T13:57:30.000Z</time>
      </trkpt>
      <trkpt lat="43.57442" lon="3.30808">
        <ele>333.5</ele>
        <time>2023-05-13T13:57:31.000Z</time>
      </trkpt>
      <trkpt lat="43.57442" lon="3.30808">
        <ele>333.5</ele>
        <time>2023-05-13T13:57:32.000Z</time>
      </trkpt>
      <trkpt lat="43.57442" lon="3.30808">
        <ele>333.4</ele>
        <time>2023-05-13T13:57:37.000Z</time>
      </trkpt>
      <trkpt lat="43.57435" lon="3.30816">
        <ele>333.3</ele>
        <time>2023-05-13T13:57:43.000Z</time>
      </trkpt>
      <trkpt lat="43.57426" lon="3.30822">
        <ele>332.9</ele>
        <time>2023-05-13T13:57:46.000Z</time>
      </trkpt>
      <trkpt lat="43.5742" lon="3.30827">
        <ele>332</ele>
        <time>2023-05-13T13:57:51.000Z</time>
      </trkpt>
      <trkpt lat="43.5742" lon="3.30827">
        <ele>329.9</ele>
        <time>2023-05-13T13:58:13.000Z</time>
      </trkpt>
      <trkpt lat="43.57423" lon="3.30826">
        <ele>329.9</ele>
        <time>2023-05-13T13:58:21.000Z</time>
      </trkpt>
      <trkpt lat="43.57423" lon="3.30826">
        <ele>329.9</ele>
        <time>2023-05-13T13:58:28.000Z</time>
      </trkpt>
      <trkpt lat="43.57433" lon="3.30819">
        <ele>330.1</ele>
        <time>2023-05-13T13:58:34.000Z</time>
      </trkpt>
      <trkpt lat="43.57443" lon="3.30814">
        <ele>330.3</ele>
        <time>2023-05-13T13:58:38.000Z</time>
      </trkpt>
      <trkpt lat="43.57442" lon="3.308">
        <ele>331.2</ele>
        <time>2023-05-13T13:58:43.000Z</time>
      </trkpt>
      <trkpt lat="43.57437" lon="3.30788">
        <ele>333.1</ele>
        <time>2023-05-13T13:58:49.000Z</time>
      </trkpt>
      <trkpt lat="43.57426" lon="3.30786">
        <ele>335.3</ele>
        <time>2023-05-13T13:58:54.000Z</time>
      </trkpt>
      <trkpt lat="43.57417" lon="3.30781">
        <ele>337.3</ele>
        <time>2023-05-13T13:58:59.000Z</time>
      </trkpt>
      <trkpt lat="43.5741" lon="3.30772">
        <ele>339.2</ele>
        <time>2023-05-13T13:59:05.000Z</time>
      </trkpt>
      <trkpt lat="43.57413" lon="3.30759">
        <ele>339.8</ele>
        <time>2023-05-13T13:59:11.000Z</time>
      </trkpt>
      <trkpt lat="43.57414" lon="3.30745">
        <ele>339.5</ele>
        <time>2023-05-13T13:59:17.000Z</time>
      </trkpt>
      <trkpt lat="43.57416" lon="3.30731">
        <ele>339.2</ele>
        <time>2023-05-13T13:59:22.000Z</time>
      </trkpt>
      <trkpt lat="43.57416" lon="3.30718">
        <ele>338.8</ele>
        <time>2023-05-13T13:59:26.000Z</time>
      </trkpt>
      <trkpt lat="43.5742" lon="3.30705">
        <ele>338.2</ele>
        <time>2023-05-13T13:59:32.000Z</time>
      </trkpt>
      <trkpt lat="43.57421" lon="3.30692">
        <ele>337.6</ele>
        <time>2023-05-13T13:59:37.000Z</time>
      </trkpt>
      <trkpt lat="43.57418" lon="3.30679">
        <ele>336.7</ele>
        <time>2023-05-13T13:59:42.000Z</time>
      </trkpt>
      <trkpt lat="43.57414" lon="3.30665">
        <ele>335.5</ele>
        <time>2023-05-13T13:59:47.000Z</time>
      </trkpt>
      <trkpt lat="43.57413" lon="3.30652">
        <ele>333.3</ele>
        <time>2023-05-13T13:59:52.000Z</time>
      </trkpt>
      <trkpt lat="43.5741" lon="3.30638">
        <ele>330.9</ele>
        <time>2023-05-13T13:59:57.000Z</time>
      </trkpt>
      <trkpt lat="43.57402" lon="3.30626">
        <ele>329.3</ele>
        <time>2023-05-13T14:00:00.000Z</time>
      </trkpt>
      <trkpt lat="43.57396" lon="3.30617">
        <ele>327.9</ele>
        <time>2023-05-13T14:00:03.000Z</time>
      </trkpt>
      <trkpt lat="43.5739" lon="3.30606">
        <ele>326.7</ele>
        <time>2023-05-13T14:00:06.000Z</time>
      </trkpt>
      <trkpt lat="43.57383" lon="3.30596">
        <ele>325.3</ele>
        <time>2023-05-13T14:00:10.000Z</time>
      </trkpt>
      <trkpt lat="43.57376" lon="3.30585">
        <ele>324</ele>
        <time>2023-05-13T14:00:16.000Z</time>
      </trkpt>
      <trkpt lat="43.57368" lon="3.30577">
        <ele>323.2</ele>
        <time>2023-05-13T14:00:20.000Z</time>
      </trkpt>
      <trkpt lat="43.57365" lon="3.30564">
        <ele>321.5</ele>
        <time>2023-05-13T14:00:26.000Z</time>
      </trkpt>
      <trkpt lat="43.57364" lon="3.30561">
        <ele>320.3</ele>
        <time>2023-05-13T14:00:31.000Z</time>
      </trkpt>
      <trkpt lat="43.57364" lon="3.30561">
        <ele>320.1</ele>
        <time>2023-05-13T14:00:32.000Z</time>
      </trkpt>
      <trkpt lat="43.57362" lon="3.30548">
        <ele>319.6</ele>
        <time>2023-05-13T14:00:38.000Z</time>
      </trkpt>
      <trkpt lat="43.57357" lon="3.30537">
        <ele>319.8</ele>
        <time>2023-05-13T14:00:42.000Z</time>
      </trkpt>
      <trkpt lat="43.57347" lon="3.30531">
        <ele>320</ele>
        <time>2023-05-13T14:00:47.000Z</time>
      </trkpt>
      <trkpt lat="43.57343" lon="3.30519">
        <ele>320.3</ele>
        <time>2023-05-13T14:00:52.000Z</time>
      </trkpt>
      <trkpt lat="43.57334" lon="3.3051">
        <ele>320.2</ele>
        <time>2023-05-13T14:00:56.000Z</time>
      </trkpt>
      <trkpt lat="43.57327" lon="3.30501">
        <ele>319.9</ele>
        <time>2023-05-13T14:01:01.000Z</time>
      </trkpt>
      <trkpt lat="43.5732" lon="3.3049">
        <ele>319.6</ele>
        <time>2023-05-13T14:01:05.000Z</time>
      </trkpt>
      <trkpt lat="43.57314" lon="3.30478">
        <ele>319.3</ele>
        <time>2023-05-13T14:01:09.000Z</time>
      </trkpt>
      <trkpt lat="43.5731" lon="3.30465">
        <ele>319</ele>
        <time>2023-05-13T14:01:13.000Z</time>
      </trkpt>
      <trkpt lat="43.57309" lon="3.30453">
        <ele>318.8</ele>
        <time>2023-05-13T14:01:20.000Z</time>
      </trkpt>
      <trkpt lat="43.57301" lon="3.30444">
        <ele>318.8</ele>
        <time>2023-05-13T14:01:27.000Z</time>
      </trkpt>
      <trkpt lat="43.57298" lon="3.30431">
        <ele>319</ele>
        <time>2023-05-13T14:01:32.000Z</time>
      </trkpt>
      <trkpt lat="43.57296" lon="3.30427">
        <ele>319.2</ele>
        <time>2023-05-13T14:01:36.000Z</time>
      </trkpt>
      <trkpt lat="43.57296" lon="3.30427">
        <ele>320.2</ele>
        <time>2023-05-13T14:01:50.000Z</time>
      </trkpt>
      <trkpt lat="43.57296" lon="3.30427">
        <ele>320.3</ele>
        <time>2023-05-13T14:01:51.000Z</time>
      </trkpt>
      <trkpt lat="43.57296" lon="3.30427">
        <ele>320.3</ele>
        <time>2023-05-13T14:01:52.000Z</time>
      </trkpt>
      <trkpt lat="43.57296" lon="3.30427">
        <ele>320.4</ele>
        <time>2023-05-13T14:01:54.000Z</time>
      </trkpt>
      <trkpt lat="43.57296" lon="3.30427">
        <ele>320.4</ele>
        <time>2023-05-13T14:01:56.000Z</time>
      </trkpt>
      <trkpt lat="43.57288" lon="3.3042">
        <ele>320.1</ele>
        <time>2023-05-13T14:02:09.000Z</time>
      </trkpt>
      <trkpt lat="43.57288" lon="3.3042">
        <ele>319.8</ele>
        <time>2023-05-13T14:02:11.000Z</time>
      </trkpt>
      <trkpt lat="43.57288" lon="3.30421">
        <ele>318.5</ele>
        <time>2023-05-13T14:02:24.000Z</time>
      </trkpt>
      <trkpt lat="43.57287" lon="3.30424">
        <ele>318.4</ele>
        <time>2023-05-13T14:02:28.000Z</time>
      </trkpt>
      <trkpt lat="43.57287" lon="3.30423">
        <ele>318.3</ele>
        <time>2023-05-13T14:02:30.000Z</time>
      </trkpt>
      <trkpt lat="43.57287" lon="3.30423">
        <ele>318.3</ele>
        <time>2023-05-13T14:02:31.000Z</time>
      </trkpt>
      <trkpt lat="43.57287" lon="3.30423">
        <ele>318.2</ele>
        <time>2023-05-13T14:02:32.000Z</time>
      </trkpt>
      <trkpt lat="43.57287" lon="3.30423">
        <ele>318.2</ele>
        <time>2023-05-13T14:02:33.000Z</time>
      </trkpt>
      <trkpt lat="43.57287" lon="3.30423">
        <ele>318.2</ele>
        <time>2023-05-13T14:02:34.000Z</time>
      </trkpt>
      <trkpt lat="43.57292" lon="3.30421">
        <ele>318.2</ele>
        <time>2023-05-13T14:02:47.000Z</time>
      </trkpt>
      <trkpt lat="43.57292" lon="3.30422">
        <ele>318.4</ele>
        <time>2023-05-13T14:02:53.000Z</time>
      </trkpt>
      <trkpt lat="43.57299" lon="3.3043">
        <ele>320.1</ele>
        <time>2023-05-13T14:03:14.000Z</time>
      </trkpt>
      <trkpt lat="43.57299" lon="3.3043">
        <ele>320.3</ele>
        <time>2023-05-13T14:03:18.000Z</time>
      </trkpt>
      <trkpt lat="43.57299" lon="3.30429">
        <ele>320.4</ele>
        <time>2023-05-13T14:03:25.000Z</time>
      </trkpt>
      <trkpt lat="43.57305" lon="3.30417">
        <ele>319.5</ele>
        <time>2023-05-13T14:03:34.000Z</time>
      </trkpt>
      <trkpt lat="43.57302" lon="3.30404">
        <ele>318.5</ele>
        <time>2023-05-13T14:03:38.000Z</time>
      </trkpt>
      <trkpt lat="43.57295" lon="3.30395">
        <ele>317.6</ele>
        <time>2023-05-13T14:03:42.000Z</time>
      </trkpt>
      <trkpt lat="43.57295" lon="3.30382">
        <ele>316.3</ele>
        <time>2023-05-13T14:03:48.000Z</time>
      </trkpt>
      <trkpt lat="43.57292" lon="3.3037">
        <ele>315.7</ele>
        <time>2023-05-13T14:03:53.000Z</time>
      </trkpt>
      <trkpt lat="43.57291" lon="3.30356">
        <ele>315.1</ele>
        <time>2023-05-13T14:03:58.000Z</time>
      </trkpt>
      <trkpt lat="43.57291" lon="3.30343">
        <ele>314.8</ele>
        <time>2023-05-13T14:04:03.000Z</time>
      </trkpt>
      <trkpt lat="43.5729" lon="3.30331">
        <ele>314.6</ele>
        <time>2023-05-13T14:04:08.000Z</time>
      </trkpt>
      <trkpt lat="43.57289" lon="3.30317">
        <ele>314.5</ele>
        <time>2023-05-13T14:04:14.000Z</time>
      </trkpt>
      <trkpt lat="43.57287" lon="3.30304">
        <ele>314.4</ele>
        <time>2023-05-13T14:04:18.000Z</time>
      </trkpt>
      <trkpt lat="43.57285" lon="3.30292">
        <ele>314.3</ele>
        <time>2023-05-13T14:04:21.000Z</time>
      </trkpt>
      <trkpt lat="43.57283" lon="3.30279">
        <ele>314.1</ele>
        <time>2023-05-13T14:04:24.000Z</time>
      </trkpt>
      <trkpt lat="43.57278" lon="3.30264">
        <ele>313.7</ele>
        <time>2023-05-13T14:04:28.000Z</time>
      </trkpt>
      <trkpt lat="43.5727" lon="3.30254">
        <ele>313.1</ele>
        <time>2023-05-13T14:04:32.000Z</time>
      </trkpt>
      <trkpt lat="43.57268" lon="3.3024">
        <ele>312</ele>
        <time>2023-05-13T14:04:37.000Z</time>
      </trkpt>
      <trkpt lat="43.57265" lon="3.30227">
        <ele>311.4</ele>
        <time>2023-05-13T14:04:40.000Z</time>
      </trkpt>
      <trkpt lat="43.57261" lon="3.30215">
        <ele>310.9</ele>
        <time>2023-05-13T14:04:43.000Z</time>
      </trkpt>
      <trkpt lat="43.57254" lon="3.30204">
        <ele>310.4</ele>
        <time>2023-05-13T14:04:47.000Z</time>
      </trkpt>
      <trkpt lat="43.57248" lon="3.30193">
        <ele>309.9</ele>
        <time>2023-05-13T14:04:52.000Z</time>
      </trkpt>
      <trkpt lat="43.57242" lon="3.30183">
        <ele>309.4</ele>
        <time>2023-05-13T14:04:55.000Z</time>
      </trkpt>
      <trkpt lat="43.57234" lon="3.30175">
        <ele>308.5</ele>
        <time>2023-05-13T14:04:58.000Z</time>
      </trkpt>
      <trkpt lat="43.57224" lon="3.30171">
        <ele>305.1</ele>
        <time>2023-05-13T14:05:05.000Z</time>
      </trkpt>
      <trkpt lat="43.57218" lon="3.30161">
        <ele>301.8</ele>
        <time>2023-05-13T14:05:15.000Z</time>
      </trkpt>
      <trkpt lat="43.57213" lon="3.30149">
        <ele>301</ele>
        <time>2023-05-13T14:05:21.000Z</time>
      </trkpt>
      <trkpt lat="43.57206" lon="3.30138">
        <ele>300</ele>
        <time>2023-05-13T14:05:27.000Z</time>
      </trkpt>
      <trkpt lat="43.57199" lon="3.30128">
        <ele>299.1</ele>
        <time>2023-05-13T14:05:32.000Z</time>
      </trkpt>
      <trkpt lat="43.57194" lon="3.30118">
        <ele>298.6</ele>
        <time>2023-05-13T14:05:36.000Z</time>
      </trkpt>
      <trkpt lat="43.57186" lon="3.3011">
        <ele>298.3</ele>
        <time>2023-05-13T14:05:40.000Z</time>
      </trkpt>
      <trkpt lat="43.57184" lon="3.30104">
        <ele>298.3</ele>
        <time>2023-05-13T14:05:45.000Z</time>
      </trkpt>
      <trkpt lat="43.57184" lon="3.30103">
        <ele>298.3</ele>
        <time>2023-05-13T14:05:46.000Z</time>
      </trkpt>
      <trkpt lat="43.57182" lon="3.3009">
        <ele>298.5</ele>
        <time>2023-05-13T14:05:52.000Z</time>
      </trkpt>
      <trkpt lat="43.57174" lon="3.30081">
        <ele>299</ele>
        <time>2023-05-13T14:05:57.000Z</time>
      </trkpt>
      <trkpt lat="43.57168" lon="3.30071">
        <ele>299.7</ele>
        <time>2023-05-13T14:06:02.000Z</time>
      </trkpt>
      <trkpt lat="43.57164" lon="3.3006">
        <ele>301.2</ele>
        <time>2023-05-13T14:06:08.000Z</time>
      </trkpt>
      <trkpt lat="43.57162" lon="3.30047">
        <ele>302.7</ele>
        <time>2023-05-13T14:06:15.000Z</time>
      </trkpt>
      <trkpt lat="43.57157" lon="3.30037">
        <ele>303.6</ele>
        <time>2023-05-13T14:06:20.000Z</time>
      </trkpt>
      <trkpt lat="43.57155" lon="3.30036">
        <ele>304.2</ele>
        <time>2023-05-13T14:06:23.000Z</time>
      </trkpt>
      <trkpt lat="43.57155" lon="3.30035">
        <ele>304.6</ele>
        <time>2023-05-13T14:06:25.000Z</time>
      </trkpt>
      <trkpt lat="43.57155" lon="3.30034">
        <ele>305</ele>
        <time>2023-05-13T14:06:28.000Z</time>
      </trkpt>
      <trkpt lat="43.57154" lon="3.30034">
        <ele>305.4</ele>
        <time>2023-05-13T14:06:32.000Z</time>
      </trkpt>
      <trkpt lat="43.57145" lon="3.30029">
        <ele>306.2</ele>
        <time>2023-05-13T14:06:38.000Z</time>
      </trkpt>
      <trkpt lat="43.57138" lon="3.30018">
        <ele>307.7</ele>
        <time>2023-05-13T14:06:45.000Z</time>
      </trkpt>
      <trkpt lat="43.57131" lon="3.3001">
        <ele>309.4</ele>
        <time>2023-05-13T14:06:53.000Z</time>
      </trkpt>
      <trkpt lat="43.57129" lon="3.29997">
        <ele>309.4</ele>
        <time>2023-05-13T14:07:02.000Z</time>
      </trkpt>
      <trkpt lat="43.57124" lon="3.29984">
        <ele>308.4</ele>
        <time>2023-05-13T14:07:09.000Z</time>
      </trkpt>
      <trkpt lat="43.57117" lon="3.29972">
        <ele>307</ele>
        <time>2023-05-13T14:07:14.000Z</time>
      </trkpt>
      <trkpt lat="43.57112" lon="3.29962">
        <ele>305</ele>
        <time>2023-05-13T14:07:19.000Z</time>
      </trkpt>
      <trkpt lat="43.57106" lon="3.29951">
        <ele>303</ele>
        <time>2023-05-13T14:07:24.000Z</time>
      </trkpt>
      <trkpt lat="43.571" lon="3.2994">
        <ele>301.5</ele>
        <time>2023-05-13T14:07:28.000Z</time>
      </trkpt>
      <trkpt lat="43.57096" lon="3.29928">
        <ele>300.8</ele>
        <time>2023-05-13T14:07:31.000Z</time>
      </trkpt>
      <trkpt lat="43.57091" lon="3.29918">
        <ele>300</ele>
        <time>2023-05-13T14:07:34.000Z</time>
      </trkpt>
      <trkpt lat="43.57085" lon="3.29906">
        <ele>298.9</ele>
        <time>2023-05-13T14:07:38.000Z</time>
      </trkpt>
      <trkpt lat="43.57078" lon="3.29896">
        <ele>297.2</ele>
        <time>2023-05-13T14:07:43.000Z</time>
      </trkpt>
      <trkpt lat="43.57072" lon="3.29884">
        <ele>295.3</ele>
        <time>2023-05-13T14:07:47.000Z</time>
      </trkpt>
      <trkpt lat="43.57066" lon="3.29871">
        <ele>293.1</ele>
        <time>2023-05-13T14:07:52.000Z</time>
      </trkpt>
      <trkpt lat="43.57061" lon="3.2986">
        <ele>292.1</ele>
        <time>2023-05-13T14:07:55.000Z</time>
      </trkpt>
      <trkpt lat="43.57054" lon="3.29849">
        <ele>290.9</ele>
        <time>2023-05-13T14:07:59.000Z</time>
      </trkpt>
      <trkpt lat="43.57049" lon="3.29838">
        <ele>289.8</ele>
        <time>2023-05-13T14:08:03.000Z</time>
      </trkpt>
      <trkpt lat="43.57043" lon="3.29825">
        <ele>288.4</ele>
        <time>2023-05-13T14:08:08.000Z</time>
      </trkpt>
      <trkpt lat="43.57036" lon="3.29815">
        <ele>287.6</ele>
        <time>2023-05-13T14:08:13.000Z</time>
      </trkpt>
      <trkpt lat="43.57027" lon="3.29811">
        <ele>287.1</ele>
        <time>2023-05-13T14:08:17.000Z</time>
      </trkpt>
      <trkpt lat="43.57018" lon="3.29811">
        <ele>286.3</ele>
        <time>2023-05-13T14:08:23.000Z</time>
      </trkpt>
      <trkpt lat="43.5701" lon="3.29805">
        <ele>285.5</ele>
        <time>2023-05-13T14:08:28.000Z</time>
      </trkpt>
      <trkpt lat="43.57003" lon="3.29796">
        <ele>284.1</ele>
        <time>2023-05-13T14:08:37.000Z</time>
      </trkpt>
      <trkpt lat="43.56993" lon="3.29794">
        <ele>283.3</ele>
        <time>2023-05-13T14:08:42.000Z</time>
      </trkpt>
      <trkpt lat="43.56983" lon="3.29799">
        <ele>282.4</ele>
        <time>2023-05-13T14:08:47.000Z</time>
      </trkpt>
      <trkpt lat="43.56974" lon="3.29798">
        <ele>281.2</ele>
        <time>2023-05-13T14:08:53.000Z</time>
      </trkpt>
      <trkpt lat="43.56966" lon="3.29803">
        <ele>280.6</ele>
        <time>2023-05-13T14:08:57.000Z</time>
      </trkpt>
      <trkpt lat="43.56956" lon="3.29805">
        <ele>279.6</ele>
        <time>2023-05-13T14:09:03.000Z</time>
      </trkpt>
      <trkpt lat="43.56946" lon="3.29808">
        <ele>278.7</ele>
        <time>2023-05-13T14:09:08.000Z</time>
      </trkpt>
      <trkpt lat="43.56937" lon="3.29804">
        <ele>277.7</ele>
        <time>2023-05-13T14:09:12.000Z</time>
      </trkpt>
      <trkpt lat="43.56925" lon="3.29806">
        <ele>276.6</ele>
        <time>2023-05-13T14:09:16.000Z</time>
      </trkpt>
      <trkpt lat="43.56915" lon="3.29808">
        <ele>275.7</ele>
        <time>2023-05-13T14:09:21.000Z</time>
      </trkpt>
      <trkpt lat="43.56907" lon="3.29802">
        <ele>275.5</ele>
        <time>2023-05-13T14:09:25.000Z</time>
      </trkpt>
      <trkpt lat="43.56896" lon="3.29802">
        <ele>275.5</ele>
        <time>2023-05-13T14:09:30.000Z</time>
      </trkpt>
      <trkpt lat="43.56888" lon="3.29809">
        <ele>275.7</ele>
        <time>2023-05-13T14:09:35.000Z</time>
      </trkpt>
      <trkpt lat="43.5688" lon="3.29813">
        <ele>276</ele>
        <time>2023-05-13T14:09:42.000Z</time>
      </trkpt>
      <trkpt lat="43.5687" lon="3.29811">
        <ele>276.1</ele>
        <time>2023-05-13T14:09:46.000Z</time>
      </trkpt>
      <trkpt lat="43.56861" lon="3.29814">
        <ele>276.2</ele>
        <time>2023-05-13T14:09:54.000Z</time>
      </trkpt>
      <trkpt lat="43.56852" lon="3.29819">
        <ele>276.1</ele>
        <time>2023-05-13T14:10:00.000Z</time>
      </trkpt>
      <trkpt lat="43.56842" lon="3.29818">
        <ele>275.8</ele>
        <time>2023-05-13T14:10:05.000Z</time>
      </trkpt>
      <trkpt lat="43.56832" lon="3.29815">
        <ele>275.3</ele>
        <time>2023-05-13T14:10:09.000Z</time>
      </trkpt>
      <trkpt lat="43.56823" lon="3.29807">
        <ele>274.3</ele>
        <time>2023-05-13T14:10:13.000Z</time>
      </trkpt>
      <trkpt lat="43.56813" lon="3.29804">
        <ele>272.8</ele>
        <time>2023-05-13T14:10:16.000Z</time>
      </trkpt>
      <trkpt lat="43.56802" lon="3.29807">
        <ele>270.1</ele>
        <time>2023-05-13T14:10:20.000Z</time>
      </trkpt>
      <trkpt lat="43.56791" lon="3.29806">
        <ele>266.8</ele>
        <time>2023-05-13T14:10:25.000Z</time>
      </trkpt>
      <trkpt lat="43.56779" lon="3.29807">
        <ele>265.6</ele>
        <time>2023-05-13T14:10:28.000Z</time>
      </trkpt>
      <trkpt lat="43.56767" lon="3.29808">
        <ele>264.3</ele>
        <time>2023-05-13T14:10:31.000Z</time>
      </trkpt>
      <trkpt lat="43.56758" lon="3.29805">
        <ele>262.9</ele>
        <time>2023-05-13T14:10:35.000Z</time>
      </trkpt>
      <trkpt lat="43.56749" lon="3.29802">
        <ele>261.2</ele>
        <time>2023-05-13T14:10:41.000Z</time>
      </trkpt>
      <trkpt lat="43.56738" lon="3.29797">
        <ele>260.2</ele>
        <time>2023-05-13T14:10:45.000Z</time>
      </trkpt>
      <trkpt lat="43.56731" lon="3.29789">
        <ele>258.6</ele>
        <time>2023-05-13T14:10:52.000Z</time>
      </trkpt>
      <trkpt lat="43.56722" lon="3.29782">
        <ele>257.3</ele>
        <time>2023-05-13T14:10:58.000Z</time>
      </trkpt>
      <trkpt lat="43.56714" lon="3.29773">
        <ele>255.3</ele>
        <time>2023-05-13T14:11:03.000Z</time>
      </trkpt>
      <trkpt lat="43.56704" lon="3.29767">
        <ele>252.8</ele>
        <time>2023-05-13T14:11:08.000Z</time>
      </trkpt>
      <trkpt lat="43.56695" lon="3.29762">
        <ele>250</ele>
        <time>2023-05-13T14:11:16.000Z</time>
      </trkpt>
      <trkpt lat="43.56685" lon="3.29758">
        <ele>248.4</ele>
        <time>2023-05-13T14:11:23.000Z</time>
      </trkpt>
      <trkpt lat="43.56674" lon="3.29755">
        <ele>247.3</ele>
        <time>2023-05-13T14:11:27.000Z</time>
      </trkpt>
      <trkpt lat="43.56664" lon="3.29752">
        <ele>246</ele>
        <time>2023-05-13T14:11:31.000Z</time>
      </trkpt>
      <trkpt lat="43.56653" lon="3.29752">
        <ele>244.6</ele>
        <time>2023-05-13T14:11:34.000Z</time>
      </trkpt>
      <trkpt lat="43.56644" lon="3.29749">
        <ele>242.6</ele>
        <time>2023-05-13T14:11:38.000Z</time>
      </trkpt>
      <trkpt lat="43.56634" lon="3.29744">
        <ele>240.8</ele>
        <time>2023-05-13T14:11:42.000Z</time>
      </trkpt>
      <trkpt lat="43.56622" lon="3.29739">
        <ele>238.4</ele>
        <time>2023-05-13T14:11:46.000Z</time>
      </trkpt>
      <trkpt lat="43.56613" lon="3.29737">
        <ele>236.4</ele>
        <time>2023-05-13T14:11:49.000Z</time>
      </trkpt>
      <trkpt lat="43.56603" lon="3.29732">
        <ele>233.3</ele>
        <time>2023-05-13T14:11:54.000Z</time>
      </trkpt>
      <trkpt lat="43.56592" lon="3.29735">
        <ele>231.7</ele>
        <time>2023-05-13T14:11:57.000Z</time>
      </trkpt>
      <trkpt lat="43.56581" lon="3.29737">
        <ele>230.1</ele>
        <time>2023-05-13T14:12:00.000Z</time>
      </trkpt>
      <trkpt lat="43.5657" lon="3.29743">
        <ele>228.7</ele>
        <time>2023-05-13T14:12:03.000Z</time>
      </trkpt>
      <trkpt lat="43.56558" lon="3.29751">
        <ele>226.8</ele>
        <time>2023-05-13T14:12:06.000Z</time>
      </trkpt>
      <trkpt lat="43.56546" lon="3.29757">
        <ele>225</ele>
        <time>2023-05-13T14:12:09.000Z</time>
      </trkpt>
      <trkpt lat="43.56538" lon="3.29762">
        <ele>223.8</ele>
        <time>2023-05-13T14:12:11.000Z</time>
      </trkpt>
      <trkpt lat="43.56531" lon="3.29769">
        <ele>222.4</ele>
        <time>2023-05-13T14:12:13.000Z</time>
      </trkpt>
      <trkpt lat="43.56521" lon="3.29776">
        <ele>220.2</ele>
        <time>2023-05-13T14:12:16.000Z</time>
      </trkpt>
      <trkpt lat="43.5651" lon="3.29779">
        <ele>218.1</ele>
        <time>2023-05-13T14:12:19.000Z</time>
      </trkpt>
      <trkpt lat="43.56501" lon="3.2979">
        <ele>216</ele>
        <time>2023-05-13T14:12:22.000Z</time>
      </trkpt>
      <trkpt lat="43.56494" lon="3.29806">
        <ele>214.1</ele>
        <time>2023-05-13T14:12:25.000Z</time>
      </trkpt>
      <trkpt lat="43.56489" lon="3.29817">
        <ele>211.8</ele>
        <time>2023-05-13T14:12:28.000Z</time>
      </trkpt>
      <trkpt lat="43.56491" lon="3.2983">
        <ele>209.3</ele>
        <time>2023-05-13T14:12:33.000Z</time>
      </trkpt>
      <trkpt lat="43.56491" lon="3.29846">
        <ele>206.8</ele>
        <time>2023-05-13T14:12:39.000Z</time>
      </trkpt>
      <trkpt lat="43.56487" lon="3.29859">
        <ele>205.3</ele>
        <time>2023-05-13T14:12:43.000Z</time>
      </trkpt>
      <trkpt lat="43.56483" lon="3.29871">
        <ele>203.8</ele>
        <time>2023-05-13T14:12:46.000Z</time>
      </trkpt>
      <trkpt lat="43.56478" lon="3.29884">
        <ele>201.9</ele>
        <time>2023-05-13T14:12:50.000Z</time>
      </trkpt>
      <trkpt lat="43.56476" lon="3.29897">
        <ele>200.8</ele>
        <time>2023-05-13T14:12:54.000Z</time>
      </trkpt>
      <trkpt lat="43.56475" lon="3.29911">
        <ele>199.7</ele>
        <time>2023-05-13T14:12:58.000Z</time>
      </trkpt>
      <trkpt lat="43.56465" lon="3.29908">
        <ele>198.4</ele>
        <time>2023-05-13T14:13:08.000Z</time>
      </trkpt>
      <trkpt lat="43.56458" lon="3.299">
        <ele>198.1</ele>
        <time>2023-05-13T14:13:14.000Z</time>
      </trkpt>
      <trkpt lat="43.56448" lon="3.29905">
        <ele>197.6</ele>
        <time>2023-05-13T14:13:24.000Z</time>
      </trkpt>
      <trkpt lat="43.56441" lon="3.29914">
        <ele>197.4</ele>
        <time>2023-05-13T14:13:30.000Z</time>
      </trkpt>
      <trkpt lat="43.5644" lon="3.29915">
        <ele>197.3</ele>
        <time>2023-05-13T14:13:33.000Z</time>
      </trkpt>
      <trkpt lat="43.5644" lon="3.29915">
        <ele>197.3</ele>
        <time>2023-05-13T14:13:34.000Z</time>
      </trkpt>
      <trkpt lat="43.5644" lon="3.29915">
        <ele>197.3</ele>
        <time>2023-05-13T14:13:35.000Z</time>
      </trkpt>
      <trkpt lat="43.5644" lon="3.29915">
        <ele>197.1</ele>
        <time>2023-05-13T14:13:52.000Z</time>
      </trkpt>
      <trkpt lat="43.5644" lon="3.29915">
        <ele>197.1</ele>
        <time>2023-05-13T14:13:53.000Z</time>
      </trkpt>
      <trkpt lat="43.5644" lon="3.29915">
        <ele>196.9</ele>
        <time>2023-05-13T14:14:29.000Z</time>
      </trkpt>
      <trkpt lat="43.5644" lon="3.29915">
        <ele>196.9</ele>
        <time>2023-05-13T14:14:30.000Z</time>
      </trkpt>
      <trkpt lat="43.5644" lon="3.29916">
        <ele>196.9</ele>
        <time>2023-05-13T14:14:40.000Z</time>
      </trkpt>
      <trkpt lat="43.56433" lon="3.2992">
        <ele>196.8</ele>
        <time>2023-05-13T14:14:48.000Z</time>
      </trkpt>
      <trkpt lat="43.56432" lon="3.29921">
        <ele>196.7</ele>
        <time>2023-05-13T14:15:03.000Z</time>
      </trkpt>
      <trkpt lat="43.56425" lon="3.29928">
        <ele>196.6</ele>
        <time>2023-05-13T14:15:09.000Z</time>
      </trkpt>
      <trkpt lat="43.56416" lon="3.29923">
        <ele>196.4</ele>
        <time>2023-05-13T14:15:14.000Z</time>
      </trkpt>
      <trkpt lat="43.56412" lon="3.29916">
        <ele>196</ele>
        <time>2023-05-13T14:15:19.000Z</time>
      </trkpt>
      <trkpt lat="43.56412" lon="3.29917">
        <ele>195.6</ele>
        <time>2023-05-13T14:15:24.000Z</time>
      </trkpt>
      <trkpt lat="43.56412" lon="3.29917">
        <ele>195.5</ele>
        <time>2023-05-13T14:15:25.000Z</time>
      </trkpt>
      <trkpt lat="43.56412" lon="3.29917">
        <ele>194.4</ele>
        <time>2023-05-13T14:16:03.000Z</time>
      </trkpt>
      <trkpt lat="43.5642" lon="3.29925">
        <ele>194.3</ele>
        <time>2023-05-13T14:16:11.000Z</time>
      </trkpt>
      <trkpt lat="43.56428" lon="3.29923">
        <ele>194.5</ele>
        <time>2023-05-13T14:16:19.000Z</time>
      </trkpt>
      <trkpt lat="43.56437" lon="3.29917">
        <ele>194.8</ele>
        <time>2023-05-13T14:16:24.000Z</time>
      </trkpt>
      <trkpt lat="43.56446" lon="3.29911">
        <ele>195.1</ele>
        <time>2023-05-13T14:16:30.000Z</time>
      </trkpt>
      <trkpt lat="43.56453" lon="3.29902">
        <ele>195.4</ele>
        <time>2023-05-13T14:16:36.000Z</time>
      </trkpt>
      <trkpt lat="43.56462" lon="3.29903">
        <ele>195.8</ele>
        <time>2023-05-13T14:16:44.000Z</time>
      </trkpt>
      <trkpt lat="43.56471" lon="3.2991">
        <ele>196.1</ele>
        <time>2023-05-13T14:16:51.000Z</time>
      </trkpt>
      <trkpt lat="43.56476" lon="3.29919">
        <ele>196.1</ele>
        <time>2023-05-13T14:16:59.000Z</time>
      </trkpt>
      <trkpt lat="43.56476" lon="3.29919">
        <ele>196.1</ele>
        <time>2023-05-13T14:17:01.000Z</time>
      </trkpt>
      <trkpt lat="43.56477" lon="3.29919">
        <ele>196.1</ele>
        <time>2023-05-13T14:17:03.000Z</time>
      </trkpt>
      <trkpt lat="43.56477" lon="3.29919">
        <ele>196.1</ele>
        <time>2023-05-13T14:17:06.000Z</time>
      </trkpt>
      <trkpt lat="43.56477" lon="3.29919">
        <ele>196.1</ele>
        <time>2023-05-13T14:17:07.000Z</time>
      </trkpt>
      <trkpt lat="43.56477" lon="3.2992">
        <ele>196.1</ele>
        <time>2023-05-13T14:17:11.000Z</time>
      </trkpt>
      <trkpt lat="43.56477" lon="3.2992">
        <ele>196.1</ele>
        <time>2023-05-13T14:17:12.000Z</time>
      </trkpt>
      <trkpt lat="43.56477" lon="3.2992">
        <ele>196.1</ele>
        <time>2023-05-13T14:17:16.000Z</time>
      </trkpt>
      <trkpt lat="43.56479" lon="3.29933">
        <ele>195.9</ele>
        <time>2023-05-13T14:17:21.000Z</time>
      </trkpt>
      <trkpt lat="43.56479" lon="3.29947">
        <ele>195.4</ele>
        <time>2023-05-13T14:17:26.000Z</time>
      </trkpt>
      <trkpt lat="43.56484" lon="3.29958">
        <ele>194.7</ele>
        <time>2023-05-13T14:17:30.000Z</time>
      </trkpt>
      <trkpt lat="43.56491" lon="3.29966">
        <ele>192.9</ele>
        <time>2023-05-13T14:17:36.000Z</time>
      </trkpt>
      <trkpt lat="43.56494" lon="3.2997">
        <ele>190.9</ele>
        <time>2023-05-13T14:17:42.000Z</time>
      </trkpt>
      <trkpt lat="43.56494" lon="3.2997">
        <ele>190.5</ele>
        <time>2023-05-13T14:17:44.000Z</time>
      </trkpt>
      <trkpt lat="43.56494" lon="3.2997">
        <ele>190.3</ele>
        <time>2023-05-13T14:17:45.000Z</time>
      </trkpt>
      <trkpt lat="43.56494" lon="3.2997">
        <ele>189.5</ele>
        <time>2023-05-13T14:17:56.000Z</time>
      </trkpt>
      <trkpt lat="43.56494" lon="3.2997">
        <ele>189.5</ele>
        <time>2023-05-13T14:17:57.000Z</time>
      </trkpt>
      <trkpt lat="43.56494" lon="3.2997">
        <ele>189.4</ele>
        <time>2023-05-13T14:18:01.000Z</time>
      </trkpt>
      <trkpt lat="43.56494" lon="3.2997">
        <ele>189.4</ele>
        <time>2023-05-13T14:18:02.000Z</time>
      </trkpt>
      <trkpt lat="43.56494" lon="3.29971">
        <ele>189.3</ele>
        <time>2023-05-13T14:18:04.000Z</time>
      </trkpt>
      <trkpt lat="43.56494" lon="3.29971">
        <ele>189.3</ele>
        <time>2023-05-13T14:18:05.000Z</time>
      </trkpt>
      <trkpt lat="43.56494" lon="3.29971">
        <ele>189.3</ele>
        <time>2023-05-13T14:18:06.000Z</time>
      </trkpt>
      <trkpt lat="43.56494" lon="3.29971">
        <ele>189.1</ele>
        <time>2023-05-13T14:18:09.000Z</time>
      </trkpt>
      <trkpt lat="43.56495" lon="3.29972">
        <ele>188.8</ele>
        <time>2023-05-13T14:18:22.000Z</time>
      </trkpt>
      <trkpt lat="43.56495" lon="3.29972">
        <ele>188.8</ele>
        <time>2023-05-13T14:18:24.000Z</time>
      </trkpt>
      <trkpt lat="43.56495" lon="3.29972">
        <ele>188.5</ele>
        <time>2023-05-13T14:18:31.000Z</time>
      </trkpt>
      <trkpt lat="43.56495" lon="3.29973">
        <ele>188.5</ele>
        <time>2023-05-13T14:18:33.000Z</time>
      </trkpt>
      <trkpt lat="43.56496" lon="3.29973">
        <ele>188.4</ele>
        <time>2023-05-13T14:18:35.000Z</time>
      </trkpt>
      <trkpt lat="43.56496" lon="3.29973">
        <ele>188.3</ele>
        <time>2023-05-13T14:18:37.000Z</time>
      </trkpt>
      <trkpt lat="43.56496" lon="3.29974">
        <ele>187.9</ele>
        <time>2023-05-13T14:18:43.000Z</time>
      </trkpt>
      <trkpt lat="43.56496" lon="3.29975">
        <ele>187.6</ele>
        <time>2023-05-13T14:18:48.000Z</time>
      </trkpt>
      <trkpt lat="43.56496" lon="3.29976">
        <ele>187.3</ele>
        <time>2023-05-13T14:18:55.000Z</time>
      </trkpt>
      <trkpt lat="43.56495" lon="3.29979">
        <ele>187.2</ele>
        <time>2023-05-13T14:18:58.000Z</time>
      </trkpt>
      <trkpt lat="43.56495" lon="3.29979">
        <ele>187.2</ele>
        <time>2023-05-13T14:19:00.000Z</time>
      </trkpt>
      <trkpt lat="43.56495" lon="3.29979">
        <ele>187.2</ele>
        <time>2023-05-13T14:19:01.000Z</time>
      </trkpt>
      <trkpt lat="43.56495" lon="3.2998">
        <ele>187</ele>
        <time>2023-05-13T14:19:40.000Z</time>
      </trkpt>
      <trkpt lat="43.56495" lon="3.2998">
        <ele>187</ele>
        <time>2023-05-13T14:19:41.000Z</time>
      </trkpt>
      <trkpt lat="43.56495" lon="3.2998">
        <ele>187</ele>
        <time>2023-05-13T14:19:45.000Z</time>
      </trkpt>
      <trkpt lat="43.56495" lon="3.2998">
        <ele>187</ele>
        <time>2023-05-13T14:19:46.000Z</time>
      </trkpt>
      <trkpt lat="43.56495" lon="3.2998">
        <ele>187</ele>
        <time>2023-05-13T14:19:49.000Z</time>
      </trkpt>
      <trkpt lat="43.56502" lon="3.2999">
        <ele>187</ele>
        <time>2023-05-13T14:19:56.000Z</time>
      </trkpt>
      <trkpt lat="43.56512" lon="3.29994">
        <ele>187</ele>
        <time>2023-05-13T14:20:00.000Z</time>
      </trkpt>
      <trkpt lat="43.56522" lon="3.30001">
        <ele>186.9</ele>
        <time>2023-05-13T14:20:04.000Z</time>
      </trkpt>
      <trkpt lat="43.5653" lon="3.30007">
        <ele>186.9</ele>
        <time>2023-05-13T14:20:07.000Z</time>
      </trkpt>
      <trkpt lat="43.56539" lon="3.30014">
        <ele>186.9</ele>
        <time>2023-05-13T14:20:10.000Z</time>
      </trkpt>
      <trkpt lat="43.56548" lon="3.30021">
        <ele>186.8</ele>
        <time>2023-05-13T14:20:13.000Z</time>
      </trkpt>
      <trkpt lat="43.56557" lon="3.30029">
        <ele>186.8</ele>
        <time>2023-05-13T14:20:16.000Z</time>
      </trkpt>
      <trkpt lat="43.56566" lon="3.30037">
        <ele>186.7</ele>
        <time>2023-05-13T14:20:19.000Z</time>
      </trkpt>
      <trkpt lat="43.56576" lon="3.30045">
        <ele>186.6</ele>
        <time>2023-05-13T14:20:22.000Z</time>
      </trkpt>
      <trkpt lat="43.56586" lon="3.30055">
        <ele>186.5</ele>
        <time>2023-05-13T14:20:25.000Z</time>
      </trkpt>
      <trkpt lat="43.56597" lon="3.30064">
        <ele>186.4</ele>
        <time>2023-05-13T14:20:28.000Z</time>
      </trkpt>
      <trkpt lat="43.56608" lon="3.30074">
        <ele>186.2</ele>
        <time>2023-05-13T14:20:31.000Z</time>
      </trkpt>
      <trkpt lat="43.56619" lon="3.30083">
        <ele>186.1</ele>
        <time>2023-05-13T14:20:34.000Z</time>
      </trkpt>
      <trkpt lat="43.56629" lon="3.30095">
        <ele>185.9</ele>
        <time>2023-05-13T14:20:37.000Z</time>
      </trkpt>
      <trkpt lat="43.56637" lon="3.30108">
        <ele>185.7</ele>
        <time>2023-05-13T14:20:40.000Z</time>
      </trkpt>
      <trkpt lat="43.56641" lon="3.30125">
        <ele>185.5</ele>
        <time>2023-05-13T14:20:43.000Z</time>
      </trkpt>
      <trkpt lat="43.5664" lon="3.30142">
        <ele>185.2</ele>
        <time>2023-05-13T14:20:46.000Z</time>
      </trkpt>
      <trkpt lat="43.56635" lon="3.30157">
        <ele>185</ele>
        <time>2023-05-13T14:20:49.000Z</time>
      </trkpt>
      <trkpt lat="43.56628" lon="3.30167">
        <ele>184.7</ele>
        <time>2023-05-13T14:20:52.000Z</time>
      </trkpt>
      <trkpt lat="43.5662" lon="3.30173">
        <ele>184.5</ele>
        <time>2023-05-13T14:20:55.000Z</time>
      </trkpt>
      <trkpt lat="43.5661" lon="3.30176">
        <ele>184.3</ele>
        <time>2023-05-13T14:20:58.000Z</time>
      </trkpt>
      <trkpt lat="43.566" lon="3.30176">
        <ele>184.2</ele>
        <time>2023-05-13T14:21:01.000Z</time>
      </trkpt>
      <trkpt lat="43.5659" lon="3.30171">
        <ele>184.1</ele>
        <time>2023-05-13T14:21:04.000Z</time>
      </trkpt>
      <trkpt lat="43.5658" lon="3.30166">
        <ele>184.1</ele>
        <time>2023-05-13T14:21:07.000Z</time>
      </trkpt>
      <trkpt lat="43.5657" lon="3.30159">
        <ele>184.1</ele>
        <time>2023-05-13T14:21:10.000Z</time>
      </trkpt>
      <trkpt lat="43.5656" lon="3.30154">
        <ele>184</ele>
        <time>2023-05-13T14:21:13.000Z</time>
      </trkpt>
      <trkpt lat="43.5655" lon="3.30149">
        <ele>184.1</ele>
        <time>2023-05-13T14:21:16.000Z</time>
      </trkpt>
      <trkpt lat="43.5654" lon="3.30146">
        <ele>184.2</ele>
        <time>2023-05-13T14:21:19.000Z</time>
      </trkpt>
      <trkpt lat="43.56531" lon="3.30144">
        <ele>184.3</ele>
        <time>2023-05-13T14:21:22.000Z</time>
      </trkpt>
      <trkpt lat="43.56521" lon="3.30144">
        <ele>184.4</ele>
        <time>2023-05-13T14:21:25.000Z</time>
      </trkpt>
      <trkpt lat="43.56511" lon="3.30145">
        <ele>184.5</ele>
        <time>2023-05-13T14:21:28.000Z</time>
      </trkpt>
      <trkpt lat="43.56501" lon="3.30146">
        <ele>184.6</ele>
        <time>2023-05-13T14:21:31.000Z</time>
      </trkpt>
      <trkpt lat="43.56491" lon="3.30148">
        <ele>184.7</ele>
        <time>2023-05-13T14:21:34.000Z</time>
      </trkpt>
      <trkpt lat="43.5648" lon="3.30149">
        <ele>184.9</ele>
        <time>2023-05-13T14:21:37.000Z</time>
      </trkpt>
      <trkpt lat="43.5647" lon="3.3015">
        <ele>185.1</ele>
        <time>2023-05-13T14:21:40.000Z</time>
      </trkpt>
      <trkpt lat="43.56459" lon="3.30152">
        <ele>185.3</ele>
        <time>2023-05-13T14:21:43.000Z</time>
      </trkpt>
      <trkpt lat="43.56448" lon="3.30153">
        <ele>185.3</ele>
        <time>2023-05-13T14:21:46.000Z</time>
      </trkpt>
      <trkpt lat="43.56438" lon="3.30154">
        <ele>185.4</ele>
        <time>2023-05-13T14:21:49.000Z</time>
      </trkpt>
      <trkpt lat="43.56427" lon="3.30155">
        <ele>185.5</ele>
        <time>2023-05-13T14:21:52.000Z</time>
      </trkpt>
      <trkpt lat="43.56419" lon="3.3016">
        <ele>185.6</ele>
        <time>2023-05-13T14:21:55.000Z</time>
      </trkpt>
      <trkpt lat="43.5641" lon="3.30166">
        <ele>185.8</ele>
        <time>2023-05-13T14:22:01.000Z</time>
      </trkpt>
      <trkpt lat="43.5641" lon="3.30166">
        <ele>185.8</ele>
        <time>2023-05-13T14:22:02.000Z</time>
      </trkpt>
      <trkpt lat="43.56411" lon="3.30166">
        <ele>185.9</ele>
        <time>2023-05-13T14:22:11.000Z</time>
      </trkpt>
      <trkpt lat="43.56411" lon="3.30166">
        <ele>185.9</ele>
        <time>2023-05-13T14:22:12.000Z</time>
      </trkpt>
      <trkpt lat="43.56411" lon="3.30167">
        <ele>186</ele>
        <time>2023-05-13T14:22:23.000Z</time>
      </trkpt>
      <trkpt lat="43.56414" lon="3.30182">
        <ele>186</ele>
        <time>2023-05-13T14:22:29.000Z</time>
      </trkpt>
      <trkpt lat="43.56419" lon="3.30195">
        <ele>186.1</ele>
        <time>2023-05-13T14:22:33.000Z</time>
      </trkpt>
      <trkpt lat="43.56423" lon="3.30209">
        <ele>186.1</ele>
        <time>2023-05-13T14:22:37.000Z</time>
      </trkpt>
      <trkpt lat="43.56429" lon="3.30223">
        <ele>186.1</ele>
        <time>2023-05-13T14:22:41.000Z</time>
      </trkpt>
      <trkpt lat="43.56435" lon="3.30238">
        <ele>186.1</ele>
        <time>2023-05-13T14:22:44.000Z</time>
      </trkpt>
      <trkpt lat="43.56439" lon="3.30249">
        <ele>186.1</ele>
        <time>2023-05-13T14:22:46.000Z</time>
      </trkpt>
      <trkpt lat="43.56444" lon="3.30261">
        <ele>186</ele>
        <time>2023-05-13T14:22:48.000Z</time>
      </trkpt>
      <trkpt lat="43.56448" lon="3.30272">
        <ele>186</ele>
        <time>2023-05-13T14:22:50.000Z</time>
      </trkpt>
      <trkpt lat="43.56453" lon="3.30283">
        <ele>186</ele>
        <time>2023-05-13T14:22:52.000Z</time>
      </trkpt>
      <trkpt lat="43.56458" lon="3.30295">
        <ele>186</ele>
        <time>2023-05-13T14:22:54.000Z</time>
      </trkpt>
      <trkpt lat="43.56463" lon="3.30307">
        <ele>186</ele>
        <time>2023-05-13T14:22:56.000Z</time>
      </trkpt>
      <trkpt lat="43.56467" lon="3.3032">
        <ele>186</ele>
        <time>2023-05-13T14:22:58.000Z</time>
      </trkpt>
      <trkpt lat="43.56472" lon="3.30334">
        <ele>186</ele>
        <time>2023-05-13T14:23:00.000Z</time>
      </trkpt>
      <trkpt lat="43.56477" lon="3.30347">
        <ele>186</ele>
        <time>2023-05-13T14:23:02.000Z</time>
      </trkpt>
      <trkpt lat="43.56482" lon="3.30361">
        <ele>185.9</ele>
        <time>2023-05-13T14:23:04.000Z</time>
      </trkpt>
      <trkpt lat="43.56486" lon="3.30375">
        <ele>185.9</ele>
        <time>2023-05-13T14:23:06.000Z</time>
      </trkpt>
      <trkpt lat="43.5649" lon="3.30387">
        <ele>185.9</ele>
        <time>2023-05-13T14:23:08.000Z</time>
      </trkpt>
      <trkpt lat="43.56492" lon="3.304">
        <ele>185.8</ele>
        <time>2023-05-13T14:23:10.000Z</time>
      </trkpt>
      <trkpt lat="43.56494" lon="3.30413">
        <ele>185.7</ele>
        <time>2023-05-13T14:23:12.000Z</time>
      </trkpt>
      <trkpt lat="43.56496" lon="3.30425">
        <ele>185.6</ele>
        <time>2023-05-13T14:23:14.000Z</time>
      </trkpt>
      <trkpt lat="43.56498" lon="3.30438">
        <ele>185.6</ele>
        <time>2023-05-13T14:23:16.000Z</time>
      </trkpt>
      <trkpt lat="43.56499" lon="3.30452">
        <ele>185.5</ele>
        <time>2023-05-13T14:23:18.000Z</time>
      </trkpt>
      <trkpt lat="43.565" lon="3.30466">
        <ele>185.4</ele>
        <time>2023-05-13T14:23:20.000Z</time>
      </trkpt>
      <trkpt lat="43.56502" lon="3.3048">
        <ele>185.3</ele>
        <time>2023-05-13T14:23:22.000Z</time>
      </trkpt>
      <trkpt lat="43.56503" lon="3.30495">
        <ele>185.1</ele>
        <time>2023-05-13T14:23:24.000Z</time>
      </trkpt>
      <trkpt lat="43.56505" lon="3.3051">
        <ele>185</ele>
        <time>2023-05-13T14:23:26.000Z</time>
      </trkpt>
      <trkpt lat="43.56506" lon="3.30525">
        <ele>184.9</ele>
        <time>2023-05-13T14:23:28.000Z</time>
      </trkpt>
      <trkpt lat="43.56508" lon="3.3054">
        <ele>184.8</ele>
        <time>2023-05-13T14:23:30.000Z</time>
      </trkpt>
      <trkpt lat="43.56509" lon="3.30554">
        <ele>184.7</ele>
        <time>2023-05-13T14:23:32.000Z</time>
      </trkpt>
      <trkpt lat="43.56511" lon="3.30569">
        <ele>184.6</ele>
        <time>2023-05-13T14:23:34.000Z</time>
      </trkpt>
      <trkpt lat="43.56512" lon="3.30584">
        <ele>184.4</ele>
        <time>2023-05-13T14:23:36.000Z</time>
      </trkpt>
      <trkpt lat="43.56514" lon="3.30599">
        <ele>184.3</ele>
        <time>2023-05-13T14:23:38.000Z</time>
      </trkpt>
      <trkpt lat="43.56514" lon="3.30614">
        <ele>184.1</ele>
        <time>2023-05-13T14:23:40.000Z</time>
      </trkpt>
      <trkpt lat="43.56512" lon="3.30628">
        <ele>183.9</ele>
        <time>2023-05-13T14:23:42.000Z</time>
      </trkpt>
      <trkpt lat="43.56508" lon="3.30642">
        <ele>183.7</ele>
        <time>2023-05-13T14:23:44.000Z</time>
      </trkpt>
      <trkpt lat="43.565" lon="3.30652">
        <ele>183.6</ele>
        <time>2023-05-13T14:23:46.000Z</time>
      </trkpt>
      <trkpt lat="43.56491" lon="3.30658">
        <ele>183.4</ele>
        <time>2023-05-13T14:23:48.000Z</time>
      </trkpt>
      <trkpt lat="43.56481" lon="3.3066">
        <ele>183.3</ele>
        <time>2023-05-13T14:23:50.000Z</time>
      </trkpt>
      <trkpt lat="43.56469" lon="3.30656">
        <ele>183.3</ele>
        <time>2023-05-13T14:23:53.000Z</time>
      </trkpt>
      <trkpt lat="43.56459" lon="3.30648">
        <ele>183.3</ele>
        <time>2023-05-13T14:23:56.000Z</time>
      </trkpt>
      <trkpt lat="43.5645" lon="3.30636">
        <ele>183.4</ele>
        <time>2023-05-13T14:23:59.000Z</time>
      </trkpt>
      <trkpt lat="43.56443" lon="3.30623">
        <ele>183.5</ele>
        <time>2023-05-13T14:24:02.000Z</time>
      </trkpt>
      <trkpt lat="43.56435" lon="3.30609">
        <ele>183.5</ele>
        <time>2023-05-13T14:24:05.000Z</time>
      </trkpt>
      <trkpt lat="43.56427" lon="3.30594">
        <ele>183.6</ele>
        <time>2023-05-13T14:24:08.000Z</time>
      </trkpt>
      <trkpt lat="43.56419" lon="3.30579">
        <ele>183.7</ele>
        <time>2023-05-13T14:24:11.000Z</time>
      </trkpt>
      <trkpt lat="43.56411" lon="3.30564">
        <ele>183.8</ele>
        <time>2023-05-13T14:24:14.000Z</time>
      </trkpt>
      <trkpt lat="43.56405" lon="3.30548">
        <ele>183.9</ele>
        <time>2023-05-13T14:24:17.000Z</time>
      </trkpt>
      <trkpt lat="43.56402" lon="3.30532">
        <ele>184.1</ele>
        <time>2023-05-13T14:24:20.000Z</time>
      </trkpt>
      <trkpt lat="43.56401" lon="3.30514">
        <ele>184.2</ele>
        <time>2023-05-13T14:24:23.000Z</time>
      </trkpt>
      <trkpt lat="43.56401" lon="3.30496">
        <ele>184.5</ele>
        <time>2023-05-13T14:24:26.000Z</time>
      </trkpt>
      <trkpt lat="43.56398" lon="3.30478">
        <ele>184.8</ele>
        <time>2023-05-13T14:24:29.000Z</time>
      </trkpt>
      <trkpt lat="43.56393" lon="3.30462">
        <ele>185.1</ele>
        <time>2023-05-13T14:24:32.000Z</time>
      </trkpt>
      <trkpt lat="43.56386" lon="3.30446">
        <ele>185.4</ele>
        <time>2023-05-13T14:24:35.000Z</time>
      </trkpt>
      <trkpt lat="43.5638" lon="3.3043">
        <ele>185.6</ele>
        <time>2023-05-13T14:24:38.000Z</time>
      </trkpt>
      <trkpt lat="43.56374" lon="3.30415">
        <ele>185.8</ele>
        <time>2023-05-13T14:24:41.000Z</time>
      </trkpt>
      <trkpt lat="43.56368" lon="3.30399">
        <ele>185.9</ele>
        <time>2023-05-13T14:24:44.000Z</time>
      </trkpt>
      <trkpt lat="43.56362" lon="3.30383">
        <ele>186</ele>
        <time>2023-05-13T14:24:47.000Z</time>
      </trkpt>
      <trkpt lat="43.56355" lon="3.30368">
        <ele>186</ele>
        <time>2023-05-13T14:24:50.000Z</time>
      </trkpt>
      <trkpt lat="43.56349" lon="3.30357">
        <ele>186</ele>
        <time>2023-05-13T14:24:52.000Z</time>
      </trkpt>
      <trkpt lat="43.56343" lon="3.30347">
        <ele>186.1</ele>
        <time>2023-05-13T14:24:54.000Z</time>
      </trkpt>
      <trkpt lat="43.56337" lon="3.30337">
        <ele>186.1</ele>
        <time>2023-05-13T14:24:56.000Z</time>
      </trkpt>
      <trkpt lat="43.5633" lon="3.30328">
        <ele>186.2</ele>
        <time>2023-05-13T14:24:58.000Z</time>
      </trkpt>
      <trkpt lat="43.56322" lon="3.3032">
        <ele>186.2</ele>
        <time>2023-05-13T14:25:00.000Z</time>
      </trkpt>
      <trkpt lat="43.56314" lon="3.30313">
        <ele>186.2</ele>
        <time>2023-05-13T14:25:02.000Z</time>
      </trkpt>
      <trkpt lat="43.56306" lon="3.30306">
        <ele>186.3</ele>
        <time>2023-05-13T14:25:04.000Z</time>
      </trkpt>
      <trkpt lat="43.56298" lon="3.303">
        <ele>186.3</ele>
        <time>2023-05-13T14:25:06.000Z</time>
      </trkpt>
      <trkpt lat="43.56289" lon="3.30294">
        <ele>186.3</ele>
        <time>2023-05-13T14:25:08.000Z</time>
      </trkpt>
      <trkpt lat="43.56281" lon="3.30289">
        <ele>186.3</ele>
        <time>2023-05-13T14:25:10.000Z</time>
      </trkpt>
      <trkpt lat="43.56272" lon="3.30285">
        <ele>186.3</ele>
        <time>2023-05-13T14:25:12.000Z</time>
      </trkpt>
      <trkpt lat="43.56263" lon="3.3028">
        <ele>186.3</ele>
        <time>2023-05-13T14:25:14.000Z</time>
      </trkpt>
      <trkpt lat="43.56254" lon="3.30276">
        <ele>186.4</ele>
        <time>2023-05-13T14:25:16.000Z</time>
      </trkpt>
      <trkpt lat="43.56245" lon="3.30271">
        <ele>186.4</ele>
        <time>2023-05-13T14:25:18.000Z</time>
      </trkpt>
      <trkpt lat="43.56236" lon="3.30267">
        <ele>186.4</ele>
        <time>2023-05-13T14:25:20.000Z</time>
      </trkpt>
      <trkpt lat="43.56227" lon="3.30263">
        <ele>186.4</ele>
        <time>2023-05-13T14:25:22.000Z</time>
      </trkpt>
      <trkpt lat="43.56217" lon="3.3026">
        <ele>186.5</ele>
        <time>2023-05-13T14:25:24.000Z</time>
      </trkpt>
      <trkpt lat="43.56207" lon="3.30259">
        <ele>186.5</ele>
        <time>2023-05-13T14:25:26.000Z</time>
      </trkpt>
      <trkpt lat="43.56198" lon="3.30262">
        <ele>186.6</ele>
        <time>2023-05-13T14:25:28.000Z</time>
      </trkpt>
      <trkpt lat="43.56189" lon="3.30267">
        <ele>186.6</ele>
        <time>2023-05-13T14:25:30.000Z</time>
      </trkpt>
      <trkpt lat="43.56181" lon="3.30275">
        <ele>186.6</ele>
        <time>2023-05-13T14:25:32.000Z</time>
      </trkpt>
      <trkpt lat="43.56172" lon="3.30282">
        <ele>186.7</ele>
        <time>2023-05-13T14:25:34.000Z</time>
      </trkpt>
      <trkpt lat="43.56163" lon="3.30287">
        <ele>186.7</ele>
        <time>2023-05-13T14:25:36.000Z</time>
      </trkpt>
      <trkpt lat="43.56153" lon="3.30288">
        <ele>186.7</ele>
        <time>2023-05-13T14:25:38.000Z</time>
      </trkpt>
      <trkpt lat="43.56143" lon="3.30285">
        <ele>186.7</ele>
        <time>2023-05-13T14:25:40.000Z</time>
      </trkpt>
      <trkpt lat="43.56134" lon="3.30279">
        <ele>186.7</ele>
        <time>2023-05-13T14:25:42.000Z</time>
      </trkpt>
      <trkpt lat="43.56125" lon="3.30272">
        <ele>186.7</ele>
        <time>2023-05-13T14:25:44.000Z</time>
      </trkpt>
      <trkpt lat="43.56116" lon="3.30265">
        <ele>186.7</ele>
        <time>2023-05-13T14:25:46.000Z</time>
      </trkpt>
      <trkpt lat="43.56108" lon="3.30259">
        <ele>186.7</ele>
        <time>2023-05-13T14:25:48.000Z</time>
      </trkpt>
      <trkpt lat="43.56096" lon="3.30253">
        <ele>186.7</ele>
        <time>2023-05-13T14:25:51.000Z</time>
      </trkpt>
      <trkpt lat="43.56084" lon="3.30252">
        <ele>186.7</ele>
        <time>2023-05-13T14:25:54.000Z</time>
      </trkpt>
      <trkpt lat="43.56073" lon="3.30255">
        <ele>186.7</ele>
        <time>2023-05-13T14:25:57.000Z</time>
      </trkpt>
      <trkpt lat="43.56062" lon="3.30264">
        <ele>186.7</ele>
        <time>2023-05-13T14:26:00.000Z</time>
      </trkpt>
      <trkpt lat="43.56056" lon="3.30272">
        <ele>186.7</ele>
        <time>2023-05-13T14:26:02.000Z</time>
      </trkpt>
      <trkpt lat="43.56049" lon="3.30281">
        <ele>186.8</ele>
        <time>2023-05-13T14:26:04.000Z</time>
      </trkpt>
      <trkpt lat="43.56043" lon="3.30291">
        <ele>186.7</ele>
        <time>2023-05-13T14:26:06.000Z</time>
      </trkpt>
      <trkpt lat="43.56036" lon="3.30302">
        <ele>186.8</ele>
        <time>2023-05-13T14:26:08.000Z</time>
      </trkpt>
      <trkpt lat="43.5603" lon="3.30312">
        <ele>186.7</ele>
        <time>2023-05-13T14:26:10.000Z</time>
      </trkpt>
      <trkpt lat="43.56023" lon="3.3032">
        <ele>186.7</ele>
        <time>2023-05-13T14:26:12.000Z</time>
      </trkpt>
      <trkpt lat="43.56015" lon="3.30327">
        <ele>186.7</ele>
        <time>2023-05-13T14:26:14.000Z</time>
      </trkpt>
      <trkpt lat="43.56005" lon="3.30329">
        <ele>186.7</ele>
        <time>2023-05-13T14:26:16.000Z</time>
      </trkpt>
      <trkpt lat="43.55996" lon="3.30325">
        <ele>186.7</ele>
        <time>2023-05-13T14:26:18.000Z</time>
      </trkpt>
      <trkpt lat="43.55987" lon="3.30313">
        <ele>186.7</ele>
        <time>2023-05-13T14:26:21.000Z</time>
      </trkpt>
      <trkpt lat="43.55982" lon="3.30301">
        <ele>186.7</ele>
        <time>2023-05-13T14:26:24.000Z</time>
      </trkpt>
      <trkpt lat="43.55982" lon="3.30288">
        <ele>186.7</ele>
        <time>2023-05-13T14:26:28.000Z</time>
      </trkpt>
      <trkpt lat="43.5598" lon="3.30303">
        <ele>186.6</ele>
        <time>2023-05-13T14:26:38.000Z</time>
      </trkpt>
      <trkpt lat="43.55985" lon="3.30316">
        <ele>186.6</ele>
        <time>2023-05-13T14:26:41.000Z</time>
      </trkpt>
      <trkpt lat="43.55987" lon="3.30329">
        <ele>186.6</ele>
        <time>2023-05-13T14:26:45.000Z</time>
      </trkpt>
      <trkpt lat="43.55984" lon="3.30341">
        <ele>186.7</ele>
        <time>2023-05-13T14:26:50.000Z</time>
      </trkpt>
      <trkpt lat="43.55983" lon="3.30355">
        <ele>187.3</ele>
        <time>2023-05-13T14:26:55.000Z</time>
      </trkpt>
      <trkpt lat="43.55982" lon="3.30368">
        <ele>188.8</ele>
        <time>2023-05-13T14:27:00.000Z</time>
      </trkpt>
      <trkpt lat="43.5598" lon="3.30382">
        <ele>192.2</ele>
        <time>2023-05-13T14:27:06.000Z</time>
      </trkpt>
      <trkpt lat="43.55979" lon="3.30396">
        <ele>195.2</ele>
        <time>2023-05-13T14:27:11.000Z</time>
      </trkpt>
      <trkpt lat="43.55977" lon="3.30408">
        <ele>197.5</ele>
        <time>2023-05-13T14:27:16.000Z</time>
      </trkpt>
      <trkpt lat="43.55973" lon="3.3042">
        <ele>199.4</ele>
        <time>2023-05-13T14:27:21.000Z</time>
      </trkpt>
      <trkpt lat="43.55969" lon="3.30432">
        <ele>201.5</ele>
        <time>2023-05-13T14:27:26.000Z</time>
      </trkpt>
      <trkpt lat="43.55966" lon="3.30445">
        <ele>203.6</ele>
        <time>2023-05-13T14:27:31.000Z</time>
      </trkpt>
      <trkpt lat="43.55964" lon="3.30459">
        <ele>205.7</ele>
        <time>2023-05-13T14:27:36.000Z</time>
      </trkpt>
      <trkpt lat="43.55962" lon="3.30473">
        <ele>207.7</ele>
        <time>2023-05-13T14:27:41.000Z</time>
      </trkpt>
      <trkpt lat="43.55961" lon="3.30488">
        <ele>209.6</ele>
        <time>2023-05-13T14:27:46.000Z</time>
      </trkpt>
      <trkpt lat="43.55961" lon="3.30502">
        <ele>211.1</ele>
        <time>2023-05-13T14:27:51.000Z</time>
      </trkpt>
      <trkpt lat="43.55963" lon="3.30516">
        <ele>212.4</ele>
        <time>2023-05-13T14:27:56.000Z</time>
      </trkpt>
      <trkpt lat="43.55964" lon="3.3053">
        <ele>213.5</ele>
        <time>2023-05-13T14:28:01.000Z</time>
      </trkpt>
      <trkpt lat="43.55964" lon="3.30544">
        <ele>214.7</ele>
        <time>2023-05-13T14:28:06.000Z</time>
      </trkpt>
      <trkpt lat="43.55966" lon="3.30558">
        <ele>215.8</ele>
        <time>2023-05-13T14:28:11.000Z</time>
      </trkpt>
      <trkpt lat="43.55967" lon="3.3057">
        <ele>217</ele>
        <time>2023-05-13T14:28:16.000Z</time>
      </trkpt>
      <trkpt lat="43.55966" lon="3.30584">
        <ele>218.8</ele>
        <time>2023-05-13T14:28:22.000Z</time>
      </trkpt>
      <trkpt lat="43.55957" lon="3.30578">
        <ele>220.4</ele>
        <time>2023-05-13T14:28:27.000Z</time>
      </trkpt>
      <trkpt lat="43.55951" lon="3.30567">
        <ele>222.1</ele>
        <time>2023-05-13T14:28:32.000Z</time>
      </trkpt>
      <trkpt lat="43.55942" lon="3.30563">
        <ele>223.8</ele>
        <time>2023-05-13T14:28:37.000Z</time>
      </trkpt>
      <trkpt lat="43.55937" lon="3.30575">
        <ele>225.5</ele>
        <time>2023-05-13T14:28:43.000Z</time>
      </trkpt>
      <trkpt lat="43.55934" lon="3.30589">
        <ele>227.5</ele>
        <time>2023-05-13T14:28:49.000Z</time>
      </trkpt>
      <trkpt lat="43.55932" lon="3.30603">
        <ele>229.8</ele>
        <time>2023-05-13T14:28:55.000Z</time>
      </trkpt>
      <trkpt lat="43.55932" lon="3.30618">
        <ele>231.5</ele>
        <time>2023-05-13T14:29:00.000Z</time>
      </trkpt>
      <trkpt lat="43.55936" lon="3.30632">
        <ele>232.8</ele>
        <time>2023-05-13T14:29:05.000Z</time>
      </trkpt>
      <trkpt lat="43.55937" lon="3.30645">
        <ele>233.9</ele>
        <time>2023-05-13T14:29:10.000Z</time>
      </trkpt>
      <trkpt lat="43.55937" lon="3.30659">
        <ele>235.2</ele>
        <time>2023-05-13T14:29:15.000Z</time>
      </trkpt>
      <trkpt lat="43.55935" lon="3.30673">
        <ele>237</ele>
        <time>2023-05-13T14:29:20.000Z</time>
      </trkpt>
      <trkpt lat="43.55933" lon="3.30685">
        <ele>239</ele>
        <time>2023-05-13T14:29:25.000Z</time>
      </trkpt>
      <trkpt lat="43.55931" lon="3.307">
        <ele>240.7</ele>
        <time>2023-05-13T14:29:30.000Z</time>
      </trkpt>
      <trkpt lat="43.55931" lon="3.30715">
        <ele>242.3</ele>
        <time>2023-05-13T14:29:35.000Z</time>
      </trkpt>
      <trkpt lat="43.55931" lon="3.3073">
        <ele>244</ele>
        <time>2023-05-13T14:29:40.000Z</time>
      </trkpt>
      <trkpt lat="43.55931" lon="3.30744">
        <ele>245.6</ele>
        <time>2023-05-13T14:29:45.000Z</time>
      </trkpt>
      <trkpt lat="43.55928" lon="3.30757">
        <ele>247.3</ele>
        <time>2023-05-13T14:29:50.000Z</time>
      </trkpt>
      <trkpt lat="43.55927" lon="3.30771">
        <ele>249.6</ele>
        <time>2023-05-13T14:29:56.000Z</time>
      </trkpt>
      <trkpt lat="43.55929" lon="3.30786">
        <ele>251.2</ele>
        <time>2023-05-13T14:30:01.000Z</time>
      </trkpt>
      <trkpt lat="43.55929" lon="3.30799">
        <ele>252.4</ele>
        <time>2023-05-13T14:30:06.000Z</time>
      </trkpt>
      <trkpt lat="43.5593" lon="3.30811">
        <ele>253.2</ele>
        <time>2023-05-13T14:30:10.000Z</time>
      </trkpt>
      <trkpt lat="43.55933" lon="3.30824">
        <ele>254</ele>
        <time>2023-05-13T14:30:14.000Z</time>
      </trkpt>
      <trkpt lat="43.55937" lon="3.30836">
        <ele>254.9</ele>
        <time>2023-05-13T14:30:18.000Z</time>
      </trkpt>
      <trkpt lat="43.55942" lon="3.30848">
        <ele>255.7</ele>
        <time>2023-05-13T14:30:22.000Z</time>
      </trkpt>
      <trkpt lat="43.55947" lon="3.3086">
        <ele>256.2</ele>
        <time>2023-05-13T14:30:25.000Z</time>
      </trkpt>
      <trkpt lat="43.55952" lon="3.30875">
        <ele>256.8</ele>
        <time>2023-05-13T14:30:29.000Z</time>
      </trkpt>
      <trkpt lat="43.55956" lon="3.30886">
        <ele>257.5</ele>
        <time>2023-05-13T14:30:33.000Z</time>
      </trkpt>
      <trkpt lat="43.55958" lon="3.309">
        <ele>258.5</ele>
        <time>2023-05-13T14:30:38.000Z</time>
      </trkpt>
      <trkpt lat="43.55959" lon="3.30912">
        <ele>259.6</ele>
        <time>2023-05-13T14:30:43.000Z</time>
      </trkpt>
      <trkpt lat="43.55958" lon="3.30916">
        <ele>260.5</ele>
        <time>2023-05-13T14:30:48.000Z</time>
      </trkpt>
      <trkpt lat="43.55958" lon="3.30916">
        <ele>261.5</ele>
        <time>2023-05-13T14:31:02.000Z</time>
      </trkpt>
      <trkpt lat="43.55958" lon="3.30916">
        <ele>261.6</ele>
        <time>2023-05-13T14:31:03.000Z</time>
      </trkpt>
      <trkpt lat="43.55958" lon="3.30916">
        <ele>261.6</ele>
        <time>2023-05-13T14:31:04.000Z</time>
      </trkpt>
      <trkpt lat="43.55956" lon="3.3092">
        <ele>261.9</ele>
        <time>2023-05-13T14:31:09.000Z</time>
      </trkpt>
      <trkpt lat="43.55956" lon="3.30921">
        <ele>262.4</ele>
        <time>2023-05-13T14:31:18.000Z</time>
      </trkpt>
      <trkpt lat="43.5595" lon="3.30933">
        <ele>263.2</ele>
        <time>2023-05-13T14:31:25.000Z</time>
      </trkpt>
      <trkpt lat="43.55942" lon="3.30939">
        <ele>263.9</ele>
        <time>2023-05-13T14:31:29.000Z</time>
      </trkpt>
      <trkpt lat="43.55938" lon="3.30951">
        <ele>265.5</ele>
        <time>2023-05-13T14:31:34.000Z</time>
      </trkpt>
      <trkpt lat="43.55941" lon="3.30965">
        <ele>268.1</ele>
        <time>2023-05-13T14:31:39.000Z</time>
      </trkpt>
      <trkpt lat="43.55949" lon="3.30972">
        <ele>269.8</ele>
        <time>2023-05-13T14:31:43.000Z</time>
      </trkpt>
      <trkpt lat="43.55958" lon="3.30978">
        <ele>270.6</ele>
        <time>2023-05-13T14:31:46.000Z</time>
      </trkpt>
      <trkpt lat="43.55962" lon="3.30991">
        <ele>271.8</ele>
        <time>2023-05-13T14:31:50.000Z</time>
      </trkpt>
      <trkpt lat="43.55963" lon="3.31004">
        <ele>273.4</ele>
        <time>2023-05-13T14:31:54.000Z</time>
      </trkpt>
      <trkpt lat="43.55969" lon="3.31015">
        <ele>276</ele>
        <time>2023-05-13T14:31:59.000Z</time>
      </trkpt>
      <trkpt lat="43.55979" lon="3.3102">
        <ele>277.8</ele>
        <time>2023-05-13T14:32:03.000Z</time>
      </trkpt>
      <trkpt lat="43.55985" lon="3.3103">
        <ele>278.7</ele>
        <time>2023-05-13T14:32:08.000Z</time>
      </trkpt>
      <trkpt lat="43.5599" lon="3.31042">
        <ele>279.4</ele>
        <time>2023-05-13T14:32:13.000Z</time>
      </trkpt>
      <trkpt lat="43.55988" lon="3.31056">
        <ele>280.2</ele>
        <time>2023-05-13T14:32:21.000Z</time>
      </trkpt>
      <trkpt lat="43.55986" lon="3.31061">
        <ele>280.5</ele>
        <time>2023-05-13T14:32:26.000Z</time>
      </trkpt>
      <trkpt lat="43.55985" lon="3.31062">
        <ele>280.8</ele>
        <time>2023-05-13T14:32:31.000Z</time>
      </trkpt>
      <trkpt lat="43.55986" lon="3.31062">
        <ele>280.9</ele>
        <time>2023-05-13T14:32:33.000Z</time>
      </trkpt>
      <trkpt lat="43.55986" lon="3.31062">
        <ele>281</ele>
        <time>2023-05-13T14:32:34.000Z</time>
      </trkpt>
      <trkpt lat="43.55986" lon="3.31062">
        <ele>281.1</ele>
        <time>2023-05-13T14:32:37.000Z</time>
      </trkpt>
      <trkpt lat="43.55986" lon="3.31062">
        <ele>281.1</ele>
        <time>2023-05-13T14:32:38.000Z</time>
      </trkpt>
      <trkpt lat="43.55986" lon="3.31062">
        <ele>281.1</ele>
        <time>2023-05-13T14:32:39.000Z</time>
      </trkpt>
      <trkpt lat="43.55986" lon="3.31061">
        <ele>281.1</ele>
        <time>2023-05-13T14:32:42.000Z</time>
      </trkpt>
      <trkpt lat="43.55995" lon="3.31068">
        <ele>280.9</ele>
        <time>2023-05-13T14:32:54.000Z</time>
      </trkpt>
      <trkpt lat="43.55997" lon="3.3108">
        <ele>280</ele>
        <time>2023-05-13T14:33:01.000Z</time>
      </trkpt>
      <trkpt lat="43.56" lon="3.31092">
        <ele>279</ele>
        <time>2023-05-13T14:33:04.000Z</time>
      </trkpt>
      <trkpt lat="43.56005" lon="3.31111">
        <ele>276.8</ele>
        <time>2023-05-13T14:33:07.000Z</time>
      </trkpt>
      <trkpt lat="43.56009" lon="3.31126">
        <ele>274.6</ele>
        <time>2023-05-13T14:33:09.000Z</time>
      </trkpt>
      <trkpt lat="43.56013" lon="3.3114">
        <ele>272.3</ele>
        <time>2023-05-13T14:33:11.000Z</time>
      </trkpt>
      <trkpt lat="43.56016" lon="3.31152">
        <ele>270.9</ele>
        <time>2023-05-13T14:33:13.000Z</time>
      </trkpt>
      <trkpt lat="43.56017" lon="3.31171">
        <ele>269.6</ele>
        <time>2023-05-13T14:33:16.000Z</time>
      </trkpt>
      <trkpt lat="43.56015" lon="3.31184">
        <ele>268.9</ele>
        <time>2023-05-13T14:33:18.000Z</time>
      </trkpt>
      <trkpt lat="43.56017" lon="3.31199">
        <ele>268.3</ele>
        <time>2023-05-13T14:33:21.000Z</time>
      </trkpt>
      <trkpt lat="43.56025" lon="3.31215">
        <ele>268</ele>
        <time>2023-05-13T14:33:24.000Z</time>
      </trkpt>
      <trkpt lat="43.56032" lon="3.31227">
        <ele>267.9</ele>
        <time>2023-05-13T14:33:26.000Z</time>
      </trkpt>
      <trkpt lat="43.56039" lon="3.31243">
        <ele>267.5</ele>
        <time>2023-05-13T14:33:28.000Z</time>
      </trkpt>
      <trkpt lat="43.56047" lon="3.31256">
        <ele>266.6</ele>
        <time>2023-05-13T14:33:30.000Z</time>
      </trkpt>
      <trkpt lat="43.56052" lon="3.31266">
        <ele>265</ele>
        <time>2023-05-13T14:33:32.000Z</time>
      </trkpt>
      <trkpt lat="43.56056" lon="3.31279">
        <ele>263.8</ele>
        <time>2023-05-13T14:33:34.000Z</time>
      </trkpt>
      <trkpt lat="43.56056" lon="3.31295">
        <ele>262.6</ele>
        <time>2023-05-13T14:33:37.000Z</time>
      </trkpt>
      <trkpt lat="43.56058" lon="3.31313">
        <ele>261.6</ele>
        <time>2023-05-13T14:33:41.000Z</time>
      </trkpt>
      <trkpt lat="43.56057" lon="3.31328">
        <ele>260.7</ele>
        <time>2023-05-13T14:33:44.000Z</time>
      </trkpt>
      <trkpt lat="43.56057" lon="3.31341">
        <ele>260.1</ele>
        <time>2023-05-13T14:33:47.000Z</time>
      </trkpt>
      <trkpt lat="43.56055" lon="3.31355">
        <ele>259.6</ele>
        <time>2023-05-13T14:33:50.000Z</time>
      </trkpt>
      <trkpt lat="43.56053" lon="3.31369">
        <ele>259.3</ele>
        <time>2023-05-13T14:33:53.000Z</time>
      </trkpt>
      <trkpt lat="43.56052" lon="3.31385">
        <ele>258.7</ele>
        <time>2023-05-13T14:33:56.000Z</time>
      </trkpt>
      <trkpt lat="43.56051" lon="3.31402">
        <ele>258.2</ele>
        <time>2023-05-13T14:33:59.000Z</time>
      </trkpt>
      <trkpt lat="43.56049" lon="3.31418">
        <ele>257.8</ele>
        <time>2023-05-13T14:34:02.000Z</time>
      </trkpt>
      <trkpt lat="43.56049" lon="3.31431">
        <ele>257.4</ele>
        <time>2023-05-13T14:34:04.000Z</time>
      </trkpt>
      <trkpt lat="43.56048" lon="3.31444">
        <ele>257</ele>
        <time>2023-05-13T14:34:06.000Z</time>
      </trkpt>
      <trkpt lat="43.56047" lon="3.31458">
        <ele>256.6</ele>
        <time>2023-05-13T14:34:08.000Z</time>
      </trkpt>
      <trkpt lat="43.56045" lon="3.31471">
        <ele>256.3</ele>
        <time>2023-05-13T14:34:10.000Z</time>
      </trkpt>
      <trkpt lat="43.56041" lon="3.31488">
        <ele>255.8</ele>
        <time>2023-05-13T14:34:13.000Z</time>
      </trkpt>
      <trkpt lat="43.56035" lon="3.31504">
        <ele>255.4</ele>
        <time>2023-05-13T14:34:16.000Z</time>
      </trkpt>
      <trkpt lat="43.56029" lon="3.31517">
        <ele>254.9</ele>
        <time>2023-05-13T14:34:19.000Z</time>
      </trkpt>
      <trkpt lat="43.56025" lon="3.3153">
        <ele>254.5</ele>
        <time>2023-05-13T14:34:22.000Z</time>
      </trkpt>
      <trkpt lat="43.56021" lon="3.31544">
        <ele>254.5</ele>
        <time>2023-05-13T14:34:26.000Z</time>
      </trkpt>
      <trkpt lat="43.56018" lon="3.31563">
        <ele>254.1</ele>
        <time>2023-05-13T14:34:29.000Z</time>
      </trkpt>
      <trkpt lat="43.56016" lon="3.31578">
        <ele>253.6</ele>
        <time>2023-05-13T14:34:31.000Z</time>
      </trkpt>
      <trkpt lat="43.56013" lon="3.31593">
        <ele>252.9</ele>
        <time>2023-05-13T14:34:33.000Z</time>
      </trkpt>
      <trkpt lat="43.56006" lon="3.31606">
        <ele>252.4</ele>
        <time>2023-05-13T14:34:35.000Z</time>
      </trkpt>
      <trkpt lat="43.56005" lon="3.31619">
        <ele>251.8</ele>
        <time>2023-05-13T14:34:38.000Z</time>
      </trkpt>
      <trkpt lat="43.56007" lon="3.31633">
        <ele>251</ele>
        <time>2023-05-13T14:34:41.000Z</time>
      </trkpt>
      <trkpt lat="43.56007" lon="3.31649">
        <ele>250.5</ele>
        <time>2023-05-13T14:34:44.000Z</time>
      </trkpt>
      <trkpt lat="43.56003" lon="3.31665">
        <ele>249.4</ele>
        <time>2023-05-13T14:34:47.000Z</time>
      </trkpt>
      <trkpt lat="43.56004" lon="3.31679">
        <ele>249</ele>
        <time>2023-05-13T14:34:49.000Z</time>
      </trkpt>
      <trkpt lat="43.5601" lon="3.31695">
        <ele>248.4</ele>
        <time>2023-05-13T14:34:52.000Z</time>
      </trkpt>
      <trkpt lat="43.56016" lon="3.3171">
        <ele>247.8</ele>
        <time>2023-05-13T14:34:55.000Z</time>
      </trkpt>
      <trkpt lat="43.56021" lon="3.31723">
        <ele>246.7</ele>
        <time>2023-05-13T14:34:59.000Z</time>
      </trkpt>
      <trkpt lat="43.56031" lon="3.3173">
        <ele>245.3</ele>
        <time>2023-05-13T14:35:03.000Z</time>
      </trkpt>
      <trkpt lat="43.56039" lon="3.31737">
        <ele>244.3</ele>
        <time>2023-05-13T14:35:06.000Z</time>
      </trkpt>
      <trkpt lat="43.5605" lon="3.3174">
        <ele>243.2</ele>
        <time>2023-05-13T14:35:09.000Z</time>
      </trkpt>
      <trkpt lat="43.56061" lon="3.31749">
        <ele>242.2</ele>
        <time>2023-05-13T14:35:12.000Z</time>
      </trkpt>
      <trkpt lat="43.5607" lon="3.31759">
        <ele>240.9</ele>
        <time>2023-05-13T14:35:15.000Z</time>
      </trkpt>
      <trkpt lat="43.56079" lon="3.31766">
        <ele>239.8</ele>
        <time>2023-05-13T14:35:17.000Z</time>
      </trkpt>
      <trkpt lat="43.56087" lon="3.31774">
        <ele>238.6</ele>
        <time>2023-05-13T14:35:19.000Z</time>
      </trkpt>
      <trkpt lat="43.56091" lon="3.31787">
        <ele>237.9</ele>
        <time>2023-05-13T14:35:21.000Z</time>
      </trkpt>
      <trkpt lat="43.56094" lon="3.318">
        <ele>237.3</ele>
        <time>2023-05-13T14:35:23.000Z</time>
      </trkpt>
      <trkpt lat="43.56095" lon="3.31813">
        <ele>236.6</ele>
        <time>2023-05-13T14:35:25.000Z</time>
      </trkpt>
      <trkpt lat="43.56104" lon="3.31826">
        <ele>235.4</ele>
        <time>2023-05-13T14:35:28.000Z</time>
      </trkpt>
      <trkpt lat="43.56115" lon="3.31838">
        <ele>234.5</ele>
        <time>2023-05-13T14:35:31.000Z</time>
      </trkpt>
      <trkpt lat="43.56122" lon="3.31846">
        <ele>233.8</ele>
        <time>2023-05-13T14:35:33.000Z</time>
      </trkpt>
      <trkpt lat="43.56129" lon="3.31854">
        <ele>233.1</ele>
        <time>2023-05-13T14:35:35.000Z</time>
      </trkpt>
      <trkpt lat="43.56134" lon="3.31866">
        <ele>232.4</ele>
        <time>2023-05-13T14:35:37.000Z</time>
      </trkpt>
      <trkpt lat="43.56141" lon="3.31878">
        <ele>231.2</ele>
        <time>2023-05-13T14:35:40.000Z</time>
      </trkpt>
      <trkpt lat="43.56151" lon="3.3189">
        <ele>229.6</ele>
        <time>2023-05-13T14:35:43.000Z</time>
      </trkpt>
      <trkpt lat="43.56157" lon="3.31902">
        <ele>227.9</ele>
        <time>2023-05-13T14:35:46.000Z</time>
      </trkpt>
      <trkpt lat="43.5616" lon="3.31913">
        <ele>226.4</ele>
        <time>2023-05-13T14:35:49.000Z</time>
      </trkpt>
      <trkpt lat="43.56164" lon="3.31925">
        <ele>224.5</ele>
        <time>2023-05-13T14:35:52.000Z</time>
      </trkpt>
      <trkpt lat="43.56165" lon="3.3194">
        <ele>221.7</ele>
        <time>2023-05-13T14:35:56.000Z</time>
      </trkpt>
      <trkpt lat="43.56174" lon="3.31943">
        <ele>217.7</ele>
        <time>2023-05-13T14:36:03.000Z</time>
      </trkpt>
      <trkpt lat="43.56173" lon="3.31959">
        <ele>215.8</ele>
        <time>2023-05-13T14:36:07.000Z</time>
      </trkpt>
      <trkpt lat="43.56181" lon="3.31968">
        <ele>214.7</ele>
        <time>2023-05-13T14:36:10.000Z</time>
      </trkpt>
      <trkpt lat="43.56191" lon="3.31978">
        <ele>213.7</ele>
        <time>2023-05-13T14:36:13.000Z</time>
      </trkpt>
      <trkpt lat="43.56199" lon="3.31991">
        <ele>212.8</ele>
        <time>2023-05-13T14:36:16.000Z</time>
      </trkpt>
      <trkpt lat="43.56205" lon="3.32003">
        <ele>211.8</ele>
        <time>2023-05-13T14:36:19.000Z</time>
      </trkpt>
      <trkpt lat="43.56211" lon="3.32013">
        <ele>210.5</ele>
        <time>2023-05-13T14:36:23.000Z</time>
      </trkpt>
      <trkpt lat="43.56215" lon="3.32026">
        <ele>209.1</ele>
        <time>2023-05-13T14:36:29.000Z</time>
      </trkpt>
      <trkpt lat="43.56211" lon="3.32041">
        <ele>208.3</ele>
        <time>2023-05-13T14:36:34.000Z</time>
      </trkpt>
      <trkpt lat="43.5622" lon="3.32047">
        <ele>207.1</ele>
        <time>2023-05-13T14:36:39.000Z</time>
      </trkpt>
      <trkpt lat="43.56227" lon="3.32056">
        <ele>205.5</ele>
        <time>2023-05-13T14:36:42.000Z</time>
      </trkpt>
      <trkpt lat="43.56234" lon="3.32068">
        <ele>203.5</ele>
        <time>2023-05-13T14:36:45.000Z</time>
      </trkpt>
      <trkpt lat="43.5624" lon="3.32078">
        <ele>201.6</ele>
        <time>2023-05-13T14:36:49.000Z</time>
      </trkpt>
      <trkpt lat="43.56249" lon="3.3208">
        <ele>200.8</ele>
        <time>2023-05-13T14:36:52.000Z</time>
      </trkpt>
      <trkpt lat="43.5626" lon="3.32088">
        <ele>200.1</ele>
        <time>2023-05-13T14:36:55.000Z</time>
      </trkpt>
      <trkpt lat="43.56267" lon="3.32098">
        <ele>199.3</ele>
        <time>2023-05-13T14:36:58.000Z</time>
      </trkpt>
      <trkpt lat="43.56274" lon="3.32106">
        <ele>198.3</ele>
        <time>2023-05-13T14:37:02.000Z</time>
      </trkpt>
      <trkpt lat="43.56281" lon="3.3212">
        <ele>197.3</ele>
        <time>2023-05-13T14:37:06.000Z</time>
      </trkpt>
      <trkpt lat="43.56282" lon="3.32137">
        <ele>196.5</ele>
        <time>2023-05-13T14:37:09.000Z</time>
      </trkpt>
      <trkpt lat="43.56284" lon="3.32155">
        <ele>195.7</ele>
        <time>2023-05-13T14:37:12.000Z</time>
      </trkpt>
      <trkpt lat="43.56285" lon="3.32168">
        <ele>195.2</ele>
        <time>2023-05-13T14:37:14.000Z</time>
      </trkpt>
      <trkpt lat="43.56285" lon="3.32182">
        <ele>194.8</ele>
        <time>2023-05-13T14:37:16.000Z</time>
      </trkpt>
      <trkpt lat="43.56289" lon="3.32195">
        <ele>194.5</ele>
        <time>2023-05-13T14:37:18.000Z</time>
      </trkpt>
      <trkpt lat="43.56298" lon="3.32207">
        <ele>193.7</ele>
        <time>2023-05-13T14:37:20.000Z</time>
      </trkpt>
      <trkpt lat="43.56307" lon="3.32218">
        <ele>192.7</ele>
        <time>2023-05-13T14:37:22.000Z</time>
      </trkpt>
      <trkpt lat="43.56315" lon="3.32226">
        <ele>191.4</ele>
        <time>2023-05-13T14:37:24.000Z</time>
      </trkpt>
      <trkpt lat="43.56319" lon="3.32231">
        <ele>188.7</ele>
        <time>2023-05-13T14:37:29.000Z</time>
      </trkpt>
      <trkpt lat="43.56319" lon="3.32231">
        <ele>187.1</ele>
        <time>2023-05-13T14:37:40.000Z</time>
      </trkpt>
      <trkpt lat="43.56327" lon="3.32226">
        <ele>186.7</ele>
        <time>2023-05-13T14:37:48.000Z</time>
      </trkpt>
      <trkpt lat="43.56334" lon="3.32236">
        <ele>186.6</ele>
        <time>2023-05-13T14:37:53.000Z</time>
      </trkpt>
      <trkpt lat="43.5634" lon="3.32247">
        <ele>186.7</ele>
        <time>2023-05-13T14:37:57.000Z</time>
      </trkpt>
      <trkpt lat="43.56346" lon="3.32258">
        <ele>186.9</ele>
        <time>2023-05-13T14:38:01.000Z</time>
      </trkpt>
      <trkpt lat="43.56349" lon="3.32271">
        <ele>187.2</ele>
        <time>2023-05-13T14:38:05.000Z</time>
      </trkpt>
      <trkpt lat="43.56353" lon="3.32285">
        <ele>187.7</ele>
        <time>2023-05-13T14:38:09.000Z</time>
      </trkpt>
      <trkpt lat="43.56359" lon="3.32296">
        <ele>188.6</ele>
        <time>2023-05-13T14:38:13.000Z</time>
      </trkpt>
      <trkpt lat="43.56367" lon="3.32307">
        <ele>189.8</ele>
        <time>2023-05-13T14:38:17.000Z</time>
      </trkpt>
      <trkpt lat="43.56376" lon="3.32316">
        <ele>191.3</ele>
        <time>2023-05-13T14:38:21.000Z</time>
      </trkpt>
      <trkpt lat="43.56383" lon="3.32325">
        <ele>192.3</ele>
        <time>2023-05-13T14:38:24.000Z</time>
      </trkpt>
      <trkpt lat="43.56392" lon="3.32331">
        <ele>193.1</ele>
        <time>2023-05-13T14:38:27.000Z</time>
      </trkpt>
      <trkpt lat="43.56402" lon="3.32336">
        <ele>193.9</ele>
        <time>2023-05-13T14:38:31.000Z</time>
      </trkpt>
      <trkpt lat="43.56411" lon="3.32338">
        <ele>194.3</ele>
        <time>2023-05-13T14:38:34.000Z</time>
      </trkpt>
      <trkpt lat="43.56421" lon="3.32338">
        <ele>194.7</ele>
        <time>2023-05-13T14:38:37.000Z</time>
      </trkpt>
      <trkpt lat="43.56433" lon="3.32338">
        <ele>195.5</ele>
        <time>2023-05-13T14:38:41.000Z</time>
      </trkpt>
      <trkpt lat="43.56443" lon="3.32336">
        <ele>196.1</ele>
        <time>2023-05-13T14:38:44.000Z</time>
      </trkpt>
      <trkpt lat="43.56454" lon="3.32331">
        <ele>196.7</ele>
        <time>2023-05-13T14:38:48.000Z</time>
      </trkpt>
      <trkpt lat="43.56466" lon="3.32332">
        <ele>197.4</ele>
        <time>2023-05-13T14:38:52.000Z</time>
      </trkpt>
      <trkpt lat="43.56476" lon="3.32332">
        <ele>197.9</ele>
        <time>2023-05-13T14:38:55.000Z</time>
      </trkpt>
      <trkpt lat="43.56486" lon="3.32332">
        <ele>198.3</ele>
        <time>2023-05-13T14:38:58.000Z</time>
      </trkpt>
      <trkpt lat="43.56496" lon="3.32334">
        <ele>198.6</ele>
        <time>2023-05-13T14:39:01.000Z</time>
      </trkpt>
      <trkpt lat="43.56507" lon="3.32336">
        <ele>198.9</ele>
        <time>2023-05-13T14:39:04.000Z</time>
      </trkpt>
      <trkpt lat="43.56517" lon="3.32335">
        <ele>199.3</ele>
        <time>2023-05-13T14:39:07.000Z</time>
      </trkpt>
      <trkpt lat="43.56527" lon="3.32333">
        <ele>199.7</ele>
        <time>2023-05-13T14:39:10.000Z</time>
      </trkpt>
      <trkpt lat="43.56536" lon="3.32329">
        <ele>200.3</ele>
        <time>2023-05-13T14:39:13.000Z</time>
      </trkpt>
      <trkpt lat="43.56546" lon="3.32327">
        <ele>200.7</ele>
        <time>2023-05-13T14:39:16.000Z</time>
      </trkpt>
      <trkpt lat="43.56556" lon="3.32324">
        <ele>201.1</ele>
        <time>2023-05-13T14:39:20.000Z</time>
      </trkpt>
      <trkpt lat="43.56567" lon="3.3232">
        <ele>201.4</ele>
        <time>2023-05-13T14:39:24.000Z</time>
      </trkpt>
      <trkpt lat="43.56577" lon="3.32312">
        <ele>201.7</ele>
        <time>2023-05-13T14:39:27.000Z</time>
      </trkpt>
      <trkpt lat="43.56586" lon="3.32302">
        <ele>201.9</ele>
        <time>2023-05-13T14:39:30.000Z</time>
      </trkpt>
      <trkpt lat="43.56596" lon="3.32293">
        <ele>202.2</ele>
        <time>2023-05-13T14:39:33.000Z</time>
      </trkpt>
      <trkpt lat="43.56603" lon="3.32282">
        <ele>202.4</ele>
        <time>2023-05-13T14:39:36.000Z</time>
      </trkpt>
      <trkpt lat="43.56609" lon="3.32271">
        <ele>202.7</ele>
        <time>2023-05-13T14:39:39.000Z</time>
      </trkpt>
      <trkpt lat="43.56614" lon="3.3226">
        <ele>203.2</ele>
        <time>2023-05-13T14:39:42.000Z</time>
      </trkpt>
      <trkpt lat="43.56621" lon="3.32248">
        <ele>203.9</ele>
        <time>2023-05-13T14:39:46.000Z</time>
      </trkpt>
      <trkpt lat="43.56629" lon="3.32241">
        <ele>204.5</ele>
        <time>2023-05-13T14:39:49.000Z</time>
      </trkpt>
      <trkpt lat="43.56636" lon="3.32232">
        <ele>205</ele>
        <time>2023-05-13T14:39:52.000Z</time>
      </trkpt>
      <trkpt lat="43.56644" lon="3.32224">
        <ele>205.5</ele>
        <time>2023-05-13T14:39:56.000Z</time>
      </trkpt>
      <trkpt lat="43.5665" lon="3.32214">
        <ele>206.5</ele>
        <time>2023-05-13T14:40:01.000Z</time>
      </trkpt>
      <trkpt lat="43.56655" lon="3.32202">
        <ele>207.9</ele>
        <time>2023-05-13T14:40:05.000Z</time>
      </trkpt>
      <trkpt lat="43.5666" lon="3.32189">
        <ele>210.6</ele>
        <time>2023-05-13T14:40:10.000Z</time>
      </trkpt>
      <trkpt lat="43.56663" lon="3.32177">
        <ele>212.5</ele>
        <time>2023-05-13T14:40:14.000Z</time>
      </trkpt>
      <trkpt lat="43.56668" lon="3.32166">
        <ele>213.9</ele>
        <time>2023-05-13T14:40:18.000Z</time>
      </trkpt>
      <trkpt lat="43.56672" lon="3.32152">
        <ele>215.4</ele>
        <time>2023-05-13T14:40:23.000Z</time>
      </trkpt>
      <trkpt lat="43.56674" lon="3.32137">
        <ele>216.9</ele>
        <time>2023-05-13T14:40:28.000Z</time>
      </trkpt>
      <trkpt lat="43.56677" lon="3.32124">
        <ele>218.4</ele>
        <time>2023-05-13T14:40:32.000Z</time>
      </trkpt>
      <trkpt lat="43.56684" lon="3.32113">
        <ele>219.4</ele>
        <time>2023-05-13T14:40:37.000Z</time>
      </trkpt>
      <trkpt lat="43.56693" lon="3.3211">
        <ele>219.8</ele>
        <time>2023-05-13T14:40:41.000Z</time>
      </trkpt>
      <trkpt lat="43.56703" lon="3.32102">
        <ele>220.4</ele>
        <time>2023-05-13T14:40:45.000Z</time>
      </trkpt>
      <trkpt lat="43.56712" lon="3.32095">
        <ele>221.1</ele>
        <time>2023-05-13T14:40:49.000Z</time>
      </trkpt>
      <trkpt lat="43.56721" lon="3.32091">
        <ele>221.9</ele>
        <time>2023-05-13T14:40:53.000Z</time>
      </trkpt>
      <trkpt lat="43.56729" lon="3.32085">
        <ele>222.6</ele>
        <time>2023-05-13T14:40:57.000Z</time>
      </trkpt>
      <trkpt lat="43.56738" lon="3.32075">
        <ele>223</ele>
        <time>2023-05-13T14:41:01.000Z</time>
      </trkpt>
      <trkpt lat="43.56745" lon="3.32066">
        <ele>223.2</ele>
        <time>2023-05-13T14:41:04.000Z</time>
      </trkpt>
      <trkpt lat="43.56755" lon="3.32058">
        <ele>223.8</ele>
        <time>2023-05-13T14:41:08.000Z</time>
      </trkpt>
      <trkpt lat="43.56763" lon="3.32049">
        <ele>224.7</ele>
        <time>2023-05-13T14:41:12.000Z</time>
      </trkpt>
      <trkpt lat="43.56769" lon="3.32038">
        <ele>225.4</ele>
        <time>2023-05-13T14:41:16.000Z</time>
      </trkpt>
      <trkpt lat="43.56776" lon="3.32031">
        <ele>226.2</ele>
        <time>2023-05-13T14:41:20.000Z</time>
      </trkpt>
      <trkpt lat="43.56785" lon="3.32025">
        <ele>227.5</ele>
        <time>2023-05-13T14:41:24.000Z</time>
      </trkpt>
      <trkpt lat="43.56793" lon="3.32018">
        <ele>229.3</ele>
        <time>2023-05-13T14:41:28.000Z</time>
      </trkpt>
      <trkpt lat="43.56801" lon="3.32012">
        <ele>230.6</ele>
        <time>2023-05-13T14:41:31.000Z</time>
      </trkpt>
      <trkpt lat="43.5681" lon="3.32003">
        <ele>231.9</ele>
        <time>2023-05-13T14:41:35.000Z</time>
      </trkpt>
      <trkpt lat="43.56819" lon="3.31996">
        <ele>232.9</ele>
        <time>2023-05-13T14:41:39.000Z</time>
      </trkpt>
      <trkpt lat="43.56826" lon="3.31988">
        <ele>234</ele>
        <time>2023-05-13T14:41:44.000Z</time>
      </trkpt>
      <trkpt lat="43.56836" lon="3.31979">
        <ele>234.9</ele>
        <time>2023-05-13T14:41:48.000Z</time>
      </trkpt>
      <trkpt lat="43.56844" lon="3.31969">
        <ele>236.4</ele>
        <time>2023-05-13T14:41:53.000Z</time>
      </trkpt>
      <trkpt lat="43.56853" lon="3.3196">
        <ele>237.6</ele>
        <time>2023-05-13T14:41:58.000Z</time>
      </trkpt>
      <trkpt lat="43.56862" lon="3.31952">
        <ele>238.7</ele>
        <time>2023-05-13T14:42:02.000Z</time>
      </trkpt>
      <trkpt lat="43.56869" lon="3.31944">
        <ele>240.1</ele>
        <time>2023-05-13T14:42:06.000Z</time>
      </trkpt>
      <trkpt lat="43.56877" lon="3.31936">
        <ele>241.5</ele>
        <time>2023-05-13T14:42:10.000Z</time>
      </trkpt>
      <trkpt lat="43.56884" lon="3.31928">
        <ele>242.9</ele>
        <time>2023-05-13T14:42:14.000Z</time>
      </trkpt>
      <trkpt lat="43.5689" lon="3.31918">
        <ele>244.6</ele>
        <time>2023-05-13T14:42:18.000Z</time>
      </trkpt>
      <trkpt lat="43.56898" lon="3.31908">
        <ele>245.8</ele>
        <time>2023-05-13T14:42:22.000Z</time>
      </trkpt>
      <trkpt lat="43.56905" lon="3.31898">
        <ele>246.7</ele>
        <time>2023-05-13T14:42:26.000Z</time>
      </trkpt>
      <trkpt lat="43.5691" lon="3.31888">
        <ele>247.8</ele>
        <time>2023-05-13T14:42:30.000Z</time>
      </trkpt>
      <trkpt lat="43.56915" lon="3.31875">
        <ele>249.1</ele>
        <time>2023-05-13T14:42:34.000Z</time>
      </trkpt>
      <trkpt lat="43.56919" lon="3.31863">
        <ele>250.6</ele>
        <time>2023-05-13T14:42:38.000Z</time>
      </trkpt>
      <trkpt lat="43.56926" lon="3.3185">
        <ele>251.2</ele>
        <time>2023-05-13T14:42:42.000Z</time>
      </trkpt>
      <trkpt lat="43.56931" lon="3.3184">
        <ele>251.8</ele>
        <time>2023-05-13T14:42:46.000Z</time>
      </trkpt>
      <trkpt lat="43.56936" lon="3.31827">
        <ele>252.4</ele>
        <time>2023-05-13T14:42:51.000Z</time>
      </trkpt>
      <trkpt lat="43.5694" lon="3.31815">
        <ele>253</ele>
        <time>2023-05-13T14:42:55.000Z</time>
      </trkpt>
      <trkpt lat="43.56943" lon="3.31801">
        <ele>253.6</ele>
        <time>2023-05-13T14:43:00.000Z</time>
      </trkpt>
      <trkpt lat="43.56946" lon="3.31788">
        <ele>254.2</ele>
        <time>2023-05-13T14:43:04.000Z</time>
      </trkpt>
      <trkpt lat="43.56951" lon="3.31776">
        <ele>254.6</ele>
        <time>2023-05-13T14:43:08.000Z</time>
      </trkpt>
      <trkpt lat="43.56952" lon="3.31762">
        <ele>255</ele>
        <time>2023-05-13T14:43:12.000Z</time>
      </trkpt>
      <trkpt lat="43.56954" lon="3.3175">
        <ele>255.4</ele>
        <time>2023-05-13T14:43:15.000Z</time>
      </trkpt>
      <trkpt lat="43.56956" lon="3.31735">
        <ele>256.7</ele>
        <time>2023-05-13T14:43:21.000Z</time>
      </trkpt>
      <trkpt lat="43.5696" lon="3.31724">
        <ele>257.7</ele>
        <time>2023-05-13T14:43:25.000Z</time>
      </trkpt>
      <trkpt lat="43.5696" lon="3.31708">
        <ele>258.8</ele>
        <time>2023-05-13T14:43:30.000Z</time>
      </trkpt>
      <trkpt lat="43.56965" lon="3.31697">
        <ele>259.3</ele>
        <time>2023-05-13T14:43:34.000Z</time>
      </trkpt>
      <trkpt lat="43.56974" lon="3.3169">
        <ele>259.9</ele>
        <time>2023-05-13T14:43:39.000Z</time>
      </trkpt>
      <trkpt lat="43.56975" lon="3.31676">
        <ele>260.6</ele>
        <time>2023-05-13T14:43:44.000Z</time>
      </trkpt>
      <trkpt lat="43.56979" lon="3.31663">
        <ele>261.5</ele>
        <time>2023-05-13T14:43:50.000Z</time>
      </trkpt>
      <trkpt lat="43.56982" lon="3.31651">
        <ele>262.3</ele>
        <time>2023-05-13T14:43:54.000Z</time>
      </trkpt>
      <trkpt lat="43.56984" lon="3.31639">
        <ele>263.2</ele>
        <time>2023-05-13T14:43:58.000Z</time>
      </trkpt>
      <trkpt lat="43.56986" lon="3.31626">
        <ele>264.5</ele>
        <time>2023-05-13T14:44:04.000Z</time>
      </trkpt>
      <trkpt lat="43.56993" lon="3.31615">
        <ele>265.9</ele>
        <time>2023-05-13T14:44:09.000Z</time>
      </trkpt>
      <trkpt lat="43.56997" lon="3.31604">
        <ele>267.2</ele>
        <time>2023-05-13T14:44:14.000Z</time>
      </trkpt>
      <trkpt lat="43.57" lon="3.31591">
        <ele>268</ele>
        <time>2023-05-13T14:44:18.000Z</time>
      </trkpt>
      <trkpt lat="43.57005" lon="3.31579">
        <ele>269.3</ele>
        <time>2023-05-13T14:44:23.000Z</time>
      </trkpt>
      <trkpt lat="43.57015" lon="3.31572">
        <ele>270.3</ele>
        <time>2023-05-13T14:44:27.000Z</time>
      </trkpt>
      <trkpt lat="43.5702" lon="3.31559">
        <ele>271.8</ele>
        <time>2023-05-13T14:44:32.000Z</time>
      </trkpt>
      <trkpt lat="43.57027" lon="3.3155">
        <ele>272.8</ele>
        <time>2023-05-13T14:44:36.000Z</time>
      </trkpt>
      <trkpt lat="43.57034" lon="3.31542">
        <ele>273.7</ele>
        <time>2023-05-13T14:44:40.000Z</time>
      </trkpt>
      <trkpt lat="43.57041" lon="3.31532">
        <ele>274.7</ele>
        <time>2023-05-13T14:44:44.000Z</time>
      </trkpt>
      <trkpt lat="43.57049" lon="3.31524">
        <ele>276.2</ele>
        <time>2023-05-13T14:44:49.000Z</time>
      </trkpt>
      <trkpt lat="43.57058" lon="3.31518">
        <ele>277.8</ele>
        <time>2023-05-13T14:44:54.000Z</time>
      </trkpt>
      <trkpt lat="43.57067" lon="3.31512">
        <ele>279.5</ele>
        <time>2023-05-13T14:44:59.000Z</time>
      </trkpt>
      <trkpt lat="43.57076" lon="3.31506">
        <ele>281.1</ele>
        <time>2023-05-13T14:45:04.000Z</time>
      </trkpt>
      <trkpt lat="43.57086" lon="3.31501">
        <ele>282.2</ele>
        <time>2023-05-13T14:45:08.000Z</time>
      </trkpt>
      <trkpt lat="43.57094" lon="3.31498">
        <ele>283.1</ele>
        <time>2023-05-13T14:45:11.000Z</time>
      </trkpt>
      <trkpt lat="43.57106" lon="3.31499">
        <ele>284.5</ele>
        <time>2023-05-13T14:45:15.000Z</time>
      </trkpt>
      <trkpt lat="43.57116" lon="3.315">
        <ele>286.6</ele>
        <time>2023-05-13T14:45:20.000Z</time>
      </trkpt>
      <trkpt lat="43.57127" lon="3.31499">
        <ele>288.7</ele>
        <time>2023-05-13T14:45:25.000Z</time>
      </trkpt>
      <trkpt lat="43.57136" lon="3.31496">
        <ele>290.3</ele>
        <time>2023-05-13T14:45:29.000Z</time>
      </trkpt>
      <trkpt lat="43.57145" lon="3.31494">
        <ele>291.9</ele>
        <time>2023-05-13T14:45:33.000Z</time>
      </trkpt>
      <trkpt lat="43.57155" lon="3.31492">
        <ele>293.5</ele>
        <time>2023-05-13T14:45:38.000Z</time>
      </trkpt>
      <trkpt lat="43.57165" lon="3.3149">
        <ele>295.5</ele>
        <time>2023-05-13T14:45:43.000Z</time>
      </trkpt>
      <trkpt lat="43.57174" lon="3.31489">
        <ele>297.4</ele>
        <time>2023-05-13T14:45:47.000Z</time>
      </trkpt>
      <trkpt lat="43.57184" lon="3.31488">
        <ele>300</ele>
        <time>2023-05-13T14:45:52.000Z</time>
      </trkpt>
      <trkpt lat="43.57194" lon="3.31488">
        <ele>302.5</ele>
        <time>2023-05-13T14:45:57.000Z</time>
      </trkpt>
      <trkpt lat="43.57203" lon="3.31485">
        <ele>304.6</ele>
        <time>2023-05-13T14:46:01.000Z</time>
      </trkpt>
      <trkpt lat="43.57214" lon="3.31485">
        <ele>306.8</ele>
        <time>2023-05-13T14:46:06.000Z</time>
      </trkpt>
      <trkpt lat="43.57224" lon="3.31485">
        <ele>308.6</ele>
        <time>2023-05-13T14:46:11.000Z</time>
      </trkpt>
      <trkpt lat="43.57234" lon="3.31483">
        <ele>309.8</ele>
        <time>2023-05-13T14:46:16.000Z</time>
      </trkpt>
      <trkpt lat="43.57243" lon="3.31481">
        <ele>311.3</ele>
        <time>2023-05-13T14:46:21.000Z</time>
      </trkpt>
      <trkpt lat="43.57253" lon="3.31484">
        <ele>313.1</ele>
        <time>2023-05-13T14:46:26.000Z</time>
      </trkpt>
      <trkpt lat="43.57264" lon="3.31483">
        <ele>315</ele>
        <time>2023-05-13T14:46:31.000Z</time>
      </trkpt>
      <trkpt lat="43.57273" lon="3.31481">
        <ele>316.2</ele>
        <time>2023-05-13T14:46:36.000Z</time>
      </trkpt>
      <trkpt lat="43.5727" lon="3.31495">
        <ele>317.6</ele>
        <time>2023-05-13T14:46:45.000Z</time>
      </trkpt>
      <trkpt lat="43.57261" lon="3.31499">
        <ele>318.2</ele>
        <time>2023-05-13T14:46:49.000Z</time>
      </trkpt>
      <trkpt lat="43.57251" lon="3.31504">
        <ele>318.9</ele>
        <time>2023-05-13T14:46:53.000Z</time>
      </trkpt>
      <trkpt lat="43.57242" lon="3.31512">
        <ele>319.7</ele>
        <time>2023-05-13T14:46:57.000Z</time>
      </trkpt>
      <trkpt lat="43.57235" lon="3.31521">
        <ele>320.6</ele>
        <time>2023-05-13T14:47:01.000Z</time>
      </trkpt>
      <trkpt lat="43.57225" lon="3.31529">
        <ele>321.3</ele>
        <time>2023-05-13T14:47:05.000Z</time>
      </trkpt>
      <trkpt lat="43.57216" lon="3.31538">
        <ele>321.6</ele>
        <time>2023-05-13T14:47:09.000Z</time>
      </trkpt>
      <trkpt lat="43.57207" lon="3.31548">
        <ele>321.9</ele>
        <time>2023-05-13T14:47:13.000Z</time>
      </trkpt>
      <trkpt lat="43.57199" lon="3.3156">
        <ele>322.3</ele>
        <time>2023-05-13T14:47:17.000Z</time>
      </trkpt>
      <trkpt lat="43.57194" lon="3.31571">
        <ele>323</ele>
        <time>2023-05-13T14:47:21.000Z</time>
      </trkpt>
      <trkpt lat="43.57192" lon="3.31584">
        <ele>323.9</ele>
        <time>2023-05-13T14:47:25.000Z</time>
      </trkpt>
      <trkpt lat="43.57187" lon="3.31598">
        <ele>325.7</ele>
        <time>2023-05-13T14:47:30.000Z</time>
      </trkpt>
      <trkpt lat="43.57181" lon="3.31607">
        <ele>327.1</ele>
        <time>2023-05-13T14:47:34.000Z</time>
      </trkpt>
      <trkpt lat="43.57179" lon="3.3162">
        <ele>328.4</ele>
        <time>2023-05-13T14:47:38.000Z</time>
      </trkpt>
      <trkpt lat="43.57176" lon="3.31635">
        <ele>329.1</ele>
        <time>2023-05-13T14:47:42.000Z</time>
      </trkpt>
      <trkpt lat="43.57176" lon="3.31651">
        <ele>329.8</ele>
        <time>2023-05-13T14:47:46.000Z</time>
      </trkpt>
      <trkpt lat="43.57177" lon="3.31665">
        <ele>330.2</ele>
        <time>2023-05-13T14:47:50.000Z</time>
      </trkpt>
      <trkpt lat="43.57177" lon="3.31678">
        <ele>330.8</ele>
        <time>2023-05-13T14:47:54.000Z</time>
      </trkpt>
      <trkpt lat="43.57178" lon="3.31695">
        <ele>331.4</ele>
        <time>2023-05-13T14:47:58.000Z</time>
      </trkpt>
      <trkpt lat="43.57181" lon="3.31707">
        <ele>331.8</ele>
        <time>2023-05-13T14:48:01.000Z</time>
      </trkpt>
      <trkpt lat="43.57185" lon="3.3172">
        <ele>332.3</ele>
        <time>2023-05-13T14:48:04.000Z</time>
      </trkpt>
      <trkpt lat="43.57188" lon="3.31735">
        <ele>332.8</ele>
        <time>2023-05-13T14:48:08.000Z</time>
      </trkpt>
      <trkpt lat="43.57191" lon="3.31751">
        <ele>333.2</ele>
        <time>2023-05-13T14:48:12.000Z</time>
      </trkpt>
      <trkpt lat="43.57195" lon="3.31765">
        <ele>333.4</ele>
        <time>2023-05-13T14:48:16.000Z</time>
      </trkpt>
      <trkpt lat="43.572" lon="3.31779">
        <ele>333.5</ele>
        <time>2023-05-13T14:48:21.000Z</time>
      </trkpt>
      <trkpt lat="43.5721" lon="3.31788">
        <ele>333.5</ele>
        <time>2023-05-13T14:48:25.000Z</time>
      </trkpt>
      <trkpt lat="43.5722" lon="3.31797">
        <ele>333.5</ele>
        <time>2023-05-13T14:48:29.000Z</time>
      </trkpt>
      <trkpt lat="43.57232" lon="3.318">
        <ele>333.5</ele>
        <time>2023-05-13T14:48:33.000Z</time>
      </trkpt>
      <trkpt lat="43.57243" lon="3.31804">
        <ele>333.4</ele>
        <time>2023-05-13T14:48:36.000Z</time>
      </trkpt>
      <trkpt lat="43.57254" lon="3.31807">
        <ele>333.4</ele>
        <time>2023-05-13T14:48:40.000Z</time>
      </trkpt>
      <trkpt lat="43.57265" lon="3.31809">
        <ele>333.4</ele>
        <time>2023-05-13T14:48:44.000Z</time>
      </trkpt>
      <trkpt lat="43.57275" lon="3.3181">
        <ele>333.5</ele>
        <time>2023-05-13T14:48:47.000Z</time>
      </trkpt>
      <trkpt lat="43.57284" lon="3.3181">
        <ele>333.5</ele>
        <time>2023-05-13T14:48:50.000Z</time>
      </trkpt>
      <trkpt lat="43.57295" lon="3.31813">
        <ele>333.7</ele>
        <time>2023-05-13T14:48:54.000Z</time>
      </trkpt>
      <trkpt lat="43.57303" lon="3.31822">
        <ele>334.1</ele>
        <time>2023-05-13T14:48:59.000Z</time>
      </trkpt>
      <trkpt lat="43.57309" lon="3.31833">
        <ele>334.5</ele>
        <time>2023-05-13T14:49:04.000Z</time>
      </trkpt>
      <trkpt lat="43.57315" lon="3.31845">
        <ele>335</ele>
        <time>2023-05-13T14:49:10.000Z</time>
      </trkpt>
      <trkpt lat="43.5732" lon="3.31857">
        <ele>335.7</ele>
        <time>2023-05-13T14:49:15.000Z</time>
      </trkpt>
      <trkpt lat="43.57326" lon="3.3187">
        <ele>336.4</ele>
        <time>2023-05-13T14:49:19.000Z</time>
      </trkpt>
      <trkpt lat="43.57332" lon="3.31881">
        <ele>336.9</ele>
        <time>2023-05-13T14:49:22.000Z</time>
      </trkpt>
      <trkpt lat="43.5734" lon="3.31893">
        <ele>337.3</ele>
        <time>2023-05-13T14:49:25.000Z</time>
      </trkpt>
      <trkpt lat="43.5735" lon="3.31902">
        <ele>337.6</ele>
        <time>2023-05-13T14:49:28.000Z</time>
      </trkpt>
      <trkpt lat="43.57362" lon="3.319">
        <ele>337.8</ele>
        <time>2023-05-13T14:49:31.000Z</time>
      </trkpt>
      <trkpt lat="43.57373" lon="3.31893">
        <ele>338.2</ele>
        <time>2023-05-13T14:49:34.000Z</time>
      </trkpt>
      <trkpt lat="43.57385" lon="3.31886">
        <ele>338.6</ele>
        <time>2023-05-13T14:49:37.000Z</time>
      </trkpt>
      <trkpt lat="43.57396" lon="3.31878">
        <ele>338.9</ele>
        <time>2023-05-13T14:49:40.000Z</time>
      </trkpt>
      <trkpt lat="43.57407" lon="3.31872">
        <ele>339.5</ele>
        <time>2023-05-13T14:49:43.000Z</time>
      </trkpt>
      <trkpt lat="43.57416" lon="3.31866">
        <ele>340.1</ele>
        <time>2023-05-13T14:49:46.000Z</time>
      </trkpt>
      <trkpt lat="43.57426" lon="3.31863">
        <ele>340.8</ele>
        <time>2023-05-13T14:49:49.000Z</time>
      </trkpt>
      <trkpt lat="43.57435" lon="3.31866">
        <ele>341.9</ele>
        <time>2023-05-13T14:49:54.000Z</time>
      </trkpt>
      <trkpt lat="43.57441" lon="3.31877">
        <ele>341.6</ele>
        <time>2023-05-13T14:49:59.000Z</time>
      </trkpt>
      <trkpt lat="43.57446" lon="3.31894">
        <ele>340.9</ele>
        <time>2023-05-13T14:50:02.000Z</time>
      </trkpt>
      <trkpt lat="43.5745" lon="3.31907">
        <ele>340.3</ele>
        <time>2023-05-13T14:50:04.000Z</time>
      </trkpt>
      <trkpt lat="43.57454" lon="3.3192">
        <ele>339.1</ele>
        <time>2023-05-13T14:50:06.000Z</time>
      </trkpt>
      <trkpt lat="43.57459" lon="3.31936">
        <ele>337.2</ele>
        <time>2023-05-13T14:50:08.000Z</time>
      </trkpt>
      <trkpt lat="43.57462" lon="3.31949">
        <ele>335</ele>
        <time>2023-05-13T14:50:10.000Z</time>
      </trkpt>
      <trkpt lat="43.57465" lon="3.31965">
        <ele>332</ele>
        <time>2023-05-13T14:50:13.000Z</time>
      </trkpt>
      <trkpt lat="43.57471" lon="3.31977">
        <ele>330.1</ele>
        <time>2023-05-13T14:50:15.000Z</time>
      </trkpt>
      <trkpt lat="43.57478" lon="3.31994">
        <ele>327.8</ele>
        <time>2023-05-13T14:50:18.000Z</time>
      </trkpt>
      <trkpt lat="43.57482" lon="3.32006">
        <ele>326.3</ele>
        <time>2023-05-13T14:50:20.000Z</time>
      </trkpt>
      <trkpt lat="43.57489" lon="3.3202">
        <ele>324.3</ele>
        <time>2023-05-13T14:50:23.000Z</time>
      </trkpt>
      <trkpt lat="43.57494" lon="3.32036">
        <ele>322.2</ele>
        <time>2023-05-13T14:50:26.000Z</time>
      </trkpt>
      <trkpt lat="43.57501" lon="3.3205">
        <ele>320</ele>
        <time>2023-05-13T14:50:29.000Z</time>
      </trkpt>
      <trkpt lat="43.57507" lon="3.32063">
        <ele>317.5</ele>
        <time>2023-05-13T14:50:32.000Z</time>
      </trkpt>
      <trkpt lat="43.57514" lon="3.32073">
        <ele>315.1</ele>
        <time>2023-05-13T14:50:35.000Z</time>
      </trkpt>
      <trkpt lat="43.57522" lon="3.32085">
        <ele>311.4</ele>
        <time>2023-05-13T14:50:40.000Z</time>
      </trkpt>
      <trkpt lat="43.57522" lon="3.32098">
        <ele>309.4</ele>
        <time>2023-05-13T14:50:44.000Z</time>
      </trkpt>
      <trkpt lat="43.57525" lon="3.32112">
        <ele>308.4</ele>
        <time>2023-05-13T14:50:48.000Z</time>
      </trkpt>
      <trkpt lat="43.57525" lon="3.3212">
        <ele>307.5</ele>
        <time>2023-05-13T14:50:53.000Z</time>
      </trkpt>
      <trkpt lat="43.57525" lon="3.3212">
        <ele>306.8</ele>
        <time>2023-05-13T14:51:12.000Z</time>
      </trkpt>
      <trkpt lat="43.57525" lon="3.3212">
        <ele>306.8</ele>
        <time>2023-05-13T14:51:13.000Z</time>
      </trkpt>
      <trkpt lat="43.57525" lon="3.32121">
        <ele>306.7</ele>
        <time>2023-05-13T14:51:24.000Z</time>
      </trkpt>
      <trkpt lat="43.57527" lon="3.32134">
        <ele>306.5</ele>
        <time>2023-05-13T14:51:31.000Z</time>
      </trkpt>
      <trkpt lat="43.57529" lon="3.32148">
        <ele>305.5</ele>
        <time>2023-05-13T14:51:36.000Z</time>
      </trkpt>
      <trkpt lat="43.5753" lon="3.32161">
        <ele>303.3</ele>
        <time>2023-05-13T14:51:41.000Z</time>
      </trkpt>
      <trkpt lat="43.57531" lon="3.32176">
        <ele>300.6</ele>
        <time>2023-05-13T14:51:45.000Z</time>
      </trkpt>
      <trkpt lat="43.57524" lon="3.32188">
        <ele>298.9</ele>
        <time>2023-05-13T14:51:50.000Z</time>
      </trkpt>
      <trkpt lat="43.57518" lon="3.322">
        <ele>297.9</ele>
        <time>2023-05-13T14:51:56.000Z</time>
      </trkpt>
      <trkpt lat="43.57517" lon="3.32213">
        <ele>296.6</ele>
        <time>2023-05-13T14:52:01.000Z</time>
      </trkpt>
      <trkpt lat="43.57526" lon="3.32206">
        <ele>294.9</ele>
        <time>2023-05-13T14:52:07.000Z</time>
      </trkpt>
      <trkpt lat="43.57536" lon="3.32197">
        <ele>294.4</ele>
        <time>2023-05-13T14:52:11.000Z</time>
      </trkpt>
      <trkpt lat="43.57544" lon="3.32188">
        <ele>294</ele>
        <time>2023-05-13T14:52:14.000Z</time>
      </trkpt>
      <trkpt lat="43.57552" lon="3.32175">
        <ele>293.4</ele>
        <time>2023-05-13T14:52:17.000Z</time>
      </trkpt>
      <trkpt lat="43.57558" lon="3.32163">
        <ele>293</ele>
        <time>2023-05-13T14:52:19.000Z</time>
      </trkpt>
      <trkpt lat="43.57567" lon="3.32158">
        <ele>292.5</ele>
        <time>2023-05-13T14:52:21.000Z</time>
      </trkpt>
      <trkpt lat="43.57575" lon="3.32167">
        <ele>292.1</ele>
        <time>2023-05-13T14:52:23.000Z</time>
      </trkpt>
      <trkpt lat="43.57579" lon="3.32179">
        <ele>291.5</ele>
        <time>2023-05-13T14:52:25.000Z</time>
      </trkpt>
      <trkpt lat="43.57585" lon="3.3219">
        <ele>291.2</ele>
        <time>2023-05-13T14:52:27.000Z</time>
      </trkpt>
      <trkpt lat="43.57594" lon="3.32195">
        <ele>290.9</ele>
        <time>2023-05-13T14:52:29.000Z</time>
      </trkpt>
      <trkpt lat="43.57604" lon="3.32194">
        <ele>290.5</ele>
        <time>2023-05-13T14:52:31.000Z</time>
      </trkpt>
      <trkpt lat="43.57615" lon="3.3219">
        <ele>290</ele>
        <time>2023-05-13T14:52:33.000Z</time>
      </trkpt>
      <trkpt lat="43.57627" lon="3.32183">
        <ele>289.7</ele>
        <time>2023-05-13T14:52:35.000Z</time>
      </trkpt>
      <trkpt lat="43.57638" lon="3.32175">
        <ele>289</ele>
        <time>2023-05-13T14:52:37.000Z</time>
      </trkpt>
      <trkpt lat="43.5765" lon="3.32167">
        <ele>288.1</ele>
        <time>2023-05-13T14:52:39.000Z</time>
      </trkpt>
      <trkpt lat="43.57663" lon="3.32158">
        <ele>287</ele>
        <time>2023-05-13T14:52:41.000Z</time>
      </trkpt>
      <trkpt lat="43.57678" lon="3.32152">
        <ele>285.9</ele>
        <time>2023-05-13T14:52:43.000Z</time>
      </trkpt>
      <trkpt lat="43.57692" lon="3.32146">
        <ele>284.8</ele>
        <time>2023-05-13T14:52:45.000Z</time>
      </trkpt>
      <trkpt lat="43.57705" lon="3.3214">
        <ele>283.5</ele>
        <time>2023-05-13T14:52:47.000Z</time>
      </trkpt>
      <trkpt lat="43.57719" lon="3.32131">
        <ele>282.3</ele>
        <time>2023-05-13T14:52:49.000Z</time>
      </trkpt>
      <trkpt lat="43.57734" lon="3.32117">
        <ele>281.5</ele>
        <time>2023-05-13T14:52:51.000Z</time>
      </trkpt>
      <trkpt lat="43.57741" lon="3.32105">
        <ele>280.7</ele>
        <time>2023-05-13T14:52:53.000Z</time>
      </trkpt>
      <trkpt lat="43.57752" lon="3.32098">
        <ele>279.4</ele>
        <time>2023-05-13T14:52:56.000Z</time>
      </trkpt>
      <trkpt lat="43.57748" lon="3.32113">
        <ele>278.1</ele>
        <time>2023-05-13T14:52:59.000Z</time>
      </trkpt>
      <trkpt lat="43.57739" lon="3.32122">
        <ele>277.2</ele>
        <time>2023-05-13T14:53:01.000Z</time>
      </trkpt>
      <trkpt lat="43.57731" lon="3.32132">
        <ele>276.3</ele>
        <time>2023-05-13T14:53:03.000Z</time>
      </trkpt>
      <trkpt lat="43.57723" lon="3.32143">
        <ele>275.4</ele>
        <time>2023-05-13T14:53:05.000Z</time>
      </trkpt>
      <trkpt lat="43.57714" lon="3.32154">
        <ele>274.6</ele>
        <time>2023-05-13T14:53:07.000Z</time>
      </trkpt>
      <trkpt lat="43.57704" lon="3.32166">
        <ele>273.7</ele>
        <time>2023-05-13T14:53:09.000Z</time>
      </trkpt>
      <trkpt lat="43.57695" lon="3.3218">
        <ele>272.6</ele>
        <time>2023-05-13T14:53:11.000Z</time>
      </trkpt>
      <trkpt lat="43.57688" lon="3.32189">
        <ele>271.5</ele>
        <time>2023-05-13T14:53:13.000Z</time>
      </trkpt>
      <trkpt lat="43.57683" lon="3.32205">
        <ele>269.9</ele>
        <time>2023-05-13T14:53:16.000Z</time>
      </trkpt>
      <trkpt lat="43.57691" lon="3.32211">
        <ele>268.5</ele>
        <time>2023-05-13T14:53:20.000Z</time>
      </trkpt>
      <trkpt lat="43.57696" lon="3.32209">
        <ele>267.7</ele>
        <time>2023-05-13T14:53:26.000Z</time>
      </trkpt>
      <trkpt lat="43.57696" lon="3.32209">
        <ele>267.3</ele>
        <time>2023-05-13T14:53:35.000Z</time>
      </trkpt>
      <trkpt lat="43.57696" lon="3.32209">
        <ele>267.3</ele>
        <time>2023-05-13T14:53:36.000Z</time>
      </trkpt>
      <trkpt lat="43.57696" lon="3.32209">
        <ele>267.1</ele>
        <time>2023-05-13T14:53:43.000Z</time>
      </trkpt>
      <trkpt lat="43.57691" lon="3.32221">
        <ele>267.1</ele>
        <time>2023-05-13T14:53:50.000Z</time>
      </trkpt>
      <trkpt lat="43.57699" lon="3.32214">
        <ele>267.1</ele>
        <time>2023-05-13T14:53:57.000Z</time>
      </trkpt>
      <trkpt lat="43.57706" lon="3.32225">
        <ele>267.3</ele>
        <time>2023-05-13T14:54:01.000Z</time>
      </trkpt>
      <trkpt lat="43.5771" lon="3.32238">
        <ele>267.8</ele>
        <time>2023-05-13T14:54:05.000Z</time>
      </trkpt>
      <trkpt lat="43.57712" lon="3.3225">
        <ele>269.3</ele>
        <time>2023-05-13T14:54:11.000Z</time>
      </trkpt>
      <trkpt lat="43.57706" lon="3.32261">
        <ele>271.1</ele>
        <time>2023-05-13T14:54:17.000Z</time>
      </trkpt>
      <trkpt lat="43.57695" lon="3.32266">
        <ele>271.8</ele>
        <time>2023-05-13T14:54:22.000Z</time>
      </trkpt>
      <trkpt lat="43.57684" lon="3.3227">
        <ele>271.7</ele>
        <time>2023-05-13T14:54:25.000Z</time>
      </trkpt>
      <trkpt lat="43.57675" lon="3.32274">
        <ele>271.5</ele>
        <time>2023-05-13T14:54:27.000Z</time>
      </trkpt>
      <trkpt lat="43.57665" lon="3.32283">
        <ele>271.1</ele>
        <time>2023-05-13T14:54:29.000Z</time>
      </trkpt>
      <trkpt lat="43.57653" lon="3.32295">
        <ele>270.5</ele>
        <time>2023-05-13T14:54:31.000Z</time>
      </trkpt>
      <trkpt lat="43.57641" lon="3.32307">
        <ele>269.7</ele>
        <time>2023-05-13T14:54:33.000Z</time>
      </trkpt>
      <trkpt lat="43.57629" lon="3.3232">
        <ele>269.2</ele>
        <time>2023-05-13T14:54:35.000Z</time>
      </trkpt>
      <trkpt lat="43.57618" lon="3.32333">
        <ele>268.7</ele>
        <time>2023-05-13T14:54:37.000Z</time>
      </trkpt>
      <trkpt lat="43.57607" lon="3.32344">
        <ele>268.3</ele>
        <time>2023-05-13T14:54:39.000Z</time>
      </trkpt>
      <trkpt lat="43.57597" lon="3.32353">
        <ele>267.8</ele>
        <time>2023-05-13T14:54:41.000Z</time>
      </trkpt>
      <trkpt lat="43.57588" lon="3.32361">
        <ele>267.4</ele>
        <time>2023-05-13T14:54:43.000Z</time>
      </trkpt>
      <trkpt lat="43.57579" lon="3.32369">
        <ele>267.1</ele>
        <time>2023-05-13T14:54:45.000Z</time>
      </trkpt>
      <trkpt lat="43.57571" lon="3.32376">
        <ele>266.6</ele>
        <time>2023-05-13T14:54:47.000Z</time>
      </trkpt>
      <trkpt lat="43.57563" lon="3.32383">
        <ele>266.3</ele>
        <time>2023-05-13T14:54:49.000Z</time>
      </trkpt>
      <trkpt lat="43.57552" lon="3.32392">
        <ele>266.1</ele>
        <time>2023-05-13T14:54:52.000Z</time>
      </trkpt>
      <trkpt lat="43.57543" lon="3.32399">
        <ele>266</ele>
        <time>2023-05-13T14:54:55.000Z</time>
      </trkpt>
      <trkpt lat="43.57534" lon="3.32406">
        <ele>265.9</ele>
        <time>2023-05-13T14:54:58.000Z</time>
      </trkpt>
      <trkpt lat="43.57525" lon="3.32414">
        <ele>265.8</ele>
        <time>2023-05-13T14:55:01.000Z</time>
      </trkpt>
      <trkpt lat="43.57517" lon="3.32423">
        <ele>265.8</ele>
        <time>2023-05-13T14:55:04.000Z</time>
      </trkpt>
      <trkpt lat="43.57508" lon="3.32429">
        <ele>265.8</ele>
        <time>2023-05-13T14:55:07.000Z</time>
      </trkpt>
      <trkpt lat="43.57499" lon="3.32436">
        <ele>265.9</ele>
        <time>2023-05-13T14:55:10.000Z</time>
      </trkpt>
      <trkpt lat="43.5749" lon="3.32443">
        <ele>266</ele>
        <time>2023-05-13T14:55:13.000Z</time>
      </trkpt>
      <trkpt lat="43.5748" lon="3.32451">
        <ele>266.1</ele>
        <time>2023-05-13T14:55:16.000Z</time>
      </trkpt>
      <trkpt lat="43.57471" lon="3.32457">
        <ele>266.3</ele>
        <time>2023-05-13T14:55:19.000Z</time>
      </trkpt>
      <trkpt lat="43.57461" lon="3.32464">
        <ele>266.4</ele>
        <time>2023-05-13T14:55:22.000Z</time>
      </trkpt>
      <trkpt lat="43.57449" lon="3.32473">
        <ele>266.7</ele>
        <time>2023-05-13T14:55:25.000Z</time>
      </trkpt>
      <trkpt lat="43.57439" lon="3.3248">
        <ele>267</ele>
        <time>2023-05-13T14:55:28.000Z</time>
      </trkpt>
      <trkpt lat="43.57427" lon="3.32487">
        <ele>267.2</ele>
        <time>2023-05-13T14:55:31.000Z</time>
      </trkpt>
      <trkpt lat="43.57416" lon="3.32494">
        <ele>267.5</ele>
        <time>2023-05-13T14:55:34.000Z</time>
      </trkpt>
      <trkpt lat="43.57404" lon="3.325">
        <ele>267.8</ele>
        <time>2023-05-13T14:55:37.000Z</time>
      </trkpt>
      <trkpt lat="43.57392" lon="3.32506">
        <ele>268.1</ele>
        <time>2023-05-13T14:55:40.000Z</time>
      </trkpt>
      <trkpt lat="43.57379" lon="3.32511">
        <ele>268.5</ele>
        <time>2023-05-13T14:55:43.000Z</time>
      </trkpt>
      <trkpt lat="43.57367" lon="3.32515">
        <ele>268.9</ele>
        <time>2023-05-13T14:55:46.000Z</time>
      </trkpt>
      <trkpt lat="43.57356" lon="3.3252">
        <ele>269.3</ele>
        <time>2023-05-13T14:55:49.000Z</time>
      </trkpt>
      <trkpt lat="43.57344" lon="3.32527">
        <ele>269.7</ele>
        <time>2023-05-13T14:55:52.000Z</time>
      </trkpt>
      <trkpt lat="43.57333" lon="3.32535">
        <ele>270.1</ele>
        <time>2023-05-13T14:55:55.000Z</time>
      </trkpt>
      <trkpt lat="43.57323" lon="3.32544">
        <ele>270.5</ele>
        <time>2023-05-13T14:55:58.000Z</time>
      </trkpt>
      <trkpt lat="43.5731" lon="3.32551">
        <ele>271</ele>
        <time>2023-05-13T14:56:01.000Z</time>
      </trkpt>
      <trkpt lat="43.57301" lon="3.32552">
        <ele>271.2</ele>
        <time>2023-05-13T14:56:03.000Z</time>
      </trkpt>
      <trkpt lat="43.57288" lon="3.32556">
        <ele>271.6</ele>
        <time>2023-05-13T14:56:06.000Z</time>
      </trkpt>
      <trkpt lat="43.57276" lon="3.32565">
        <ele>271.9</ele>
        <time>2023-05-13T14:56:09.000Z</time>
      </trkpt>
      <trkpt lat="43.57269" lon="3.32573">
        <ele>272</ele>
        <time>2023-05-13T14:56:11.000Z</time>
      </trkpt>
      <trkpt lat="43.57261" lon="3.32581">
        <ele>272.1</ele>
        <time>2023-05-13T14:56:13.000Z</time>
      </trkpt>
      <trkpt lat="43.57253" lon="3.32588">
        <ele>272.1</ele>
        <time>2023-05-13T14:56:15.000Z</time>
      </trkpt>
      <trkpt lat="43.57244" lon="3.32595">
        <ele>272.1</ele>
        <time>2023-05-13T14:56:17.000Z</time>
      </trkpt>
      <trkpt lat="43.57235" lon="3.32599">
        <ele>272</ele>
        <time>2023-05-13T14:56:19.000Z</time>
      </trkpt>
      <trkpt lat="43.57225" lon="3.32604">
        <ele>272</ele>
        <time>2023-05-13T14:56:21.000Z</time>
      </trkpt>
      <trkpt lat="43.57215" lon="3.32608">
        <ele>271.9</ele>
        <time>2023-05-13T14:56:23.000Z</time>
      </trkpt>
      <trkpt lat="43.57204" lon="3.32614">
        <ele>271.8</ele>
        <time>2023-05-13T14:56:25.000Z</time>
      </trkpt>
      <trkpt lat="43.57194" lon="3.32619">
        <ele>271.6</ele>
        <time>2023-05-13T14:56:27.000Z</time>
      </trkpt>
      <trkpt lat="43.57182" lon="3.32627">
        <ele>271.4</ele>
        <time>2023-05-13T14:56:29.000Z</time>
      </trkpt>
      <trkpt lat="43.57171" lon="3.32638">
        <ele>271.2</ele>
        <time>2023-05-13T14:56:31.000Z</time>
      </trkpt>
      <trkpt lat="43.57161" lon="3.32651">
        <ele>271</ele>
        <time>2023-05-13T14:56:33.000Z</time>
      </trkpt>
      <trkpt lat="43.57153" lon="3.32665">
        <ele>270.7</ele>
        <time>2023-05-13T14:56:35.000Z</time>
      </trkpt>
      <trkpt lat="43.57148" lon="3.32682">
        <ele>270.4</ele>
        <time>2023-05-13T14:56:37.000Z</time>
      </trkpt>
      <trkpt lat="43.57145" lon="3.327">
        <ele>270</ele>
        <time>2023-05-13T14:56:39.000Z</time>
      </trkpt>
      <trkpt lat="43.57144" lon="3.32719">
        <ele>269.5</ele>
        <time>2023-05-13T14:56:41.000Z</time>
      </trkpt>
      <trkpt lat="43.57143" lon="3.32737">
        <ele>268.9</ele>
        <time>2023-05-13T14:56:43.000Z</time>
      </trkpt>
      <trkpt lat="43.57142" lon="3.32755">
        <ele>268.5</ele>
        <time>2023-05-13T14:56:45.000Z</time>
      </trkpt>
      <trkpt lat="43.57141" lon="3.32772">
        <ele>268.1</ele>
        <time>2023-05-13T14:56:47.000Z</time>
      </trkpt>
      <trkpt lat="43.57142" lon="3.32787">
        <ele>267.8</ele>
        <time>2023-05-13T14:56:49.000Z</time>
      </trkpt>
      <trkpt lat="43.57146" lon="3.32801">
        <ele>267.5</ele>
        <time>2023-05-13T14:56:51.000Z</time>
      </trkpt>
      <trkpt lat="43.57154" lon="3.32812">
        <ele>267.1</ele>
        <time>2023-05-13T14:56:53.000Z</time>
      </trkpt>
      <trkpt lat="43.57165" lon="3.32817">
        <ele>266.7</ele>
        <time>2023-05-13T14:56:55.000Z</time>
      </trkpt>
      <trkpt lat="43.57178" lon="3.32814">
        <ele>266.3</ele>
        <time>2023-05-13T14:56:57.000Z</time>
      </trkpt>
      <trkpt lat="43.5719" lon="3.32806">
        <ele>265.8</ele>
        <time>2023-05-13T14:56:59.000Z</time>
      </trkpt>
      <trkpt lat="43.57202" lon="3.32798">
        <ele>265.4</ele>
        <time>2023-05-13T14:57:01.000Z</time>
      </trkpt>
      <trkpt lat="43.57214" lon="3.32791">
        <ele>265</ele>
        <time>2023-05-13T14:57:03.000Z</time>
      </trkpt>
      <trkpt lat="43.57226" lon="3.32791">
        <ele>264.4</ele>
        <time>2023-05-13T14:57:05.000Z</time>
      </trkpt>
      <trkpt lat="43.57232" lon="3.32805">
        <ele>263.9</ele>
        <time>2023-05-13T14:57:07.000Z</time>
      </trkpt>
      <trkpt lat="43.57226" lon="3.3282">
        <ele>263.4</ele>
        <time>2023-05-13T14:57:09.000Z</time>
      </trkpt>
      <trkpt lat="43.57221" lon="3.32834">
        <ele>262.9</ele>
        <time>2023-05-13T14:57:11.000Z</time>
      </trkpt>
      <trkpt lat="43.57215" lon="3.32851">
        <ele>262.4</ele>
        <time>2023-05-13T14:57:13.000Z</time>
      </trkpt>
      <trkpt lat="43.5721" lon="3.32869">
        <ele>261.9</ele>
        <time>2023-05-13T14:57:15.000Z</time>
      </trkpt>
      <trkpt lat="43.57204" lon="3.32888">
        <ele>261.3</ele>
        <time>2023-05-13T14:57:17.000Z</time>
      </trkpt>
      <trkpt lat="43.57197" lon="3.32907">
        <ele>260.6</ele>
        <time>2023-05-13T14:57:19.000Z</time>
      </trkpt>
      <trkpt lat="43.57193" lon="3.32928">
        <ele>259.8</ele>
        <time>2023-05-13T14:57:21.000Z</time>
      </trkpt>
      <trkpt lat="43.57191" lon="3.32951">
        <ele>258.9</ele>
        <time>2023-05-13T14:57:23.000Z</time>
      </trkpt>
      <trkpt lat="43.5719" lon="3.32974">
        <ele>258.1</ele>
        <time>2023-05-13T14:57:25.000Z</time>
      </trkpt>
      <trkpt lat="43.5719" lon="3.32996">
        <ele>257.5</ele>
        <time>2023-05-13T14:57:27.000Z</time>
      </trkpt>
      <trkpt lat="43.57192" lon="3.33016">
        <ele>256.9</ele>
        <time>2023-05-13T14:57:29.000Z</time>
      </trkpt>
      <trkpt lat="43.57192" lon="3.33035">
        <ele>256.4</ele>
        <time>2023-05-13T14:57:31.000Z</time>
      </trkpt>
      <trkpt lat="43.57193" lon="3.33051">
        <ele>256.1</ele>
        <time>2023-05-13T14:57:33.000Z</time>
      </trkpt>
      <trkpt lat="43.57193" lon="3.33065">
        <ele>255.9</ele>
        <time>2023-05-13T14:57:35.000Z</time>
      </trkpt>
      <trkpt lat="43.57192" lon="3.33077">
        <ele>255.7</ele>
        <time>2023-05-13T14:57:37.000Z</time>
      </trkpt>
      <trkpt lat="43.57192" lon="3.3309">
        <ele>255.5</ele>
        <time>2023-05-13T14:57:39.000Z</time>
      </trkpt>
      <trkpt lat="43.57194" lon="3.33102">
        <ele>255.5</ele>
        <time>2023-05-13T14:57:41.000Z</time>
      </trkpt>
      <trkpt lat="43.57197" lon="3.33114">
        <ele>255.5</ele>
        <time>2023-05-13T14:57:43.000Z</time>
      </trkpt>
      <trkpt lat="43.57203" lon="3.33124">
        <ele>255.6</ele>
        <time>2023-05-13T14:57:45.000Z</time>
      </trkpt>
      <trkpt lat="43.57211" lon="3.33132">
        <ele>255.8</ele>
        <time>2023-05-13T14:57:47.000Z</time>
      </trkpt>
      <trkpt lat="43.5722" lon="3.33139">
        <ele>255.9</ele>
        <time>2023-05-13T14:57:49.000Z</time>
      </trkpt>
      <trkpt lat="43.57229" lon="3.33143">
        <ele>255.9</ele>
        <time>2023-05-13T14:57:51.000Z</time>
      </trkpt>
      <trkpt lat="43.57239" lon="3.33146">
        <ele>256</ele>
        <time>2023-05-13T14:57:53.000Z</time>
      </trkpt>
      <trkpt lat="43.57248" lon="3.33151">
        <ele>256</ele>
        <time>2023-05-13T14:57:55.000Z</time>
      </trkpt>
      <trkpt lat="43.57254" lon="3.33165">
        <ele>256.1</ele>
        <time>2023-05-13T14:57:58.000Z</time>
      </trkpt>
      <trkpt lat="43.57256" lon="3.3318">
        <ele>256.3</ele>
        <time>2023-05-13T14:58:01.000Z</time>
      </trkpt>
      <trkpt lat="43.57256" lon="3.33195">
        <ele>256.4</ele>
        <time>2023-05-13T14:58:04.000Z</time>
      </trkpt>
      <trkpt lat="43.57255" lon="3.33212">
        <ele>256.6</ele>
        <time>2023-05-13T14:58:07.000Z</time>
      </trkpt>
      <trkpt lat="43.57256" lon="3.33229">
        <ele>256.6</ele>
        <time>2023-05-13T14:58:10.000Z</time>
      </trkpt>
      <trkpt lat="43.57257" lon="3.33242">
        <ele>256.6</ele>
        <time>2023-05-13T14:58:12.000Z</time>
      </trkpt>
      <trkpt lat="43.57258" lon="3.33255">
        <ele>256.6</ele>
        <time>2023-05-13T14:58:14.000Z</time>
      </trkpt>
      <trkpt lat="43.5726" lon="3.3327">
        <ele>256.5</ele>
        <time>2023-05-13T14:58:16.000Z</time>
      </trkpt>
      <trkpt lat="43.5726" lon="3.33287">
        <ele>256.4</ele>
        <time>2023-05-13T14:58:18.000Z</time>
      </trkpt>
      <trkpt lat="43.57258" lon="3.33302">
        <ele>256.3</ele>
        <time>2023-05-13T14:58:20.000Z</time>
      </trkpt>
      <trkpt lat="43.57254" lon="3.33315">
        <ele>256.3</ele>
        <time>2023-05-13T14:58:22.000Z</time>
      </trkpt>
      <trkpt lat="43.5725" lon="3.33327">
        <ele>256.2</ele>
        <time>2023-05-13T14:58:24.000Z</time>
      </trkpt>
      <trkpt lat="43.57246" lon="3.33339">
        <ele>256.2</ele>
        <time>2023-05-13T14:58:26.000Z</time>
      </trkpt>
      <trkpt lat="43.57242" lon="3.33354">
        <ele>256</ele>
        <time>2023-05-13T14:58:29.000Z</time>
      </trkpt>
      <trkpt lat="43.57238" lon="3.33367">
        <ele>255.9</ele>
        <time>2023-05-13T14:58:32.000Z</time>
      </trkpt>
      <trkpt lat="43.57235" lon="3.33383">
        <ele>255.7</ele>
        <time>2023-05-13T14:58:35.000Z</time>
      </trkpt>
      <trkpt lat="43.57232" lon="3.33399">
        <ele>255.4</ele>
        <time>2023-05-13T14:58:38.000Z</time>
      </trkpt>
      <trkpt lat="43.57224" lon="3.33407">
        <ele>254.8</ele>
        <time>2023-05-13T14:58:42.000Z</time>
      </trkpt>
      <trkpt lat="43.57214" lon="3.33399">
        <ele>254.1</ele>
        <time>2023-05-13T14:58:45.000Z</time>
      </trkpt>
      <trkpt lat="43.57204" lon="3.33393">
        <ele>253.2</ele>
        <time>2023-05-13T14:58:49.000Z</time>
      </trkpt>
      <trkpt lat="43.57196" lon="3.33388">
        <ele>252.4</ele>
        <time>2023-05-13T14:58:55.000Z</time>
      </trkpt>
      <trkpt lat="43.57196" lon="3.33388">
        <ele>251.8</ele>
        <time>2023-05-13T14:59:04.000Z</time>
      </trkpt>
      <trkpt lat="43.57205" lon="3.33394">
        <ele>251.5</ele>
        <time>2023-05-13T14:59:15.000Z</time>
      </trkpt>
      <trkpt lat="43.57215" lon="3.334">
        <ele>251.4</ele>
        <time>2023-05-13T14:59:19.000Z</time>
      </trkpt>
      <trkpt lat="43.57225" lon="3.33409">
        <ele>251.3</ele>
        <time>2023-05-13T14:59:23.000Z</time>
      </trkpt>
      <trkpt lat="43.57228" lon="3.3342">
        <ele>251.3</ele>
        <time>2023-05-13T14:59:27.000Z</time>
      </trkpt>
      <trkpt lat="43.57229" lon="3.33434">
        <ele>251.3</ele>
        <time>2023-05-13T14:59:30.000Z</time>
      </trkpt>
      <trkpt lat="43.57229" lon="3.33452">
        <ele>251.1</ele>
        <time>2023-05-13T14:59:33.000Z</time>
      </trkpt>
      <trkpt lat="43.57227" lon="3.33467">
        <ele>251</ele>
        <time>2023-05-13T14:59:35.000Z</time>
      </trkpt>
      <trkpt lat="43.57226" lon="3.33485">
        <ele>250.8</ele>
        <time>2023-05-13T14:59:37.000Z</time>
      </trkpt>
      <trkpt lat="43.57227" lon="3.33505">
        <ele>250.4</ele>
        <time>2023-05-13T14:59:39.000Z</time>
      </trkpt>
      <trkpt lat="43.57227" lon="3.33521">
        <ele>250</ele>
        <time>2023-05-13T14:59:41.000Z</time>
      </trkpt>
      <trkpt lat="43.57226" lon="3.33536">
        <ele>249.7</ele>
        <time>2023-05-13T14:59:44.000Z</time>
      </trkpt>
      <trkpt lat="43.57225" lon="3.3355">
        <ele>250</ele>
        <time>2023-05-13T14:59:49.000Z</time>
      </trkpt>
      <trkpt lat="43.57222" lon="3.33563">
        <ele>250.6</ele>
        <time>2023-05-13T14:59:53.000Z</time>
      </trkpt>
      <trkpt lat="43.5722" lon="3.33576">
        <ele>251.6</ele>
        <time>2023-05-13T14:59:57.000Z</time>
      </trkpt>
      <trkpt lat="43.57217" lon="3.33588">
        <ele>252.9</ele>
        <time>2023-05-13T15:00:01.000Z</time>
      </trkpt>
      <trkpt lat="43.57218" lon="3.33601">
        <ele>254.3</ele>
        <time>2023-05-13T15:00:05.000Z</time>
      </trkpt>
      <trkpt lat="43.57222" lon="3.33614">
        <ele>255.6</ele>
        <time>2023-05-13T15:00:09.000Z</time>
      </trkpt>
      <trkpt lat="43.57228" lon="3.33626">
        <ele>257</ele>
        <time>2023-05-13T15:00:13.000Z</time>
      </trkpt>
      <trkpt lat="43.57235" lon="3.33638">
        <ele>258.2</ele>
        <time>2023-05-13T15:00:17.000Z</time>
      </trkpt>
      <trkpt lat="43.57243" lon="3.33648">
        <ele>259.5</ele>
        <time>2023-05-13T15:00:21.000Z</time>
      </trkpt>
      <trkpt lat="43.57252" lon="3.33656">
        <ele>260.7</ele>
        <time>2023-05-13T15:00:25.000Z</time>
      </trkpt>
      <trkpt lat="43.57262" lon="3.33659">
        <ele>261.8</ele>
        <time>2023-05-13T15:00:29.000Z</time>
      </trkpt>
      <trkpt lat="43.57274" lon="3.33661">
        <ele>262.7</ele>
        <time>2023-05-13T15:00:33.000Z</time>
      </trkpt>
      <trkpt lat="43.57284" lon="3.33659">
        <ele>263.6</ele>
        <time>2023-05-13T15:00:37.000Z</time>
      </trkpt>
      <trkpt lat="43.57295" lon="3.33655">
        <ele>264.3</ele>
        <time>2023-05-13T15:00:41.000Z</time>
      </trkpt>
      <trkpt lat="43.57306" lon="3.3365">
        <ele>264.9</ele>
        <time>2023-05-13T15:00:45.000Z</time>
      </trkpt>
      <trkpt lat="43.57316" lon="3.33646">
        <ele>265.1</ele>
        <time>2023-05-13T15:00:48.000Z</time>
      </trkpt>
      <trkpt lat="43.57326" lon="3.33643">
        <ele>265.4</ele>
        <time>2023-05-13T15:00:51.000Z</time>
      </trkpt>
      <trkpt lat="43.57336" lon="3.33641">
        <ele>265.8</ele>
        <time>2023-05-13T15:00:54.000Z</time>
      </trkpt>
      <trkpt lat="43.57347" lon="3.33639">
        <ele>266.1</ele>
        <time>2023-05-13T15:00:57.000Z</time>
      </trkpt>
      <trkpt lat="43.57358" lon="3.33638">
        <ele>266.3</ele>
        <time>2023-05-13T15:01:00.000Z</time>
      </trkpt>
      <trkpt lat="43.5737" lon="3.33635">
        <ele>266.5</ele>
        <time>2023-05-13T15:01:03.000Z</time>
      </trkpt>
      <trkpt lat="43.57381" lon="3.33631">
        <ele>266.6</ele>
        <time>2023-05-13T15:01:06.000Z</time>
      </trkpt>
      <trkpt lat="43.57391" lon="3.33624">
        <ele>266.7</ele>
        <time>2023-05-13T15:01:09.000Z</time>
      </trkpt>
      <trkpt lat="43.57401" lon="3.33614">
        <ele>266.7</ele>
        <time>2023-05-13T15:01:12.000Z</time>
      </trkpt>
      <trkpt lat="43.57409" lon="3.33601">
        <ele>266.6</ele>
        <time>2023-05-13T15:01:15.000Z</time>
      </trkpt>
      <trkpt lat="43.57415" lon="3.3359">
        <ele>266.5</ele>
        <time>2023-05-13T15:01:17.000Z</time>
      </trkpt>
      <trkpt lat="43.57422" lon="3.33578">
        <ele>266.3</ele>
        <time>2023-05-13T15:01:19.000Z</time>
      </trkpt>
      <trkpt lat="43.57428" lon="3.33565">
        <ele>266</ele>
        <time>2023-05-13T15:01:21.000Z</time>
      </trkpt>
      <trkpt lat="43.57435" lon="3.33553">
        <ele>265.5</ele>
        <time>2023-05-13T15:01:23.000Z</time>
      </trkpt>
      <trkpt lat="43.57443" lon="3.33544">
        <ele>265.1</ele>
        <time>2023-05-13T15:01:25.000Z</time>
      </trkpt>
      <trkpt lat="43.57454" lon="3.33535">
        <ele>264.5</ele>
        <time>2023-05-13T15:01:28.000Z</time>
      </trkpt>
      <trkpt lat="43.57465" lon="3.33527">
        <ele>264.2</ele>
        <time>2023-05-13T15:01:31.000Z</time>
      </trkpt>
      <trkpt lat="43.57477" lon="3.3352">
        <ele>263.9</ele>
        <time>2023-05-13T15:01:34.000Z</time>
      </trkpt>
      <trkpt lat="43.57486" lon="3.33515">
        <ele>263.5</ele>
        <time>2023-05-13T15:01:36.000Z</time>
      </trkpt>
      <trkpt lat="43.57495" lon="3.33512">
        <ele>263.3</ele>
        <time>2023-05-13T15:01:38.000Z</time>
      </trkpt>
      <trkpt lat="43.57504" lon="3.33508">
        <ele>263.1</ele>
        <time>2023-05-13T15:01:40.000Z</time>
      </trkpt>
      <trkpt lat="43.57514" lon="3.33506">
        <ele>263</ele>
        <time>2023-05-13T15:01:42.000Z</time>
      </trkpt>
      <trkpt lat="43.57525" lon="3.33504">
        <ele>262.7</ele>
        <time>2023-05-13T15:01:44.000Z</time>
      </trkpt>
      <trkpt lat="43.57536" lon="3.335">
        <ele>262.4</ele>
        <time>2023-05-13T15:01:46.000Z</time>
      </trkpt>
      <trkpt lat="43.57548" lon="3.33494">
        <ele>262.1</ele>
        <time>2023-05-13T15:01:48.000Z</time>
      </trkpt>
      <trkpt lat="43.57559" lon="3.33486">
        <ele>261.7</ele>
        <time>2023-05-13T15:01:50.000Z</time>
      </trkpt>
      <trkpt lat="43.57569" lon="3.33478">
        <ele>261.3</ele>
        <time>2023-05-13T15:01:52.000Z</time>
      </trkpt>
      <trkpt lat="43.57579" lon="3.33469">
        <ele>261</ele>
        <time>2023-05-13T15:01:54.000Z</time>
      </trkpt>
      <trkpt lat="43.57587" lon="3.33461">
        <ele>260.7</ele>
        <time>2023-05-13T15:01:56.000Z</time>
      </trkpt>
      <trkpt lat="43.57594" lon="3.33453">
        <ele>260.5</ele>
        <time>2023-05-13T15:01:58.000Z</time>
      </trkpt>
      <trkpt lat="43.57605" lon="3.33442">
        <ele>260.3</ele>
        <time>2023-05-13T15:02:01.000Z</time>
      </trkpt>
      <trkpt lat="43.57617" lon="3.3344">
        <ele>260.4</ele>
        <time>2023-05-13T15:02:04.000Z</time>
      </trkpt>
      <trkpt lat="43.57629" lon="3.33447">
        <ele>260.6</ele>
        <time>2023-05-13T15:02:07.000Z</time>
      </trkpt>
      <trkpt lat="43.57639" lon="3.33457">
        <ele>261.1</ele>
        <time>2023-05-13T15:02:10.000Z</time>
      </trkpt>
      <trkpt lat="43.57644" lon="3.33467">
        <ele>261.5</ele>
        <time>2023-05-13T15:02:12.000Z</time>
      </trkpt>
      <trkpt lat="43.57649" lon="3.33478">
        <ele>262</ele>
        <time>2023-05-13T15:02:14.000Z</time>
      </trkpt>
      <trkpt lat="43.57654" lon="3.33494">
        <ele>262.9</ele>
        <time>2023-05-13T15:02:17.000Z</time>
      </trkpt>
      <trkpt lat="43.57659" lon="3.3351">
        <ele>264.2</ele>
        <time>2023-05-13T15:02:20.000Z</time>
      </trkpt>
      <trkpt lat="43.57667" lon="3.33523">
        <ele>265.8</ele>
        <time>2023-05-13T15:02:23.000Z</time>
      </trkpt>
      <trkpt lat="43.57678" lon="3.33527">
        <ele>266.8</ele>
        <time>2023-05-13T15:02:26.000Z</time>
      </trkpt>
      <trkpt lat="43.57689" lon="3.33521">
        <ele>267.4</ele>
        <time>2023-05-13T15:02:29.000Z</time>
      </trkpt>
      <trkpt lat="43.57701" lon="3.3351">
        <ele>267.8</ele>
        <time>2023-05-13T15:02:32.000Z</time>
      </trkpt>
      <trkpt lat="43.57708" lon="3.33501">
        <ele>268</ele>
        <time>2023-05-13T15:02:34.000Z</time>
      </trkpt>
      <trkpt lat="43.57715" lon="3.3349">
        <ele>268.1</ele>
        <time>2023-05-13T15:02:36.000Z</time>
      </trkpt>
      <trkpt lat="43.57722" lon="3.33479">
        <ele>268.1</ele>
        <time>2023-05-13T15:02:38.000Z</time>
      </trkpt>
      <trkpt lat="43.57731" lon="3.33469">
        <ele>268.1</ele>
        <time>2023-05-13T15:02:40.000Z</time>
      </trkpt>
      <trkpt lat="43.57741" lon="3.3346">
        <ele>268.1</ele>
        <time>2023-05-13T15:02:42.000Z</time>
      </trkpt>
      <trkpt lat="43.57751" lon="3.3345">
        <ele>267.9</ele>
        <time>2023-05-13T15:02:44.000Z</time>
      </trkpt>
      <trkpt lat="43.57762" lon="3.33442">
        <ele>267.8</ele>
        <time>2023-05-13T15:02:46.000Z</time>
      </trkpt>
      <trkpt lat="43.57773" lon="3.33435">
        <ele>267.5</ele>
        <time>2023-05-13T15:02:48.000Z</time>
      </trkpt>
      <trkpt lat="43.57784" lon="3.33429">
        <ele>267.2</ele>
        <time>2023-05-13T15:02:50.000Z</time>
      </trkpt>
      <trkpt lat="43.57796" lon="3.33422">
        <ele>266.9</ele>
        <time>2023-05-13T15:02:52.000Z</time>
      </trkpt>
      <trkpt lat="43.57806" lon="3.33417">
        <ele>266.5</ele>
        <time>2023-05-13T15:02:54.000Z</time>
      </trkpt>
      <trkpt lat="43.57817" lon="3.33412">
        <ele>266.2</ele>
        <time>2023-05-13T15:02:56.000Z</time>
      </trkpt>
      <trkpt lat="43.57827" lon="3.33406">
        <ele>266</ele>
        <time>2023-05-13T15:02:58.000Z</time>
      </trkpt>
      <trkpt lat="43.57836" lon="3.33398">
        <ele>265.9</ele>
        <time>2023-05-13T15:03:00.000Z</time>
      </trkpt>
      <trkpt lat="43.57845" lon="3.3339">
        <ele>265.5</ele>
        <time>2023-05-13T15:03:02.000Z</time>
      </trkpt>
      <trkpt lat="43.57854" lon="3.33382">
        <ele>265.1</ele>
        <time>2023-05-13T15:03:04.000Z</time>
      </trkpt>
      <trkpt lat="43.57863" lon="3.33374">
        <ele>264.6</ele>
        <time>2023-05-13T15:03:06.000Z</time>
      </trkpt>
      <trkpt lat="43.5787" lon="3.33362">
        <ele>264.3</ele>
        <time>2023-05-13T15:03:08.000Z</time>
      </trkpt>
      <trkpt lat="43.57875" lon="3.33349">
        <ele>264</ele>
        <time>2023-05-13T15:03:10.000Z</time>
      </trkpt>
      <trkpt lat="43.57878" lon="3.33336">
        <ele>263.9</ele>
        <time>2023-05-13T15:03:12.000Z</time>
      </trkpt>
      <trkpt lat="43.57881" lon="3.33323">
        <ele>264</ele>
        <time>2023-05-13T15:03:14.000Z</time>
      </trkpt>
      <trkpt lat="43.57884" lon="3.33311">
        <ele>264.1</ele>
        <time>2023-05-13T15:03:16.000Z</time>
      </trkpt>
      <trkpt lat="43.57889" lon="3.33294">
        <ele>264.2</ele>
        <time>2023-05-13T15:03:19.000Z</time>
      </trkpt>
      <trkpt lat="43.57895" lon="3.33279">
        <ele>264.7</ele>
        <time>2023-05-13T15:03:22.000Z</time>
      </trkpt>
      <trkpt lat="43.57902" lon="3.33266">
        <ele>265.5</ele>
        <time>2023-05-13T15:03:25.000Z</time>
      </trkpt>
      <trkpt lat="43.57909" lon="3.33253">
        <ele>266.4</ele>
        <time>2023-05-13T15:03:28.000Z</time>
      </trkpt>
      <trkpt lat="43.5792" lon="3.33244">
        <ele>267</ele>
        <time>2023-05-13T15:03:31.000Z</time>
      </trkpt>
      <trkpt lat="43.57929" lon="3.33247">
        <ele>268</ele>
        <time>2023-05-13T15:03:34.000Z</time>
      </trkpt>
      <trkpt lat="43.57931" lon="3.33262">
        <ele>268.8</ele>
        <time>2023-05-13T15:03:37.000Z</time>
      </trkpt>
      <trkpt lat="43.5793" lon="3.33277">
        <ele>270</ele>
        <time>2023-05-13T15:03:40.000Z</time>
      </trkpt>
      <trkpt lat="43.5793" lon="3.33294">
        <ele>270.8</ele>
        <time>2023-05-13T15:03:43.000Z</time>
      </trkpt>
      <trkpt lat="43.57929" lon="3.33311">
        <ele>271.2</ele>
        <time>2023-05-13T15:03:46.000Z</time>
      </trkpt>
      <trkpt lat="43.57928" lon="3.33328">
        <ele>271.8</ele>
        <time>2023-05-13T15:03:49.000Z</time>
      </trkpt>
      <trkpt lat="43.57928" lon="3.33345">
        <ele>272.6</ele>
        <time>2023-05-13T15:03:52.000Z</time>
      </trkpt>
      <trkpt lat="43.57931" lon="3.33361">
        <ele>273</ele>
        <time>2023-05-13T15:03:55.000Z</time>
      </trkpt>
      <trkpt lat="43.57938" lon="3.33376">
        <ele>273.3</ele>
        <time>2023-05-13T15:03:58.000Z</time>
      </trkpt>
      <trkpt lat="43.57945" lon="3.3339">
        <ele>273.6</ele>
        <time>2023-05-13T15:04:01.000Z</time>
      </trkpt>
      <trkpt lat="43.57944" lon="3.33406">
        <ele>273.9</ele>
        <time>2023-05-13T15:04:04.000Z</time>
      </trkpt>
      <trkpt lat="43.57935" lon="3.33418">
        <ele>274.2</ele>
        <time>2023-05-13T15:04:07.000Z</time>
      </trkpt>
      <trkpt lat="43.57924" lon="3.33428">
        <ele>274.5</ele>
        <time>2023-05-13T15:04:10.000Z</time>
      </trkpt>
      <trkpt lat="43.57915" lon="3.33439">
        <ele>274.9</ele>
        <time>2023-05-13T15:04:13.000Z</time>
      </trkpt>
      <trkpt lat="43.57906" lon="3.3345">
        <ele>275.3</ele>
        <time>2023-05-13T15:04:16.000Z</time>
      </trkpt>
      <trkpt lat="43.57897" lon="3.33463">
        <ele>275.6</ele>
        <time>2023-05-13T15:04:19.000Z</time>
      </trkpt>
      <trkpt lat="43.57889" lon="3.33478">
        <ele>275.9</ele>
        <time>2023-05-13T15:04:22.000Z</time>
      </trkpt>
      <trkpt lat="43.57884" lon="3.33489">
        <ele>276</ele>
        <time>2023-05-13T15:04:24.000Z</time>
      </trkpt>
      <trkpt lat="43.57881" lon="3.33501">
        <ele>276.1</ele>
        <time>2023-05-13T15:04:26.000Z</time>
      </trkpt>
      <trkpt lat="43.57878" lon="3.33513">
        <ele>276.3</ele>
        <time>2023-05-13T15:04:28.000Z</time>
      </trkpt>
      <trkpt lat="43.57876" lon="3.33526">
        <ele>276.5</ele>
        <time>2023-05-13T15:04:30.000Z</time>
      </trkpt>
      <trkpt lat="43.57875" lon="3.33539">
        <ele>276.5</ele>
        <time>2023-05-13T15:04:32.000Z</time>
      </trkpt>
      <trkpt lat="43.57873" lon="3.33552">
        <ele>276.6</ele>
        <time>2023-05-13T15:04:34.000Z</time>
      </trkpt>
      <trkpt lat="43.57868" lon="3.33563">
        <ele>276.7</ele>
        <time>2023-05-13T15:04:36.000Z</time>
      </trkpt>
      <trkpt lat="43.57862" lon="3.33572">
        <ele>276.8</ele>
        <time>2023-05-13T15:04:38.000Z</time>
      </trkpt>
      <trkpt lat="43.57854" lon="3.3358">
        <ele>277</ele>
        <time>2023-05-13T15:04:40.000Z</time>
      </trkpt>
      <trkpt lat="43.57848" lon="3.33589">
        <ele>277.1</ele>
        <time>2023-05-13T15:04:42.000Z</time>
      </trkpt>
      <trkpt lat="43.57842" lon="3.336">
        <ele>277.2</ele>
        <time>2023-05-13T15:04:44.000Z</time>
      </trkpt>
      <trkpt lat="43.57837" lon="3.33611">
        <ele>277.3</ele>
        <time>2023-05-13T15:04:46.000Z</time>
      </trkpt>
      <trkpt lat="43.57834" lon="3.33624">
        <ele>277.5</ele>
        <time>2023-05-13T15:04:48.000Z</time>
      </trkpt>
      <trkpt lat="43.57831" lon="3.33637">
        <ele>277.7</ele>
        <time>2023-05-13T15:04:50.000Z</time>
      </trkpt>
      <trkpt lat="43.57827" lon="3.3365">
        <ele>277.8</ele>
        <time>2023-05-13T15:04:52.000Z</time>
      </trkpt>
      <trkpt lat="43.57824" lon="3.33663">
        <ele>277.9</ele>
        <time>2023-05-13T15:04:54.000Z</time>
      </trkpt>
      <trkpt lat="43.5782" lon="3.33676">
        <ele>278</ele>
        <time>2023-05-13T15:04:56.000Z</time>
      </trkpt>
      <trkpt lat="43.57816" lon="3.33689">
        <ele>278.1</ele>
        <time>2023-05-13T15:04:58.000Z</time>
      </trkpt>
      <trkpt lat="43.57811" lon="3.33702">
        <ele>278.1</ele>
        <time>2023-05-13T15:05:00.000Z</time>
      </trkpt>
      <trkpt lat="43.57806" lon="3.33714">
        <ele>278.2</ele>
        <time>2023-05-13T15:05:02.000Z</time>
      </trkpt>
      <trkpt lat="43.57801" lon="3.33726">
        <ele>278.2</ele>
        <time>2023-05-13T15:05:04.000Z</time>
      </trkpt>
      <trkpt lat="43.57796" lon="3.33738">
        <ele>278.3</ele>
        <time>2023-05-13T15:05:06.000Z</time>
      </trkpt>
      <trkpt lat="43.57791" lon="3.3375">
        <ele>278.5</ele>
        <time>2023-05-13T15:05:08.000Z</time>
      </trkpt>
      <trkpt lat="43.57786" lon="3.33763">
        <ele>278.5</ele>
        <time>2023-05-13T15:05:10.000Z</time>
      </trkpt>
      <trkpt lat="43.57781" lon="3.33777">
        <ele>278.7</ele>
        <time>2023-05-13T15:05:12.000Z</time>
      </trkpt>
      <trkpt lat="43.57778" lon="3.3379">
        <ele>278.8</ele>
        <time>2023-05-13T15:05:14.000Z</time>
      </trkpt>
      <trkpt lat="43.57775" lon="3.33804">
        <ele>279</ele>
        <time>2023-05-13T15:05:16.000Z</time>
      </trkpt>
      <trkpt lat="43.57772" lon="3.33818">
        <ele>279.2</ele>
        <time>2023-05-13T15:05:18.000Z</time>
      </trkpt>
      <trkpt lat="43.57771" lon="3.33832">
        <ele>279.3</ele>
        <time>2023-05-13T15:05:20.000Z</time>
      </trkpt>
      <trkpt lat="43.57769" lon="3.33846">
        <ele>279.3</ele>
        <time>2023-05-13T15:05:22.000Z</time>
      </trkpt>
      <trkpt lat="43.57767" lon="3.33859">
        <ele>279.4</ele>
        <time>2023-05-13T15:05:24.000Z</time>
      </trkpt>
      <trkpt lat="43.57764" lon="3.33872">
        <ele>279.6</ele>
        <time>2023-05-13T15:05:26.000Z</time>
      </trkpt>
      <trkpt lat="43.57761" lon="3.33886">
        <ele>279.6</ele>
        <time>2023-05-13T15:05:28.000Z</time>
      </trkpt>
      <trkpt lat="43.5776" lon="3.339">
        <ele>279.7</ele>
        <time>2023-05-13T15:05:30.000Z</time>
      </trkpt>
      <trkpt lat="43.57763" lon="3.33914">
        <ele>279.8</ele>
        <time>2023-05-13T15:05:32.000Z</time>
      </trkpt>
      <trkpt lat="43.57771" lon="3.33928">
        <ele>279.9</ele>
        <time>2023-05-13T15:05:35.000Z</time>
      </trkpt>
      <trkpt lat="43.57781" lon="3.33935">
        <ele>280.1</ele>
        <time>2023-05-13T15:05:39.000Z</time>
      </trkpt>
      <trkpt lat="43.57792" lon="3.33936">
        <ele>280.3</ele>
        <time>2023-05-13T15:05:43.000Z</time>
      </trkpt>
      <trkpt lat="43.57803" lon="3.33934">
        <ele>280.4</ele>
        <time>2023-05-13T15:05:47.000Z</time>
      </trkpt>
      <trkpt lat="43.57805" lon="3.33933">
        <ele>280.5</ele>
        <time>2023-05-13T15:05:51.000Z</time>
      </trkpt>
      <trkpt lat="43.57805" lon="3.33933">
        <ele>280.5</ele>
        <time>2023-05-13T15:05:52.000Z</time>
      </trkpt>
      <trkpt lat="43.57805" lon="3.33933">
        <ele>280.6</ele>
        <time>2023-05-13T15:05:53.000Z</time>
      </trkpt>
      <trkpt lat="43.57805" lon="3.33933">
        <ele>281</ele>
        <time>2023-05-13T15:06:38.000Z</time>
      </trkpt>
      <trkpt lat="43.57814" lon="3.33928">
        <ele>281</ele>
        <time>2023-05-13T15:06:44.000Z</time>
      </trkpt>
      <trkpt lat="43.57825" lon="3.3392">
        <ele>281.1</ele>
        <time>2023-05-13T15:06:48.000Z</time>
      </trkpt>
      <trkpt lat="43.57834" lon="3.33914">
        <ele>281.2</ele>
        <time>2023-05-13T15:06:51.000Z</time>
      </trkpt>
      <trkpt lat="43.57844" lon="3.33907">
        <ele>281.2</ele>
        <time>2023-05-13T15:06:54.000Z</time>
      </trkpt>
      <trkpt lat="43.57854" lon="3.33901">
        <ele>281.3</ele>
        <time>2023-05-13T15:06:57.000Z</time>
      </trkpt>
      <trkpt lat="43.57865" lon="3.33896">
        <ele>281.5</ele>
        <time>2023-05-13T15:07:00.000Z</time>
      </trkpt>
      <trkpt lat="43.57876" lon="3.33894">
        <ele>281.6</ele>
        <time>2023-05-13T15:07:03.000Z</time>
      </trkpt>
      <trkpt lat="43.57889" lon="3.33894">
        <ele>281.8</ele>
        <time>2023-05-13T15:07:06.000Z</time>
      </trkpt>
      <trkpt lat="43.57901" lon="3.33896">
        <ele>282</ele>
        <time>2023-05-13T15:07:09.000Z</time>
      </trkpt>
      <trkpt lat="43.57913" lon="3.33897">
        <ele>282.2</ele>
        <time>2023-05-13T15:07:12.000Z</time>
      </trkpt>
      <trkpt lat="43.57925" lon="3.33901">
        <ele>282.7</ele>
        <time>2023-05-13T15:07:15.000Z</time>
      </trkpt>
      <trkpt lat="43.57937" lon="3.33907">
        <ele>283.1</ele>
        <time>2023-05-13T15:07:18.000Z</time>
      </trkpt>
      <trkpt lat="43.5795" lon="3.33912">
        <ele>283.6</ele>
        <time>2023-05-13T15:07:21.000Z</time>
      </trkpt>
      <trkpt lat="43.57962" lon="3.33918">
        <ele>284.1</ele>
        <time>2023-05-13T15:07:24.000Z</time>
      </trkpt>
      <trkpt lat="43.57974" lon="3.33923">
        <ele>284.7</ele>
        <time>2023-05-13T15:07:27.000Z</time>
      </trkpt>
      <trkpt lat="43.57983" lon="3.33936">
        <ele>285.3</ele>
        <time>2023-05-13T15:07:30.000Z</time>
      </trkpt>
      <trkpt lat="43.57984" lon="3.33948">
        <ele>285.5</ele>
        <time>2023-05-13T15:07:32.000Z</time>
      </trkpt>
      <trkpt lat="43.5798" lon="3.33959">
        <ele>285.7</ele>
        <time>2023-05-13T15:07:34.000Z</time>
      </trkpt>
      <trkpt lat="43.57974" lon="3.33969">
        <ele>286.1</ele>
        <time>2023-05-13T15:07:36.000Z</time>
      </trkpt>
      <trkpt lat="43.57967" lon="3.33979">
        <ele>286.3</ele>
        <time>2023-05-13T15:07:38.000Z</time>
      </trkpt>
      <trkpt lat="43.5796" lon="3.33987">
        <ele>286.5</ele>
        <time>2023-05-13T15:07:40.000Z</time>
      </trkpt>
      <trkpt lat="43.57954" lon="3.33997">
        <ele>286.7</ele>
        <time>2023-05-13T15:07:42.000Z</time>
      </trkpt>
      <trkpt lat="43.57946" lon="3.34012">
        <ele>287.1</ele>
        <time>2023-05-13T15:07:45.000Z</time>
      </trkpt>
      <trkpt lat="43.57942" lon="3.34024">
        <ele>287.2</ele>
        <time>2023-05-13T15:07:47.000Z</time>
      </trkpt>
      <trkpt lat="43.5794" lon="3.34036">
        <ele>287.4</ele>
        <time>2023-05-13T15:07:49.000Z</time>
      </trkpt>
      <trkpt lat="43.57939" lon="3.34055">
        <ele>287.5</ele>
        <time>2023-05-13T15:07:52.000Z</time>
      </trkpt>
      <trkpt lat="43.57941" lon="3.34068">
        <ele>287.5</ele>
        <time>2023-05-13T15:07:54.000Z</time>
      </trkpt>
      <trkpt lat="43.57942" lon="3.3408">
        <ele>287.7</ele>
        <time>2023-05-13T15:07:56.000Z</time>
      </trkpt>
      <trkpt lat="43.57944" lon="3.34092">
        <ele>287.8</ele>
        <time>2023-05-13T15:07:58.000Z</time>
      </trkpt>
      <trkpt lat="43.57946" lon="3.34105">
        <ele>287.9</ele>
        <time>2023-05-13T15:08:00.000Z</time>
      </trkpt>
      <trkpt lat="43.57949" lon="3.34118">
        <ele>287.9</ele>
        <time>2023-05-13T15:08:02.000Z</time>
      </trkpt>
      <trkpt lat="43.57953" lon="3.34131">
        <ele>287.9</ele>
        <time>2023-05-13T15:08:04.000Z</time>
      </trkpt>
      <trkpt lat="43.57958" lon="3.34143">
        <ele>287.9</ele>
        <time>2023-05-13T15:08:06.000Z</time>
      </trkpt>
      <trkpt lat="43.57963" lon="3.34156">
        <ele>287.9</ele>
        <time>2023-05-13T15:08:08.000Z</time>
      </trkpt>
      <trkpt lat="43.57968" lon="3.34168">
        <ele>287.9</ele>
        <time>2023-05-13T15:08:10.000Z</time>
      </trkpt>
      <trkpt lat="43.57972" lon="3.3418">
        <ele>287.9</ele>
        <time>2023-05-13T15:08:12.000Z</time>
      </trkpt>
      <trkpt lat="43.57976" lon="3.34192">
        <ele>287.9</ele>
        <time>2023-05-13T15:08:14.000Z</time>
      </trkpt>
      <trkpt lat="43.57979" lon="3.34205">
        <ele>288</ele>
        <time>2023-05-13T15:08:16.000Z</time>
      </trkpt>
      <trkpt lat="43.57981" lon="3.34217">
        <ele>288.1</ele>
        <time>2023-05-13T15:08:18.000Z</time>
      </trkpt>
      <trkpt lat="43.57984" lon="3.34235">
        <ele>288.2</ele>
        <time>2023-05-13T15:08:21.000Z</time>
      </trkpt>
      <trkpt lat="43.57985" lon="3.34251">
        <ele>288.4</ele>
        <time>2023-05-13T15:08:24.000Z</time>
      </trkpt>
      <trkpt lat="43.57986" lon="3.34264">
        <ele>288.6</ele>
        <time>2023-05-13T15:08:27.000Z</time>
      </trkpt>
      <trkpt lat="43.57987" lon="3.34276">
        <ele>288.7</ele>
        <time>2023-05-13T15:08:31.000Z</time>
      </trkpt>
      <trkpt lat="43.5799" lon="3.34289">
        <ele>288.7</ele>
        <time>2023-05-13T15:08:36.000Z</time>
      </trkpt>
      <trkpt lat="43.57988" lon="3.34301">
        <ele>288.6</ele>
        <time>2023-05-13T15:08:43.000Z</time>
      </trkpt>
      <trkpt lat="43.57985" lon="3.34314">
        <ele>288.4</ele>
        <time>2023-05-13T15:08:46.000Z</time>
      </trkpt>
      <trkpt lat="43.5798" lon="3.34327">
        <ele>288.2</ele>
        <time>2023-05-13T15:08:48.000Z</time>
      </trkpt>
      <trkpt lat="43.57975" lon="3.34344">
        <ele>288</ele>
        <time>2023-05-13T15:08:50.000Z</time>
      </trkpt>
      <trkpt lat="43.57972" lon="3.34362">
        <ele>287.7</ele>
        <time>2023-05-13T15:08:52.000Z</time>
      </trkpt>
      <trkpt lat="43.57969" lon="3.34382">
        <ele>287.1</ele>
        <time>2023-05-13T15:08:54.000Z</time>
      </trkpt>
      <trkpt lat="43.57966" lon="3.34403">
        <ele>285.9</ele>
        <time>2023-05-13T15:08:56.000Z</time>
      </trkpt>
      <trkpt lat="43.57964" lon="3.3442">
        <ele>284.7</ele>
        <time>2023-05-13T15:08:58.000Z</time>
      </trkpt>
      <trkpt lat="43.57963" lon="3.34433">
        <ele>282.3</ele>
        <time>2023-05-13T15:09:01.000Z</time>
      </trkpt>
      <trkpt lat="43.57963" lon="3.34435">
        <ele>280.1</ele>
        <time>2023-05-13T15:09:04.000Z</time>
      </trkpt>
      <trkpt lat="43.57963" lon="3.34435">
        <ele>278.5</ele>
        <time>2023-05-13T15:09:10.000Z</time>
      </trkpt>
      <trkpt lat="43.57965" lon="3.34448">
        <ele>277.8</ele>
        <time>2023-05-13T15:09:15.000Z</time>
      </trkpt>
      <trkpt lat="43.57967" lon="3.34461">
        <ele>277.4</ele>
        <time>2023-05-13T15:09:18.000Z</time>
      </trkpt>
      <trkpt lat="43.57967" lon="3.34479">
        <ele>276.7</ele>
        <time>2023-05-13T15:09:21.000Z</time>
      </trkpt>
      <trkpt lat="43.57967" lon="3.34495">
        <ele>276.2</ele>
        <time>2023-05-13T15:09:23.000Z</time>
      </trkpt>
      <trkpt lat="43.57971" lon="3.34512">
        <ele>275.6</ele>
        <time>2023-05-13T15:09:25.000Z</time>
      </trkpt>
      <trkpt lat="43.57977" lon="3.3453">
        <ele>274.5</ele>
        <time>2023-05-13T15:09:27.000Z</time>
      </trkpt>
      <trkpt lat="43.57982" lon="3.34552">
        <ele>273.1</ele>
        <time>2023-05-13T15:09:29.000Z</time>
      </trkpt>
      <trkpt lat="43.57984" lon="3.34564">
        <ele>272.4</ele>
        <time>2023-05-13T15:09:30.000Z</time>
      </trkpt>
      <trkpt lat="43.57986" lon="3.34577">
        <ele>271.6</ele>
        <time>2023-05-13T15:09:31.000Z</time>
      </trkpt>
      <trkpt lat="43.57987" lon="3.34591">
        <ele>270.7</ele>
        <time>2023-05-13T15:09:32.000Z</time>
      </trkpt>
      <trkpt lat="43.57989" lon="3.34605">
        <ele>270</ele>
        <time>2023-05-13T15:09:33.000Z</time>
      </trkpt>
      <trkpt lat="43.57991" lon="3.34619">
        <ele>269.3</ele>
        <time>2023-05-13T15:09:34.000Z</time>
      </trkpt>
      <trkpt lat="43.57993" lon="3.34634">
        <ele>268.3</ele>
        <time>2023-05-13T15:09:35.000Z</time>
      </trkpt>
      <trkpt lat="43.57996" lon="3.34649">
        <ele>267.3</ele>
        <time>2023-05-13T15:09:36.000Z</time>
      </trkpt>
      <trkpt lat="43.57998" lon="3.34664">
        <ele>266.2</ele>
        <time>2023-05-13T15:09:37.000Z</time>
      </trkpt>
      <trkpt lat="43.58" lon="3.34679">
        <ele>265.3</ele>
        <time>2023-05-13T15:09:38.000Z</time>
      </trkpt>
      <trkpt lat="43.58002" lon="3.34695">
        <ele>264.3</ele>
        <time>2023-05-13T15:09:39.000Z</time>
      </trkpt>
      <trkpt lat="43.58003" lon="3.3471">
        <ele>263</ele>
        <time>2023-05-13T15:09:40.000Z</time>
      </trkpt>
      <trkpt lat="43.58003" lon="3.34726">
        <ele>262</ele>
        <time>2023-05-13T15:09:41.000Z</time>
      </trkpt>
      <trkpt lat="43.58002" lon="3.34742">
        <ele>260.6</ele>
        <time>2023-05-13T15:09:42.000Z</time>
      </trkpt>
      <trkpt lat="43.58" lon="3.34758">
        <ele>259.2</ele>
        <time>2023-05-13T15:09:43.000Z</time>
      </trkpt>
      <trkpt lat="43.58" lon="3.34775">
        <ele>257.6</ele>
        <time>2023-05-13T15:09:44.000Z</time>
      </trkpt>
      <trkpt lat="43.58" lon="3.34791">
        <ele>256.2</ele>
        <time>2023-05-13T15:09:45.000Z</time>
      </trkpt>
      <trkpt lat="43.58001" lon="3.34808">
        <ele>255.2</ele>
        <time>2023-05-13T15:09:46.000Z</time>
      </trkpt>
      <trkpt lat="43.58001" lon="3.34824">
        <ele>254.5</ele>
        <time>2023-05-13T15:09:47.000Z</time>
      </trkpt>
      <trkpt lat="43.58001" lon="3.3484">
        <ele>253.9</ele>
        <time>2023-05-13T15:09:48.000Z</time>
      </trkpt>
      <trkpt lat="43.57999" lon="3.34855">
        <ele>253.4</ele>
        <time>2023-05-13T15:09:49.000Z</time>
      </trkpt>
      <trkpt lat="43.57997" lon="3.3487">
        <ele>252.9</ele>
        <time>2023-05-13T15:09:50.000Z</time>
      </trkpt>
      <trkpt lat="43.57995" lon="3.34884">
        <ele>252.3</ele>
        <time>2023-05-13T15:09:51.000Z</time>
      </trkpt>
      <trkpt lat="43.57993" lon="3.34898">
        <ele>252.1</ele>
        <time>2023-05-13T15:09:52.000Z</time>
      </trkpt>
      <trkpt lat="43.57993" lon="3.34913">
        <ele>251.7</ele>
        <time>2023-05-13T15:09:53.000Z</time>
      </trkpt>
      <trkpt lat="43.57994" lon="3.34927">
        <ele>251.3</ele>
        <time>2023-05-13T15:09:54.000Z</time>
      </trkpt>
      <trkpt lat="43.57997" lon="3.3494">
        <ele>250.8</ele>
        <time>2023-05-13T15:09:55.000Z</time>
      </trkpt>
      <trkpt lat="43.58001" lon="3.34953">
        <ele>250.4</ele>
        <time>2023-05-13T15:09:56.000Z</time>
      </trkpt>
      <trkpt lat="43.58005" lon="3.34965">
        <ele>250.1</ele>
        <time>2023-05-13T15:09:57.000Z</time>
      </trkpt>
      <trkpt lat="43.58008" lon="3.34979">
        <ele>249.8</ele>
        <time>2023-05-13T15:09:58.000Z</time>
      </trkpt>
      <trkpt lat="43.5801" lon="3.34993">
        <ele>249.5</ele>
        <time>2023-05-13T15:09:59.000Z</time>
      </trkpt>
      <trkpt lat="43.58012" lon="3.35007">
        <ele>248.9</ele>
        <time>2023-05-13T15:10:00.000Z</time>
      </trkpt>
      <trkpt lat="43.58012" lon="3.3502">
        <ele>248.2</ele>
        <time>2023-05-13T15:10:01.000Z</time>
      </trkpt>
      <trkpt lat="43.58012" lon="3.35034">
        <ele>247.5</ele>
        <time>2023-05-13T15:10:02.000Z</time>
      </trkpt>
      <trkpt lat="43.58012" lon="3.35046">
        <ele>246.8</ele>
        <time>2023-05-13T15:10:03.000Z</time>
      </trkpt>
      <trkpt lat="43.58012" lon="3.35068">
        <ele>244.9</ele>
        <time>2023-05-13T15:10:05.000Z</time>
      </trkpt>
      <trkpt lat="43.58009" lon="3.35084">
        <ele>243.4</ele>
        <time>2023-05-13T15:10:07.000Z</time>
      </trkpt>
      <trkpt lat="43.58002" lon="3.35098">
        <ele>241.5</ele>
        <time>2023-05-13T15:10:09.000Z</time>
      </trkpt>
      <trkpt lat="43.57993" lon="3.35115">
        <ele>239.8</ele>
        <time>2023-05-13T15:10:11.000Z</time>
      </trkpt>
      <trkpt lat="43.57985" lon="3.35134">
        <ele>238</ele>
        <time>2023-05-13T15:10:13.000Z</time>
      </trkpt>
      <trkpt lat="43.57976" lon="3.35154">
        <ele>235.7</ele>
        <time>2023-05-13T15:10:15.000Z</time>
      </trkpt>
      <trkpt lat="43.57971" lon="3.35165">
        <ele>234.9</ele>
        <time>2023-05-13T15:10:16.000Z</time>
      </trkpt>
      <trkpt lat="43.57967" lon="3.35177">
        <ele>234.1</ele>
        <time>2023-05-13T15:10:17.000Z</time>
      </trkpt>
      <trkpt lat="43.57959" lon="3.35198">
        <ele>232.5</ele>
        <time>2023-05-13T15:10:19.000Z</time>
      </trkpt>
      <trkpt lat="43.57951" lon="3.35219">
        <ele>231.1</ele>
        <time>2023-05-13T15:10:21.000Z</time>
      </trkpt>
      <trkpt lat="43.57942" lon="3.35239">
        <ele>229.7</ele>
        <time>2023-05-13T15:10:23.000Z</time>
      </trkpt>
      <trkpt lat="43.57931" lon="3.35257">
        <ele>229.4</ele>
        <time>2023-05-13T15:10:25.000Z</time>
      </trkpt>
      <trkpt lat="43.5792" lon="3.35276">
        <ele>228.8</ele>
        <time>2023-05-13T15:10:27.000Z</time>
      </trkpt>
      <trkpt lat="43.57909" lon="3.35294">
        <ele>227.7</ele>
        <time>2023-05-13T15:10:29.000Z</time>
      </trkpt>
      <trkpt lat="43.57898" lon="3.35313">
        <ele>227.2</ele>
        <time>2023-05-13T15:10:31.000Z</time>
      </trkpt>
      <trkpt lat="43.57888" lon="3.35332">
        <ele>226.4</ele>
        <time>2023-05-13T15:10:33.000Z</time>
      </trkpt>
      <trkpt lat="43.57881" lon="3.35351">
        <ele>225.4</ele>
        <time>2023-05-13T15:10:35.000Z</time>
      </trkpt>
      <trkpt lat="43.57872" lon="3.35366">
        <ele>224.5</ele>
        <time>2023-05-13T15:10:37.000Z</time>
      </trkpt>
      <trkpt lat="43.57863" lon="3.35381">
        <ele>223.9</ele>
        <time>2023-05-13T15:10:39.000Z</time>
      </trkpt>
      <trkpt lat="43.57853" lon="3.35398">
        <ele>223</ele>
        <time>2023-05-13T15:10:41.000Z</time>
      </trkpt>
      <trkpt lat="43.57844" lon="3.35417">
        <ele>221.4</ele>
        <time>2023-05-13T15:10:43.000Z</time>
      </trkpt>
      <trkpt lat="43.57834" lon="3.35435">
        <ele>219.3</ele>
        <time>2023-05-13T15:10:45.000Z</time>
      </trkpt>
      <trkpt lat="43.57829" lon="3.35446">
        <ele>218.3</ele>
        <time>2023-05-13T15:10:46.000Z</time>
      </trkpt>
      <trkpt lat="43.57825" lon="3.35458">
        <ele>217.4</ele>
        <time>2023-05-13T15:10:47.000Z</time>
      </trkpt>
      <trkpt lat="43.57821" lon="3.3547">
        <ele>216.4</ele>
        <time>2023-05-13T15:10:48.000Z</time>
      </trkpt>
      <trkpt lat="43.57817" lon="3.35481">
        <ele>215.3</ele>
        <time>2023-05-13T15:10:49.000Z</time>
      </trkpt>
      <trkpt lat="43.5781" lon="3.355">
        <ele>213.3</ele>
        <time>2023-05-13T15:10:51.000Z</time>
      </trkpt>
      <trkpt lat="43.57807" lon="3.35506">
        <ele>210.7</ele>
        <time>2023-05-13T15:10:55.000Z</time>
      </trkpt>
      <trkpt lat="43.57807" lon="3.35507">
        <ele>209</ele>
        <time>2023-05-13T15:11:29.000Z</time>
      </trkpt>
      <trkpt lat="43.57805" lon="3.35521">
        <ele>208.9</ele>
        <time>2023-05-13T15:11:35.000Z</time>
      </trkpt>
      <trkpt lat="43.57804" lon="3.35537">
        <ele>208.8</ele>
        <time>2023-05-13T15:11:40.000Z</time>
      </trkpt>
      <trkpt lat="43.57804" lon="3.35552">
        <ele>208.8</ele>
        <time>2023-05-13T15:11:43.000Z</time>
      </trkpt>
      <trkpt lat="43.57801" lon="3.35567">
        <ele>208.6</ele>
        <time>2023-05-13T15:11:46.000Z</time>
      </trkpt>
      <trkpt lat="43.57798" lon="3.35586">
        <ele>208.4</ele>
        <time>2023-05-13T15:11:49.000Z</time>
      </trkpt>
      <trkpt lat="43.57795" lon="3.356">
        <ele>208</ele>
        <time>2023-05-13T15:11:51.000Z</time>
      </trkpt>
      <trkpt lat="43.57791" lon="3.35616">
        <ele>207.3</ele>
        <time>2023-05-13T15:11:53.000Z</time>
      </trkpt>
      <trkpt lat="43.57788" lon="3.35632">
        <ele>206.8</ele>
        <time>2023-05-13T15:11:55.000Z</time>
      </trkpt>
      <trkpt lat="43.57782" lon="3.35645">
        <ele>206.2</ele>
        <time>2023-05-13T15:11:57.000Z</time>
      </trkpt>
      <trkpt lat="43.57776" lon="3.35653">
        <ele>205.4</ele>
        <time>2023-05-13T15:11:59.000Z</time>
      </trkpt>
      <trkpt lat="43.57769" lon="3.35658">
        <ele>203</ele>
        <time>2023-05-13T15:12:05.000Z</time>
      </trkpt>
      <trkpt lat="43.57769" lon="3.35658">
        <ele>201.3</ele>
        <time>2023-05-13T15:12:16.000Z</time>
      </trkpt>
      <trkpt lat="43.57769" lon="3.35658">
        <ele>201.2</ele>
        <time>2023-05-13T15:12:17.000Z</time>
      </trkpt>
      <trkpt lat="43.57769" lon="3.35659">
        <ele>201.1</ele>
        <time>2023-05-13T15:12:19.000Z</time>
      </trkpt>
      <trkpt lat="43.57769" lon="3.35673">
        <ele>200.9</ele>
        <time>2023-05-13T15:12:23.000Z</time>
      </trkpt>
      <trkpt lat="43.57771" lon="3.35687">
        <ele>200.5</ele>
        <time>2023-05-13T15:12:25.000Z</time>
      </trkpt>
      <trkpt lat="43.57771" lon="3.35703">
        <ele>200</ele>
        <time>2023-05-13T15:12:27.000Z</time>
      </trkpt>
      <trkpt lat="43.57772" lon="3.35722">
        <ele>199.3</ele>
        <time>2023-05-13T15:12:29.000Z</time>
      </trkpt>
      <trkpt lat="43.57772" lon="3.35742">
        <ele>198.2</ele>
        <time>2023-05-13T15:12:31.000Z</time>
      </trkpt>
      <trkpt lat="43.57772" lon="3.35758">
        <ele>196.7</ele>
        <time>2023-05-13T15:12:33.000Z</time>
      </trkpt>
      <trkpt lat="43.57773" lon="3.35772">
        <ele>194.8</ele>
        <time>2023-05-13T15:12:35.000Z</time>
      </trkpt>
      <trkpt lat="43.57773" lon="3.35789">
        <ele>191.2</ele>
        <time>2023-05-13T15:12:38.000Z</time>
      </trkpt>
      <trkpt lat="43.57773" lon="3.35808">
        <ele>188</ele>
        <time>2023-05-13T15:12:41.000Z</time>
      </trkpt>
      <trkpt lat="43.57771" lon="3.35826">
        <ele>186</ele>
        <time>2023-05-13T15:12:43.000Z</time>
      </trkpt>
      <trkpt lat="43.57769" lon="3.35843">
        <ele>183.7</ele>
        <time>2023-05-13T15:12:45.000Z</time>
      </trkpt>
      <trkpt lat="43.57767" lon="3.35863">
        <ele>181.5</ele>
        <time>2023-05-13T15:12:47.000Z</time>
      </trkpt>
      <trkpt lat="43.57764" lon="3.35883">
        <ele>179.1</ele>
        <time>2023-05-13T15:12:49.000Z</time>
      </trkpt>
      <trkpt lat="43.57762" lon="3.35896">
        <ele>177.6</ele>
        <time>2023-05-13T15:12:50.000Z</time>
      </trkpt>
      <trkpt lat="43.57761" lon="3.35909">
        <ele>176.4</ele>
        <time>2023-05-13T15:12:51.000Z</time>
      </trkpt>
      <trkpt lat="43.57759" lon="3.35921">
        <ele>174.9</ele>
        <time>2023-05-13T15:12:52.000Z</time>
      </trkpt>
      <trkpt lat="43.57757" lon="3.35942">
        <ele>172</ele>
        <time>2023-05-13T15:12:54.000Z</time>
      </trkpt>
      <trkpt lat="43.57757" lon="3.35963">
        <ele>168.4</ele>
        <time>2023-05-13T15:12:56.000Z</time>
      </trkpt>
      <trkpt lat="43.5776" lon="3.35982">
        <ele>164.8</ele>
        <time>2023-05-13T15:12:58.000Z</time>
      </trkpt>
      <trkpt lat="43.57762" lon="3.36002">
        <ele>161.8</ele>
        <time>2023-05-13T15:13:00.000Z</time>
      </trkpt>
      <trkpt lat="43.57763" lon="3.36019">
        <ele>158.8</ele>
        <time>2023-05-13T15:13:02.000Z</time>
      </trkpt>
      <trkpt lat="43.57763" lon="3.36033">
        <ele>154.7</ele>
        <time>2023-05-13T15:13:05.000Z</time>
      </trkpt>
      <trkpt lat="43.57773" lon="3.36033">
        <ele>151.5</ele>
        <time>2023-05-13T15:13:09.000Z</time>
      </trkpt>
      <trkpt lat="43.57779" lon="3.36044">
        <ele>149.6</ele>
        <time>2023-05-13T15:13:13.000Z</time>
      </trkpt>
      <trkpt lat="43.57775" lon="3.36056">
        <ele>148.6</ele>
        <time>2023-05-13T15:13:15.000Z</time>
      </trkpt>
      <trkpt lat="43.5777" lon="3.36069">
        <ele>147.7</ele>
        <time>2023-05-13T15:13:17.000Z</time>
      </trkpt>
      <trkpt lat="43.57762" lon="3.3608">
        <ele>146.7</ele>
        <time>2023-05-13T15:13:19.000Z</time>
      </trkpt>
      <trkpt lat="43.57755" lon="3.36091">
        <ele>144.9</ele>
        <time>2023-05-13T15:13:22.000Z</time>
      </trkpt>
      <trkpt lat="43.57746" lon="3.361">
        <ele>143.3</ele>
        <time>2023-05-13T15:13:25.000Z</time>
      </trkpt>
      <trkpt lat="43.57738" lon="3.36109">
        <ele>142.2</ele>
        <time>2023-05-13T15:13:27.000Z</time>
      </trkpt>
      <trkpt lat="43.57731" lon="3.36123">
        <ele>141.1</ele>
        <time>2023-05-13T15:13:29.000Z</time>
      </trkpt>
      <trkpt lat="43.57722" lon="3.36138">
        <ele>140.1</ele>
        <time>2023-05-13T15:13:31.000Z</time>
      </trkpt>
      <trkpt lat="43.57711" lon="3.36152">
        <ele>138.9</ele>
        <time>2023-05-13T15:13:33.000Z</time>
      </trkpt>
      <trkpt lat="43.57697" lon="3.36164">
        <ele>137.5</ele>
        <time>2023-05-13T15:13:35.000Z</time>
      </trkpt>
      <trkpt lat="43.57684" lon="3.36175">
        <ele>136.3</ele>
        <time>2023-05-13T15:13:37.000Z</time>
      </trkpt>
      <trkpt lat="43.57675" lon="3.36183">
        <ele>134.6</ele>
        <time>2023-05-13T15:13:40.000Z</time>
      </trkpt>
      <trkpt lat="43.57666" lon="3.36192">
        <ele>133.5</ele>
        <time>2023-05-13T15:13:43.000Z</time>
      </trkpt>
      <trkpt lat="43.57656" lon="3.36201">
        <ele>132.8</ele>
        <time>2023-05-13T15:13:46.000Z</time>
      </trkpt>
      <trkpt lat="43.57648" lon="3.36209">
        <ele>132.3</ele>
        <time>2023-05-13T15:13:48.000Z</time>
      </trkpt>
      <trkpt lat="43.5764" lon="3.36218">
        <ele>131.9</ele>
        <time>2023-05-13T15:13:50.000Z</time>
      </trkpt>
      <trkpt lat="43.5763" lon="3.36228">
        <ele>131.5</ele>
        <time>2023-05-13T15:13:52.000Z</time>
      </trkpt>
      <trkpt lat="43.57621" lon="3.36241">
        <ele>131</ele>
        <time>2023-05-13T15:13:54.000Z</time>
      </trkpt>
      <trkpt lat="43.5761" lon="3.36252">
        <ele>130.5</ele>
        <time>2023-05-13T15:13:56.000Z</time>
      </trkpt>
      <trkpt lat="43.57599" lon="3.36265">
        <ele>129.9</ele>
        <time>2023-05-13T15:13:58.000Z</time>
      </trkpt>
      <trkpt lat="43.57588" lon="3.36279">
        <ele>129.3</ele>
        <time>2023-05-13T15:14:00.000Z</time>
      </trkpt>
      <trkpt lat="43.57582" lon="3.363">
        <ele>128.6</ele>
        <time>2023-05-13T15:14:02.000Z</time>
      </trkpt>
      <trkpt lat="43.57582" lon="3.36322">
        <ele>127.8</ele>
        <time>2023-05-13T15:14:04.000Z</time>
      </trkpt>
      <trkpt lat="43.57581" lon="3.36345">
        <ele>126.8</ele>
        <time>2023-05-13T15:14:06.000Z</time>
      </trkpt>
      <trkpt lat="43.5758" lon="3.36364">
        <ele>125.6</ele>
        <time>2023-05-13T15:14:08.000Z</time>
      </trkpt>
      <trkpt lat="43.57576" lon="3.36376">
        <ele>122.5</ele>
        <time>2023-05-13T15:14:14.000Z</time>
      </trkpt>
      <trkpt lat="43.57567" lon="3.36378">
        <ele>121.8</ele>
        <time>2023-05-13T15:14:17.000Z</time>
      </trkpt>
      <trkpt lat="43.57558" lon="3.36377">
        <ele>121.5</ele>
        <time>2023-05-13T15:14:19.000Z</time>
      </trkpt>
      <trkpt lat="43.57548" lon="3.36375">
        <ele>121.2</ele>
        <time>2023-05-13T15:14:21.000Z</time>
      </trkpt>
      <trkpt lat="43.57537" lon="3.36372">
        <ele>121.1</ele>
        <time>2023-05-13T15:14:23.000Z</time>
      </trkpt>
      <trkpt lat="43.57526" lon="3.36369">
        <ele>120.9</ele>
        <time>2023-05-13T15:14:25.000Z</time>
      </trkpt>
      <trkpt lat="43.57514" lon="3.36367">
        <ele>120.7</ele>
        <time>2023-05-13T15:14:27.000Z</time>
      </trkpt>
      <trkpt lat="43.57503" lon="3.36367">
        <ele>120.6</ele>
        <time>2023-05-13T15:14:29.000Z</time>
      </trkpt>
      <trkpt lat="43.57492" lon="3.36364">
        <ele>120.4</ele>
        <time>2023-05-13T15:14:31.000Z</time>
      </trkpt>
      <trkpt lat="43.57482" lon="3.3636">
        <ele>120.3</ele>
        <time>2023-05-13T15:14:33.000Z</time>
      </trkpt>
      <trkpt lat="43.5747" lon="3.36358">
        <ele>120.2</ele>
        <time>2023-05-13T15:14:35.000Z</time>
      </trkpt>
      <trkpt lat="43.57458" lon="3.36356">
        <ele>120</ele>
        <time>2023-05-13T15:14:37.000Z</time>
      </trkpt>
      <trkpt lat="43.57447" lon="3.36354">
        <ele>119.9</ele>
        <time>2023-05-13T15:14:39.000Z</time>
      </trkpt>
      <trkpt lat="43.57435" lon="3.36353">
        <ele>119.8</ele>
        <time>2023-05-13T15:14:41.000Z</time>
      </trkpt>
      <trkpt lat="43.57423" lon="3.36354">
        <ele>119.7</ele>
        <time>2023-05-13T15:14:43.000Z</time>
      </trkpt>
      <trkpt lat="43.57411" lon="3.36358">
        <ele>119.6</ele>
        <time>2023-05-13T15:14:45.000Z</time>
      </trkpt>
      <trkpt lat="43.57399" lon="3.36362">
        <ele>119.4</ele>
        <time>2023-05-13T15:14:47.000Z</time>
      </trkpt>
      <trkpt lat="43.57386" lon="3.36366">
        <ele>119.3</ele>
        <time>2023-05-13T15:14:49.000Z</time>
      </trkpt>
      <trkpt lat="43.57374" lon="3.3637">
        <ele>119.2</ele>
        <time>2023-05-13T15:14:51.000Z</time>
      </trkpt>
      <trkpt lat="43.57362" lon="3.36371">
        <ele>119</ele>
        <time>2023-05-13T15:14:53.000Z</time>
      </trkpt>
      <trkpt lat="43.5735" lon="3.36368">
        <ele>118.8</ele>
        <time>2023-05-13T15:14:55.000Z</time>
      </trkpt>
      <trkpt lat="43.57341" lon="3.36357">
        <ele>118.6</ele>
        <time>2023-05-13T15:14:57.000Z</time>
      </trkpt>
      <trkpt lat="43.57335" lon="3.36344">
        <ele>118.6</ele>
        <time>2023-05-13T15:14:59.000Z</time>
      </trkpt>
      <trkpt lat="43.57326" lon="3.36337">
        <ele>118.5</ele>
        <time>2023-05-13T15:15:01.000Z</time>
      </trkpt>
      <trkpt lat="43.57316" lon="3.36337">
        <ele>118.3</ele>
        <time>2023-05-13T15:15:03.000Z</time>
      </trkpt>
      <trkpt lat="43.57307" lon="3.36339">
        <ele>118.2</ele>
        <time>2023-05-13T15:15:05.000Z</time>
      </trkpt>
      <trkpt lat="43.57295" lon="3.3634">
        <ele>118</ele>
        <time>2023-05-13T15:15:08.000Z</time>
      </trkpt>
      <trkpt lat="43.5729" lon="3.36352">
        <ele>117.8</ele>
        <time>2023-05-13T15:15:12.000Z</time>
      </trkpt>
      <trkpt lat="43.57296" lon="3.36361">
        <ele>117.5</ele>
        <time>2023-05-13T15:15:16.000Z</time>
      </trkpt>
      <trkpt lat="43.57297" lon="3.36363">
        <ele>117.4</ele>
        <time>2023-05-13T15:15:19.000Z</time>
      </trkpt>
      <trkpt lat="43.57297" lon="3.36363">
        <ele>117.2</ele>
        <time>2023-05-13T15:15:23.000Z</time>
      </trkpt>
      <trkpt lat="43.57297" lon="3.36363">
        <ele>117.2</ele>
        <time>2023-05-13T15:15:24.000Z</time>
      </trkpt>
      <trkpt lat="43.57297" lon="3.36363">
        <ele>116.6</ele>
        <time>2023-05-13T15:15:48.000Z</time>
      </trkpt>
      <trkpt lat="43.57297" lon="3.36363">
        <ele>116.5</ele>
        <time>2023-05-13T15:15:49.000Z</time>
      </trkpt>
      <trkpt lat="43.57297" lon="3.36363">
        <ele>116.5</ele>
        <time>2023-05-13T15:16:07.000Z</time>
      </trkpt>
      <trkpt lat="43.57297" lon="3.36363">
        <ele>116.5</ele>
        <time>2023-05-13T15:16:07.000Z</time>
      </trkpt>
    </trkseg>
  </trk>
</gpx>